<?xml version="1.0" encoding="UTF-8" standalone="no" ?>
<gpx xmlns="http://www.topografix.com/GPX/1/1" xmlns:xsi="http://www.w3.org/2001/XMLSchema-instance" xsi:schemaLocation="http://www.topografix.com/GPX/1/1 http://www.topografix.com/GPX/1/1/gpx.xsd" version="1.1" creator="VisuGPX - https://www.visugpx.com">
  <metadata>
    <name>Champagnat Cyclisme sur route</name>
  </metadata>
  <trk>
    <name><![CDATA[Champagnat Cyclisme sur route_1]]></name>
    <trkseg>
      <trkpt lat="46.48279" lon="5.36833">
        <ele>270</ele>
        <time>2021-11-01T11:15:34Z</time>
      </trkpt>
      <trkpt lat="46.48261" lon="5.3681">
        <ele>268.8</ele>
        <time>2021-11-01T11:15:36Z</time>
      </trkpt>
      <trkpt lat="46.48251" lon="5.36801">
        <ele>268.2</ele>
        <time>2021-11-01T11:15:37Z</time>
      </trkpt>
      <trkpt lat="46.4824" lon="5.36792">
        <ele>266.4</ele>
        <time>2021-11-01T11:15:38Z</time>
      </trkpt>
      <trkpt lat="46.4823" lon="5.36784">
        <ele>265</ele>
        <time>2021-11-01T11:15:39Z</time>
      </trkpt>
      <trkpt lat="46.48209" lon="5.36768">
        <ele>263.2</ele>
        <time>2021-11-01T11:15:41Z</time>
      </trkpt>
      <trkpt lat="46.48189" lon="5.36751">
        <ele>261.4</ele>
        <time>2021-11-01T11:15:43Z</time>
      </trkpt>
      <trkpt lat="46.4816" lon="5.36727">
        <ele>259.2</ele>
        <time>2021-11-01T11:15:46Z</time>
      </trkpt>
      <trkpt lat="46.48141" lon="5.36711">
        <ele>257.6</ele>
        <time>2021-11-01T11:15:48Z</time>
      </trkpt>
      <trkpt lat="46.48133" lon="5.36705">
        <ele>257.4</ele>
        <time>2021-11-01T11:15:49Z</time>
      </trkpt>
      <trkpt lat="46.48115" lon="5.36689">
        <ele>256.2</ele>
        <time>2021-11-01T11:15:52Z</time>
      </trkpt>
      <trkpt lat="46.48113" lon="5.36677">
        <ele>255.6</ele>
        <time>2021-11-01T11:15:54Z</time>
      </trkpt>
      <trkpt lat="46.48114" lon="5.36671">
        <ele>255.2</ele>
        <time>2021-11-01T11:15:55Z</time>
      </trkpt>
      <trkpt lat="46.48118" lon="5.36665">
        <ele>255</ele>
        <time>2021-11-01T11:15:56Z</time>
      </trkpt>
      <trkpt lat="46.48123" lon="5.3666">
        <ele>254.8</ele>
        <time>2021-11-01T11:15:57Z</time>
      </trkpt>
      <trkpt lat="46.48142" lon="5.36643">
        <ele>254</ele>
        <time>2021-11-01T11:16:00Z</time>
      </trkpt>
      <trkpt lat="46.48148" lon="5.3664">
        <ele>253.8</ele>
        <time>2021-11-01T11:16:01Z</time>
      </trkpt>
      <trkpt lat="46.48168" lon="5.36625">
        <ele>253</ele>
        <time>2021-11-01T11:16:04Z</time>
      </trkpt>
      <trkpt lat="46.48181" lon="5.3661">
        <ele>252.6</ele>
        <time>2021-11-01T11:16:06Z</time>
      </trkpt>
      <trkpt lat="46.48195" lon="5.36603">
        <ele>252.4</ele>
        <time>2021-11-01T11:16:08Z</time>
      </trkpt>
      <trkpt lat="46.48209" lon="5.36596">
        <ele>252.2</ele>
        <time>2021-11-01T11:16:10Z</time>
      </trkpt>
      <trkpt lat="46.48221" lon="5.36581">
        <ele>252</ele>
        <time>2021-11-01T11:16:12Z</time>
      </trkpt>
      <trkpt lat="46.48224" lon="5.36572">
        <ele>251.8</ele>
        <time>2021-11-01T11:16:13Z</time>
      </trkpt>
      <trkpt lat="46.48226" lon="5.36562">
        <ele>251.6</ele>
        <time>2021-11-01T11:16:14Z</time>
      </trkpt>
      <trkpt lat="46.48235" lon="5.36546">
        <ele>251.4</ele>
        <time>2021-11-01T11:16:16Z</time>
      </trkpt>
      <trkpt lat="46.48252" lon="5.36528">
        <ele>250.8</ele>
        <time>2021-11-01T11:16:19Z</time>
      </trkpt>
      <trkpt lat="46.48269" lon="5.3651">
        <ele>250.4</ele>
        <time>2021-11-01T11:16:22Z</time>
      </trkpt>
      <trkpt lat="46.48294" lon="5.36483">
        <ele>249.6</ele>
        <time>2021-11-01T11:16:26Z</time>
      </trkpt>
      <trkpt lat="46.48326" lon="5.36447">
        <ele>248.6</ele>
        <time>2021-11-01T11:16:31Z</time>
      </trkpt>
      <trkpt lat="46.48354" lon="5.36418">
        <ele>247.4</ele>
        <time>2021-11-01T11:16:35Z</time>
      </trkpt>
      <trkpt lat="46.48382" lon="5.36387">
        <ele>246.2</ele>
        <time>2021-11-01T11:16:39Z</time>
      </trkpt>
      <trkpt lat="46.48403" lon="5.36366">
        <ele>245.6</ele>
        <time>2021-11-01T11:16:42Z</time>
      </trkpt>
      <trkpt lat="46.48411" lon="5.3636">
        <ele>245.2</ele>
        <time>2021-11-01T11:16:43Z</time>
      </trkpt>
      <trkpt lat="46.48435" lon="5.3635">
        <ele>245</ele>
        <time>2021-11-01T11:16:46Z</time>
      </trkpt>
      <trkpt lat="46.48485" lon="5.36341">
        <ele>244.4</ele>
        <time>2021-11-01T11:16:52Z</time>
      </trkpt>
      <trkpt lat="46.48501" lon="5.36338">
        <ele>244.2</ele>
        <time>2021-11-01T11:16:54Z</time>
      </trkpt>
      <trkpt lat="46.48556" lon="5.3633">
        <ele>244</ele>
        <time>2021-11-01T11:17:01Z</time>
      </trkpt>
      <trkpt lat="46.48573" lon="5.36326">
        <ele>244</ele>
        <time>2021-11-01T11:17:03Z</time>
      </trkpt>
      <trkpt lat="46.48614" lon="5.3632">
        <ele>243.2</ele>
        <time>2021-11-01T11:17:08Z</time>
      </trkpt>
      <trkpt lat="46.48626" lon="5.36307">
        <ele>242.4</ele>
        <time>2021-11-01T11:17:10Z</time>
      </trkpt>
      <trkpt lat="46.48631" lon="5.36297">
        <ele>242</ele>
        <time>2021-11-01T11:17:11Z</time>
      </trkpt>
      <trkpt lat="46.48633" lon="5.36285">
        <ele>241.8</ele>
        <time>2021-11-01T11:17:12Z</time>
      </trkpt>
      <trkpt lat="46.48638" lon="5.36247">
        <ele>240.6</ele>
        <time>2021-11-01T11:17:15Z</time>
      </trkpt>
      <trkpt lat="46.4864" lon="5.3622">
        <ele>239.4</ele>
        <time>2021-11-01T11:17:17Z</time>
      </trkpt>
      <trkpt lat="46.48643" lon="5.36182">
        <ele>238.2</ele>
        <time>2021-11-01T11:17:20Z</time>
      </trkpt>
      <trkpt lat="46.48646" lon="5.36143">
        <ele>237.8</ele>
        <time>2021-11-01T11:17:23Z</time>
      </trkpt>
      <trkpt lat="46.48656" lon="5.36096">
        <ele>237.4</ele>
        <time>2021-11-01T11:17:27Z</time>
      </trkpt>
      <trkpt lat="46.48663" lon="5.36062">
        <ele>237</ele>
        <time>2021-11-01T11:17:30Z</time>
      </trkpt>
      <trkpt lat="46.48673" lon="5.36014">
        <ele>237.2</ele>
        <time>2021-11-01T11:17:35Z</time>
      </trkpt>
      <trkpt lat="46.48681" lon="5.35971">
        <ele>238.4</ele>
        <time>2021-11-01T11:17:40Z</time>
      </trkpt>
      <trkpt lat="46.48683" lon="5.35962">
        <ele>238.6</ele>
        <time>2021-11-01T11:17:41Z</time>
      </trkpt>
      <trkpt lat="46.48688" lon="5.35922">
        <ele>239</ele>
        <time>2021-11-01T11:17:45Z</time>
      </trkpt>
      <trkpt lat="46.48691" lon="5.35912">
        <ele>239</ele>
        <time>2021-11-01T11:17:46Z</time>
      </trkpt>
      <trkpt lat="46.48694" lon="5.35902">
        <ele>239</ele>
        <time>2021-11-01T11:17:47Z</time>
      </trkpt>
      <trkpt lat="46.48709" lon="5.35862">
        <ele>238.8</ele>
        <time>2021-11-01T11:17:51Z</time>
      </trkpt>
      <trkpt lat="46.48738" lon="5.35793">
        <ele>237.6</ele>
        <time>2021-11-01T11:17:58Z</time>
      </trkpt>
      <trkpt lat="46.48743" lon="5.35784">
        <ele>237.4</ele>
        <time>2021-11-01T11:17:59Z</time>
      </trkpt>
      <trkpt lat="46.48747" lon="5.35774">
        <ele>237.2</ele>
        <time>2021-11-01T11:18:00Z</time>
      </trkpt>
      <trkpt lat="46.48763" lon="5.35736">
        <ele>236.2</ele>
        <time>2021-11-01T11:18:04Z</time>
      </trkpt>
      <trkpt lat="46.48779" lon="5.35699">
        <ele>236</ele>
        <time>2021-11-01T11:18:08Z</time>
      </trkpt>
      <trkpt lat="46.48809" lon="5.35629">
        <ele>236.2</ele>
        <time>2021-11-01T11:18:16Z</time>
      </trkpt>
      <trkpt lat="46.48832" lon="5.35578">
        <ele>236.4</ele>
        <time>2021-11-01T11:18:22Z</time>
      </trkpt>
      <trkpt lat="46.48837" lon="5.35572">
        <ele>236.4</ele>
        <time>2021-11-01T11:18:23Z</time>
      </trkpt>
      <trkpt lat="46.48843" lon="5.35567">
        <ele>236.4</ele>
        <time>2021-11-01T11:18:24Z</time>
      </trkpt>
      <trkpt lat="46.48857" lon="5.35562">
        <ele>236.2</ele>
        <time>2021-11-01T11:18:26Z</time>
      </trkpt>
      <trkpt lat="46.48894" lon="5.3556">
        <ele>236</ele>
        <time>2021-11-01T11:18:31Z</time>
      </trkpt>
      <trkpt lat="46.48925" lon="5.35559">
        <ele>235.4</ele>
        <time>2021-11-01T11:18:35Z</time>
      </trkpt>
      <trkpt lat="46.48967" lon="5.35557">
        <ele>234.4</ele>
        <time>2021-11-01T11:18:40Z</time>
      </trkpt>
      <trkpt lat="46.48975" lon="5.35556">
        <ele>234.2</ele>
        <time>2021-11-01T11:18:41Z</time>
      </trkpt>
      <trkpt lat="46.49023" lon="5.35554">
        <ele>233.2</ele>
        <time>2021-11-01T11:18:47Z</time>
      </trkpt>
      <trkpt lat="46.49073" lon="5.3555">
        <ele>233.2</ele>
        <time>2021-11-01T11:18:54Z</time>
      </trkpt>
      <trkpt lat="46.49109" lon="5.35549">
        <ele>234.2</ele>
        <time>2021-11-01T11:19:00Z</time>
      </trkpt>
      <trkpt lat="46.4912" lon="5.35548">
        <ele>234.6</ele>
        <time>2021-11-01T11:19:02Z</time>
      </trkpt>
      <trkpt lat="46.49152" lon="5.35548">
        <ele>235.4</ele>
        <time>2021-11-01T11:19:08Z</time>
      </trkpt>
      <trkpt lat="46.49157" lon="5.35547">
        <ele>235.8</ele>
        <time>2021-11-01T11:19:09Z</time>
      </trkpt>
      <trkpt lat="46.49171" lon="5.35546">
        <ele>236.2</ele>
        <time>2021-11-01T11:19:12Z</time>
      </trkpt>
      <trkpt lat="46.49176" lon="5.35546">
        <ele>236.4</ele>
        <time>2021-11-01T11:19:13Z</time>
      </trkpt>
      <trkpt lat="46.49191" lon="5.35545">
        <ele>237</ele>
        <time>2021-11-01T11:19:16Z</time>
      </trkpt>
      <trkpt lat="46.49219" lon="5.35541">
        <ele>237.2</ele>
        <time>2021-11-01T11:19:20Z</time>
      </trkpt>
      <trkpt lat="46.4925" lon="5.3554">
        <ele>237.4</ele>
        <time>2021-11-01T11:19:24Z</time>
      </trkpt>
      <trkpt lat="46.49266" lon="5.3554">
        <ele>237.4</ele>
        <time>2021-11-01T11:19:26Z</time>
      </trkpt>
      <trkpt lat="46.49295" lon="5.35537">
        <ele>237.4</ele>
        <time>2021-11-01T11:19:30Z</time>
      </trkpt>
      <trkpt lat="46.49301" lon="5.35536">
        <ele>237.2</ele>
        <time>2021-11-01T11:19:31Z</time>
      </trkpt>
      <trkpt lat="46.4934" lon="5.35538">
        <ele>237</ele>
        <time>2021-11-01T11:19:36Z</time>
      </trkpt>
      <trkpt lat="46.4938" lon="5.35537">
        <ele>236.4</ele>
        <time>2021-11-01T11:19:41Z</time>
      </trkpt>
      <trkpt lat="46.49396" lon="5.35541">
        <ele>236.2</ele>
        <time>2021-11-01T11:19:43Z</time>
      </trkpt>
      <trkpt lat="46.49453" lon="5.35565">
        <ele>235.2</ele>
        <time>2021-11-01T11:19:51Z</time>
      </trkpt>
      <trkpt lat="46.4946" lon="5.35568">
        <ele>235.2</ele>
        <time>2021-11-01T11:19:52Z</time>
      </trkpt>
      <trkpt lat="46.49467" lon="5.3557">
        <ele>235.2</ele>
        <time>2021-11-01T11:19:53Z</time>
      </trkpt>
      <trkpt lat="46.49525" lon="5.35594">
        <ele>234.8</ele>
        <time>2021-11-01T11:20:01Z</time>
      </trkpt>
      <trkpt lat="46.49579" lon="5.35614">
        <ele>234</ele>
        <time>2021-11-01T11:20:08Z</time>
      </trkpt>
      <trkpt lat="46.49595" lon="5.35619">
        <ele>233.6</ele>
        <time>2021-11-01T11:20:10Z</time>
      </trkpt>
      <trkpt lat="46.49634" lon="5.35631">
        <ele>232.8</ele>
        <time>2021-11-01T11:20:16Z</time>
      </trkpt>
      <trkpt lat="46.49671" lon="5.35641">
        <ele>231.8</ele>
        <time>2021-11-01T11:20:21Z</time>
      </trkpt>
      <trkpt lat="46.49683" lon="5.35646">
        <ele>231.4</ele>
        <time>2021-11-01T11:20:23Z</time>
      </trkpt>
      <trkpt lat="46.49693" lon="5.35648">
        <ele>231</ele>
        <time>2021-11-01T11:20:26Z</time>
      </trkpt>
      <trkpt lat="46.49698" lon="5.35644">
        <ele>230.8</ele>
        <time>2021-11-01T11:20:28Z</time>
      </trkpt>
      <trkpt lat="46.497" lon="5.35639">
        <ele>230.6</ele>
        <time>2021-11-01T11:20:29Z</time>
      </trkpt>
      <trkpt lat="46.49701" lon="5.35632">
        <ele>230.6</ele>
        <time>2021-11-01T11:20:30Z</time>
      </trkpt>
      <trkpt lat="46.49703" lon="5.3561">
        <ele>230.4</ele>
        <time>2021-11-01T11:20:33Z</time>
      </trkpt>
      <trkpt lat="46.4971" lon="5.35563">
        <ele>230</ele>
        <time>2021-11-01T11:20:38Z</time>
      </trkpt>
      <trkpt lat="46.49713" lon="5.35543">
        <ele>229.8</ele>
        <time>2021-11-01T11:20:40Z</time>
      </trkpt>
      <trkpt lat="46.49721" lon="5.35484">
        <ele>229.4</ele>
        <time>2021-11-01T11:20:46Z</time>
      </trkpt>
      <trkpt lat="46.49727" lon="5.35431">
        <ele>228.8</ele>
        <time>2021-11-01T11:20:51Z</time>
      </trkpt>
      <trkpt lat="46.49731" lon="5.35397">
        <ele>228.2</ele>
        <time>2021-11-01T11:20:54Z</time>
      </trkpt>
      <trkpt lat="46.49733" lon="5.35351">
        <ele>227.8</ele>
        <time>2021-11-01T11:20:58Z</time>
      </trkpt>
      <trkpt lat="46.49733" lon="5.35339">
        <ele>227.8</ele>
        <time>2021-11-01T11:20:59Z</time>
      </trkpt>
      <trkpt lat="46.49732" lon="5.35328">
        <ele>227.6</ele>
        <time>2021-11-01T11:21:00Z</time>
      </trkpt>
      <trkpt lat="46.49723" lon="5.35279">
        <ele>227.6</ele>
        <time>2021-11-01T11:21:05Z</time>
      </trkpt>
      <trkpt lat="46.49711" lon="5.35225">
        <ele>228.4</ele>
        <time>2021-11-01T11:21:11Z</time>
      </trkpt>
      <trkpt lat="46.49696" lon="5.35151">
        <ele>228.8</ele>
        <time>2021-11-01T11:21:19Z</time>
      </trkpt>
      <trkpt lat="46.49694" lon="5.35141">
        <ele>228.6</ele>
        <time>2021-11-01T11:21:20Z</time>
      </trkpt>
      <trkpt lat="46.49688" lon="5.3511">
        <ele>228.4</ele>
        <time>2021-11-01T11:21:23Z</time>
      </trkpt>
      <trkpt lat="46.49674" lon="5.35041">
        <ele>228</ele>
        <time>2021-11-01T11:21:30Z</time>
      </trkpt>
      <trkpt lat="46.49663" lon="5.34982">
        <ele>228.6</ele>
        <time>2021-11-01T11:21:37Z</time>
      </trkpt>
      <trkpt lat="46.49661" lon="5.34975">
        <ele>228.8</ele>
        <time>2021-11-01T11:21:38Z</time>
      </trkpt>
      <trkpt lat="46.49656" lon="5.34953">
        <ele>229.6</ele>
        <time>2021-11-01T11:21:41Z</time>
      </trkpt>
      <trkpt lat="46.49654" lon="5.34938">
        <ele>229.8</ele>
        <time>2021-11-01T11:21:43Z</time>
      </trkpt>
      <trkpt lat="46.49646" lon="5.34895">
        <ele>230.6</ele>
        <time>2021-11-01T11:21:48Z</time>
      </trkpt>
      <trkpt lat="46.49634" lon="5.34833">
        <ele>230.4</ele>
        <time>2021-11-01T11:21:55Z</time>
      </trkpt>
      <trkpt lat="46.49626" lon="5.34761">
        <ele>230</ele>
        <time>2021-11-01T11:22:02Z</time>
      </trkpt>
      <trkpt lat="46.49629" lon="5.34699">
        <ele>228.4</ele>
        <time>2021-11-01T11:22:07Z</time>
      </trkpt>
      <trkpt lat="46.49632" lon="5.34659">
        <ele>227</ele>
        <time>2021-11-01T11:22:10Z</time>
      </trkpt>
      <trkpt lat="46.49636" lon="5.34631">
        <ele>226.2</ele>
        <time>2021-11-01T11:22:12Z</time>
      </trkpt>
      <trkpt lat="46.49637" lon="5.34617">
        <ele>226</ele>
        <time>2021-11-01T11:22:13Z</time>
      </trkpt>
      <trkpt lat="46.49643" lon="5.34575">
        <ele>224.8</ele>
        <time>2021-11-01T11:22:16Z</time>
      </trkpt>
      <trkpt lat="46.49648" lon="5.34548">
        <ele>223.8</ele>
        <time>2021-11-01T11:22:18Z</time>
      </trkpt>
      <trkpt lat="46.4965" lon="5.34535">
        <ele>223.4</ele>
        <time>2021-11-01T11:22:19Z</time>
      </trkpt>
      <trkpt lat="46.49662" lon="5.34489">
        <ele>222.8</ele>
        <time>2021-11-01T11:22:23Z</time>
      </trkpt>
      <trkpt lat="46.49678" lon="5.34432">
        <ele>223.6</ele>
        <time>2021-11-01T11:22:29Z</time>
      </trkpt>
      <trkpt lat="46.4969" lon="5.34389">
        <ele>224.6</ele>
        <time>2021-11-01T11:22:34Z</time>
      </trkpt>
      <trkpt lat="46.49692" lon="5.34381">
        <ele>224.6</ele>
        <time>2021-11-01T11:22:35Z</time>
      </trkpt>
      <trkpt lat="46.49702" lon="5.34354">
        <ele>225.6</ele>
        <time>2021-11-01T11:22:39Z</time>
      </trkpt>
      <trkpt lat="46.49704" lon="5.34347">
        <ele>226</ele>
        <time>2021-11-01T11:22:40Z</time>
      </trkpt>
      <trkpt lat="46.49717" lon="5.34312">
        <ele>227.2</ele>
        <time>2021-11-01T11:22:45Z</time>
      </trkpt>
      <trkpt lat="46.49724" lon="5.34296">
        <ele>227.6</ele>
        <time>2021-11-01T11:22:47Z</time>
      </trkpt>
      <trkpt lat="46.49751" lon="5.34248">
        <ele>227.8</ele>
        <time>2021-11-01T11:22:53Z</time>
      </trkpt>
      <trkpt lat="46.49785" lon="5.34187">
        <ele>227.6</ele>
        <time>2021-11-01T11:23:01Z</time>
      </trkpt>
      <trkpt lat="46.49793" lon="5.34172">
        <ele>228</ele>
        <time>2021-11-01T11:23:03Z</time>
      </trkpt>
      <trkpt lat="46.49831" lon="5.34109">
        <ele>228.4</ele>
        <time>2021-11-01T11:23:12Z</time>
      </trkpt>
      <trkpt lat="46.4984" lon="5.34095">
        <ele>228.4</ele>
        <time>2021-11-01T11:23:14Z</time>
      </trkpt>
      <trkpt lat="46.4987" lon="5.34052">
        <ele>228</ele>
        <time>2021-11-01T11:23:20Z</time>
      </trkpt>
      <trkpt lat="46.49917" lon="5.34001">
        <ele>228.2</ele>
        <time>2021-11-01T11:23:29Z</time>
      </trkpt>
      <trkpt lat="46.49948" lon="5.33966">
        <ele>229.4</ele>
        <time>2021-11-01T11:23:36Z</time>
      </trkpt>
      <trkpt lat="46.49953" lon="5.33961">
        <ele>229.6</ele>
        <time>2021-11-01T11:23:37Z</time>
      </trkpt>
      <trkpt lat="46.49974" lon="5.33937">
        <ele>230.4</ele>
        <time>2021-11-01T11:23:42Z</time>
      </trkpt>
      <trkpt lat="46.49979" lon="5.33932">
        <ele>230.4</ele>
        <time>2021-11-01T11:23:43Z</time>
      </trkpt>
      <trkpt lat="46.49984" lon="5.33927">
        <ele>230.6</ele>
        <time>2021-11-01T11:23:44Z</time>
      </trkpt>
      <trkpt lat="46.49989" lon="5.33923">
        <ele>230.6</ele>
        <time>2021-11-01T11:23:45Z</time>
      </trkpt>
      <trkpt lat="46.49994" lon="5.33918">
        <ele>230.8</ele>
        <time>2021-11-01T11:23:46Z</time>
      </trkpt>
      <trkpt lat="46.50022" lon="5.33888">
        <ele>231</ele>
        <time>2021-11-01T11:23:51Z</time>
      </trkpt>
      <trkpt lat="46.50069" lon="5.33836">
        <ele>230.6</ele>
        <time>2021-11-01T11:23:59Z</time>
      </trkpt>
      <trkpt lat="46.50082" lon="5.33822">
        <ele>230.2</ele>
        <time>2021-11-01T11:24:01Z</time>
      </trkpt>
      <trkpt lat="46.50102" lon="5.33801">
        <ele>229.2</ele>
        <time>2021-11-01T11:24:04Z</time>
      </trkpt>
      <trkpt lat="46.50126" lon="5.33774">
        <ele>228.6</ele>
        <time>2021-11-01T11:24:08Z</time>
      </trkpt>
      <trkpt lat="46.50167" lon="5.3373">
        <ele>228.6</ele>
        <time>2021-11-01T11:24:15Z</time>
      </trkpt>
      <trkpt lat="46.50205" lon="5.33689">
        <ele>229</ele>
        <time>2021-11-01T11:24:22Z</time>
      </trkpt>
      <trkpt lat="46.50249" lon="5.3364">
        <ele>228.8</ele>
        <time>2021-11-01T11:24:30Z</time>
      </trkpt>
      <trkpt lat="46.50278" lon="5.33609">
        <ele>228.2</ele>
        <time>2021-11-01T11:24:35Z</time>
      </trkpt>
      <trkpt lat="46.50284" lon="5.33603">
        <ele>228.2</ele>
        <time>2021-11-01T11:24:36Z</time>
      </trkpt>
      <trkpt lat="46.5033" lon="5.33553">
        <ele>227.6</ele>
        <time>2021-11-01T11:24:44Z</time>
      </trkpt>
      <trkpt lat="46.50365" lon="5.33516">
        <ele>227.2</ele>
        <time>2021-11-01T11:24:50Z</time>
      </trkpt>
      <trkpt lat="46.50376" lon="5.33503">
        <ele>227.2</ele>
        <time>2021-11-01T11:24:52Z</time>
      </trkpt>
      <trkpt lat="46.50413" lon="5.33464">
        <ele>226.6</ele>
        <time>2021-11-01T11:24:58Z</time>
      </trkpt>
      <trkpt lat="46.50425" lon="5.3345">
        <ele>226.2</ele>
        <time>2021-11-01T11:25:00Z</time>
      </trkpt>
      <trkpt lat="46.50436" lon="5.33435">
        <ele>226</ele>
        <time>2021-11-01T11:25:02Z</time>
      </trkpt>
      <trkpt lat="46.50454" lon="5.33398">
        <ele>225.4</ele>
        <time>2021-11-01T11:25:06Z</time>
      </trkpt>
      <trkpt lat="46.50457" lon="5.33388">
        <ele>225.4</ele>
        <time>2021-11-01T11:25:07Z</time>
      </trkpt>
      <trkpt lat="46.5046" lon="5.33377">
        <ele>225.2</ele>
        <time>2021-11-01T11:25:08Z</time>
      </trkpt>
      <trkpt lat="46.50461" lon="5.33367">
        <ele>224.8</ele>
        <time>2021-11-01T11:25:09Z</time>
      </trkpt>
      <trkpt lat="46.50463" lon="5.33345">
        <ele>224.6</ele>
        <time>2021-11-01T11:25:11Z</time>
      </trkpt>
      <trkpt lat="46.50463" lon="5.33304">
        <ele>224.4</ele>
        <time>2021-11-01T11:25:15Z</time>
      </trkpt>
      <trkpt lat="46.50463" lon="5.33295">
        <ele>224.4</ele>
        <time>2021-11-01T11:25:16Z</time>
      </trkpt>
      <trkpt lat="46.50461" lon="5.33236">
        <ele>224.8</ele>
        <time>2021-11-01T11:25:22Z</time>
      </trkpt>
      <trkpt lat="46.50461" lon="5.3317">
        <ele>225</ele>
        <time>2021-11-01T11:25:29Z</time>
      </trkpt>
      <trkpt lat="46.50463" lon="5.33114">
        <ele>224.6</ele>
        <time>2021-11-01T11:25:34Z</time>
      </trkpt>
      <trkpt lat="46.50463" lon="5.33102">
        <ele>224.6</ele>
        <time>2021-11-01T11:25:35Z</time>
      </trkpt>
      <trkpt lat="46.50465" lon="5.33063">
        <ele>224</ele>
        <time>2021-11-01T11:25:38Z</time>
      </trkpt>
      <trkpt lat="46.50466" lon="5.33036">
        <ele>222.8</ele>
        <time>2021-11-01T11:25:40Z</time>
      </trkpt>
      <trkpt lat="46.50468" lon="5.32996">
        <ele>221</ele>
        <time>2021-11-01T11:25:43Z</time>
      </trkpt>
      <trkpt lat="46.50469" lon="5.32964">
        <ele>220</ele>
        <time>2021-11-01T11:25:45Z</time>
      </trkpt>
      <trkpt lat="46.50469" lon="5.32949">
        <ele>220</ele>
        <time>2021-11-01T11:25:46Z</time>
      </trkpt>
      <trkpt lat="46.5047" lon="5.3292">
        <ele>218.4</ele>
        <time>2021-11-01T11:25:48Z</time>
      </trkpt>
      <trkpt lat="46.50471" lon="5.3289">
        <ele>217.2</ele>
        <time>2021-11-01T11:25:50Z</time>
      </trkpt>
      <trkpt lat="46.50472" lon="5.32861">
        <ele>216</ele>
        <time>2021-11-01T11:25:52Z</time>
      </trkpt>
      <trkpt lat="46.50472" lon="5.32831">
        <ele>215</ele>
        <time>2021-11-01T11:25:54Z</time>
      </trkpt>
      <trkpt lat="46.50472" lon="5.32817">
        <ele>214</ele>
        <time>2021-11-01T11:25:55Z</time>
      </trkpt>
      <trkpt lat="46.50473" lon="5.32774">
        <ele>212.8</ele>
        <time>2021-11-01T11:25:58Z</time>
      </trkpt>
      <trkpt lat="46.50475" lon="5.32722">
        <ele>211.8</ele>
        <time>2021-11-01T11:26:02Z</time>
      </trkpt>
      <trkpt lat="46.50475" lon="5.32711">
        <ele>211.6</ele>
        <time>2021-11-01T11:26:03Z</time>
      </trkpt>
      <trkpt lat="46.50476" lon="5.3262">
        <ele>211</ele>
        <time>2021-11-01T11:26:10Z</time>
      </trkpt>
      <trkpt lat="46.50473" lon="5.32538">
        <ele>210.6</ele>
        <time>2021-11-01T11:26:17Z</time>
      </trkpt>
      <trkpt lat="46.50467" lon="5.32457">
        <ele>210</ele>
        <time>2021-11-01T11:26:24Z</time>
      </trkpt>
      <trkpt lat="46.50464" lon="5.32434">
        <ele>209.8</ele>
        <time>2021-11-01T11:26:26Z</time>
      </trkpt>
      <trkpt lat="46.50456" lon="5.32387">
        <ele>209.6</ele>
        <time>2021-11-01T11:26:30Z</time>
      </trkpt>
      <trkpt lat="46.50446" lon="5.32345">
        <ele>209.4</ele>
        <time>2021-11-01T11:26:34Z</time>
      </trkpt>
      <trkpt lat="46.50433" lon="5.32274">
        <ele>209</ele>
        <time>2021-11-01T11:26:41Z</time>
      </trkpt>
      <trkpt lat="46.50431" lon="5.3221">
        <ele>208.8</ele>
        <time>2021-11-01T11:26:47Z</time>
      </trkpt>
      <trkpt lat="46.50432" lon="5.32188">
        <ele>208.6</ele>
        <time>2021-11-01T11:26:49Z</time>
      </trkpt>
      <trkpt lat="46.50433" lon="5.32108">
        <ele>207.8</ele>
        <time>2021-11-01T11:26:56Z</time>
      </trkpt>
      <trkpt lat="46.50434" lon="5.32097">
        <ele>207.6</ele>
        <time>2021-11-01T11:26:57Z</time>
      </trkpt>
      <trkpt lat="46.50434" lon="5.32086">
        <ele>207.4</ele>
        <time>2021-11-01T11:26:58Z</time>
      </trkpt>
      <trkpt lat="46.50435" lon="5.32005">
        <ele>206.4</ele>
        <time>2021-11-01T11:27:05Z</time>
      </trkpt>
      <trkpt lat="46.50436" lon="5.31994">
        <ele>206.4</ele>
        <time>2021-11-01T11:27:06Z</time>
      </trkpt>
      <trkpt lat="46.50436" lon="5.31949">
        <ele>206</ele>
        <time>2021-11-01T11:27:10Z</time>
      </trkpt>
      <trkpt lat="46.50437" lon="5.31885">
        <ele>205.2</ele>
        <time>2021-11-01T11:27:16Z</time>
      </trkpt>
      <trkpt lat="46.50435" lon="5.31864">
        <ele>205.2</ele>
        <time>2021-11-01T11:27:18Z</time>
      </trkpt>
      <trkpt lat="46.50421" lon="5.31796">
        <ele>205</ele>
        <time>2021-11-01T11:27:25Z</time>
      </trkpt>
      <trkpt lat="46.50405" lon="5.31741">
        <ele>205.2</ele>
        <time>2021-11-01T11:27:31Z</time>
      </trkpt>
      <trkpt lat="46.50401" lon="5.31734">
        <ele>205.2</ele>
        <time>2021-11-01T11:27:32Z</time>
      </trkpt>
      <trkpt lat="46.50383" lon="5.31693">
        <ele>205</ele>
        <time>2021-11-01T11:27:37Z</time>
      </trkpt>
      <trkpt lat="46.50358" lon="5.31658">
        <ele>204.6</ele>
        <time>2021-11-01T11:27:42Z</time>
      </trkpt>
      <trkpt lat="46.50351" lon="5.31652">
        <ele>204.4</ele>
        <time>2021-11-01T11:27:43Z</time>
      </trkpt>
      <trkpt lat="46.50345" lon="5.31647">
        <ele>204.4</ele>
        <time>2021-11-01T11:27:44Z</time>
      </trkpt>
      <trkpt lat="46.50301" lon="5.31614">
        <ele>203.8</ele>
        <time>2021-11-01T11:27:51Z</time>
      </trkpt>
      <trkpt lat="46.50254" lon="5.31573">
        <ele>203.6</ele>
        <time>2021-11-01T11:27:59Z</time>
      </trkpt>
      <trkpt lat="46.50225" lon="5.31534">
        <ele>204</ele>
        <time>2021-11-01T11:28:05Z</time>
      </trkpt>
      <trkpt lat="46.5021" lon="5.31501">
        <ele>204.4</ele>
        <time>2021-11-01T11:28:10Z</time>
      </trkpt>
      <trkpt lat="46.50208" lon="5.31495">
        <ele>204.6</ele>
        <time>2021-11-01T11:28:11Z</time>
      </trkpt>
      <trkpt lat="46.50201" lon="5.3147">
        <ele>205.6</ele>
        <time>2021-11-01T11:28:15Z</time>
      </trkpt>
      <trkpt lat="46.50194" lon="5.31448">
        <ele>206.6</ele>
        <time>2021-11-01T11:28:19Z</time>
      </trkpt>
      <trkpt lat="46.50186" lon="5.31425">
        <ele>208</ele>
        <time>2021-11-01T11:28:23Z</time>
      </trkpt>
      <trkpt lat="46.50185" lon="5.31419">
        <ele>208</ele>
        <time>2021-11-01T11:28:24Z</time>
      </trkpt>
      <trkpt lat="46.50177" lon="5.31397">
        <ele>209</ele>
        <time>2021-11-01T11:28:28Z</time>
      </trkpt>
      <trkpt lat="46.50175" lon="5.31392">
        <ele>209</ele>
        <time>2021-11-01T11:28:29Z</time>
      </trkpt>
      <trkpt lat="46.50172" lon="5.31383">
        <ele>209.2</ele>
        <time>2021-11-01T11:28:31Z</time>
      </trkpt>
      <trkpt lat="46.50166" lon="5.31367">
        <ele>210</ele>
        <time>2021-11-01T11:28:34Z</time>
      </trkpt>
      <trkpt lat="46.50156" lon="5.31337">
        <ele>210.8</ele>
        <time>2021-11-01T11:28:39Z</time>
      </trkpt>
      <trkpt lat="46.50151" lon="5.31324">
        <ele>211.2</ele>
        <time>2021-11-01T11:28:41Z</time>
      </trkpt>
      <trkpt lat="46.5014" lon="5.31292">
        <ele>211.8</ele>
        <time>2021-11-01T11:28:46Z</time>
      </trkpt>
      <trkpt lat="46.5012" lon="5.31233">
        <ele>211.8</ele>
        <time>2021-11-01T11:28:54Z</time>
      </trkpt>
      <trkpt lat="46.50099" lon="5.31173">
        <ele>210.8</ele>
        <time>2021-11-01T11:29:01Z</time>
      </trkpt>
      <trkpt lat="46.50089" lon="5.31145">
        <ele>210.2</ele>
        <time>2021-11-01T11:29:04Z</time>
      </trkpt>
      <trkpt lat="46.50083" lon="5.31125">
        <ele>209.8</ele>
        <time>2021-11-01T11:29:06Z</time>
      </trkpt>
      <trkpt lat="46.50065" lon="5.31075">
        <ele>209.4</ele>
        <time>2021-11-01T11:29:12Z</time>
      </trkpt>
      <trkpt lat="46.50052" lon="5.31035">
        <ele>210.4</ele>
        <time>2021-11-01T11:29:18Z</time>
      </trkpt>
      <trkpt lat="46.50043" lon="5.31007">
        <ele>211.4</ele>
        <time>2021-11-01T11:29:23Z</time>
      </trkpt>
      <trkpt lat="46.50039" lon="5.30997">
        <ele>212.2</ele>
        <time>2021-11-01T11:29:25Z</time>
      </trkpt>
      <trkpt lat="46.50037" lon="5.30992">
        <ele>212.4</ele>
        <time>2021-11-01T11:29:26Z</time>
      </trkpt>
      <trkpt lat="46.50028" lon="5.30965">
        <ele>213.4</ele>
        <time>2021-11-01T11:29:31Z</time>
      </trkpt>
      <trkpt lat="46.50023" lon="5.30951">
        <ele>214.2</ele>
        <time>2021-11-01T11:29:34Z</time>
      </trkpt>
      <trkpt lat="46.50019" lon="5.30941">
        <ele>214.8</ele>
        <time>2021-11-01T11:29:36Z</time>
      </trkpt>
      <trkpt lat="46.50013" lon="5.30922">
        <ele>215.8</ele>
        <time>2021-11-01T11:29:40Z</time>
      </trkpt>
      <trkpt lat="46.50007" lon="5.30906">
        <ele>216.4</ele>
        <time>2021-11-01T11:29:43Z</time>
      </trkpt>
      <trkpt lat="46.5" lon="5.30887">
        <ele>217.2</ele>
        <time>2021-11-01T11:29:47Z</time>
      </trkpt>
      <trkpt lat="46.49991" lon="5.30861">
        <ele>218.6</ele>
        <time>2021-11-01T11:29:52Z</time>
      </trkpt>
      <trkpt lat="46.49989" lon="5.30856">
        <ele>218.8</ele>
        <time>2021-11-01T11:29:53Z</time>
      </trkpt>
      <trkpt lat="46.49981" lon="5.30834">
        <ele>219.8</ele>
        <time>2021-11-01T11:29:57Z</time>
      </trkpt>
      <trkpt lat="46.49974" lon="5.30811">
        <ele>220.4</ele>
        <time>2021-11-01T11:30:01Z</time>
      </trkpt>
      <trkpt lat="46.49965" lon="5.30773">
        <ele>220.8</ele>
        <time>2021-11-01T11:30:07Z</time>
      </trkpt>
      <trkpt lat="46.49961" lon="5.30755">
        <ele>221</ele>
        <time>2021-11-01T11:30:10Z</time>
      </trkpt>
      <trkpt lat="46.49954" lon="5.30714">
        <ele>221.8</ele>
        <time>2021-11-01T11:30:16Z</time>
      </trkpt>
      <trkpt lat="46.49951" lon="5.30698">
        <ele>221.8</ele>
        <time>2021-11-01T11:30:18Z</time>
      </trkpt>
      <trkpt lat="46.49941" lon="5.30645">
        <ele>221.4</ele>
        <time>2021-11-01T11:30:24Z</time>
      </trkpt>
      <trkpt lat="46.49935" lon="5.30605">
        <ele>220.4</ele>
        <time>2021-11-01T11:30:28Z</time>
      </trkpt>
      <trkpt lat="46.49933" lon="5.30573">
        <ele>219.8</ele>
        <time>2021-11-01T11:30:31Z</time>
      </trkpt>
      <trkpt lat="46.49934" lon="5.3055">
        <ele>219.2</ele>
        <time>2021-11-01T11:30:33Z</time>
      </trkpt>
      <trkpt lat="46.49938" lon="5.30528">
        <ele>218.2</ele>
        <time>2021-11-01T11:30:35Z</time>
      </trkpt>
      <trkpt lat="46.4994" lon="5.30517">
        <ele>218</ele>
        <time>2021-11-01T11:30:36Z</time>
      </trkpt>
      <trkpt lat="46.49952" lon="5.30485">
        <ele>217.2</ele>
        <time>2021-11-01T11:30:39Z</time>
      </trkpt>
      <trkpt lat="46.49957" lon="5.30475">
        <ele>216.8</ele>
        <time>2021-11-01T11:30:40Z</time>
      </trkpt>
      <trkpt lat="46.49975" lon="5.30449">
        <ele>216</ele>
        <time>2021-11-01T11:30:43Z</time>
      </trkpt>
      <trkpt lat="46.49982" lon="5.30442">
        <ele>215.6</ele>
        <time>2021-11-01T11:30:44Z</time>
      </trkpt>
      <trkpt lat="46.50005" lon="5.30423">
        <ele>214.6</ele>
        <time>2021-11-01T11:30:47Z</time>
      </trkpt>
      <trkpt lat="46.50044" lon="5.30391">
        <ele>213.2</ele>
        <time>2021-11-01T11:30:52Z</time>
      </trkpt>
      <trkpt lat="46.5005" lon="5.30383">
        <ele>213</ele>
        <time>2021-11-01T11:30:53Z</time>
      </trkpt>
      <trkpt lat="46.50071" lon="5.30347">
        <ele>212.6</ele>
        <time>2021-11-01T11:30:57Z</time>
      </trkpt>
      <trkpt lat="46.50082" lon="5.30309">
        <ele>212.8</ele>
        <time>2021-11-01T11:31:01Z</time>
      </trkpt>
      <trkpt lat="46.50088" lon="5.30255">
        <ele>214</ele>
        <time>2021-11-01T11:31:07Z</time>
      </trkpt>
      <trkpt lat="46.50088" lon="5.30247">
        <ele>214.2</ele>
        <time>2021-11-01T11:31:08Z</time>
      </trkpt>
      <trkpt lat="46.50088" lon="5.30214">
        <ele>214.8</ele>
        <time>2021-11-01T11:31:12Z</time>
      </trkpt>
      <trkpt lat="46.50087" lon="5.30204">
        <ele>214.8</ele>
        <time>2021-11-01T11:31:13Z</time>
      </trkpt>
      <trkpt lat="46.50087" lon="5.30183">
        <ele>215</ele>
        <time>2021-11-01T11:31:15Z</time>
      </trkpt>
      <trkpt lat="46.50087" lon="5.30144">
        <ele>215.2</ele>
        <time>2021-11-01T11:31:19Z</time>
      </trkpt>
      <trkpt lat="46.50088" lon="5.30116">
        <ele>215.6</ele>
        <time>2021-11-01T11:31:22Z</time>
      </trkpt>
      <trkpt lat="46.50088" lon="5.30079">
        <ele>216.4</ele>
        <time>2021-11-01T11:31:26Z</time>
      </trkpt>
      <trkpt lat="46.50087" lon="5.30023">
        <ele>216.6</ele>
        <time>2021-11-01T11:31:32Z</time>
      </trkpt>
      <trkpt lat="46.50076" lon="5.29959">
        <ele>216.6</ele>
        <time>2021-11-01T11:31:39Z</time>
      </trkpt>
      <trkpt lat="46.50062" lon="5.29924">
        <ele>216.2</ele>
        <time>2021-11-01T11:31:43Z</time>
      </trkpt>
      <trkpt lat="46.5005" lon="5.29902">
        <ele>216</ele>
        <time>2021-11-01T11:31:46Z</time>
      </trkpt>
      <trkpt lat="46.50024" lon="5.29873">
        <ele>215.6</ele>
        <time>2021-11-01T11:31:51Z</time>
      </trkpt>
      <trkpt lat="46.50017" lon="5.29859">
        <ele>215.4</ele>
        <time>2021-11-01T11:31:53Z</time>
      </trkpt>
      <trkpt lat="46.50018" lon="5.29852">
        <ele>215.4</ele>
        <time>2021-11-01T11:31:54Z</time>
      </trkpt>
      <trkpt lat="46.50024" lon="5.2984">
        <ele>215.4</ele>
        <time>2021-11-01T11:31:56Z</time>
      </trkpt>
      <trkpt lat="46.50029" lon="5.29834">
        <ele>215.4</ele>
        <time>2021-11-01T11:31:57Z</time>
      </trkpt>
      <trkpt lat="46.50033" lon="5.29828">
        <ele>215.4</ele>
        <time>2021-11-01T11:31:58Z</time>
      </trkpt>
      <trkpt lat="46.50053" lon="5.29806">
        <ele>214.8</ele>
        <time>2021-11-01T11:32:02Z</time>
      </trkpt>
      <trkpt lat="46.50058" lon="5.29803">
        <ele>214.8</ele>
        <time>2021-11-01T11:32:03Z</time>
      </trkpt>
      <trkpt lat="46.50116" lon="5.29784">
        <ele>216</ele>
        <time>2021-11-01T11:32:13Z</time>
      </trkpt>
      <trkpt lat="46.50127" lon="5.2978">
        <ele>216.6</ele>
        <time>2021-11-01T11:32:15Z</time>
      </trkpt>
      <trkpt lat="46.50148" lon="5.29774">
        <ele>217.6</ele>
        <time>2021-11-01T11:32:19Z</time>
      </trkpt>
      <trkpt lat="46.50169" lon="5.29772">
        <ele>218.4</ele>
        <time>2021-11-01T11:32:23Z</time>
      </trkpt>
      <trkpt lat="46.5018" lon="5.29771">
        <ele>218.6</ele>
        <time>2021-11-01T11:32:25Z</time>
      </trkpt>
      <trkpt lat="46.50197" lon="5.29772">
        <ele>219.8</ele>
        <time>2021-11-01T11:32:28Z</time>
      </trkpt>
      <trkpt lat="46.5022" lon="5.29773">
        <ele>220.2</ele>
        <time>2021-11-01T11:32:32Z</time>
      </trkpt>
      <trkpt lat="46.50256" lon="5.29767">
        <ele>220.4</ele>
        <time>2021-11-01T11:32:38Z</time>
      </trkpt>
      <trkpt lat="46.50299" lon="5.29751">
        <ele>220.8</ele>
        <time>2021-11-01T11:32:45Z</time>
      </trkpt>
      <trkpt lat="46.50304" lon="5.29748">
        <ele>220.8</ele>
        <time>2021-11-01T11:32:46Z</time>
      </trkpt>
      <trkpt lat="46.50361" lon="5.29725">
        <ele>221.8</ele>
        <time>2021-11-01T11:32:56Z</time>
      </trkpt>
      <trkpt lat="46.50373" lon="5.2972">
        <ele>222</ele>
        <time>2021-11-01T11:32:58Z</time>
      </trkpt>
      <trkpt lat="46.50409" lon="5.29698">
        <ele>222.2</ele>
        <time>2021-11-01T11:33:04Z</time>
      </trkpt>
      <trkpt lat="46.5046" lon="5.29664">
        <ele>222</ele>
        <time>2021-11-01T11:33:12Z</time>
      </trkpt>
      <trkpt lat="46.50472" lon="5.29656">
        <ele>221.8</ele>
        <time>2021-11-01T11:33:14Z</time>
      </trkpt>
      <trkpt lat="46.50521" lon="5.29621">
        <ele>221.6</ele>
        <time>2021-11-01T11:33:22Z</time>
      </trkpt>
      <trkpt lat="46.50539" lon="5.29608">
        <ele>221.4</ele>
        <time>2021-11-01T11:33:25Z</time>
      </trkpt>
      <trkpt lat="46.50588" lon="5.29569">
        <ele>221.2</ele>
        <time>2021-11-01T11:33:33Z</time>
      </trkpt>
      <trkpt lat="46.50602" lon="5.29559">
        <ele>221.2</ele>
        <time>2021-11-01T11:33:35Z</time>
      </trkpt>
      <trkpt lat="46.50639" lon="5.29532">
        <ele>221</ele>
        <time>2021-11-01T11:33:41Z</time>
      </trkpt>
      <trkpt lat="46.50645" lon="5.2953">
        <ele>221</ele>
        <time>2021-11-01T11:33:42Z</time>
      </trkpt>
      <trkpt lat="46.50653" lon="5.29528">
        <ele>221</ele>
        <time>2021-11-01T11:33:43Z</time>
      </trkpt>
      <trkpt lat="46.5066" lon="5.29527">
        <ele>220.8</ele>
        <time>2021-11-01T11:33:44Z</time>
      </trkpt>
      <trkpt lat="46.50676" lon="5.2953">
        <ele>220.8</ele>
        <time>2021-11-01T11:33:46Z</time>
      </trkpt>
      <trkpt lat="46.50683" lon="5.29533">
        <ele>220.6</ele>
        <time>2021-11-01T11:33:47Z</time>
      </trkpt>
      <trkpt lat="46.50706" lon="5.29544">
        <ele>219.8</ele>
        <time>2021-11-01T11:33:50Z</time>
      </trkpt>
      <trkpt lat="46.50739" lon="5.29559">
        <ele>219.2</ele>
        <time>2021-11-01T11:33:54Z</time>
      </trkpt>
      <trkpt lat="46.50757" lon="5.29564">
        <ele>218.4</ele>
        <time>2021-11-01T11:33:56Z</time>
      </trkpt>
      <trkpt lat="46.50785" lon="5.29568">
        <ele>217.2</ele>
        <time>2021-11-01T11:33:59Z</time>
      </trkpt>
      <trkpt lat="46.50826" lon="5.2957">
        <ele>216</ele>
        <time>2021-11-01T11:34:03Z</time>
      </trkpt>
      <trkpt lat="46.50847" lon="5.29572">
        <ele>215.2</ele>
        <time>2021-11-01T11:34:05Z</time>
      </trkpt>
      <trkpt lat="46.50858" lon="5.29573">
        <ele>214.6</ele>
        <time>2021-11-01T11:34:06Z</time>
      </trkpt>
      <trkpt lat="46.50879" lon="5.29574">
        <ele>213.4</ele>
        <time>2021-11-01T11:34:08Z</time>
      </trkpt>
      <trkpt lat="46.50901" lon="5.29572">
        <ele>212.6</ele>
        <time>2021-11-01T11:34:10Z</time>
      </trkpt>
      <trkpt lat="46.50912" lon="5.29568">
        <ele>212.2</ele>
        <time>2021-11-01T11:34:11Z</time>
      </trkpt>
      <trkpt lat="46.50933" lon="5.29554">
        <ele>210.4</ele>
        <time>2021-11-01T11:34:13Z</time>
      </trkpt>
      <trkpt lat="46.50954" lon="5.29538">
        <ele>208.6</ele>
        <time>2021-11-01T11:34:15Z</time>
      </trkpt>
      <trkpt lat="46.50976" lon="5.29521">
        <ele>207.4</ele>
        <time>2021-11-01T11:34:17Z</time>
      </trkpt>
      <trkpt lat="46.50987" lon="5.29512">
        <ele>207</ele>
        <time>2021-11-01T11:34:18Z</time>
      </trkpt>
      <trkpt lat="46.50998" lon="5.29503">
        <ele>206</ele>
        <time>2021-11-01T11:34:19Z</time>
      </trkpt>
      <trkpt lat="46.5102" lon="5.29486">
        <ele>204.6</ele>
        <time>2021-11-01T11:34:21Z</time>
      </trkpt>
      <trkpt lat="46.51041" lon="5.2947">
        <ele>203.4</ele>
        <time>2021-11-01T11:34:23Z</time>
      </trkpt>
      <trkpt lat="46.51052" lon="5.29463">
        <ele>202</ele>
        <time>2021-11-01T11:34:24Z</time>
      </trkpt>
      <trkpt lat="46.51074" lon="5.29451">
        <ele>200.4</ele>
        <time>2021-11-01T11:34:26Z</time>
      </trkpt>
      <trkpt lat="46.51095" lon="5.29442">
        <ele>199.2</ele>
        <time>2021-11-01T11:34:28Z</time>
      </trkpt>
      <trkpt lat="46.51127" lon="5.29433">
        <ele>198.2</ele>
        <time>2021-11-01T11:34:31Z</time>
      </trkpt>
      <trkpt lat="46.51166" lon="5.29421">
        <ele>197.4</ele>
        <time>2021-11-01T11:34:35Z</time>
      </trkpt>
      <trkpt lat="46.51195" lon="5.29414">
        <ele>197</ele>
        <time>2021-11-01T11:34:38Z</time>
      </trkpt>
      <trkpt lat="46.51241" lon="5.29402">
        <ele>197</ele>
        <time>2021-11-01T11:34:43Z</time>
      </trkpt>
      <trkpt lat="46.51293" lon="5.29384">
        <ele>196.6</ele>
        <time>2021-11-01T11:34:49Z</time>
      </trkpt>
      <trkpt lat="46.51348" lon="5.29351">
        <ele>196.4</ele>
        <time>2021-11-01T11:34:56Z</time>
      </trkpt>
      <trkpt lat="46.51355" lon="5.29345">
        <ele>196.4</ele>
        <time>2021-11-01T11:34:57Z</time>
      </trkpt>
      <trkpt lat="46.51368" lon="5.29331">
        <ele>196.4</ele>
        <time>2021-11-01T11:34:59Z</time>
      </trkpt>
      <trkpt lat="46.51378" lon="5.29314">
        <ele>196.4</ele>
        <time>2021-11-01T11:35:01Z</time>
      </trkpt>
      <trkpt lat="46.51416" lon="5.29247">
        <ele>196.6</ele>
        <time>2021-11-01T11:35:09Z</time>
      </trkpt>
      <trkpt lat="46.51439" lon="5.29208">
        <ele>197</ele>
        <time>2021-11-01T11:35:14Z</time>
      </trkpt>
      <trkpt lat="46.51442" lon="5.29198">
        <ele>197</ele>
        <time>2021-11-01T11:35:15Z</time>
      </trkpt>
      <trkpt lat="46.51454" lon="5.29147">
        <ele>197.2</ele>
        <time>2021-11-01T11:35:20Z</time>
      </trkpt>
      <trkpt lat="46.51468" lon="5.29063">
        <ele>196.4</ele>
        <time>2021-11-01T11:35:28Z</time>
      </trkpt>
      <trkpt lat="46.51472" lon="5.29039">
        <ele>196.2</ele>
        <time>2021-11-01T11:35:30Z</time>
      </trkpt>
      <trkpt lat="46.51478" lon="5.29006">
        <ele>196</ele>
        <time>2021-11-01T11:35:33Z</time>
      </trkpt>
      <trkpt lat="46.51492" lon="5.2893">
        <ele>195.4</ele>
        <time>2021-11-01T11:35:40Z</time>
      </trkpt>
      <trkpt lat="46.51499" lon="5.28886">
        <ele>194.8</ele>
        <time>2021-11-01T11:35:44Z</time>
      </trkpt>
      <trkpt lat="46.51504" lon="5.28854">
        <ele>194.6</ele>
        <time>2021-11-01T11:35:47Z</time>
      </trkpt>
      <trkpt lat="46.51508" lon="5.28823">
        <ele>194.4</ele>
        <time>2021-11-01T11:35:50Z</time>
      </trkpt>
      <trkpt lat="46.51509" lon="5.28793">
        <ele>194.4</ele>
        <time>2021-11-01T11:35:53Z</time>
      </trkpt>
      <trkpt lat="46.51501" lon="5.28737">
        <ele>195</ele>
        <time>2021-11-01T11:35:59Z</time>
      </trkpt>
      <trkpt lat="46.51498" lon="5.28728">
        <ele>195.2</ele>
        <time>2021-11-01T11:36:00Z</time>
      </trkpt>
      <trkpt lat="46.5148" lon="5.2867">
        <ele>195.2</ele>
        <time>2021-11-01T11:36:06Z</time>
      </trkpt>
      <trkpt lat="46.51457" lon="5.28598">
        <ele>194.8</ele>
        <time>2021-11-01T11:36:14Z</time>
      </trkpt>
      <trkpt lat="46.51437" lon="5.2854">
        <ele>195</ele>
        <time>2021-11-01T11:36:21Z</time>
      </trkpt>
      <trkpt lat="46.51421" lon="5.28488">
        <ele>195.4</ele>
        <time>2021-11-01T11:36:27Z</time>
      </trkpt>
      <trkpt lat="46.5142" lon="5.28479">
        <ele>195.4</ele>
        <time>2021-11-01T11:36:28Z</time>
      </trkpt>
      <trkpt lat="46.51419" lon="5.2847">
        <ele>195.4</ele>
        <time>2021-11-01T11:36:29Z</time>
      </trkpt>
      <trkpt lat="46.51421" lon="5.28452">
        <ele>195.6</ele>
        <time>2021-11-01T11:36:31Z</time>
      </trkpt>
      <trkpt lat="46.51423" lon="5.28444">
        <ele>195.6</ele>
        <time>2021-11-01T11:36:32Z</time>
      </trkpt>
      <trkpt lat="46.51425" lon="5.28437">
        <ele>195.6</ele>
        <time>2021-11-01T11:36:33Z</time>
      </trkpt>
      <trkpt lat="46.51438" lon="5.28409">
        <ele>196.2</ele>
        <time>2021-11-01T11:36:37Z</time>
      </trkpt>
      <trkpt lat="46.51455" lon="5.28377">
        <ele>197.2</ele>
        <time>2021-11-01T11:36:42Z</time>
      </trkpt>
      <trkpt lat="46.51465" lon="5.28359">
        <ele>198.2</ele>
        <time>2021-11-01T11:36:45Z</time>
      </trkpt>
      <trkpt lat="46.51468" lon="5.28353">
        <ele>198.4</ele>
        <time>2021-11-01T11:36:46Z</time>
      </trkpt>
      <trkpt lat="46.51483" lon="5.28325">
        <ele>199.4</ele>
        <time>2021-11-01T11:36:51Z</time>
      </trkpt>
      <trkpt lat="46.51492" lon="5.28308">
        <ele>200.4</ele>
        <time>2021-11-01T11:36:54Z</time>
      </trkpt>
      <trkpt lat="46.51508" lon="5.28277">
        <ele>201.6</ele>
        <time>2021-11-01T11:37:00Z</time>
      </trkpt>
      <trkpt lat="46.51515" lon="5.28262">
        <ele>202.4</ele>
        <time>2021-11-01T11:37:03Z</time>
      </trkpt>
      <trkpt lat="46.51523" lon="5.28247">
        <ele>202.8</ele>
        <time>2021-11-01T11:37:06Z</time>
      </trkpt>
      <trkpt lat="46.51528" lon="5.28236">
        <ele>203.2</ele>
        <time>2021-11-01T11:37:08Z</time>
      </trkpt>
      <trkpt lat="46.51532" lon="5.28226">
        <ele>203.6</ele>
        <time>2021-11-01T11:37:10Z</time>
      </trkpt>
      <trkpt lat="46.51534" lon="5.28221">
        <ele>203.8</ele>
        <time>2021-11-01T11:37:11Z</time>
      </trkpt>
      <trkpt lat="46.51541" lon="5.28205">
        <ele>204.2</ele>
        <time>2021-11-01T11:37:14Z</time>
      </trkpt>
      <trkpt lat="46.51546" lon="5.28189">
        <ele>204.8</ele>
        <time>2021-11-01T11:37:17Z</time>
      </trkpt>
      <trkpt lat="46.51555" lon="5.28162">
        <ele>206.2</ele>
        <time>2021-11-01T11:37:22Z</time>
      </trkpt>
      <trkpt lat="46.51558" lon="5.28151">
        <ele>206.6</ele>
        <time>2021-11-01T11:37:24Z</time>
      </trkpt>
      <trkpt lat="46.5156" lon="5.2814">
        <ele>207</ele>
        <time>2021-11-01T11:37:26Z</time>
      </trkpt>
      <trkpt lat="46.51565" lon="5.28123">
        <ele>207.2</ele>
        <time>2021-11-01T11:37:29Z</time>
      </trkpt>
      <trkpt lat="46.51576" lon="5.2809">
        <ele>208.4</ele>
        <time>2021-11-01T11:37:35Z</time>
      </trkpt>
      <trkpt lat="46.51577" lon="5.28084">
        <ele>208.8</ele>
        <time>2021-11-01T11:37:36Z</time>
      </trkpt>
      <trkpt lat="46.51585" lon="5.28062">
        <ele>209.6</ele>
        <time>2021-11-01T11:37:40Z</time>
      </trkpt>
      <trkpt lat="46.51603" lon="5.28019">
        <ele>210.8</ele>
        <time>2021-11-01T11:37:48Z</time>
      </trkpt>
      <trkpt lat="46.51605" lon="5.28014">
        <ele>211</ele>
        <time>2021-11-01T11:37:49Z</time>
      </trkpt>
      <trkpt lat="46.51624" lon="5.27989">
        <ele>212</ele>
        <time>2021-11-01T11:37:55Z</time>
      </trkpt>
      <trkpt lat="46.51651" lon="5.27961">
        <ele>212.2</ele>
        <time>2021-11-01T11:38:01Z</time>
      </trkpt>
      <trkpt lat="46.51688" lon="5.27923">
        <ele>212.2</ele>
        <time>2021-11-01T11:38:08Z</time>
      </trkpt>
      <trkpt lat="46.51735" lon="5.27875">
        <ele>211.6</ele>
        <time>2021-11-01T11:38:16Z</time>
      </trkpt>
      <trkpt lat="46.51748" lon="5.27862">
        <ele>211</ele>
        <time>2021-11-01T11:38:18Z</time>
      </trkpt>
      <trkpt lat="46.51775" lon="5.27834">
        <ele>210.2</ele>
        <time>2021-11-01T11:38:22Z</time>
      </trkpt>
      <trkpt lat="46.51782" lon="5.27826">
        <ele>209.8</ele>
        <time>2021-11-01T11:38:23Z</time>
      </trkpt>
      <trkpt lat="46.51804" lon="5.27803">
        <ele>208.6</ele>
        <time>2021-11-01T11:38:26Z</time>
      </trkpt>
      <trkpt lat="46.51819" lon="5.27788">
        <ele>207.6</ele>
        <time>2021-11-01T11:38:28Z</time>
      </trkpt>
      <trkpt lat="46.51827" lon="5.2778">
        <ele>207</ele>
        <time>2021-11-01T11:38:29Z</time>
      </trkpt>
      <trkpt lat="46.51842" lon="5.27764">
        <ele>206.6</ele>
        <time>2021-11-01T11:38:31Z</time>
      </trkpt>
      <trkpt lat="46.51866" lon="5.27739">
        <ele>205.6</ele>
        <time>2021-11-01T11:38:34Z</time>
      </trkpt>
      <trkpt lat="46.51883" lon="5.27722">
        <ele>204.4</ele>
        <time>2021-11-01T11:38:36Z</time>
      </trkpt>
      <trkpt lat="46.51909" lon="5.27696">
        <ele>203.2</ele>
        <time>2021-11-01T11:38:39Z</time>
      </trkpt>
      <trkpt lat="46.51926" lon="5.27678">
        <ele>202.2</ele>
        <time>2021-11-01T11:38:41Z</time>
      </trkpt>
      <trkpt lat="46.51934" lon="5.27668">
        <ele>201.8</ele>
        <time>2021-11-01T11:38:42Z</time>
      </trkpt>
      <trkpt lat="46.51951" lon="5.27648">
        <ele>200.6</ele>
        <time>2021-11-01T11:38:44Z</time>
      </trkpt>
      <trkpt lat="46.51974" lon="5.27616">
        <ele>199.4</ele>
        <time>2021-11-01T11:38:47Z</time>
      </trkpt>
      <trkpt lat="46.51982" lon="5.27606">
        <ele>199.2</ele>
        <time>2021-11-01T11:38:48Z</time>
      </trkpt>
      <trkpt lat="46.52004" lon="5.27576">
        <ele>198.2</ele>
        <time>2021-11-01T11:38:51Z</time>
      </trkpt>
      <trkpt lat="46.52026" lon="5.27548">
        <ele>197.8</ele>
        <time>2021-11-01T11:38:54Z</time>
      </trkpt>
      <trkpt lat="46.52063" lon="5.275">
        <ele>198</ele>
        <time>2021-11-01T11:39:00Z</time>
      </trkpt>
      <trkpt lat="46.52094" lon="5.27458">
        <ele>199.2</ele>
        <time>2021-11-01T11:39:06Z</time>
      </trkpt>
      <trkpt lat="46.52098" lon="5.27452">
        <ele>199.8</ele>
        <time>2021-11-01T11:39:07Z</time>
      </trkpt>
      <trkpt lat="46.52109" lon="5.27431">
        <ele>200.8</ele>
        <time>2021-11-01T11:39:10Z</time>
      </trkpt>
      <trkpt lat="46.52114" lon="5.27417">
        <ele>201.4</ele>
        <time>2021-11-01T11:39:12Z</time>
      </trkpt>
      <trkpt lat="46.52117" lon="5.27409">
        <ele>201.6</ele>
        <time>2021-11-01T11:39:13Z</time>
      </trkpt>
      <trkpt lat="46.52119" lon="5.27402">
        <ele>202</ele>
        <time>2021-11-01T11:39:14Z</time>
      </trkpt>
      <trkpt lat="46.52124" lon="5.27381">
        <ele>202.8</ele>
        <time>2021-11-01T11:39:17Z</time>
      </trkpt>
      <trkpt lat="46.52125" lon="5.27367">
        <ele>203.2</ele>
        <time>2021-11-01T11:39:19Z</time>
      </trkpt>
      <trkpt lat="46.52124" lon="5.27352">
        <ele>203.8</ele>
        <time>2021-11-01T11:39:21Z</time>
      </trkpt>
      <trkpt lat="46.52122" lon="5.27339">
        <ele>204.2</ele>
        <time>2021-11-01T11:39:23Z</time>
      </trkpt>
      <trkpt lat="46.5212" lon="5.27332">
        <ele>204.4</ele>
        <time>2021-11-01T11:39:24Z</time>
      </trkpt>
      <trkpt lat="46.52118" lon="5.27326">
        <ele>204.6</ele>
        <time>2021-11-01T11:39:25Z</time>
      </trkpt>
      <trkpt lat="46.52105" lon="5.27308">
        <ele>205.4</ele>
        <time>2021-11-01T11:39:29Z</time>
      </trkpt>
      <trkpt lat="46.52101" lon="5.27305">
        <ele>205.8</ele>
        <time>2021-11-01T11:39:30Z</time>
      </trkpt>
      <trkpt lat="46.52097" lon="5.27302">
        <ele>206</ele>
        <time>2021-11-01T11:39:31Z</time>
      </trkpt>
      <trkpt lat="46.52078" lon="5.27293">
        <ele>207</ele>
        <time>2021-11-01T11:39:35Z</time>
      </trkpt>
      <trkpt lat="46.52068" lon="5.27289">
        <ele>207.6</ele>
        <time>2021-11-01T11:39:37Z</time>
      </trkpt>
      <trkpt lat="46.52055" lon="5.27281">
        <ele>208.2</ele>
        <time>2021-11-01T11:39:40Z</time>
      </trkpt>
      <trkpt lat="46.52046" lon="5.27273">
        <ele>208.4</ele>
        <time>2021-11-01T11:39:42Z</time>
      </trkpt>
      <trkpt lat="46.52042" lon="5.27269">
        <ele>208.6</ele>
        <time>2021-11-01T11:39:43Z</time>
      </trkpt>
      <trkpt lat="46.52033" lon="5.27254">
        <ele>208.8</ele>
        <time>2021-11-01T11:39:46Z</time>
      </trkpt>
      <trkpt lat="46.5203" lon="5.27249">
        <ele>209</ele>
        <time>2021-11-01T11:39:47Z</time>
      </trkpt>
      <trkpt lat="46.52027" lon="5.27243">
        <ele>209.2</ele>
        <time>2021-11-01T11:39:48Z</time>
      </trkpt>
      <trkpt lat="46.5202" lon="5.2722">
        <ele>209.8</ele>
        <time>2021-11-01T11:39:52Z</time>
      </trkpt>
      <trkpt lat="46.52018" lon="5.27214">
        <ele>210.2</ele>
        <time>2021-11-01T11:39:53Z</time>
      </trkpt>
      <trkpt lat="46.52009" lon="5.2718">
        <ele>211.2</ele>
        <time>2021-11-01T11:39:59Z</time>
      </trkpt>
      <trkpt lat="46.52006" lon="5.27168">
        <ele>211.8</ele>
        <time>2021-11-01T11:40:01Z</time>
      </trkpt>
      <trkpt lat="46.52003" lon="5.2715">
        <ele>212.6</ele>
        <time>2021-11-01T11:40:04Z</time>
      </trkpt>
      <trkpt lat="46.51998" lon="5.27116">
        <ele>213.6</ele>
        <time>2021-11-01T11:40:10Z</time>
      </trkpt>
      <trkpt lat="46.51998" lon="5.2711">
        <ele>213.8</ele>
        <time>2021-11-01T11:40:11Z</time>
      </trkpt>
      <trkpt lat="46.51995" lon="5.27076">
        <ele>214.6</ele>
        <time>2021-11-01T11:40:17Z</time>
      </trkpt>
      <trkpt lat="46.51993" lon="5.27064">
        <ele>215</ele>
        <time>2021-11-01T11:40:19Z</time>
      </trkpt>
      <trkpt lat="46.51992" lon="5.27041">
        <ele>215.8</ele>
        <time>2021-11-01T11:40:23Z</time>
      </trkpt>
      <trkpt lat="46.5199" lon="5.27018">
        <ele>216.4</ele>
        <time>2021-11-01T11:40:27Z</time>
      </trkpt>
      <trkpt lat="46.51988" lon="5.27005">
        <ele>216.8</ele>
        <time>2021-11-01T11:40:29Z</time>
      </trkpt>
      <trkpt lat="46.51984" lon="5.26976">
        <ele>217.2</ele>
        <time>2021-11-01T11:40:34Z</time>
      </trkpt>
      <trkpt lat="46.51981" lon="5.26972">
        <ele>217.4</ele>
        <time>2021-11-01T11:40:35Z</time>
      </trkpt>
      <trkpt lat="46.51976" lon="5.26969">
        <ele>217.6</ele>
        <time>2021-11-01T11:40:36Z</time>
      </trkpt>
      <trkpt lat="46.51966" lon="5.26968">
        <ele>217.6</ele>
        <time>2021-11-01T11:40:38Z</time>
      </trkpt>
      <trkpt lat="46.51961" lon="5.26969">
        <ele>217.8</ele>
        <time>2021-11-01T11:40:39Z</time>
      </trkpt>
      <trkpt lat="46.51924" lon="5.26971">
        <ele>218.2</ele>
        <time>2021-11-01T11:40:46Z</time>
      </trkpt>
      <trkpt lat="46.51875" lon="5.26972">
        <ele>218.4</ele>
        <time>2021-11-01T11:40:55Z</time>
      </trkpt>
      <trkpt lat="46.51832" lon="5.26965">
        <ele>218.4</ele>
        <time>2021-11-01T11:41:03Z</time>
      </trkpt>
      <trkpt lat="46.51783" lon="5.26954">
        <ele>218.8</ele>
        <time>2021-11-01T11:41:11Z</time>
      </trkpt>
      <trkpt lat="46.51726" lon="5.26946">
        <ele>218.8</ele>
        <time>2021-11-01T11:41:20Z</time>
      </trkpt>
      <trkpt lat="46.51693" lon="5.26951">
        <ele>218.8</ele>
        <time>2021-11-01T11:41:25Z</time>
      </trkpt>
      <trkpt lat="46.51648" lon="5.26966">
        <ele>218.2</ele>
        <time>2021-11-01T11:41:31Z</time>
      </trkpt>
      <trkpt lat="46.5161" lon="5.2698">
        <ele>216.8</ele>
        <time>2021-11-01T11:41:36Z</time>
      </trkpt>
      <trkpt lat="46.51581" lon="5.26991">
        <ele>216.2</ele>
        <time>2021-11-01T11:41:40Z</time>
      </trkpt>
      <trkpt lat="46.51547" lon="5.26997">
        <ele>216.2</ele>
        <time>2021-11-01T11:41:45Z</time>
      </trkpt>
      <trkpt lat="46.51516" lon="5.26995">
        <ele>217</ele>
        <time>2021-11-01T11:41:50Z</time>
      </trkpt>
      <trkpt lat="46.51458" lon="5.26989">
        <ele>217.4</ele>
        <time>2021-11-01T11:41:59Z</time>
      </trkpt>
      <trkpt lat="46.51445" lon="5.26991">
        <ele>217.4</ele>
        <time>2021-11-01T11:42:01Z</time>
      </trkpt>
      <trkpt lat="46.51427" lon="5.26999">
        <ele>217.6</ele>
        <time>2021-11-01T11:42:04Z</time>
      </trkpt>
      <trkpt lat="46.51404" lon="5.27012">
        <ele>217.8</ele>
        <time>2021-11-01T11:42:08Z</time>
      </trkpt>
      <trkpt lat="46.51375" lon="5.27028">
        <ele>218</ele>
        <time>2021-11-01T11:42:13Z</time>
      </trkpt>
      <trkpt lat="46.51338" lon="5.27044">
        <ele>217.6</ele>
        <time>2021-11-01T11:42:19Z</time>
      </trkpt>
      <trkpt lat="46.51324" lon="5.27044">
        <ele>217.4</ele>
        <time>2021-11-01T11:42:21Z</time>
      </trkpt>
      <trkpt lat="46.51304" lon="5.27036">
        <ele>216.8</ele>
        <time>2021-11-01T11:42:24Z</time>
      </trkpt>
      <trkpt lat="46.51298" lon="5.27032">
        <ele>216.8</ele>
        <time>2021-11-01T11:42:25Z</time>
      </trkpt>
      <trkpt lat="46.51292" lon="5.27027">
        <ele>216.6</ele>
        <time>2021-11-01T11:42:26Z</time>
      </trkpt>
      <trkpt lat="46.51277" lon="5.27008">
        <ele>216.6</ele>
        <time>2021-11-01T11:42:29Z</time>
      </trkpt>
      <trkpt lat="46.51273" lon="5.27001">
        <ele>216.6</ele>
        <time>2021-11-01T11:42:30Z</time>
      </trkpt>
      <trkpt lat="46.51269" lon="5.26993">
        <ele>216.6</ele>
        <time>2021-11-01T11:42:31Z</time>
      </trkpt>
      <trkpt lat="46.51263" lon="5.26977">
        <ele>216.6</ele>
        <time>2021-11-01T11:42:33Z</time>
      </trkpt>
      <trkpt lat="46.51261" lon="5.26968">
        <ele>216.6</ele>
        <time>2021-11-01T11:42:34Z</time>
      </trkpt>
      <trkpt lat="46.51254" lon="5.26917">
        <ele>216.8</ele>
        <time>2021-11-01T11:42:40Z</time>
      </trkpt>
      <trkpt lat="46.5125" lon="5.26893">
        <ele>217.4</ele>
        <time>2021-11-01T11:42:43Z</time>
      </trkpt>
      <trkpt lat="46.51245" lon="5.26878">
        <ele>217.4</ele>
        <time>2021-11-01T11:42:45Z</time>
      </trkpt>
      <trkpt lat="46.51235" lon="5.26867">
        <ele>217.6</ele>
        <time>2021-11-01T11:42:47Z</time>
      </trkpt>
      <trkpt lat="46.5123" lon="5.26863">
        <ele>217.8</ele>
        <time>2021-11-01T11:42:48Z</time>
      </trkpt>
      <trkpt lat="46.51224" lon="5.2686">
        <ele>218</ele>
        <time>2021-11-01T11:42:49Z</time>
      </trkpt>
      <trkpt lat="46.51204" lon="5.26855">
        <ele>218</ele>
        <time>2021-11-01T11:42:52Z</time>
      </trkpt>
      <trkpt lat="46.51156" lon="5.26851">
        <ele>217.4</ele>
        <time>2021-11-01T11:42:58Z</time>
      </trkpt>
      <trkpt lat="46.51139" lon="5.26848">
        <ele>216.4</ele>
        <time>2021-11-01T11:43:00Z</time>
      </trkpt>
      <trkpt lat="46.51123" lon="5.26846">
        <ele>215.2</ele>
        <time>2021-11-01T11:43:02Z</time>
      </trkpt>
      <trkpt lat="46.51107" lon="5.26844">
        <ele>214.4</ele>
        <time>2021-11-01T11:43:04Z</time>
      </trkpt>
      <trkpt lat="46.51099" lon="5.26844">
        <ele>214.2</ele>
        <time>2021-11-01T11:43:05Z</time>
      </trkpt>
      <trkpt lat="46.51068" lon="5.26847">
        <ele>213.6</ele>
        <time>2021-11-01T11:43:09Z</time>
      </trkpt>
      <trkpt lat="46.51024" lon="5.26854">
        <ele>213.2</ele>
        <time>2021-11-01T11:43:15Z</time>
      </trkpt>
      <trkpt lat="46.51002" lon="5.26855">
        <ele>213.2</ele>
        <time>2021-11-01T11:43:18Z</time>
      </trkpt>
      <trkpt lat="46.5097" lon="5.26845">
        <ele>213.2</ele>
        <time>2021-11-01T11:43:23Z</time>
      </trkpt>
      <trkpt lat="46.50939" lon="5.26841">
        <ele>214</ele>
        <time>2021-11-01T11:43:28Z</time>
      </trkpt>
      <trkpt lat="46.50927" lon="5.2684">
        <ele>214.4</ele>
        <time>2021-11-01T11:43:30Z</time>
      </trkpt>
      <trkpt lat="46.50896" lon="5.26842">
        <ele>214.8</ele>
        <time>2021-11-01T11:43:35Z</time>
      </trkpt>
      <trkpt lat="46.50866" lon="5.26845">
        <ele>215.4</ele>
        <time>2021-11-01T11:43:40Z</time>
      </trkpt>
      <trkpt lat="46.5086" lon="5.26845">
        <ele>215.4</ele>
        <time>2021-11-01T11:43:41Z</time>
      </trkpt>
      <trkpt lat="46.50853" lon="5.26843">
        <ele>215.6</ele>
        <time>2021-11-01T11:43:42Z</time>
      </trkpt>
      <trkpt lat="46.50847" lon="5.26841">
        <ele>215.6</ele>
        <time>2021-11-01T11:43:43Z</time>
      </trkpt>
      <trkpt lat="46.50832" lon="5.26828">
        <ele>215.8</ele>
        <time>2021-11-01T11:43:46Z</time>
      </trkpt>
      <trkpt lat="46.50828" lon="5.26822">
        <ele>215.8</ele>
        <time>2021-11-01T11:43:47Z</time>
      </trkpt>
      <trkpt lat="46.50803" lon="5.26794">
        <ele>216.4</ele>
        <time>2021-11-01T11:43:52Z</time>
      </trkpt>
      <trkpt lat="46.50778" lon="5.26773">
        <ele>217</ele>
        <time>2021-11-01T11:43:57Z</time>
      </trkpt>
      <trkpt lat="46.50774" lon="5.26769">
        <ele>217</ele>
        <time>2021-11-01T11:43:58Z</time>
      </trkpt>
      <trkpt lat="46.50761" lon="5.26756">
        <ele>217.2</ele>
        <time>2021-11-01T11:44:01Z</time>
      </trkpt>
      <trkpt lat="46.50757" lon="5.2675">
        <ele>217.6</ele>
        <time>2021-11-01T11:44:02Z</time>
      </trkpt>
      <trkpt lat="46.50753" lon="5.26744">
        <ele>217.6</ele>
        <time>2021-11-01T11:44:03Z</time>
      </trkpt>
      <trkpt lat="46.50751" lon="5.26738">
        <ele>217.8</ele>
        <time>2021-11-01T11:44:04Z</time>
      </trkpt>
      <trkpt lat="46.50749" lon="5.26731">
        <ele>218</ele>
        <time>2021-11-01T11:44:05Z</time>
      </trkpt>
      <trkpt lat="46.50746" lon="5.26707">
        <ele>218.6</ele>
        <time>2021-11-01T11:44:08Z</time>
      </trkpt>
      <trkpt lat="46.50744" lon="5.26682">
        <ele>219</ele>
        <time>2021-11-01T11:44:11Z</time>
      </trkpt>
      <trkpt lat="46.5074" lon="5.26667">
        <ele>219</ele>
        <time>2021-11-01T11:44:13Z</time>
      </trkpt>
      <trkpt lat="46.50737" lon="5.2666">
        <ele>219.2</ele>
        <time>2021-11-01T11:44:14Z</time>
      </trkpt>
      <trkpt lat="46.50734" lon="5.26654">
        <ele>219.4</ele>
        <time>2021-11-01T11:44:15Z</time>
      </trkpt>
      <trkpt lat="46.5072" lon="5.26639">
        <ele>215.2</ele>
        <time>2021-11-01T11:44:18Z</time>
      </trkpt>
      <trkpt lat="46.50696" lon="5.26616">
        <ele>219.6</ele>
        <time>2021-11-01T11:44:23Z</time>
      </trkpt>
      <trkpt lat="46.50688" lon="5.26605">
        <ele>219.8</ele>
        <time>2021-11-01T11:44:25Z</time>
      </trkpt>
      <trkpt lat="46.50685" lon="5.26599">
        <ele>219.8</ele>
        <time>2021-11-01T11:44:26Z</time>
      </trkpt>
      <trkpt lat="46.50657" lon="5.2655">
        <ele>220.8</ele>
        <time>2021-11-01T11:44:34Z</time>
      </trkpt>
      <trkpt lat="46.50654" lon="5.26545">
        <ele>221</ele>
        <time>2021-11-01T11:44:35Z</time>
      </trkpt>
      <trkpt lat="46.50636" lon="5.26526">
        <ele>221.2</ele>
        <time>2021-11-01T11:44:39Z</time>
      </trkpt>
      <trkpt lat="46.50631" lon="5.26522">
        <ele>221.2</ele>
        <time>2021-11-01T11:44:40Z</time>
      </trkpt>
      <trkpt lat="46.50598" lon="5.2651">
        <ele>221.2</ele>
        <time>2021-11-01T11:44:45Z</time>
      </trkpt>
      <trkpt lat="46.50565" lon="5.26495">
        <ele>220</ele>
        <time>2021-11-01T11:44:50Z</time>
      </trkpt>
      <trkpt lat="46.50559" lon="5.26491">
        <ele>219.8</ele>
        <time>2021-11-01T11:44:51Z</time>
      </trkpt>
      <trkpt lat="46.5054" lon="5.26481">
        <ele>219.6</ele>
        <time>2021-11-01T11:44:54Z</time>
      </trkpt>
      <trkpt lat="46.50533" lon="5.2648">
        <ele>219.6</ele>
        <time>2021-11-01T11:44:55Z</time>
      </trkpt>
      <trkpt lat="46.50514" lon="5.26478">
        <ele>219.6</ele>
        <time>2021-11-01T11:44:58Z</time>
      </trkpt>
      <trkpt lat="46.50501" lon="5.2648">
        <ele>219.6</ele>
        <time>2021-11-01T11:45:00Z</time>
      </trkpt>
      <trkpt lat="46.50466" lon="5.26481">
        <ele>220.2</ele>
        <time>2021-11-01T11:45:06Z</time>
      </trkpt>
      <trkpt lat="46.50441" lon="5.2647">
        <ele>221.2</ele>
        <time>2021-11-01T11:45:11Z</time>
      </trkpt>
      <trkpt lat="46.5043" lon="5.26469">
        <ele>221.4</ele>
        <time>2021-11-01T11:45:13Z</time>
      </trkpt>
      <trkpt lat="46.50419" lon="5.26473">
        <ele>221.8</ele>
        <time>2021-11-01T11:45:15Z</time>
      </trkpt>
      <trkpt lat="46.50397" lon="5.26498">
        <ele>222</ele>
        <time>2021-11-01T11:45:20Z</time>
      </trkpt>
      <trkpt lat="46.50393" lon="5.26503">
        <ele>222.2</ele>
        <time>2021-11-01T11:45:21Z</time>
      </trkpt>
      <trkpt lat="46.50368" lon="5.26525">
        <ele>222.6</ele>
        <time>2021-11-01T11:45:26Z</time>
      </trkpt>
      <trkpt lat="46.50362" lon="5.26528">
        <ele>222.6</ele>
        <time>2021-11-01T11:45:27Z</time>
      </trkpt>
      <trkpt lat="46.50356" lon="5.26529">
        <ele>222.6</ele>
        <time>2021-11-01T11:45:28Z</time>
      </trkpt>
      <trkpt lat="46.5033" lon="5.26528">
        <ele>222.6</ele>
        <time>2021-11-01T11:45:32Z</time>
      </trkpt>
      <trkpt lat="46.50293" lon="5.26523">
        <ele>222.2</ele>
        <time>2021-11-01T11:45:38Z</time>
      </trkpt>
      <trkpt lat="46.50287" lon="5.26525">
        <ele>222.2</ele>
        <time>2021-11-01T11:45:39Z</time>
      </trkpt>
      <trkpt lat="46.50281" lon="5.2653">
        <ele>222.2</ele>
        <time>2021-11-01T11:45:40Z</time>
      </trkpt>
      <trkpt lat="46.50271" lon="5.26541">
        <ele>222.2</ele>
        <time>2021-11-01T11:45:42Z</time>
      </trkpt>
      <trkpt lat="46.50267" lon="5.26547">
        <ele>222.2</ele>
        <time>2021-11-01T11:45:43Z</time>
      </trkpt>
      <trkpt lat="46.50241" lon="5.26604">
        <ele>222.2</ele>
        <time>2021-11-01T11:45:50Z</time>
      </trkpt>
      <trkpt lat="46.50228" lon="5.26632">
        <ele>221.4</ele>
        <time>2021-11-01T11:45:53Z</time>
      </trkpt>
      <trkpt lat="46.50223" lon="5.2664">
        <ele>221</ele>
        <time>2021-11-01T11:45:54Z</time>
      </trkpt>
      <trkpt lat="46.50218" lon="5.26646">
        <ele>220.8</ele>
        <time>2021-11-01T11:45:55Z</time>
      </trkpt>
      <trkpt lat="46.50205" lon="5.26653">
        <ele>220.4</ele>
        <time>2021-11-01T11:45:57Z</time>
      </trkpt>
      <trkpt lat="46.50192" lon="5.26656">
        <ele>220.4</ele>
        <time>2021-11-01T11:45:59Z</time>
      </trkpt>
      <trkpt lat="46.50158" lon="5.26665">
        <ele>220.2</ele>
        <time>2021-11-01T11:46:04Z</time>
      </trkpt>
      <trkpt lat="46.50135" lon="5.2667">
        <ele>220.2</ele>
        <time>2021-11-01T11:46:07Z</time>
      </trkpt>
      <trkpt lat="46.50105" lon="5.26678">
        <ele>219.4</ele>
        <time>2021-11-01T11:46:11Z</time>
      </trkpt>
      <trkpt lat="46.50098" lon="5.26683">
        <ele>219</ele>
        <time>2021-11-01T11:46:12Z</time>
      </trkpt>
      <trkpt lat="46.50078" lon="5.26699">
        <ele>218</ele>
        <time>2021-11-01T11:46:15Z</time>
      </trkpt>
      <trkpt lat="46.50066" lon="5.26709">
        <ele>217.6</ele>
        <time>2021-11-01T11:46:17Z</time>
      </trkpt>
      <trkpt lat="46.50051" lon="5.26719">
        <ele>217.4</ele>
        <time>2021-11-01T11:46:19Z</time>
      </trkpt>
      <trkpt lat="46.50036" lon="5.26724">
        <ele>216.8</ele>
        <time>2021-11-01T11:46:21Z</time>
      </trkpt>
      <trkpt lat="46.49996" lon="5.26738">
        <ele>216.6</ele>
        <time>2021-11-01T11:46:27Z</time>
      </trkpt>
      <trkpt lat="46.49985" lon="5.26746">
        <ele>216.6</ele>
        <time>2021-11-01T11:46:29Z</time>
      </trkpt>
      <trkpt lat="46.49972" lon="5.26759">
        <ele>217.2</ele>
        <time>2021-11-01T11:46:32Z</time>
      </trkpt>
      <trkpt lat="46.49964" lon="5.26768">
        <ele>218</ele>
        <time>2021-11-01T11:46:34Z</time>
      </trkpt>
      <trkpt lat="46.49951" lon="5.26786">
        <ele>219.6</ele>
        <time>2021-11-01T11:46:38Z</time>
      </trkpt>
      <trkpt lat="46.49942" lon="5.268">
        <ele>221</ele>
        <time>2021-11-01T11:46:41Z</time>
      </trkpt>
      <trkpt lat="46.49932" lon="5.26815">
        <ele>221.8</ele>
        <time>2021-11-01T11:46:44Z</time>
      </trkpt>
      <trkpt lat="46.49928" lon="5.26819">
        <ele>222</ele>
        <time>2021-11-01T11:46:45Z</time>
      </trkpt>
      <trkpt lat="46.49919" lon="5.26827">
        <ele>222.6</ele>
        <time>2021-11-01T11:46:47Z</time>
      </trkpt>
      <trkpt lat="46.49909" lon="5.26834">
        <ele>222.8</ele>
        <time>2021-11-01T11:46:49Z</time>
      </trkpt>
      <trkpt lat="46.49898" lon="5.26838">
        <ele>223</ele>
        <time>2021-11-01T11:46:51Z</time>
      </trkpt>
      <trkpt lat="46.49883" lon="5.26845">
        <ele>223.4</ele>
        <time>2021-11-01T11:46:54Z</time>
      </trkpt>
      <trkpt lat="46.49872" lon="5.26852">
        <ele>223.6</ele>
        <time>2021-11-01T11:46:56Z</time>
      </trkpt>
      <trkpt lat="46.49836" lon="5.26879">
        <ele>224</ele>
        <time>2021-11-01T11:47:03Z</time>
      </trkpt>
      <trkpt lat="46.49816" lon="5.26896">
        <ele>224</ele>
        <time>2021-11-01T11:47:07Z</time>
      </trkpt>
      <trkpt lat="46.49809" lon="5.2691">
        <ele>224</ele>
        <time>2021-11-01T11:47:09Z</time>
      </trkpt>
      <trkpt lat="46.49805" lon="5.26944">
        <ele>223.6</ele>
        <time>2021-11-01T11:47:13Z</time>
      </trkpt>
      <trkpt lat="46.49798" lon="5.26985">
        <ele>223.6</ele>
        <time>2021-11-01T11:47:18Z</time>
      </trkpt>
      <trkpt lat="46.49795" lon="5.26992">
        <ele>223.6</ele>
        <time>2021-11-01T11:47:19Z</time>
      </trkpt>
      <trkpt lat="46.49792" lon="5.26998">
        <ele>223.6</ele>
        <time>2021-11-01T11:47:20Z</time>
      </trkpt>
      <trkpt lat="46.49783" lon="5.27009">
        <ele>223.6</ele>
        <time>2021-11-01T11:47:22Z</time>
      </trkpt>
      <trkpt lat="46.49778" lon="5.27013">
        <ele>223.6</ele>
        <time>2021-11-01T11:47:23Z</time>
      </trkpt>
      <trkpt lat="46.49772" lon="5.27017">
        <ele>223.8</ele>
        <time>2021-11-01T11:47:24Z</time>
      </trkpt>
      <trkpt lat="46.49754" lon="5.27024">
        <ele>224</ele>
        <time>2021-11-01T11:47:27Z</time>
      </trkpt>
      <trkpt lat="46.49742" lon="5.27026">
        <ele>224</ele>
        <time>2021-11-01T11:47:29Z</time>
      </trkpt>
      <trkpt lat="46.4973" lon="5.27028">
        <ele>224</ele>
        <time>2021-11-01T11:47:31Z</time>
      </trkpt>
      <trkpt lat="46.49721" lon="5.2703">
        <ele>224.2</ele>
        <time>2021-11-01T11:47:33Z</time>
      </trkpt>
      <trkpt lat="46.49709" lon="5.27032">
        <ele>224.2</ele>
        <time>2021-11-01T11:47:37Z</time>
      </trkpt>
      <trkpt lat="46.49709" lon="5.27032">
        <ele>224.2</ele>
        <time>2021-11-01T11:47:39Z</time>
      </trkpt>
      <trkpt lat="46.49705" lon="5.27033">
        <ele>224.6</ele>
        <time>2021-11-01T11:48:17Z</time>
      </trkpt>
      <trkpt lat="46.49702" lon="5.27033">
        <ele>224.6</ele>
        <time>2021-11-01T11:48:18Z</time>
      </trkpt>
      <trkpt lat="46.49683" lon="5.27037">
        <ele>224.4</ele>
        <time>2021-11-01T11:48:23Z</time>
      </trkpt>
      <trkpt lat="46.49673" lon="5.27038">
        <ele>224.4</ele>
        <time>2021-11-01T11:48:26Z</time>
      </trkpt>
      <trkpt lat="46.4967" lon="5.2704">
        <ele>224.4</ele>
        <time>2021-11-01T11:48:27Z</time>
      </trkpt>
      <trkpt lat="46.49662" lon="5.27054">
        <ele>224.4</ele>
        <time>2021-11-01T11:48:30Z</time>
      </trkpt>
      <trkpt lat="46.49659" lon="5.2706">
        <ele>224.4</ele>
        <time>2021-11-01T11:48:31Z</time>
      </trkpt>
      <trkpt lat="46.4965" lon="5.27082">
        <ele>224.2</ele>
        <time>2021-11-01T11:48:34Z</time>
      </trkpt>
      <trkpt lat="46.49646" lon="5.27088">
        <ele>224.2</ele>
        <time>2021-11-01T11:48:35Z</time>
      </trkpt>
      <trkpt lat="46.4964" lon="5.27093">
        <ele>224.2</ele>
        <time>2021-11-01T11:48:36Z</time>
      </trkpt>
      <trkpt lat="46.49627" lon="5.27097">
        <ele>224</ele>
        <time>2021-11-01T11:48:38Z</time>
      </trkpt>
      <trkpt lat="46.49582" lon="5.27104">
        <ele>223.8</ele>
        <time>2021-11-01T11:48:45Z</time>
      </trkpt>
      <trkpt lat="46.49569" lon="5.2711">
        <ele>223.6</ele>
        <time>2021-11-01T11:48:47Z</time>
      </trkpt>
      <trkpt lat="46.49558" lon="5.27119">
        <ele>223.4</ele>
        <time>2021-11-01T11:48:49Z</time>
      </trkpt>
      <trkpt lat="46.49528" lon="5.27154">
        <ele>223.2</ele>
        <time>2021-11-01T11:48:55Z</time>
      </trkpt>
      <trkpt lat="46.49493" lon="5.27191">
        <ele>223.2</ele>
        <time>2021-11-01T11:49:02Z</time>
      </trkpt>
      <trkpt lat="46.49461" lon="5.27208">
        <ele>223.2</ele>
        <time>2021-11-01T11:49:07Z</time>
      </trkpt>
      <trkpt lat="46.49414" lon="5.27221">
        <ele>223.4</ele>
        <time>2021-11-01T11:49:15Z</time>
      </trkpt>
      <trkpt lat="46.49394" lon="5.27227">
        <ele>223.2</ele>
        <time>2021-11-01T11:49:17Z</time>
      </trkpt>
      <trkpt lat="46.49353" lon="5.27238">
        <ele>223.2</ele>
        <time>2021-11-01T11:49:23Z</time>
      </trkpt>
      <trkpt lat="46.49298" lon="5.27252">
        <ele>222.6</ele>
        <time>2021-11-01T11:49:31Z</time>
      </trkpt>
      <trkpt lat="46.49291" lon="5.27253">
        <ele>222.6</ele>
        <time>2021-11-01T11:49:32Z</time>
      </trkpt>
      <trkpt lat="46.49257" lon="5.27255">
        <ele>222.2</ele>
        <time>2021-11-01T11:49:37Z</time>
      </trkpt>
      <trkpt lat="46.4925" lon="5.27254">
        <ele>222.2</ele>
        <time>2021-11-01T11:49:38Z</time>
      </trkpt>
      <trkpt lat="46.49244" lon="5.27252">
        <ele>222.2</ele>
        <time>2021-11-01T11:49:39Z</time>
      </trkpt>
      <trkpt lat="46.49219" lon="5.2724">
        <ele>222.2</ele>
        <time>2021-11-01T11:49:43Z</time>
      </trkpt>
      <trkpt lat="46.49207" lon="5.27233">
        <ele>222.2</ele>
        <time>2021-11-01T11:49:45Z</time>
      </trkpt>
      <trkpt lat="46.49191" lon="5.27221">
        <ele>222.4</ele>
        <time>2021-11-01T11:49:48Z</time>
      </trkpt>
      <trkpt lat="46.49146" lon="5.27185">
        <ele>223</ele>
        <time>2021-11-01T11:49:57Z</time>
      </trkpt>
      <trkpt lat="46.49111" lon="5.27158">
        <ele>223.2</ele>
        <time>2021-11-01T11:50:04Z</time>
      </trkpt>
      <trkpt lat="46.49106" lon="5.27154">
        <ele>223.4</ele>
        <time>2021-11-01T11:50:05Z</time>
      </trkpt>
      <trkpt lat="46.49074" lon="5.27138">
        <ele>223.8</ele>
        <time>2021-11-01T11:50:11Z</time>
      </trkpt>
      <trkpt lat="46.49069" lon="5.27137">
        <ele>223.8</ele>
        <time>2021-11-01T11:50:12Z</time>
      </trkpt>
      <trkpt lat="46.49027" lon="5.27133">
        <ele>223.8</ele>
        <time>2021-11-01T11:50:19Z</time>
      </trkpt>
      <trkpt lat="46.48976" lon="5.27132">
        <ele>223.6</ele>
        <time>2021-11-01T11:50:28Z</time>
      </trkpt>
      <trkpt lat="46.4897" lon="5.27132">
        <ele>223.6</ele>
        <time>2021-11-01T11:50:29Z</time>
      </trkpt>
      <trkpt lat="46.48965" lon="5.27132">
        <ele>223.6</ele>
        <time>2021-11-01T11:50:30Z</time>
      </trkpt>
      <trkpt lat="46.48936" lon="5.27131">
        <ele>223.8</ele>
        <time>2021-11-01T11:50:35Z</time>
      </trkpt>
      <trkpt lat="46.4889" lon="5.27129">
        <ele>223.8</ele>
        <time>2021-11-01T11:50:43Z</time>
      </trkpt>
      <trkpt lat="46.48856" lon="5.27132">
        <ele>224</ele>
        <time>2021-11-01T11:50:49Z</time>
      </trkpt>
      <trkpt lat="46.48851" lon="5.27134">
        <ele>224</ele>
        <time>2021-11-01T11:50:50Z</time>
      </trkpt>
      <trkpt lat="46.48845" lon="5.27138">
        <ele>224.2</ele>
        <time>2021-11-01T11:50:51Z</time>
      </trkpt>
      <trkpt lat="46.48836" lon="5.2715">
        <ele>224.2</ele>
        <time>2021-11-01T11:50:53Z</time>
      </trkpt>
      <trkpt lat="46.48833" lon="5.27157">
        <ele>224.2</ele>
        <time>2021-11-01T11:50:54Z</time>
      </trkpt>
      <trkpt lat="46.4883" lon="5.27166">
        <ele>224.2</ele>
        <time>2021-11-01T11:50:55Z</time>
      </trkpt>
      <trkpt lat="46.48828" lon="5.27184">
        <ele>224.2</ele>
        <time>2021-11-01T11:50:57Z</time>
      </trkpt>
      <trkpt lat="46.48831" lon="5.27233">
        <ele>224</ele>
        <time>2021-11-01T11:51:02Z</time>
      </trkpt>
      <trkpt lat="46.48827" lon="5.27256">
        <ele>223.6</ele>
        <time>2021-11-01T11:51:04Z</time>
      </trkpt>
      <trkpt lat="46.48825" lon="5.27265">
        <ele>223.6</ele>
        <time>2021-11-01T11:51:05Z</time>
      </trkpt>
      <trkpt lat="46.4882" lon="5.27274">
        <ele>223.4</ele>
        <time>2021-11-01T11:51:06Z</time>
      </trkpt>
      <trkpt lat="46.48805" lon="5.27301">
        <ele>222.8</ele>
        <time>2021-11-01T11:51:09Z</time>
      </trkpt>
      <trkpt lat="46.488" lon="5.27311">
        <ele>222.4</ele>
        <time>2021-11-01T11:51:10Z</time>
      </trkpt>
      <trkpt lat="46.48787" lon="5.27343">
        <ele>221</ele>
        <time>2021-11-01T11:51:13Z</time>
      </trkpt>
      <trkpt lat="46.48779" lon="5.27378">
        <ele>220</ele>
        <time>2021-11-01T11:51:16Z</time>
      </trkpt>
      <trkpt lat="46.48778" lon="5.2739">
        <ele>219.4</ele>
        <time>2021-11-01T11:51:17Z</time>
      </trkpt>
      <trkpt lat="46.48775" lon="5.27416">
        <ele>218.8</ele>
        <time>2021-11-01T11:51:19Z</time>
      </trkpt>
      <trkpt lat="46.48769" lon="5.27482">
        <ele>217.8</ele>
        <time>2021-11-01T11:51:25Z</time>
      </trkpt>
      <trkpt lat="46.48767" lon="5.27493">
        <ele>217.6</ele>
        <time>2021-11-01T11:51:26Z</time>
      </trkpt>
      <trkpt lat="46.48764" lon="5.27507">
        <ele>217.6</ele>
        <time>2021-11-01T11:51:27Z</time>
      </trkpt>
      <trkpt lat="46.48752" lon="5.27537">
        <ele>217.2</ele>
        <time>2021-11-01T11:51:30Z</time>
      </trkpt>
      <trkpt lat="46.48746" lon="5.27548">
        <ele>216.8</ele>
        <time>2021-11-01T11:51:31Z</time>
      </trkpt>
      <trkpt lat="46.48732" lon="5.27567">
        <ele>216.2</ele>
        <time>2021-11-01T11:51:33Z</time>
      </trkpt>
      <trkpt lat="46.48724" lon="5.27576">
        <ele>215.8</ele>
        <time>2021-11-01T11:51:34Z</time>
      </trkpt>
      <trkpt lat="46.48714" lon="5.27586">
        <ele>215</ele>
        <time>2021-11-01T11:51:35Z</time>
      </trkpt>
      <trkpt lat="46.48704" lon="5.27593">
        <ele>214.4</ele>
        <time>2021-11-01T11:51:36Z</time>
      </trkpt>
      <trkpt lat="46.48695" lon="5.27599">
        <ele>213.8</ele>
        <time>2021-11-01T11:51:37Z</time>
      </trkpt>
      <trkpt lat="46.48684" lon="5.27604">
        <ele>213</ele>
        <time>2021-11-01T11:51:38Z</time>
      </trkpt>
      <trkpt lat="46.48674" lon="5.27609">
        <ele>212.6</ele>
        <time>2021-11-01T11:51:39Z</time>
      </trkpt>
      <trkpt lat="46.48652" lon="5.27616">
        <ele>211.4</ele>
        <time>2021-11-01T11:51:41Z</time>
      </trkpt>
      <trkpt lat="46.48641" lon="5.2762">
        <ele>209.8</ele>
        <time>2021-11-01T11:51:42Z</time>
      </trkpt>
      <trkpt lat="46.4863" lon="5.27624">
        <ele>209.4</ele>
        <time>2021-11-01T11:51:43Z</time>
      </trkpt>
      <trkpt lat="46.48619" lon="5.27629">
        <ele>208.2</ele>
        <time>2021-11-01T11:51:44Z</time>
      </trkpt>
      <trkpt lat="46.48608" lon="5.27633">
        <ele>206.8</ele>
        <time>2021-11-01T11:51:45Z</time>
      </trkpt>
      <trkpt lat="46.48586" lon="5.27641">
        <ele>205</ele>
        <time>2021-11-01T11:51:47Z</time>
      </trkpt>
      <trkpt lat="46.48563" lon="5.2765">
        <ele>203.2</ele>
        <time>2021-11-01T11:51:49Z</time>
      </trkpt>
      <trkpt lat="46.48539" lon="5.27658">
        <ele>201.8</ele>
        <time>2021-11-01T11:51:51Z</time>
      </trkpt>
      <trkpt lat="46.48517" lon="5.27661">
        <ele>200.2</ele>
        <time>2021-11-01T11:51:53Z</time>
      </trkpt>
      <trkpt lat="46.48495" lon="5.27662">
        <ele>198.8</ele>
        <time>2021-11-01T11:51:55Z</time>
      </trkpt>
      <trkpt lat="46.48485" lon="5.27661">
        <ele>197.8</ele>
        <time>2021-11-01T11:51:56Z</time>
      </trkpt>
      <trkpt lat="46.48466" lon="5.27659">
        <ele>197.2</ele>
        <time>2021-11-01T11:51:58Z</time>
      </trkpt>
      <trkpt lat="46.4845" lon="5.27651">
        <ele>196.8</ele>
        <time>2021-11-01T11:52:00Z</time>
      </trkpt>
      <trkpt lat="46.48431" lon="5.27629">
        <ele>196.8</ele>
        <time>2021-11-01T11:52:03Z</time>
      </trkpt>
      <trkpt lat="46.4842" lon="5.27614">
        <ele>197.2</ele>
        <time>2021-11-01T11:52:05Z</time>
      </trkpt>
      <trkpt lat="46.48407" lon="5.27605">
        <ele>197.6</ele>
        <time>2021-11-01T11:52:07Z</time>
      </trkpt>
      <trkpt lat="46.48374" lon="5.2759">
        <ele>197.8</ele>
        <time>2021-11-01T11:52:12Z</time>
      </trkpt>
      <trkpt lat="46.48337" lon="5.27562">
        <ele>198</ele>
        <time>2021-11-01T11:52:18Z</time>
      </trkpt>
      <trkpt lat="46.48321" lon="5.27545">
        <ele>198</ele>
        <time>2021-11-01T11:52:21Z</time>
      </trkpt>
      <trkpt lat="46.48306" lon="5.27522">
        <ele>198</ele>
        <time>2021-11-01T11:52:24Z</time>
      </trkpt>
      <trkpt lat="46.4829" lon="5.27477">
        <ele>198</ele>
        <time>2021-11-01T11:52:29Z</time>
      </trkpt>
      <trkpt lat="46.48271" lon="5.27414">
        <ele>198</ele>
        <time>2021-11-01T11:52:36Z</time>
      </trkpt>
      <trkpt lat="46.48258" lon="5.27381">
        <ele>198</ele>
        <time>2021-11-01T11:52:40Z</time>
      </trkpt>
      <trkpt lat="46.4825" lon="5.27367">
        <ele>198</ele>
        <time>2021-11-01T11:52:42Z</time>
      </trkpt>
      <trkpt lat="46.48218" lon="5.27324">
        <ele>198.2</ele>
        <time>2021-11-01T11:52:49Z</time>
      </trkpt>
      <trkpt lat="46.48176" lon="5.2727">
        <ele>198.4</ele>
        <time>2021-11-01T11:52:58Z</time>
      </trkpt>
      <trkpt lat="46.48166" lon="5.27256">
        <ele>198.4</ele>
        <time>2021-11-01T11:53:00Z</time>
      </trkpt>
      <trkpt lat="46.48144" lon="5.27213">
        <ele>198.6</ele>
        <time>2021-11-01T11:53:06Z</time>
      </trkpt>
      <trkpt lat="46.48138" lon="5.27197">
        <ele>198.8</ele>
        <time>2021-11-01T11:53:08Z</time>
      </trkpt>
      <trkpt lat="46.48118" lon="5.27159">
        <ele>199.2</ele>
        <time>2021-11-01T11:53:13Z</time>
      </trkpt>
      <trkpt lat="46.48108" lon="5.27148">
        <ele>199.2</ele>
        <time>2021-11-01T11:53:15Z</time>
      </trkpt>
      <trkpt lat="46.48093" lon="5.27136">
        <ele>199.6</ele>
        <time>2021-11-01T11:53:18Z</time>
      </trkpt>
      <trkpt lat="46.48087" lon="5.27132">
        <ele>199.8</ele>
        <time>2021-11-01T11:53:19Z</time>
      </trkpt>
      <trkpt lat="46.48072" lon="5.27124">
        <ele>200</ele>
        <time>2021-11-01T11:53:22Z</time>
      </trkpt>
      <trkpt lat="46.48068" lon="5.27121">
        <ele>200</ele>
        <time>2021-11-01T11:53:23Z</time>
      </trkpt>
      <trkpt lat="46.48049" lon="5.27107">
        <ele>200.4</ele>
        <time>2021-11-01T11:53:27Z</time>
      </trkpt>
      <trkpt lat="46.48039" lon="5.27101">
        <ele>200.6</ele>
        <time>2021-11-01T11:53:29Z</time>
      </trkpt>
      <trkpt lat="46.48014" lon="5.27083">
        <ele>200.8</ele>
        <time>2021-11-01T11:53:34Z</time>
      </trkpt>
      <trkpt lat="46.47993" lon="5.2707">
        <ele>201</ele>
        <time>2021-11-01T11:53:38Z</time>
      </trkpt>
      <trkpt lat="46.47945" lon="5.27036">
        <ele>201</ele>
        <time>2021-11-01T11:53:47Z</time>
      </trkpt>
      <trkpt lat="46.47892" lon="5.27001">
        <ele>201</ele>
        <time>2021-11-01T11:53:57Z</time>
      </trkpt>
      <trkpt lat="46.47855" lon="5.26976">
        <ele>201.4</ele>
        <time>2021-11-01T11:54:04Z</time>
      </trkpt>
      <trkpt lat="46.47812" lon="5.26956">
        <ele>201.8</ele>
        <time>2021-11-01T11:54:12Z</time>
      </trkpt>
      <trkpt lat="46.47796" lon="5.26949">
        <ele>202.2</ele>
        <time>2021-11-01T11:54:15Z</time>
      </trkpt>
      <trkpt lat="46.47765" lon="5.26929">
        <ele>202.4</ele>
        <time>2021-11-01T11:54:21Z</time>
      </trkpt>
      <trkpt lat="46.47727" lon="5.26894">
        <ele>203.2</ele>
        <time>2021-11-01T11:54:29Z</time>
      </trkpt>
      <trkpt lat="46.47717" lon="5.26886">
        <ele>203.2</ele>
        <time>2021-11-01T11:54:31Z</time>
      </trkpt>
      <trkpt lat="46.47674" lon="5.26845">
        <ele>203.6</ele>
        <time>2021-11-01T11:54:40Z</time>
      </trkpt>
      <trkpt lat="46.47629" lon="5.26808">
        <ele>204.2</ele>
        <time>2021-11-01T11:54:49Z</time>
      </trkpt>
      <trkpt lat="46.47598" lon="5.26793">
        <ele>204.4</ele>
        <time>2021-11-01T11:54:55Z</time>
      </trkpt>
      <trkpt lat="46.47593" lon="5.26792">
        <ele>204.4</ele>
        <time>2021-11-01T11:54:56Z</time>
      </trkpt>
      <trkpt lat="46.47564" lon="5.26786">
        <ele>205.6</ele>
        <time>2021-11-01T11:55:02Z</time>
      </trkpt>
      <trkpt lat="46.47559" lon="5.26784">
        <ele>205.8</ele>
        <time>2021-11-01T11:55:03Z</time>
      </trkpt>
      <trkpt lat="46.4755" lon="5.26778">
        <ele>206</ele>
        <time>2021-11-01T11:55:05Z</time>
      </trkpt>
      <trkpt lat="46.4754" lon="5.2677">
        <ele>206.4</ele>
        <time>2021-11-01T11:55:07Z</time>
      </trkpt>
      <trkpt lat="46.47532" lon="5.26762">
        <ele>206.6</ele>
        <time>2021-11-01T11:55:09Z</time>
      </trkpt>
      <trkpt lat="46.4752" lon="5.26749">
        <ele>207.2</ele>
        <time>2021-11-01T11:55:12Z</time>
      </trkpt>
      <trkpt lat="46.47513" lon="5.26738">
        <ele>207.4</ele>
        <time>2021-11-01T11:55:14Z</time>
      </trkpt>
      <trkpt lat="46.47507" lon="5.26726">
        <ele>207.8</ele>
        <time>2021-11-01T11:55:16Z</time>
      </trkpt>
      <trkpt lat="46.47505" lon="5.26719">
        <ele>207.8</ele>
        <time>2021-11-01T11:55:17Z</time>
      </trkpt>
      <trkpt lat="46.47494" lon="5.26669">
        <ele>208.8</ele>
        <time>2021-11-01T11:55:24Z</time>
      </trkpt>
      <trkpt lat="46.47493" lon="5.26661">
        <ele>208.8</ele>
        <time>2021-11-01T11:55:25Z</time>
      </trkpt>
      <trkpt lat="46.47481" lon="5.26612">
        <ele>209.4</ele>
        <time>2021-11-01T11:55:33Z</time>
      </trkpt>
      <trkpt lat="46.47473" lon="5.26586">
        <ele>209.8</ele>
        <time>2021-11-01T11:55:36Z</time>
      </trkpt>
      <trkpt lat="46.47467" lon="5.2657">
        <ele>210.2</ele>
        <time>2021-11-01T11:55:39Z</time>
      </trkpt>
      <trkpt lat="46.47461" lon="5.26558">
        <ele>211</ele>
        <time>2021-11-01T11:55:42Z</time>
      </trkpt>
      <trkpt lat="46.47456" lon="5.26551">
        <ele>211.8</ele>
        <time>2021-11-01T11:55:44Z</time>
      </trkpt>
      <trkpt lat="46.47453" lon="5.26547">
        <ele>212.4</ele>
        <time>2021-11-01T11:55:45Z</time>
      </trkpt>
      <trkpt lat="46.47445" lon="5.26536">
        <ele>213.6</ele>
        <time>2021-11-01T11:55:48Z</time>
      </trkpt>
      <trkpt lat="46.47431" lon="5.26524">
        <ele>215</ele>
        <time>2021-11-01T11:55:52Z</time>
      </trkpt>
      <trkpt lat="46.47428" lon="5.26521">
        <ele>215.2</ele>
        <time>2021-11-01T11:55:53Z</time>
      </trkpt>
      <trkpt lat="46.47416" lon="5.26515">
        <ele>216</ele>
        <time>2021-11-01T11:55:56Z</time>
      </trkpt>
      <trkpt lat="46.47397" lon="5.26507">
        <ele>217.2</ele>
        <time>2021-11-01T11:56:01Z</time>
      </trkpt>
      <trkpt lat="46.47383" lon="5.265">
        <ele>218</ele>
        <time>2021-11-01T11:56:05Z</time>
      </trkpt>
      <trkpt lat="46.47379" lon="5.26499">
        <ele>218.4</ele>
        <time>2021-11-01T11:56:06Z</time>
      </trkpt>
      <trkpt lat="46.47365" lon="5.26493">
        <ele>219.6</ele>
        <time>2021-11-01T11:56:10Z</time>
      </trkpt>
      <trkpt lat="46.47361" lon="5.26492">
        <ele>219.6</ele>
        <time>2021-11-01T11:56:11Z</time>
      </trkpt>
      <trkpt lat="46.47354" lon="5.26489">
        <ele>220.6</ele>
        <time>2021-11-01T11:56:13Z</time>
      </trkpt>
      <trkpt lat="46.47328" lon="5.26474">
        <ele>221.6</ele>
        <time>2021-11-01T11:56:20Z</time>
      </trkpt>
      <trkpt lat="46.47301" lon="5.26459">
        <ele>222.8</ele>
        <time>2021-11-01T11:56:27Z</time>
      </trkpt>
      <trkpt lat="46.47294" lon="5.26456">
        <ele>223</ele>
        <time>2021-11-01T11:56:29Z</time>
      </trkpt>
      <trkpt lat="46.47267" lon="5.26447">
        <ele>223.8</ele>
        <time>2021-11-01T11:56:36Z</time>
      </trkpt>
      <trkpt lat="46.47254" lon="5.26444">
        <ele>224.4</ele>
        <time>2021-11-01T11:56:39Z</time>
      </trkpt>
      <trkpt lat="46.47236" lon="5.26442">
        <ele>224.8</ele>
        <time>2021-11-01T11:56:43Z</time>
      </trkpt>
      <trkpt lat="46.47222" lon="5.26441">
        <ele>225.2</ele>
        <time>2021-11-01T11:56:46Z</time>
      </trkpt>
      <trkpt lat="46.47193" lon="5.2644">
        <ele>225.6</ele>
        <time>2021-11-01T11:56:52Z</time>
      </trkpt>
      <trkpt lat="46.47188" lon="5.26441">
        <ele>225.6</ele>
        <time>2021-11-01T11:56:53Z</time>
      </trkpt>
      <trkpt lat="46.47173" lon="5.26445">
        <ele>225.8</ele>
        <time>2021-11-01T11:56:56Z</time>
      </trkpt>
      <trkpt lat="46.47152" lon="5.26455">
        <ele>225.8</ele>
        <time>2021-11-01T11:57:00Z</time>
      </trkpt>
      <trkpt lat="46.47109" lon="5.26472">
        <ele>225.6</ele>
        <time>2021-11-01T11:57:09Z</time>
      </trkpt>
      <trkpt lat="46.47052" lon="5.2649">
        <ele>225.8</ele>
        <time>2021-11-01T11:57:18Z</time>
      </trkpt>
      <trkpt lat="46.46998" lon="5.26506">
        <ele>225.6</ele>
        <time>2021-11-01T11:57:27Z</time>
      </trkpt>
      <trkpt lat="46.46944" lon="5.26534">
        <ele>225.6</ele>
        <time>2021-11-01T11:57:36Z</time>
      </trkpt>
      <trkpt lat="46.46907" lon="5.26547">
        <ele>225.6</ele>
        <time>2021-11-01T11:57:42Z</time>
      </trkpt>
      <trkpt lat="46.46864" lon="5.26553">
        <ele>225.8</ele>
        <time>2021-11-01T11:57:49Z</time>
      </trkpt>
      <trkpt lat="46.46809" lon="5.26555">
        <ele>225.8</ele>
        <time>2021-11-01T11:57:57Z</time>
      </trkpt>
      <trkpt lat="46.46786" lon="5.26555">
        <ele>225</ele>
        <time>2021-11-01T11:58:00Z</time>
      </trkpt>
      <trkpt lat="46.46757" lon="5.26552">
        <ele>224.6</ele>
        <time>2021-11-01T11:58:04Z</time>
      </trkpt>
      <trkpt lat="46.46717" lon="5.26539">
        <ele>224.2</ele>
        <time>2021-11-01T11:58:11Z</time>
      </trkpt>
      <trkpt lat="46.46684" lon="5.26524">
        <ele>224.2</ele>
        <time>2021-11-01T11:58:15Z</time>
      </trkpt>
      <trkpt lat="46.46631" lon="5.265">
        <ele>224</ele>
        <time>2021-11-01T11:58:23Z</time>
      </trkpt>
      <trkpt lat="46.4658" lon="5.26476">
        <ele>224</ele>
        <time>2021-11-01T11:58:31Z</time>
      </trkpt>
      <trkpt lat="46.46529" lon="5.26441">
        <ele>224.6</ele>
        <time>2021-11-01T11:58:40Z</time>
      </trkpt>
      <trkpt lat="46.46495" lon="5.26405">
        <ele>224.8</ele>
        <time>2021-11-01T11:58:47Z</time>
      </trkpt>
      <trkpt lat="46.46467" lon="5.26375">
        <ele>225.2</ele>
        <time>2021-11-01T11:58:54Z</time>
      </trkpt>
      <trkpt lat="46.46456" lon="5.26368">
        <ele>225.4</ele>
        <time>2021-11-01T11:58:55Z</time>
      </trkpt>
      <trkpt lat="46.46451" lon="5.26365">
        <ele>225.6</ele>
        <time>2021-11-01T11:58:56Z</time>
      </trkpt>
      <trkpt lat="46.46431" lon="5.26355">
        <ele>226.6</ele>
        <time>2021-11-01T11:59:00Z</time>
      </trkpt>
      <trkpt lat="46.46401" lon="5.26343">
        <ele>227.6</ele>
        <time>2021-11-01T11:59:06Z</time>
      </trkpt>
      <trkpt lat="46.46364" lon="5.26327">
        <ele>228.6</ele>
        <time>2021-11-01T11:59:13Z</time>
      </trkpt>
      <trkpt lat="46.46359" lon="5.26326">
        <ele>228.8</ele>
        <time>2021-11-01T11:59:14Z</time>
      </trkpt>
      <trkpt lat="46.46321" lon="5.2631">
        <ele>229</ele>
        <time>2021-11-01T11:59:21Z</time>
      </trkpt>
      <trkpt lat="46.46286" lon="5.26285">
        <ele>228.6</ele>
        <time>2021-11-01T11:59:27Z</time>
      </trkpt>
      <trkpt lat="46.46254" lon="5.26271">
        <ele>227.6</ele>
        <time>2021-11-01T11:59:32Z</time>
      </trkpt>
      <trkpt lat="46.46247" lon="5.26269">
        <ele>227.6</ele>
        <time>2021-11-01T11:59:33Z</time>
      </trkpt>
      <trkpt lat="46.46203" lon="5.26255">
        <ele>226.6</ele>
        <time>2021-11-01T11:59:40Z</time>
      </trkpt>
      <trkpt lat="46.46195" lon="5.2625">
        <ele>226.2</ele>
        <time>2021-11-01T11:59:42Z</time>
      </trkpt>
      <trkpt lat="46.46188" lon="5.26244">
        <ele>226.2</ele>
        <time>2021-11-01T11:59:45Z</time>
      </trkpt>
      <trkpt lat="46.46184" lon="5.26245">
        <ele>226.2</ele>
        <time>2021-11-01T11:59:46Z</time>
      </trkpt>
      <trkpt lat="46.4618" lon="5.26245">
        <ele>226.2</ele>
        <time>2021-11-01T11:59:47Z</time>
      </trkpt>
      <trkpt lat="46.4617" lon="5.26242">
        <ele>226.2</ele>
        <time>2021-11-01T11:59:49Z</time>
      </trkpt>
      <trkpt lat="46.46133" lon="5.26222">
        <ele>226</ele>
        <time>2021-11-01T11:59:56Z</time>
      </trkpt>
      <trkpt lat="46.46088" lon="5.26196">
        <ele>226.4</ele>
        <time>2021-11-01T12:00:04Z</time>
      </trkpt>
      <trkpt lat="46.46046" lon="5.26175">
        <ele>227.2</ele>
        <time>2021-11-01T12:00:12Z</time>
      </trkpt>
      <trkpt lat="46.46041" lon="5.26173">
        <ele>227.4</ele>
        <time>2021-11-01T12:00:13Z</time>
      </trkpt>
      <trkpt lat="46.46025" lon="5.26168">
        <ele>227.8</ele>
        <time>2021-11-01T12:00:16Z</time>
      </trkpt>
      <trkpt lat="46.46014" lon="5.26167">
        <ele>228.2</ele>
        <time>2021-11-01T12:00:18Z</time>
      </trkpt>
      <trkpt lat="46.45991" lon="5.26166">
        <ele>228.4</ele>
        <time>2021-11-01T12:00:22Z</time>
      </trkpt>
      <trkpt lat="46.45975" lon="5.26166">
        <ele>229</ele>
        <time>2021-11-01T12:00:25Z</time>
      </trkpt>
      <trkpt lat="46.45964" lon="5.26166">
        <ele>229</ele>
        <time>2021-11-01T12:00:27Z</time>
      </trkpt>
      <trkpt lat="46.45915" lon="5.26165">
        <ele>230</ele>
        <time>2021-11-01T12:00:36Z</time>
      </trkpt>
      <trkpt lat="46.45904" lon="5.26164">
        <ele>230.2</ele>
        <time>2021-11-01T12:00:39Z</time>
      </trkpt>
      <trkpt lat="46.45846" lon="5.26163">
        <ele>230.6</ele>
        <time>2021-11-01T12:00:48Z</time>
      </trkpt>
      <trkpt lat="46.4579" lon="5.26162">
        <ele>230.4</ele>
        <time>2021-11-01T12:00:57Z</time>
      </trkpt>
      <trkpt lat="46.45783" lon="5.26163">
        <ele>230.4</ele>
        <time>2021-11-01T12:00:58Z</time>
      </trkpt>
      <trkpt lat="46.45771" lon="5.26168">
        <ele>230.2</ele>
        <time>2021-11-01T12:01:00Z</time>
      </trkpt>
      <trkpt lat="46.45766" lon="5.26172">
        <ele>230</ele>
        <time>2021-11-01T12:01:02Z</time>
      </trkpt>
      <trkpt lat="46.45757" lon="5.26185">
        <ele>230</ele>
        <time>2021-11-01T12:01:03Z</time>
      </trkpt>
      <trkpt lat="46.4575" lon="5.26201">
        <ele>229.8</ele>
        <time>2021-11-01T12:01:05Z</time>
      </trkpt>
      <trkpt lat="46.45733" lon="5.26274">
        <ele>229.4</ele>
        <time>2021-11-01T12:01:13Z</time>
      </trkpt>
      <trkpt lat="46.45715" lon="5.26348">
        <ele>229</ele>
        <time>2021-11-01T12:01:21Z</time>
      </trkpt>
      <trkpt lat="46.45702" lon="5.26426">
        <ele>228.6</ele>
        <time>2021-11-01T12:01:29Z</time>
      </trkpt>
      <trkpt lat="46.45692" lon="5.26505">
        <ele>228.2</ele>
        <time>2021-11-01T12:01:37Z</time>
      </trkpt>
      <trkpt lat="46.4569" lon="5.26515">
        <ele>228.2</ele>
        <time>2021-11-01T12:01:38Z</time>
      </trkpt>
      <trkpt lat="46.45686" lon="5.26536">
        <ele>228</ele>
        <time>2021-11-01T12:01:41Z</time>
      </trkpt>
      <trkpt lat="46.45681" lon="5.26556">
        <ele>228</ele>
        <time>2021-11-01T12:01:42Z</time>
      </trkpt>
      <trkpt lat="46.45673" lon="5.26575">
        <ele>227.6</ele>
        <time>2021-11-01T12:01:44Z</time>
      </trkpt>
      <trkpt lat="46.45664" lon="5.26593">
        <ele>226.8</ele>
        <time>2021-11-01T12:01:47Z</time>
      </trkpt>
      <trkpt lat="46.45654" lon="5.2661">
        <ele>226.6</ele>
        <time>2021-11-01T12:01:48Z</time>
      </trkpt>
      <trkpt lat="46.4564" lon="5.26626">
        <ele>226</ele>
        <time>2021-11-01T12:01:50Z</time>
      </trkpt>
      <trkpt lat="46.4564" lon="5.26626">
        <ele>225.8</ele>
        <time>2021-11-01T12:01:51Z</time>
      </trkpt>
      <trkpt lat="46.45624" lon="5.26636">
        <ele>225</ele>
        <time>2021-11-01T12:01:52Z</time>
      </trkpt>
      <trkpt lat="46.45624" lon="5.26636">
        <ele>224.8</ele>
        <time>2021-11-01T12:01:53Z</time>
      </trkpt>
      <trkpt lat="46.45608" lon="5.26642">
        <ele>224.2</ele>
        <time>2021-11-01T12:01:54Z</time>
      </trkpt>
      <trkpt lat="46.45585" lon="5.26649">
        <ele>223.8</ele>
        <time>2021-11-01T12:01:57Z</time>
      </trkpt>
      <trkpt lat="46.45585" lon="5.26649">
        <ele>223.6</ele>
        <time>2021-11-01T12:01:58Z</time>
      </trkpt>
      <trkpt lat="46.45577" lon="5.2665">
        <ele>223.6</ele>
        <time>2021-11-01T12:01:59Z</time>
      </trkpt>
      <trkpt lat="46.45555" lon="5.26649">
        <ele>223.6</ele>
        <time>2021-11-01T12:02:01Z</time>
      </trkpt>
      <trkpt lat="46.45548" lon="5.26647">
        <ele>223.6</ele>
        <time>2021-11-01T12:02:03Z</time>
      </trkpt>
      <trkpt lat="46.45498" lon="5.26628">
        <ele>224.4</ele>
        <time>2021-11-01T12:02:10Z</time>
      </trkpt>
      <trkpt lat="46.45474" lon="5.26618">
        <ele>224.8</ele>
        <time>2021-11-01T12:02:14Z</time>
      </trkpt>
      <trkpt lat="46.45462" lon="5.26613">
        <ele>225.4</ele>
        <time>2021-11-01T12:02:16Z</time>
      </trkpt>
      <trkpt lat="46.45456" lon="5.2661">
        <ele>225.8</ele>
        <time>2021-11-01T12:02:18Z</time>
      </trkpt>
      <trkpt lat="46.4545" lon="5.26606">
        <ele>225.8</ele>
        <time>2021-11-01T12:02:19Z</time>
      </trkpt>
      <trkpt lat="46.45417" lon="5.26588">
        <ele>226.6</ele>
        <time>2021-11-01T12:02:25Z</time>
      </trkpt>
      <trkpt lat="46.45396" lon="5.26576">
        <ele>227</ele>
        <time>2021-11-01T12:02:29Z</time>
      </trkpt>
      <trkpt lat="46.45376" lon="5.26566">
        <ele>227.4</ele>
        <time>2021-11-01T12:02:32Z</time>
      </trkpt>
      <trkpt lat="46.4533" lon="5.26552">
        <ele>228</ele>
        <time>2021-11-01T12:02:40Z</time>
      </trkpt>
      <trkpt lat="46.4533" lon="5.26552">
        <ele>228</ele>
        <time>2021-11-01T12:02:41Z</time>
      </trkpt>
      <trkpt lat="46.45287" lon="5.26551">
        <ele>228</ele>
        <time>2021-11-01T12:02:47Z</time>
      </trkpt>
      <trkpt lat="46.45236" lon="5.26559">
        <ele>227.8</ele>
        <time>2021-11-01T12:02:55Z</time>
      </trkpt>
      <trkpt lat="46.4519" lon="5.26556">
        <ele>227.8</ele>
        <time>2021-11-01T12:03:02Z</time>
      </trkpt>
      <trkpt lat="46.45134" lon="5.26534">
        <ele>227.8</ele>
        <time>2021-11-01T12:03:11Z</time>
      </trkpt>
      <trkpt lat="46.45116" lon="5.26527">
        <ele>228</ele>
        <time>2021-11-01T12:03:14Z</time>
      </trkpt>
      <trkpt lat="46.45067" lon="5.26516">
        <ele>228</ele>
        <time>2021-11-01T12:03:22Z</time>
      </trkpt>
      <trkpt lat="46.45013" lon="5.26514">
        <ele>227.6</ele>
        <time>2021-11-01T12:03:30Z</time>
      </trkpt>
      <trkpt lat="46.45006" lon="5.26514">
        <ele>227.6</ele>
        <time>2021-11-01T12:03:31Z</time>
      </trkpt>
      <trkpt lat="46.44977" lon="5.26514">
        <ele>227.2</ele>
        <time>2021-11-01T12:03:35Z</time>
      </trkpt>
      <trkpt lat="46.44957" lon="5.26518">
        <ele>226.8</ele>
        <time>2021-11-01T12:03:38Z</time>
      </trkpt>
      <trkpt lat="46.44921" lon="5.26533">
        <ele>226</ele>
        <time>2021-11-01T12:03:43Z</time>
      </trkpt>
      <trkpt lat="46.44915" lon="5.26536">
        <ele>225.8</ele>
        <time>2021-11-01T12:03:44Z</time>
      </trkpt>
      <trkpt lat="46.44884" lon="5.26551">
        <ele>225.6</ele>
        <time>2021-11-01T12:03:50Z</time>
      </trkpt>
      <trkpt lat="46.44873" lon="5.2656">
        <ele>225.6</ele>
        <time>2021-11-01T12:03:51Z</time>
      </trkpt>
      <trkpt lat="46.44853" lon="5.26583">
        <ele>226.2</ele>
        <time>2021-11-01T12:03:55Z</time>
      </trkpt>
      <trkpt lat="46.44846" lon="5.26596">
        <ele>226.6</ele>
        <time>2021-11-01T12:03:57Z</time>
      </trkpt>
      <trkpt lat="46.4484" lon="5.26617">
        <ele>227.4</ele>
        <time>2021-11-01T12:04:00Z</time>
      </trkpt>
      <trkpt lat="46.44834" lon="5.2664">
        <ele>228.2</ele>
        <time>2021-11-01T12:04:03Z</time>
      </trkpt>
      <trkpt lat="46.4483" lon="5.26648">
        <ele>228.6</ele>
        <time>2021-11-01T12:04:04Z</time>
      </trkpt>
      <trkpt lat="46.44827" lon="5.26652">
        <ele>228.8</ele>
        <time>2021-11-01T12:04:05Z</time>
      </trkpt>
      <trkpt lat="46.44822" lon="5.26657">
        <ele>228.8</ele>
        <time>2021-11-01T12:04:06Z</time>
      </trkpt>
      <trkpt lat="46.44816" lon="5.2666">
        <ele>229.2</ele>
        <time>2021-11-01T12:04:07Z</time>
      </trkpt>
      <trkpt lat="46.44798" lon="5.26664">
        <ele>229.4</ele>
        <time>2021-11-01T12:04:10Z</time>
      </trkpt>
      <trkpt lat="46.44791" lon="5.26666">
        <ele>229.6</ele>
        <time>2021-11-01T12:04:11Z</time>
      </trkpt>
      <trkpt lat="46.44787" lon="5.26668">
        <ele>229.6</ele>
        <time>2021-11-01T12:04:12Z</time>
      </trkpt>
      <trkpt lat="46.44773" lon="5.26678">
        <ele>229.8</ele>
        <time>2021-11-01T12:04:14Z</time>
      </trkpt>
      <trkpt lat="46.44737" lon="5.26698">
        <ele>229.6</ele>
        <time>2021-11-01T12:04:19Z</time>
      </trkpt>
      <trkpt lat="46.44721" lon="5.26703">
        <ele>228.6</ele>
        <time>2021-11-01T12:04:21Z</time>
      </trkpt>
      <trkpt lat="46.44703" lon="5.26706">
        <ele>227.8</ele>
        <time>2021-11-01T12:04:23Z</time>
      </trkpt>
      <trkpt lat="46.44693" lon="5.26706">
        <ele>227.4</ele>
        <time>2021-11-01T12:04:24Z</time>
      </trkpt>
      <trkpt lat="46.44675" lon="5.26702">
        <ele>226.2</ele>
        <time>2021-11-01T12:04:26Z</time>
      </trkpt>
      <trkpt lat="46.44666" lon="5.26698">
        <ele>225</ele>
        <time>2021-11-01T12:04:27Z</time>
      </trkpt>
      <trkpt lat="46.4464" lon="5.26682">
        <ele>223.8</ele>
        <time>2021-11-01T12:04:30Z</time>
      </trkpt>
      <trkpt lat="46.44626" lon="5.26672">
        <ele>223.6</ele>
        <time>2021-11-01T12:04:32Z</time>
      </trkpt>
      <trkpt lat="46.44595" lon="5.2665">
        <ele>223.6</ele>
        <time>2021-11-01T12:04:37Z</time>
      </trkpt>
      <trkpt lat="46.44576" lon="5.26639">
        <ele>225</ele>
        <time>2021-11-01T12:04:41Z</time>
      </trkpt>
      <trkpt lat="46.44571" lon="5.26638">
        <ele>225.4</ele>
        <time>2021-11-01T12:04:42Z</time>
      </trkpt>
      <trkpt lat="46.44566" lon="5.26637">
        <ele>226.2</ele>
        <time>2021-11-01T12:04:43Z</time>
      </trkpt>
      <trkpt lat="46.44555" lon="5.26637">
        <ele>226.8</ele>
        <time>2021-11-01T12:04:45Z</time>
      </trkpt>
      <trkpt lat="46.44549" lon="5.26639">
        <ele>227.2</ele>
        <time>2021-11-01T12:04:46Z</time>
      </trkpt>
      <trkpt lat="46.44545" lon="5.26641">
        <ele>227.4</ele>
        <time>2021-11-01T12:04:47Z</time>
      </trkpt>
      <trkpt lat="46.44521" lon="5.26654">
        <ele>227.8</ele>
        <time>2021-11-01T12:04:51Z</time>
      </trkpt>
      <trkpt lat="46.44511" lon="5.26663">
        <ele>227.8</ele>
        <time>2021-11-01T12:04:53Z</time>
      </trkpt>
      <trkpt lat="46.4448" lon="5.26702">
        <ele>227.2</ele>
        <time>2021-11-01T12:04:58Z</time>
      </trkpt>
      <trkpt lat="46.44474" lon="5.26708">
        <ele>226.8</ele>
        <time>2021-11-01T12:04:59Z</time>
      </trkpt>
      <trkpt lat="46.44456" lon="5.26719">
        <ele>226</ele>
        <time>2021-11-01T12:05:01Z</time>
      </trkpt>
      <trkpt lat="46.44439" lon="5.26724">
        <ele>224.6</ele>
        <time>2021-11-01T12:05:03Z</time>
      </trkpt>
      <trkpt lat="46.44423" lon="5.26729">
        <ele>223.2</ele>
        <time>2021-11-01T12:05:05Z</time>
      </trkpt>
      <trkpt lat="46.44412" lon="5.26732">
        <ele>222.8</ele>
        <time>2021-11-01T12:05:06Z</time>
      </trkpt>
      <trkpt lat="46.44394" lon="5.26738">
        <ele>222</ele>
        <time>2021-11-01T12:05:08Z</time>
      </trkpt>
      <trkpt lat="46.44385" lon="5.26742">
        <ele>221.6</ele>
        <time>2021-11-01T12:05:09Z</time>
      </trkpt>
      <trkpt lat="46.4437" lon="5.26754">
        <ele>220.8</ele>
        <time>2021-11-01T12:05:11Z</time>
      </trkpt>
      <trkpt lat="46.44359" lon="5.26776">
        <ele>219.8</ele>
        <time>2021-11-01T12:05:13Z</time>
      </trkpt>
      <trkpt lat="46.44355" lon="5.26786">
        <ele>219.4</ele>
        <time>2021-11-01T12:05:14Z</time>
      </trkpt>
      <trkpt lat="46.44349" lon="5.26798">
        <ele>218.6</ele>
        <time>2021-11-01T12:05:15Z</time>
      </trkpt>
      <trkpt lat="46.44342" lon="5.26811">
        <ele>217.8</ele>
        <time>2021-11-01T12:05:16Z</time>
      </trkpt>
      <trkpt lat="46.44334" lon="5.26819">
        <ele>217.6</ele>
        <time>2021-11-01T12:05:17Z</time>
      </trkpt>
      <trkpt lat="46.44326" lon="5.26825">
        <ele>217.2</ele>
        <time>2021-11-01T12:05:18Z</time>
      </trkpt>
      <trkpt lat="46.44309" lon="5.26831">
        <ele>216.8</ele>
        <time>2021-11-01T12:05:20Z</time>
      </trkpt>
      <trkpt lat="46.44291" lon="5.26836">
        <ele>216</ele>
        <time>2021-11-01T12:05:22Z</time>
      </trkpt>
      <trkpt lat="46.44257" lon="5.2685">
        <ele>215.4</ele>
        <time>2021-11-01T12:05:26Z</time>
      </trkpt>
      <trkpt lat="46.4424" lon="5.26861">
        <ele>215</ele>
        <time>2021-11-01T12:05:28Z</time>
      </trkpt>
      <trkpt lat="46.44214" lon="5.2688">
        <ele>214</ele>
        <time>2021-11-01T12:05:31Z</time>
      </trkpt>
      <trkpt lat="46.44205" lon="5.26888">
        <ele>213.4</ele>
        <time>2021-11-01T12:05:32Z</time>
      </trkpt>
      <trkpt lat="46.4419" lon="5.26908">
        <ele>212.2</ele>
        <time>2021-11-01T12:05:34Z</time>
      </trkpt>
      <trkpt lat="46.44182" lon="5.26919">
        <ele>211.8</ele>
        <time>2021-11-01T12:05:35Z</time>
      </trkpt>
      <trkpt lat="46.44175" lon="5.26926">
        <ele>210.8</ele>
        <time>2021-11-01T12:05:36Z</time>
      </trkpt>
      <trkpt lat="46.44165" lon="5.26932">
        <ele>210.2</ele>
        <time>2021-11-01T12:05:37Z</time>
      </trkpt>
      <trkpt lat="46.44155" lon="5.26935">
        <ele>209.2</ele>
        <time>2021-11-01T12:05:38Z</time>
      </trkpt>
      <trkpt lat="46.44144" lon="5.26934">
        <ele>208.4</ele>
        <time>2021-11-01T12:05:39Z</time>
      </trkpt>
      <trkpt lat="46.44135" lon="5.2693">
        <ele>208</ele>
        <time>2021-11-01T12:05:40Z</time>
      </trkpt>
      <trkpt lat="46.44127" lon="5.26923">
        <ele>207.6</ele>
        <time>2021-11-01T12:05:41Z</time>
      </trkpt>
      <trkpt lat="46.44106" lon="5.26902">
        <ele>207.4</ele>
        <time>2021-11-01T12:05:44Z</time>
      </trkpt>
      <trkpt lat="46.44061" lon="5.2686">
        <ele>207.4</ele>
        <time>2021-11-01T12:05:51Z</time>
      </trkpt>
      <trkpt lat="46.44024" lon="5.26826">
        <ele>208</ele>
        <time>2021-11-01T12:05:57Z</time>
      </trkpt>
      <trkpt lat="46.44" lon="5.26803">
        <ele>209.2</ele>
        <time>2021-11-01T12:06:02Z</time>
      </trkpt>
      <trkpt lat="46.43995" lon="5.26798">
        <ele>209.6</ele>
        <time>2021-11-01T12:06:03Z</time>
      </trkpt>
      <trkpt lat="46.4399" lon="5.26794">
        <ele>209.8</ele>
        <time>2021-11-01T12:06:04Z</time>
      </trkpt>
      <trkpt lat="46.43978" lon="5.2679">
        <ele>210.2</ele>
        <time>2021-11-01T12:06:06Z</time>
      </trkpt>
      <trkpt lat="46.43973" lon="5.26789">
        <ele>210.4</ele>
        <time>2021-11-01T12:06:07Z</time>
      </trkpt>
      <trkpt lat="46.43967" lon="5.26788">
        <ele>210.6</ele>
        <time>2021-11-01T12:06:08Z</time>
      </trkpt>
      <trkpt lat="46.43955" lon="5.26783">
        <ele>210.6</ele>
        <time>2021-11-01T12:06:10Z</time>
      </trkpt>
      <trkpt lat="46.4395" lon="5.26779">
        <ele>210.6</ele>
        <time>2021-11-01T12:06:11Z</time>
      </trkpt>
      <trkpt lat="46.43944" lon="5.26774">
        <ele>210.6</ele>
        <time>2021-11-01T12:06:12Z</time>
      </trkpt>
      <trkpt lat="46.43933" lon="5.26769">
        <ele>210.8</ele>
        <time>2021-11-01T12:06:14Z</time>
      </trkpt>
      <trkpt lat="46.43926" lon="5.26768">
        <ele>210.8</ele>
        <time>2021-11-01T12:06:15Z</time>
      </trkpt>
      <trkpt lat="46.4392" lon="5.2677">
        <ele>210.8</ele>
        <time>2021-11-01T12:06:16Z</time>
      </trkpt>
      <trkpt lat="46.43909" lon="5.26777">
        <ele>210.8</ele>
        <time>2021-11-01T12:06:18Z</time>
      </trkpt>
      <trkpt lat="46.43897" lon="5.26798">
        <ele>210.8</ele>
        <time>2021-11-01T12:06:21Z</time>
      </trkpt>
      <trkpt lat="46.43892" lon="5.26804">
        <ele>210.8</ele>
        <time>2021-11-01T12:06:22Z</time>
      </trkpt>
      <trkpt lat="46.43878" lon="5.26817">
        <ele>210.8</ele>
        <time>2021-11-01T12:06:25Z</time>
      </trkpt>
      <trkpt lat="46.43869" lon="5.26829">
        <ele>211.2</ele>
        <time>2021-11-01T12:06:27Z</time>
      </trkpt>
      <trkpt lat="46.43865" lon="5.26841">
        <ele>211.4</ele>
        <time>2021-11-01T12:06:29Z</time>
      </trkpt>
      <trkpt lat="46.43864" lon="5.26849">
        <ele>211.4</ele>
        <time>2021-11-01T12:06:30Z</time>
      </trkpt>
      <trkpt lat="46.43863" lon="5.26882">
        <ele>212.4</ele>
        <time>2021-11-01T12:06:34Z</time>
      </trkpt>
      <trkpt lat="46.43858" lon="5.26912">
        <ele>213.2</ele>
        <time>2021-11-01T12:06:38Z</time>
      </trkpt>
      <trkpt lat="46.43851" lon="5.26937">
        <ele>213.4</ele>
        <time>2021-11-01T12:06:41Z</time>
      </trkpt>
      <trkpt lat="46.43845" lon="5.2695">
        <ele>213.4</ele>
        <time>2021-11-01T12:06:43Z</time>
      </trkpt>
      <trkpt lat="46.43841" lon="5.26957">
        <ele>213.4</ele>
        <time>2021-11-01T12:06:44Z</time>
      </trkpt>
      <trkpt lat="46.43831" lon="5.2697">
        <ele>213.4</ele>
        <time>2021-11-01T12:06:46Z</time>
      </trkpt>
      <trkpt lat="46.43825" lon="5.26976">
        <ele>213.2</ele>
        <time>2021-11-01T12:06:47Z</time>
      </trkpt>
      <trkpt lat="46.43819" lon="5.26981">
        <ele>213</ele>
        <time>2021-11-01T12:06:48Z</time>
      </trkpt>
      <trkpt lat="46.43805" lon="5.26989">
        <ele>212.6</ele>
        <time>2021-11-01T12:06:50Z</time>
      </trkpt>
      <trkpt lat="46.43798" lon="5.26992">
        <ele>212.4</ele>
        <time>2021-11-01T12:06:51Z</time>
      </trkpt>
      <trkpt lat="46.43791" lon="5.26993">
        <ele>212.2</ele>
        <time>2021-11-01T12:06:52Z</time>
      </trkpt>
      <trkpt lat="46.43776" lon="5.26994">
        <ele>211.8</ele>
        <time>2021-11-01T12:06:54Z</time>
      </trkpt>
      <trkpt lat="46.43768" lon="5.26992">
        <ele>211.6</ele>
        <time>2021-11-01T12:06:55Z</time>
      </trkpt>
      <trkpt lat="46.43748" lon="5.26985">
        <ele>211.4</ele>
        <time>2021-11-01T12:06:58Z</time>
      </trkpt>
      <trkpt lat="46.43716" lon="5.26971">
        <ele>211.2</ele>
        <time>2021-11-01T12:07:03Z</time>
      </trkpt>
      <trkpt lat="46.43664" lon="5.26952">
        <ele>212</ele>
        <time>2021-11-01T12:07:11Z</time>
      </trkpt>
      <trkpt lat="46.43622" lon="5.26935">
        <ele>212.2</ele>
        <time>2021-11-01T12:07:18Z</time>
      </trkpt>
      <trkpt lat="46.43604" lon="5.26928">
        <ele>212.6</ele>
        <time>2021-11-01T12:07:21Z</time>
      </trkpt>
      <trkpt lat="46.43581" lon="5.26921">
        <ele>212.8</ele>
        <time>2021-11-01T12:07:25Z</time>
      </trkpt>
      <trkpt lat="46.43521" lon="5.26907">
        <ele>213.4</ele>
        <time>2021-11-01T12:07:35Z</time>
      </trkpt>
      <trkpt lat="46.43514" lon="5.26906">
        <ele>213.4</ele>
        <time>2021-11-01T12:07:36Z</time>
      </trkpt>
      <trkpt lat="46.43489" lon="5.26901">
        <ele>213.6</ele>
        <time>2021-11-01T12:07:40Z</time>
      </trkpt>
      <trkpt lat="46.43441" lon="5.26892">
        <ele>214</ele>
        <time>2021-11-01T12:07:48Z</time>
      </trkpt>
      <trkpt lat="46.43397" lon="5.26882">
        <ele>214.6</ele>
        <time>2021-11-01T12:07:56Z</time>
      </trkpt>
      <trkpt lat="46.43391" lon="5.2688">
        <ele>214.6</ele>
        <time>2021-11-01T12:07:57Z</time>
      </trkpt>
      <trkpt lat="46.43342" lon="5.26874">
        <ele>215.8</ele>
        <time>2021-11-01T12:08:06Z</time>
      </trkpt>
      <trkpt lat="46.43284" lon="5.26873">
        <ele>216.2</ele>
        <time>2021-11-01T12:08:16Z</time>
      </trkpt>
      <trkpt lat="46.43278" lon="5.26874">
        <ele>216.4</ele>
        <time>2021-11-01T12:08:17Z</time>
      </trkpt>
      <trkpt lat="46.4322" lon="5.26873">
        <ele>216.6</ele>
        <time>2021-11-01T12:08:27Z</time>
      </trkpt>
      <trkpt lat="46.4318" lon="5.26866">
        <ele>217</ele>
        <time>2021-11-01T12:08:34Z</time>
      </trkpt>
      <trkpt lat="46.4317" lon="5.26863">
        <ele>217.2</ele>
        <time>2021-11-01T12:08:36Z</time>
      </trkpt>
      <trkpt lat="46.43144" lon="5.26855">
        <ele>218.4</ele>
        <time>2021-11-01T12:08:42Z</time>
      </trkpt>
      <trkpt lat="46.4314" lon="5.26854">
        <ele>218.6</ele>
        <time>2021-11-01T12:08:43Z</time>
      </trkpt>
      <trkpt lat="46.43124" lon="5.2685">
        <ele>219.6</ele>
        <time>2021-11-01T12:08:47Z</time>
      </trkpt>
      <trkpt lat="46.43107" lon="5.26847">
        <ele>220.6</ele>
        <time>2021-11-01T12:08:51Z</time>
      </trkpt>
      <trkpt lat="46.43092" lon="5.26844">
        <ele>221.8</ele>
        <time>2021-11-01T12:08:55Z</time>
      </trkpt>
      <trkpt lat="46.43075" lon="5.2684">
        <ele>223.2</ele>
        <time>2021-11-01T12:09:00Z</time>
      </trkpt>
      <trkpt lat="46.43056" lon="5.26839">
        <ele>224.2</ele>
        <time>2021-11-01T12:09:05Z</time>
      </trkpt>
      <trkpt lat="46.43045" lon="5.2684">
        <ele>225</ele>
        <time>2021-11-01T12:09:08Z</time>
      </trkpt>
      <trkpt lat="46.43041" lon="5.2684">
        <ele>225.2</ele>
        <time>2021-11-01T12:09:09Z</time>
      </trkpt>
      <trkpt lat="46.43021" lon="5.26839">
        <ele>226.4</ele>
        <time>2021-11-01T12:09:14Z</time>
      </trkpt>
      <trkpt lat="46.43006" lon="5.26841">
        <ele>227</ele>
        <time>2021-11-01T12:09:18Z</time>
      </trkpt>
      <trkpt lat="46.42995" lon="5.26842">
        <ele>227.4</ele>
        <time>2021-11-01T12:09:21Z</time>
      </trkpt>
      <trkpt lat="46.42974" lon="5.26844">
        <ele>228.4</ele>
        <time>2021-11-01T12:09:26Z</time>
      </trkpt>
      <trkpt lat="46.4297" lon="5.26845">
        <ele>228.6</ele>
        <time>2021-11-01T12:09:27Z</time>
      </trkpt>
      <trkpt lat="46.42936" lon="5.26849">
        <ele>229.4</ele>
        <time>2021-11-01T12:09:35Z</time>
      </trkpt>
      <trkpt lat="46.42921" lon="5.26851">
        <ele>229.6</ele>
        <time>2021-11-01T12:09:38Z</time>
      </trkpt>
      <trkpt lat="46.42875" lon="5.26857">
        <ele>229.8</ele>
        <time>2021-11-01T12:09:47Z</time>
      </trkpt>
      <trkpt lat="46.42822" lon="5.26854">
        <ele>229</ele>
        <time>2021-11-01T12:09:56Z</time>
      </trkpt>
      <trkpt lat="46.42801" lon="5.26851">
        <ele>228.4</ele>
        <time>2021-11-01T12:09:59Z</time>
      </trkpt>
      <trkpt lat="46.4278" lon="5.26845">
        <ele>227.6</ele>
        <time>2021-11-01T12:10:02Z</time>
      </trkpt>
      <trkpt lat="46.42773" lon="5.26844">
        <ele>227.2</ele>
        <time>2021-11-01T12:10:03Z</time>
      </trkpt>
      <trkpt lat="46.4275" lon="5.26838">
        <ele>226</ele>
        <time>2021-11-01T12:10:06Z</time>
      </trkpt>
      <trkpt lat="46.42734" lon="5.26834">
        <ele>225.4</ele>
        <time>2021-11-01T12:10:08Z</time>
      </trkpt>
      <trkpt lat="46.42726" lon="5.26832">
        <ele>225</ele>
        <time>2021-11-01T12:10:09Z</time>
      </trkpt>
      <trkpt lat="46.4271" lon="5.26828">
        <ele>223.6</ele>
        <time>2021-11-01T12:10:11Z</time>
      </trkpt>
      <trkpt lat="46.42683" lon="5.26822">
        <ele>222.6</ele>
        <time>2021-11-01T12:10:14Z</time>
      </trkpt>
      <trkpt lat="46.42663" lon="5.26817">
        <ele>221.2</ele>
        <time>2021-11-01T12:10:16Z</time>
      </trkpt>
      <trkpt lat="46.42643" lon="5.26813">
        <ele>219.6</ele>
        <time>2021-11-01T12:10:18Z</time>
      </trkpt>
      <trkpt lat="46.42624" lon="5.26808">
        <ele>218.4</ele>
        <time>2021-11-01T12:10:20Z</time>
      </trkpt>
      <trkpt lat="46.42603" lon="5.26803">
        <ele>217</ele>
        <time>2021-11-01T12:10:22Z</time>
      </trkpt>
      <trkpt lat="46.42593" lon="5.26801">
        <ele>216.6</ele>
        <time>2021-11-01T12:10:23Z</time>
      </trkpt>
      <trkpt lat="46.42583" lon="5.26798">
        <ele>215.8</ele>
        <time>2021-11-01T12:10:24Z</time>
      </trkpt>
      <trkpt lat="46.42563" lon="5.26793">
        <ele>214.2</ele>
        <time>2021-11-01T12:10:26Z</time>
      </trkpt>
      <trkpt lat="46.42543" lon="5.26788">
        <ele>213.2</ele>
        <time>2021-11-01T12:10:28Z</time>
      </trkpt>
      <trkpt lat="46.42513" lon="5.26782">
        <ele>211.8</ele>
        <time>2021-11-01T12:10:31Z</time>
      </trkpt>
      <trkpt lat="46.42464" lon="5.26769">
        <ele>211</ele>
        <time>2021-11-01T12:10:37Z</time>
      </trkpt>
      <trkpt lat="46.42423" lon="5.2676">
        <ele>212</ele>
        <time>2021-11-01T12:10:43Z</time>
      </trkpt>
      <trkpt lat="46.42386" lon="5.2675">
        <ele>213.2</ele>
        <time>2021-11-01T12:10:49Z</time>
      </trkpt>
      <trkpt lat="46.4238" lon="5.26749">
        <ele>213.4</ele>
        <time>2021-11-01T12:10:50Z</time>
      </trkpt>
      <trkpt lat="46.4235" lon="5.26741">
        <ele>214.2</ele>
        <time>2021-11-01T12:10:55Z</time>
      </trkpt>
      <trkpt lat="46.42334" lon="5.26736">
        <ele>215</ele>
        <time>2021-11-01T12:10:58Z</time>
      </trkpt>
      <trkpt lat="46.42316" lon="5.26732">
        <ele>215.4</ele>
        <time>2021-11-01T12:11:01Z</time>
      </trkpt>
      <trkpt lat="46.42278" lon="5.26722">
        <ele>216.6</ele>
        <time>2021-11-01T12:11:08Z</time>
      </trkpt>
      <trkpt lat="46.42268" lon="5.26719">
        <ele>217</ele>
        <time>2021-11-01T12:11:10Z</time>
      </trkpt>
      <trkpt lat="46.42243" lon="5.26712">
        <ele>217.8</ele>
        <time>2021-11-01T12:11:15Z</time>
      </trkpt>
      <trkpt lat="46.42223" lon="5.26707">
        <ele>218.4</ele>
        <time>2021-11-01T12:11:19Z</time>
      </trkpt>
      <trkpt lat="46.42208" lon="5.26702">
        <ele>219</ele>
        <time>2021-11-01T12:11:22Z</time>
      </trkpt>
      <trkpt lat="46.42186" lon="5.26694">
        <ele>219.4</ele>
        <time>2021-11-01T12:11:26Z</time>
      </trkpt>
      <trkpt lat="46.4214" lon="5.26677">
        <ele>219.2</ele>
        <time>2021-11-01T12:11:34Z</time>
      </trkpt>
      <trkpt lat="46.42081" lon="5.26656">
        <ele>218.2</ele>
        <time>2021-11-01T12:11:43Z</time>
      </trkpt>
      <trkpt lat="46.42075" lon="5.26654">
        <ele>218</ele>
        <time>2021-11-01T12:11:44Z</time>
      </trkpt>
      <trkpt lat="46.42018" lon="5.26631">
        <ele>217.4</ele>
        <time>2021-11-01T12:11:53Z</time>
      </trkpt>
      <trkpt lat="46.42012" lon="5.26629">
        <ele>217.4</ele>
        <time>2021-11-01T12:11:54Z</time>
      </trkpt>
      <trkpt lat="46.41957" lon="5.26608">
        <ele>217.6</ele>
        <time>2021-11-01T12:12:03Z</time>
      </trkpt>
      <trkpt lat="46.41951" lon="5.26606">
        <ele>217.6</ele>
        <time>2021-11-01T12:12:04Z</time>
      </trkpt>
      <trkpt lat="46.41893" lon="5.26583">
        <ele>217.4</ele>
        <time>2021-11-01T12:12:13Z</time>
      </trkpt>
      <trkpt lat="46.41887" lon="5.2658">
        <ele>217.4</ele>
        <time>2021-11-01T12:12:14Z</time>
      </trkpt>
      <trkpt lat="46.41834" lon="5.26557">
        <ele>216.8</ele>
        <time>2021-11-01T12:12:22Z</time>
      </trkpt>
      <trkpt lat="46.4178" lon="5.26535">
        <ele>216.4</ele>
        <time>2021-11-01T12:12:30Z</time>
      </trkpt>
      <trkpt lat="46.41767" lon="5.2653">
        <ele>216.2</ele>
        <time>2021-11-01T12:12:32Z</time>
      </trkpt>
      <trkpt lat="46.4171" lon="5.26509">
        <ele>216.2</ele>
        <time>2021-11-01T12:12:41Z</time>
      </trkpt>
      <trkpt lat="46.41652" lon="5.26504">
        <ele>216.2</ele>
        <time>2021-11-01T12:12:50Z</time>
      </trkpt>
      <trkpt lat="46.41607" lon="5.26515">
        <ele>216.4</ele>
        <time>2021-11-01T12:12:57Z</time>
      </trkpt>
      <trkpt lat="46.41558" lon="5.26545">
        <ele>216.2</ele>
        <time>2021-11-01T12:13:05Z</time>
      </trkpt>
      <trkpt lat="46.41512" lon="5.26588">
        <ele>216.2</ele>
        <time>2021-11-01T12:13:13Z</time>
      </trkpt>
      <trkpt lat="46.41507" lon="5.26593">
        <ele>216.4</ele>
        <time>2021-11-01T12:13:14Z</time>
      </trkpt>
      <trkpt lat="46.4146" lon="5.26642">
        <ele>217</ele>
        <time>2021-11-01T12:13:23Z</time>
      </trkpt>
      <trkpt lat="46.41429" lon="5.26675">
        <ele>217.8</ele>
        <time>2021-11-01T12:13:30Z</time>
      </trkpt>
      <trkpt lat="46.41421" lon="5.26683">
        <ele>218.4</ele>
        <time>2021-11-01T12:13:32Z</time>
      </trkpt>
      <trkpt lat="46.41398" lon="5.26707">
        <ele>219.6</ele>
        <time>2021-11-01T12:13:38Z</time>
      </trkpt>
      <trkpt lat="46.41376" lon="5.2673">
        <ele>220.6</ele>
        <time>2021-11-01T12:13:44Z</time>
      </trkpt>
      <trkpt lat="46.41366" lon="5.26742">
        <ele>221</ele>
        <time>2021-11-01T12:13:47Z</time>
      </trkpt>
      <trkpt lat="46.41355" lon="5.26754">
        <ele>221.8</ele>
        <time>2021-11-01T12:13:50Z</time>
      </trkpt>
      <trkpt lat="46.41337" lon="5.26773">
        <ele>223</ele>
        <time>2021-11-01T12:13:55Z</time>
      </trkpt>
      <trkpt lat="46.4133" lon="5.2678">
        <ele>223.4</ele>
        <time>2021-11-01T12:13:57Z</time>
      </trkpt>
      <trkpt lat="46.41323" lon="5.26785">
        <ele>224.2</ele>
        <time>2021-11-01T12:13:59Z</time>
      </trkpt>
      <trkpt lat="46.41306" lon="5.26799">
        <ele>225.4</ele>
        <time>2021-11-01T12:14:04Z</time>
      </trkpt>
      <trkpt lat="46.41299" lon="5.26804">
        <ele>225.8</ele>
        <time>2021-11-01T12:14:06Z</time>
      </trkpt>
      <trkpt lat="46.41289" lon="5.26811">
        <ele>226.6</ele>
        <time>2021-11-01T12:14:09Z</time>
      </trkpt>
      <trkpt lat="46.41274" lon="5.26815">
        <ele>228</ele>
        <time>2021-11-01T12:14:13Z</time>
      </trkpt>
      <trkpt lat="46.41256" lon="5.26819">
        <ele>229.2</ele>
        <time>2021-11-01T12:14:18Z</time>
      </trkpt>
      <trkpt lat="46.41246" lon="5.26823">
        <ele>229.8</ele>
        <time>2021-11-01T12:14:21Z</time>
      </trkpt>
      <trkpt lat="46.41234" lon="5.26831">
        <ele>230.4</ele>
        <time>2021-11-01T12:14:24Z</time>
      </trkpt>
      <trkpt lat="46.41223" lon="5.26839">
        <ele>231</ele>
        <time>2021-11-01T12:14:27Z</time>
      </trkpt>
      <trkpt lat="46.41213" lon="5.26848">
        <ele>231.4</ele>
        <time>2021-11-01T12:14:30Z</time>
      </trkpt>
      <trkpt lat="46.41209" lon="5.26851">
        <ele>231.6</ele>
        <time>2021-11-01T12:14:31Z</time>
      </trkpt>
      <trkpt lat="46.412" lon="5.26853">
        <ele>232</ele>
        <time>2021-11-01T12:14:33Z</time>
      </trkpt>
      <trkpt lat="46.41195" lon="5.26853">
        <ele>232.2</ele>
        <time>2021-11-01T12:14:34Z</time>
      </trkpt>
      <trkpt lat="46.4119" lon="5.26853">
        <ele>232.2</ele>
        <time>2021-11-01T12:14:35Z</time>
      </trkpt>
      <trkpt lat="46.41181" lon="5.26857">
        <ele>232.4</ele>
        <time>2021-11-01T12:14:37Z</time>
      </trkpt>
      <trkpt lat="46.41177" lon="5.26861">
        <ele>232.4</ele>
        <time>2021-11-01T12:14:38Z</time>
      </trkpt>
      <trkpt lat="46.41174" lon="5.26867">
        <ele>232.6</ele>
        <time>2021-11-01T12:14:39Z</time>
      </trkpt>
      <trkpt lat="46.41168" lon="5.26878">
        <ele>232.6</ele>
        <time>2021-11-01T12:14:41Z</time>
      </trkpt>
      <trkpt lat="46.41164" lon="5.26883">
        <ele>232.8</ele>
        <time>2021-11-01T12:14:42Z</time>
      </trkpt>
      <trkpt lat="46.4116" lon="5.26887">
        <ele>232.8</ele>
        <time>2021-11-01T12:14:43Z</time>
      </trkpt>
      <trkpt lat="46.41146" lon="5.26893">
        <ele>233</ele>
        <time>2021-11-01T12:14:46Z</time>
      </trkpt>
      <trkpt lat="46.41105" lon="5.26904">
        <ele>233.6</ele>
        <time>2021-11-01T12:14:54Z</time>
      </trkpt>
      <trkpt lat="46.41069" lon="5.26905">
        <ele>233.4</ele>
        <time>2021-11-01T12:15:00Z</time>
      </trkpt>
      <trkpt lat="46.41023" lon="5.26903">
        <ele>232.4</ele>
        <time>2021-11-01T12:15:07Z</time>
      </trkpt>
      <trkpt lat="46.4098" lon="5.26908">
        <ele>231.4</ele>
        <time>2021-11-01T12:15:13Z</time>
      </trkpt>
      <trkpt lat="46.40965" lon="5.26912">
        <ele>231</ele>
        <time>2021-11-01T12:15:15Z</time>
      </trkpt>
      <trkpt lat="46.40936" lon="5.26917">
        <ele>230.2</ele>
        <time>2021-11-01T12:15:19Z</time>
      </trkpt>
      <trkpt lat="46.40895" lon="5.26932">
        <ele>229.4</ele>
        <time>2021-11-01T12:15:25Z</time>
      </trkpt>
      <trkpt lat="46.40874" lon="5.26941">
        <ele>229.2</ele>
        <time>2021-11-01T12:15:28Z</time>
      </trkpt>
      <trkpt lat="46.40825" lon="5.26966">
        <ele>228.6</ele>
        <time>2021-11-01T12:15:35Z</time>
      </trkpt>
      <trkpt lat="46.40796" lon="5.2698">
        <ele>228.2</ele>
        <time>2021-11-01T12:15:39Z</time>
      </trkpt>
      <trkpt lat="46.40789" lon="5.26981">
        <ele>228</ele>
        <time>2021-11-01T12:15:40Z</time>
      </trkpt>
      <trkpt lat="46.40782" lon="5.26982">
        <ele>228</ele>
        <time>2021-11-01T12:15:41Z</time>
      </trkpt>
      <trkpt lat="46.4074" lon="5.26976">
        <ele>227.6</ele>
        <time>2021-11-01T12:15:47Z</time>
      </trkpt>
      <trkpt lat="46.40697" lon="5.26968">
        <ele>228</ele>
        <time>2021-11-01T12:15:54Z</time>
      </trkpt>
      <trkpt lat="46.40655" lon="5.26956">
        <ele>228.8</ele>
        <time>2021-11-01T12:16:01Z</time>
      </trkpt>
      <trkpt lat="46.40629" lon="5.26943">
        <ele>229.2</ele>
        <time>2021-11-01T12:16:05Z</time>
      </trkpt>
      <trkpt lat="46.40616" lon="5.26936">
        <ele>229.4</ele>
        <time>2021-11-01T12:16:07Z</time>
      </trkpt>
      <trkpt lat="46.40563" lon="5.26909">
        <ele>228.8</ele>
        <time>2021-11-01T12:16:15Z</time>
      </trkpt>
      <trkpt lat="46.40557" lon="5.26906">
        <ele>228.8</ele>
        <time>2021-11-01T12:16:16Z</time>
      </trkpt>
      <trkpt lat="46.40507" lon="5.2689">
        <ele>228.2</ele>
        <time>2021-11-01T12:16:23Z</time>
      </trkpt>
      <trkpt lat="46.405" lon="5.26889">
        <ele>228.2</ele>
        <time>2021-11-01T12:16:24Z</time>
      </trkpt>
      <trkpt lat="46.40449" lon="5.26882">
        <ele>227.8</ele>
        <time>2021-11-01T12:16:32Z</time>
      </trkpt>
      <trkpt lat="46.40392" lon="5.26877">
        <ele>229.2</ele>
        <time>2021-11-01T12:16:41Z</time>
      </trkpt>
      <trkpt lat="46.40354" lon="5.26885">
        <ele>229.2</ele>
        <time>2021-11-01T12:16:47Z</time>
      </trkpt>
      <trkpt lat="46.40324" lon="5.26889">
        <ele>229.4</ele>
        <time>2021-11-01T12:16:52Z</time>
      </trkpt>
      <trkpt lat="46.40317" lon="5.2689">
        <ele>229.4</ele>
        <time>2021-11-01T12:16:53Z</time>
      </trkpt>
      <trkpt lat="46.40268" lon="5.26892">
        <ele>229.8</ele>
        <time>2021-11-01T12:17:01Z</time>
      </trkpt>
      <trkpt lat="46.40213" lon="5.26895">
        <ele>230</ele>
        <time>2021-11-01T12:17:10Z</time>
      </trkpt>
      <trkpt lat="46.40195" lon="5.26897">
        <ele>230.4</ele>
        <time>2021-11-01T12:17:13Z</time>
      </trkpt>
      <trkpt lat="46.40173" lon="5.26899">
        <ele>230.6</ele>
        <time>2021-11-01T12:17:17Z</time>
      </trkpt>
      <trkpt lat="46.40135" lon="5.26899">
        <ele>231.4</ele>
        <time>2021-11-01T12:17:24Z</time>
      </trkpt>
      <trkpt lat="46.40124" lon="5.269">
        <ele>231.8</ele>
        <time>2021-11-01T12:17:26Z</time>
      </trkpt>
      <trkpt lat="46.40098" lon="5.26898">
        <ele>232.6</ele>
        <time>2021-11-01T12:17:31Z</time>
      </trkpt>
      <trkpt lat="46.40077" lon="5.26893">
        <ele>232.8</ele>
        <time>2021-11-01T12:17:35Z</time>
      </trkpt>
      <trkpt lat="46.40035" lon="5.26878">
        <ele>233.6</ele>
        <time>2021-11-01T12:17:43Z</time>
      </trkpt>
      <trkpt lat="46.40013" lon="5.26868">
        <ele>234</ele>
        <time>2021-11-01T12:17:47Z</time>
      </trkpt>
      <trkpt lat="46.39962" lon="5.26846">
        <ele>234.4</ele>
        <time>2021-11-01T12:17:56Z</time>
      </trkpt>
      <trkpt lat="46.39913" lon="5.26822">
        <ele>233.2</ele>
        <time>2021-11-01T12:18:03Z</time>
      </trkpt>
      <trkpt lat="46.39905" lon="5.26818">
        <ele>232.6</ele>
        <time>2021-11-01T12:18:04Z</time>
      </trkpt>
      <trkpt lat="46.39881" lon="5.2681">
        <ele>231.6</ele>
        <time>2021-11-01T12:18:07Z</time>
      </trkpt>
      <trkpt lat="46.39873" lon="5.26809">
        <ele>231.4</ele>
        <time>2021-11-01T12:18:08Z</time>
      </trkpt>
      <trkpt lat="46.39864" lon="5.26809">
        <ele>231</ele>
        <time>2021-11-01T12:18:09Z</time>
      </trkpt>
      <trkpt lat="46.39847" lon="5.26812">
        <ele>230.2</ele>
        <time>2021-11-01T12:18:11Z</time>
      </trkpt>
      <trkpt lat="46.39831" lon="5.26814">
        <ele>229</ele>
        <time>2021-11-01T12:18:13Z</time>
      </trkpt>
      <trkpt lat="46.39814" lon="5.26815">
        <ele>228.4</ele>
        <time>2021-11-01T12:18:15Z</time>
      </trkpt>
      <trkpt lat="46.39769" lon="5.26826">
        <ele>228</ele>
        <time>2021-11-01T12:18:21Z</time>
      </trkpt>
      <trkpt lat="46.39724" lon="5.26838">
        <ele>228.8</ele>
        <time>2021-11-01T12:18:28Z</time>
      </trkpt>
      <trkpt lat="46.39691" lon="5.2684">
        <ele>229.4</ele>
        <time>2021-11-01T12:18:34Z</time>
      </trkpt>
      <trkpt lat="46.39675" lon="5.26838">
        <ele>230.2</ele>
        <time>2021-11-01T12:18:37Z</time>
      </trkpt>
      <trkpt lat="46.39654" lon="5.26833">
        <ele>231.2</ele>
        <time>2021-11-01T12:18:41Z</time>
      </trkpt>
      <trkpt lat="46.39649" lon="5.26832">
        <ele>231.2</ele>
        <time>2021-11-01T12:18:42Z</time>
      </trkpt>
      <trkpt lat="46.39629" lon="5.26826">
        <ele>232</ele>
        <time>2021-11-01T12:18:46Z</time>
      </trkpt>
      <trkpt lat="46.39624" lon="5.26825">
        <ele>232.2</ele>
        <time>2021-11-01T12:18:47Z</time>
      </trkpt>
      <trkpt lat="46.39619" lon="5.26825">
        <ele>232.6</ele>
        <time>2021-11-01T12:18:48Z</time>
      </trkpt>
      <trkpt lat="46.39608" lon="5.26827">
        <ele>232.8</ele>
        <time>2021-11-01T12:18:50Z</time>
      </trkpt>
      <trkpt lat="46.39599" lon="5.26833">
        <ele>233</ele>
        <time>2021-11-01T12:18:52Z</time>
      </trkpt>
      <trkpt lat="46.39591" lon="5.26843">
        <ele>233.2</ele>
        <time>2021-11-01T12:18:54Z</time>
      </trkpt>
      <trkpt lat="46.39589" lon="5.26849">
        <ele>233.2</ele>
        <time>2021-11-01T12:18:55Z</time>
      </trkpt>
      <trkpt lat="46.39587" lon="5.26855">
        <ele>233.4</ele>
        <time>2021-11-01T12:18:56Z</time>
      </trkpt>
      <trkpt lat="46.39585" lon="5.26862">
        <ele>233.4</ele>
        <time>2021-11-01T12:18:57Z</time>
      </trkpt>
      <trkpt lat="46.3958" lon="5.26874">
        <ele>233.8</ele>
        <time>2021-11-01T12:18:59Z</time>
      </trkpt>
      <trkpt lat="46.39577" lon="5.2688">
        <ele>233.8</ele>
        <time>2021-11-01T12:19:00Z</time>
      </trkpt>
      <trkpt lat="46.39573" lon="5.26886">
        <ele>234.2</ele>
        <time>2021-11-01T12:19:01Z</time>
      </trkpt>
      <trkpt lat="46.3956" lon="5.26898">
        <ele>234.6</ele>
        <time>2021-11-01T12:19:04Z</time>
      </trkpt>
      <trkpt lat="46.39545" lon="5.26908">
        <ele>234.8</ele>
        <time>2021-11-01T12:19:07Z</time>
      </trkpt>
      <trkpt lat="46.39523" lon="5.26919">
        <ele>235.2</ele>
        <time>2021-11-01T12:19:11Z</time>
      </trkpt>
      <trkpt lat="46.39505" lon="5.26929">
        <ele>235.2</ele>
        <time>2021-11-01T12:19:14Z</time>
      </trkpt>
      <trkpt lat="46.39495" lon="5.26939">
        <ele>235.2</ele>
        <time>2021-11-01T12:19:16Z</time>
      </trkpt>
      <trkpt lat="46.39476" lon="5.2698">
        <ele>234.8</ele>
        <time>2021-11-01T12:19:21Z</time>
      </trkpt>
      <trkpt lat="46.39451" lon="5.27045">
        <ele>233.8</ele>
        <time>2021-11-01T12:19:28Z</time>
      </trkpt>
      <trkpt lat="46.39448" lon="5.27056">
        <ele>233.4</ele>
        <time>2021-11-01T12:19:29Z</time>
      </trkpt>
      <trkpt lat="46.39435" lon="5.27095">
        <ele>232.6</ele>
        <time>2021-11-01T12:19:33Z</time>
      </trkpt>
      <trkpt lat="46.3943" lon="5.27103">
        <ele>232.4</ele>
        <time>2021-11-01T12:19:34Z</time>
      </trkpt>
      <trkpt lat="46.39425" lon="5.2711">
        <ele>232.4</ele>
        <time>2021-11-01T12:19:35Z</time>
      </trkpt>
      <trkpt lat="46.39407" lon="5.27124">
        <ele>232.4</ele>
        <time>2021-11-01T12:19:38Z</time>
      </trkpt>
      <trkpt lat="46.39369" lon="5.27149">
        <ele>232.6</ele>
        <time>2021-11-01T12:19:44Z</time>
      </trkpt>
      <trkpt lat="46.39327" lon="5.27175">
        <ele>232.6</ele>
        <time>2021-11-01T12:19:51Z</time>
      </trkpt>
      <trkpt lat="46.39273" lon="5.27204">
        <ele>233.4</ele>
        <time>2021-11-01T12:20:00Z</time>
      </trkpt>
      <trkpt lat="46.39268" lon="5.27206">
        <ele>233.6</ele>
        <time>2021-11-01T12:20:01Z</time>
      </trkpt>
      <trkpt lat="46.3924" lon="5.27225">
        <ele>234</ele>
        <time>2021-11-01T12:20:06Z</time>
      </trkpt>
      <trkpt lat="46.39236" lon="5.27231">
        <ele>234</ele>
        <time>2021-11-01T12:20:07Z</time>
      </trkpt>
      <trkpt lat="46.39223" lon="5.27251">
        <ele>234.4</ele>
        <time>2021-11-01T12:20:10Z</time>
      </trkpt>
      <trkpt lat="46.39217" lon="5.27266">
        <ele>234.6</ele>
        <time>2021-11-01T12:20:12Z</time>
      </trkpt>
      <trkpt lat="46.39196" lon="5.2734">
        <ele>235.6</ele>
        <time>2021-11-01T12:20:21Z</time>
      </trkpt>
      <trkpt lat="46.39194" lon="5.27348">
        <ele>235.8</ele>
        <time>2021-11-01T12:20:22Z</time>
      </trkpt>
      <trkpt lat="46.39182" lon="5.27381">
        <ele>235.8</ele>
        <time>2021-11-01T12:20:26Z</time>
      </trkpt>
      <trkpt lat="46.39178" lon="5.27389">
        <ele>235.8</ele>
        <time>2021-11-01T12:20:27Z</time>
      </trkpt>
      <trkpt lat="46.39173" lon="5.27396">
        <ele>235.8</ele>
        <time>2021-11-01T12:20:28Z</time>
      </trkpt>
      <trkpt lat="46.39156" lon="5.27413">
        <ele>235.8</ele>
        <time>2021-11-01T12:20:31Z</time>
      </trkpt>
      <trkpt lat="46.39122" lon="5.27441">
        <ele>235.8</ele>
        <time>2021-11-01T12:20:37Z</time>
      </trkpt>
      <trkpt lat="46.39099" lon="5.27457">
        <ele>235.8</ele>
        <time>2021-11-01T12:20:41Z</time>
      </trkpt>
      <trkpt lat="46.39081" lon="5.2747">
        <ele>235.8</ele>
        <time>2021-11-01T12:20:44Z</time>
      </trkpt>
      <trkpt lat="46.39045" lon="5.27497">
        <ele>235.6</ele>
        <time>2021-11-01T12:20:50Z</time>
      </trkpt>
      <trkpt lat="46.39" lon="5.2753">
        <ele>235.6</ele>
        <time>2021-11-01T12:20:58Z</time>
      </trkpt>
      <trkpt lat="46.38995" lon="5.27533">
        <ele>235.8</ele>
        <time>2021-11-01T12:20:59Z</time>
      </trkpt>
      <trkpt lat="46.38981" lon="5.27544">
        <ele>236.6</ele>
        <time>2021-11-01T12:21:02Z</time>
      </trkpt>
      <trkpt lat="46.38976" lon="5.27547">
        <ele>236.8</ele>
        <time>2021-11-01T12:21:03Z</time>
      </trkpt>
      <trkpt lat="46.38956" lon="5.2756">
        <ele>237</ele>
        <time>2021-11-01T12:21:07Z</time>
      </trkpt>
      <trkpt lat="46.38943" lon="5.27565">
        <ele>237.8</ele>
        <time>2021-11-01T12:21:09Z</time>
      </trkpt>
      <trkpt lat="46.38936" lon="5.27567">
        <ele>237.6</ele>
        <time>2021-11-01T12:21:10Z</time>
      </trkpt>
      <trkpt lat="46.38923" lon="5.2757">
        <ele>237.8</ele>
        <time>2021-11-01T12:21:12Z</time>
      </trkpt>
      <trkpt lat="46.38901" lon="5.27568">
        <ele>237.6</ele>
        <time>2021-11-01T12:21:15Z</time>
      </trkpt>
      <trkpt lat="46.38894" lon="5.27565">
        <ele>237.4</ele>
        <time>2021-11-01T12:21:16Z</time>
      </trkpt>
      <trkpt lat="46.38856" lon="5.27541">
        <ele>237.4</ele>
        <time>2021-11-01T12:21:22Z</time>
      </trkpt>
      <trkpt lat="46.38802" lon="5.27511">
        <ele>237.6</ele>
        <time>2021-11-01T12:21:31Z</time>
      </trkpt>
      <trkpt lat="46.38754" lon="5.27491">
        <ele>237.8</ele>
        <time>2021-11-01T12:21:39Z</time>
      </trkpt>
      <trkpt lat="46.38716" lon="5.27463">
        <ele>238.2</ele>
        <time>2021-11-01T12:21:46Z</time>
      </trkpt>
      <trkpt lat="46.38686" lon="5.27436">
        <ele>238.6</ele>
        <time>2021-11-01T12:21:52Z</time>
      </trkpt>
      <trkpt lat="46.38681" lon="5.27431">
        <ele>238.8</ele>
        <time>2021-11-01T12:21:53Z</time>
      </trkpt>
      <trkpt lat="46.38645" lon="5.27405">
        <ele>239.4</ele>
        <time>2021-11-01T12:22:00Z</time>
      </trkpt>
      <trkpt lat="46.38641" lon="5.27404">
        <ele>239.4</ele>
        <time>2021-11-01T12:22:01Z</time>
      </trkpt>
      <trkpt lat="46.38635" lon="5.27405">
        <ele>239.6</ele>
        <time>2021-11-01T12:22:02Z</time>
      </trkpt>
      <trkpt lat="46.38625" lon="5.27415">
        <ele>239.2</ele>
        <time>2021-11-01T12:22:04Z</time>
      </trkpt>
      <trkpt lat="46.38599" lon="5.27456">
        <ele>238.6</ele>
        <time>2021-11-01T12:22:10Z</time>
      </trkpt>
      <trkpt lat="46.38572" lon="5.27482">
        <ele>237.8</ele>
        <time>2021-11-01T12:22:14Z</time>
      </trkpt>
      <trkpt lat="46.38564" lon="5.27488">
        <ele>237.4</ele>
        <time>2021-11-01T12:22:15Z</time>
      </trkpt>
      <trkpt lat="46.38556" lon="5.27493">
        <ele>236.4</ele>
        <time>2021-11-01T12:22:16Z</time>
      </trkpt>
      <trkpt lat="46.38538" lon="5.27503">
        <ele>235</ele>
        <time>2021-11-01T12:22:18Z</time>
      </trkpt>
      <trkpt lat="46.38528" lon="5.27509">
        <ele>234.2</ele>
        <time>2021-11-01T12:22:19Z</time>
      </trkpt>
      <trkpt lat="46.38518" lon="5.27516">
        <ele>233.6</ele>
        <time>2021-11-01T12:22:20Z</time>
      </trkpt>
      <trkpt lat="46.38508" lon="5.27523">
        <ele>232.4</ele>
        <time>2021-11-01T12:22:21Z</time>
      </trkpt>
      <trkpt lat="46.38489" lon="5.27542">
        <ele>231.4</ele>
        <time>2021-11-01T12:22:23Z</time>
      </trkpt>
      <trkpt lat="46.3847" lon="5.27563">
        <ele>229</ele>
        <time>2021-11-01T12:22:25Z</time>
      </trkpt>
      <trkpt lat="46.38463" lon="5.27572">
        <ele>227.8</ele>
        <time>2021-11-01T12:22:26Z</time>
      </trkpt>
      <trkpt lat="46.38444" lon="5.27596">
        <ele>225.8</ele>
        <time>2021-11-01T12:22:28Z</time>
      </trkpt>
      <trkpt lat="46.38435" lon="5.27607">
        <ele>224.8</ele>
        <time>2021-11-01T12:22:29Z</time>
      </trkpt>
      <trkpt lat="46.38427" lon="5.27618">
        <ele>223.6</ele>
        <time>2021-11-01T12:22:30Z</time>
      </trkpt>
      <trkpt lat="46.38402" lon="5.27648">
        <ele>222.6</ele>
        <time>2021-11-01T12:22:33Z</time>
      </trkpt>
      <trkpt lat="46.38393" lon="5.27657">
        <ele>221.4</ele>
        <time>2021-11-01T12:22:34Z</time>
      </trkpt>
      <trkpt lat="46.38383" lon="5.27665">
        <ele>220.6</ele>
        <time>2021-11-01T12:22:35Z</time>
      </trkpt>
      <trkpt lat="46.38363" lon="5.27678">
        <ele>219.8</ele>
        <time>2021-11-01T12:22:37Z</time>
      </trkpt>
      <trkpt lat="46.38328" lon="5.27704">
        <ele>218.6</ele>
        <time>2021-11-01T12:22:41Z</time>
      </trkpt>
      <trkpt lat="46.38299" lon="5.27721">
        <ele>217.2</ele>
        <time>2021-11-01T12:22:44Z</time>
      </trkpt>
      <trkpt lat="46.38292" lon="5.27724">
        <ele>217</ele>
        <time>2021-11-01T12:22:45Z</time>
      </trkpt>
      <trkpt lat="46.38238" lon="5.27741">
        <ele>216.2</ele>
        <time>2021-11-01T12:22:51Z</time>
      </trkpt>
      <trkpt lat="46.3822" lon="5.27751">
        <ele>216</ele>
        <time>2021-11-01T12:22:53Z</time>
      </trkpt>
      <trkpt lat="46.38206" lon="5.27763">
        <ele>215.8</ele>
        <time>2021-11-01T12:22:55Z</time>
      </trkpt>
      <trkpt lat="46.3819" lon="5.27776">
        <ele>215.4</ele>
        <time>2021-11-01T12:22:57Z</time>
      </trkpt>
      <trkpt lat="46.38179" lon="5.27793">
        <ele>215.2</ele>
        <time>2021-11-01T12:22:59Z</time>
      </trkpt>
      <trkpt lat="46.38176" lon="5.27801">
        <ele>215.2</ele>
        <time>2021-11-01T12:23:00Z</time>
      </trkpt>
      <trkpt lat="46.38173" lon="5.27815">
        <ele>215</ele>
        <time>2021-11-01T12:23:01Z</time>
      </trkpt>
      <trkpt lat="46.38172" lon="5.27826">
        <ele>215</ele>
        <time>2021-11-01T12:23:02Z</time>
      </trkpt>
      <trkpt lat="46.38165" lon="5.27905">
        <ele>214.8</ele>
        <time>2021-11-01T12:23:09Z</time>
      </trkpt>
      <trkpt lat="46.38158" lon="5.27958">
        <ele>214.8</ele>
        <time>2021-11-01T12:23:14Z</time>
      </trkpt>
      <trkpt lat="46.38156" lon="5.27968">
        <ele>215</ele>
        <time>2021-11-01T12:23:15Z</time>
      </trkpt>
      <trkpt lat="46.38153" lon="5.27977">
        <ele>215</ele>
        <time>2021-11-01T12:23:16Z</time>
      </trkpt>
      <trkpt lat="46.38147" lon="5.27993">
        <ele>215.4</ele>
        <time>2021-11-01T12:23:18Z</time>
      </trkpt>
      <trkpt lat="46.38143" lon="5.28">
        <ele>215.4</ele>
        <time>2021-11-01T12:23:19Z</time>
      </trkpt>
      <trkpt lat="46.38116" lon="5.2804">
        <ele>216.2</ele>
        <time>2021-11-01T12:23:25Z</time>
      </trkpt>
      <trkpt lat="46.38077" lon="5.28097">
        <ele>217</ele>
        <time>2021-11-01T12:23:34Z</time>
      </trkpt>
      <trkpt lat="46.38069" lon="5.2811">
        <ele>217.2</ele>
        <time>2021-11-01T12:23:36Z</time>
      </trkpt>
      <trkpt lat="46.38042" lon="5.2815">
        <ele>218.2</ele>
        <time>2021-11-01T12:23:43Z</time>
      </trkpt>
      <trkpt lat="46.3804" lon="5.28154">
        <ele>218.4</ele>
        <time>2021-11-01T12:23:44Z</time>
      </trkpt>
      <trkpt lat="46.38025" lon="5.28172">
        <ele>219.4</ele>
        <time>2021-11-01T12:23:48Z</time>
      </trkpt>
      <trkpt lat="46.38018" lon="5.28178">
        <ele>220</ele>
        <time>2021-11-01T12:23:50Z</time>
      </trkpt>
      <trkpt lat="46.38009" lon="5.28184">
        <ele>221</ele>
        <time>2021-11-01T12:23:53Z</time>
      </trkpt>
      <trkpt lat="46.37998" lon="5.2819">
        <ele>222</ele>
        <time>2021-11-01T12:23:56Z</time>
      </trkpt>
      <trkpt lat="46.37987" lon="5.28198">
        <ele>223.2</ele>
        <time>2021-11-01T12:23:59Z</time>
      </trkpt>
      <trkpt lat="46.37984" lon="5.28201">
        <ele>223.6</ele>
        <time>2021-11-01T12:24:00Z</time>
      </trkpt>
      <trkpt lat="46.37972" lon="5.28215">
        <ele>224.4</ele>
        <time>2021-11-01T12:24:04Z</time>
      </trkpt>
      <trkpt lat="46.37964" lon="5.28226">
        <ele>225.6</ele>
        <time>2021-11-01T12:24:07Z</time>
      </trkpt>
      <trkpt lat="46.37956" lon="5.28239">
        <ele>227</ele>
        <time>2021-11-01T12:24:11Z</time>
      </trkpt>
      <trkpt lat="46.37954" lon="5.28242">
        <ele>227.2</ele>
        <time>2021-11-01T12:24:12Z</time>
      </trkpt>
      <trkpt lat="46.3795" lon="5.28249">
        <ele>228</ele>
        <time>2021-11-01T12:24:14Z</time>
      </trkpt>
      <trkpt lat="46.37944" lon="5.2826">
        <ele>229</ele>
        <time>2021-11-01T12:24:17Z</time>
      </trkpt>
      <trkpt lat="46.37938" lon="5.28273">
        <ele>230.2</ele>
        <time>2021-11-01T12:24:20Z</time>
      </trkpt>
      <trkpt lat="46.37932" lon="5.28287">
        <ele>231</ele>
        <time>2021-11-01T12:24:23Z</time>
      </trkpt>
      <trkpt lat="46.37927" lon="5.28298">
        <ele>231.2</ele>
        <time>2021-11-01T12:24:25Z</time>
      </trkpt>
      <trkpt lat="46.37917" lon="5.2832">
        <ele>231.6</ele>
        <time>2021-11-01T12:24:29Z</time>
      </trkpt>
      <trkpt lat="46.37902" lon="5.28346">
        <ele>231.4</ele>
        <time>2021-11-01T12:24:33Z</time>
      </trkpt>
      <trkpt lat="46.37897" lon="5.28354">
        <ele>231.2</ele>
        <time>2021-11-01T12:24:34Z</time>
      </trkpt>
      <trkpt lat="46.37878" lon="5.28392">
        <ele>229.6</ele>
        <time>2021-11-01T12:24:38Z</time>
      </trkpt>
      <trkpt lat="46.37874" lon="5.28403">
        <ele>229</ele>
        <time>2021-11-01T12:24:39Z</time>
      </trkpt>
      <trkpt lat="46.37869" lon="5.28415">
        <ele>228.6</ele>
        <time>2021-11-01T12:24:40Z</time>
      </trkpt>
      <trkpt lat="46.3786" lon="5.28442">
        <ele>227</ele>
        <time>2021-11-01T12:24:42Z</time>
      </trkpt>
      <trkpt lat="46.37857" lon="5.28454">
        <ele>226</ele>
        <time>2021-11-01T12:24:43Z</time>
      </trkpt>
      <trkpt lat="46.37849" lon="5.28483">
        <ele>224.4</ele>
        <time>2021-11-01T12:24:45Z</time>
      </trkpt>
      <trkpt lat="46.37846" lon="5.28499">
        <ele>223.2</ele>
        <time>2021-11-01T12:24:46Z</time>
      </trkpt>
      <trkpt lat="46.37841" lon="5.2853">
        <ele>220.8</ele>
        <time>2021-11-01T12:24:48Z</time>
      </trkpt>
      <trkpt lat="46.37837" lon="5.28561">
        <ele>219.2</ele>
        <time>2021-11-01T12:24:50Z</time>
      </trkpt>
      <trkpt lat="46.37832" lon="5.2859">
        <ele>218.2</ele>
        <time>2021-11-01T12:24:52Z</time>
      </trkpt>
      <trkpt lat="46.37828" lon="5.28606">
        <ele>217.6</ele>
        <time>2021-11-01T12:24:53Z</time>
      </trkpt>
      <trkpt lat="46.37823" lon="5.28618">
        <ele>217.2</ele>
        <time>2021-11-01T12:24:54Z</time>
      </trkpt>
      <trkpt lat="46.37819" lon="5.28629">
        <ele>217</ele>
        <time>2021-11-01T12:24:55Z</time>
      </trkpt>
      <trkpt lat="46.37801" lon="5.28669">
        <ele>216.6</ele>
        <time>2021-11-01T12:24:59Z</time>
      </trkpt>
      <trkpt lat="46.37786" lon="5.28715">
        <ele>217.6</ele>
        <time>2021-11-01T12:25:04Z</time>
      </trkpt>
      <trkpt lat="46.37782" lon="5.28731">
        <ele>218</ele>
        <time>2021-11-01T12:25:06Z</time>
      </trkpt>
      <trkpt lat="46.37777" lon="5.28751">
        <ele>218.6</ele>
        <time>2021-11-01T12:25:09Z</time>
      </trkpt>
      <trkpt lat="46.37776" lon="5.28758">
        <ele>219.2</ele>
        <time>2021-11-01T12:25:10Z</time>
      </trkpt>
      <trkpt lat="46.37771" lon="5.28776">
        <ele>221</ele>
        <time>2021-11-01T12:25:13Z</time>
      </trkpt>
      <trkpt lat="46.37766" lon="5.28793">
        <ele>222.2</ele>
        <time>2021-11-01T12:25:16Z</time>
      </trkpt>
      <trkpt lat="46.37762" lon="5.28805">
        <ele>223.2</ele>
        <time>2021-11-01T12:25:18Z</time>
      </trkpt>
      <trkpt lat="46.37752" lon="5.28834">
        <ele>224.4</ele>
        <time>2021-11-01T12:25:23Z</time>
      </trkpt>
      <trkpt lat="46.37746" lon="5.28852">
        <ele>225</ele>
        <time>2021-11-01T12:25:26Z</time>
      </trkpt>
      <trkpt lat="46.3774" lon="5.28863">
        <ele>225.2</ele>
        <time>2021-11-01T12:25:28Z</time>
      </trkpt>
      <trkpt lat="46.37737" lon="5.28869">
        <ele>225.6</ele>
        <time>2021-11-01T12:25:29Z</time>
      </trkpt>
      <trkpt lat="46.37724" lon="5.28888">
        <ele>226.4</ele>
        <time>2021-11-01T12:25:33Z</time>
      </trkpt>
      <trkpt lat="46.37715" lon="5.28899">
        <ele>226.8</ele>
        <time>2021-11-01T12:25:36Z</time>
      </trkpt>
      <trkpt lat="46.37706" lon="5.28907">
        <ele>227.8</ele>
        <time>2021-11-01T12:25:39Z</time>
      </trkpt>
      <trkpt lat="46.37703" lon="5.28909">
        <ele>228.2</ele>
        <time>2021-11-01T12:25:40Z</time>
      </trkpt>
      <trkpt lat="46.37687" lon="5.28919">
        <ele>230</ele>
        <time>2021-11-01T12:25:45Z</time>
      </trkpt>
      <trkpt lat="46.37683" lon="5.2892">
        <ele>230.2</ele>
        <time>2021-11-01T12:25:46Z</time>
      </trkpt>
      <trkpt lat="46.37673" lon="5.28925">
        <ele>231.2</ele>
        <time>2021-11-01T12:25:49Z</time>
      </trkpt>
      <trkpt lat="46.37663" lon="5.28931">
        <ele>232.2</ele>
        <time>2021-11-01T12:25:52Z</time>
      </trkpt>
      <trkpt lat="46.37656" lon="5.28936">
        <ele>232.8</ele>
        <time>2021-11-01T12:25:54Z</time>
      </trkpt>
      <trkpt lat="46.37647" lon="5.28946">
        <ele>233.4</ele>
        <time>2021-11-01T12:25:57Z</time>
      </trkpt>
      <trkpt lat="46.37637" lon="5.28957">
        <ele>233.6</ele>
        <time>2021-11-01T12:26:00Z</time>
      </trkpt>
      <trkpt lat="46.37615" lon="5.28983">
        <ele>233.8</ele>
        <time>2021-11-01T12:26:05Z</time>
      </trkpt>
      <trkpt lat="46.37586" lon="5.29018">
        <ele>233</ele>
        <time>2021-11-01T12:26:11Z</time>
      </trkpt>
      <trkpt lat="46.37566" lon="5.29042">
        <ele>232.2</ele>
        <time>2021-11-01T12:26:15Z</time>
      </trkpt>
      <trkpt lat="46.37546" lon="5.29065">
        <ele>231.8</ele>
        <time>2021-11-01T12:26:19Z</time>
      </trkpt>
      <trkpt lat="46.37541" lon="5.29071">
        <ele>231.8</ele>
        <time>2021-11-01T12:26:20Z</time>
      </trkpt>
      <trkpt lat="46.37525" lon="5.29086">
        <ele>231.2</ele>
        <time>2021-11-01T12:26:23Z</time>
      </trkpt>
      <trkpt lat="46.37515" lon="5.29098">
        <ele>231</ele>
        <time>2021-11-01T12:26:25Z</time>
      </trkpt>
      <trkpt lat="46.37485" lon="5.29147">
        <ele>230.8</ele>
        <time>2021-11-01T12:26:32Z</time>
      </trkpt>
      <trkpt lat="46.37474" lon="5.29189">
        <ele>231.2</ele>
        <time>2021-11-01T12:26:37Z</time>
      </trkpt>
      <trkpt lat="46.37465" lon="5.29229">
        <ele>232.4</ele>
        <time>2021-11-01T12:26:43Z</time>
      </trkpt>
      <trkpt lat="46.37462" lon="5.29247">
        <ele>233.4</ele>
        <time>2021-11-01T12:26:46Z</time>
      </trkpt>
      <trkpt lat="46.37457" lon="5.29264">
        <ele>234.8</ele>
        <time>2021-11-01T12:26:49Z</time>
      </trkpt>
      <trkpt lat="46.37451" lon="5.29274">
        <ele>235.6</ele>
        <time>2021-11-01T12:26:51Z</time>
      </trkpt>
      <trkpt lat="46.37447" lon="5.29276">
        <ele>235.6</ele>
        <time>2021-11-01T12:26:52Z</time>
      </trkpt>
      <trkpt lat="46.37443" lon="5.29277">
        <ele>235.8</ele>
        <time>2021-11-01T12:26:53Z</time>
      </trkpt>
      <trkpt lat="46.37435" lon="5.2927">
        <ele>236</ele>
        <time>2021-11-01T12:26:55Z</time>
      </trkpt>
      <trkpt lat="46.37418" lon="5.29242">
        <ele>237.2</ele>
        <time>2021-11-01T12:27:00Z</time>
      </trkpt>
      <trkpt lat="46.37413" lon="5.29228">
        <ele>237.2</ele>
        <time>2021-11-01T12:27:02Z</time>
      </trkpt>
      <trkpt lat="46.37402" lon="5.29189">
        <ele>237.4</ele>
        <time>2021-11-01T12:27:07Z</time>
      </trkpt>
      <trkpt lat="46.37399" lon="5.29182">
        <ele>237.4</ele>
        <time>2021-11-01T12:27:08Z</time>
      </trkpt>
      <trkpt lat="46.37373" lon="5.29141">
        <ele>237.8</ele>
        <time>2021-11-01T12:27:15Z</time>
      </trkpt>
      <trkpt lat="46.37366" lon="5.2913">
        <ele>238.2</ele>
        <time>2021-11-01T12:27:17Z</time>
      </trkpt>
      <trkpt lat="46.3736" lon="5.29117">
        <ele>238.2</ele>
        <time>2021-11-01T12:27:19Z</time>
      </trkpt>
      <trkpt lat="46.37357" lon="5.2911">
        <ele>238.2</ele>
        <time>2021-11-01T12:27:20Z</time>
      </trkpt>
      <trkpt lat="46.37349" lon="5.29072">
        <ele>238.6</ele>
        <time>2021-11-01T12:27:25Z</time>
      </trkpt>
      <trkpt lat="46.37346" lon="5.29065">
        <ele>238.8</ele>
        <time>2021-11-01T12:27:26Z</time>
      </trkpt>
      <trkpt lat="46.37342" lon="5.29059">
        <ele>238.8</ele>
        <time>2021-11-01T12:27:27Z</time>
      </trkpt>
      <trkpt lat="46.37333" lon="5.2905">
        <ele>239</ele>
        <time>2021-11-01T12:27:29Z</time>
      </trkpt>
      <trkpt lat="46.37328" lon="5.29046">
        <ele>239</ele>
        <time>2021-11-01T12:27:30Z</time>
      </trkpt>
      <trkpt lat="46.37318" lon="5.2904">
        <ele>239.2</ele>
        <time>2021-11-01T12:27:32Z</time>
      </trkpt>
      <trkpt lat="46.37287" lon="5.29029">
        <ele>240</ele>
        <time>2021-11-01T12:27:38Z</time>
      </trkpt>
      <trkpt lat="46.37276" lon="5.2903">
        <ele>240.2</ele>
        <time>2021-11-01T12:27:40Z</time>
      </trkpt>
      <trkpt lat="46.3726" lon="5.29036">
        <ele>240.6</ele>
        <time>2021-11-01T12:27:43Z</time>
      </trkpt>
      <trkpt lat="46.3723" lon="5.2906">
        <ele>241.2</ele>
        <time>2021-11-01T12:27:49Z</time>
      </trkpt>
      <trkpt lat="46.37202" lon="5.29064">
        <ele>241.6</ele>
        <time>2021-11-01T12:27:54Z</time>
      </trkpt>
      <trkpt lat="46.37179" lon="5.29064">
        <ele>241.8</ele>
        <time>2021-11-01T12:27:58Z</time>
      </trkpt>
      <trkpt lat="46.37168" lon="5.2906">
        <ele>242</ele>
        <time>2021-11-01T12:28:00Z</time>
      </trkpt>
      <trkpt lat="46.37163" lon="5.29055">
        <ele>242</ele>
        <time>2021-11-01T12:28:01Z</time>
      </trkpt>
      <trkpt lat="46.37159" lon="5.29048">
        <ele>242</ele>
        <time>2021-11-01T12:28:02Z</time>
      </trkpt>
      <trkpt lat="46.37155" lon="5.29031">
        <ele>242</ele>
        <time>2021-11-01T12:28:04Z</time>
      </trkpt>
      <trkpt lat="46.37149" lon="5.29017">
        <ele>241.8</ele>
        <time>2021-11-01T12:28:06Z</time>
      </trkpt>
      <trkpt lat="46.37143" lon="5.29012">
        <ele>241.8</ele>
        <time>2021-11-01T12:28:07Z</time>
      </trkpt>
      <trkpt lat="46.37137" lon="5.29009">
        <ele>241.8</ele>
        <time>2021-11-01T12:28:08Z</time>
      </trkpt>
      <trkpt lat="46.37119" lon="5.29006">
        <ele>241.6</ele>
        <time>2021-11-01T12:28:11Z</time>
      </trkpt>
      <trkpt lat="46.37069" lon="5.29014">
        <ele>241.6</ele>
        <time>2021-11-01T12:28:19Z</time>
      </trkpt>
      <trkpt lat="46.37043" lon="5.29018">
        <ele>241.4</ele>
        <time>2021-11-01T12:28:23Z</time>
      </trkpt>
      <trkpt lat="46.37033" lon="5.29027">
        <ele>241.4</ele>
        <time>2021-11-01T12:28:25Z</time>
      </trkpt>
      <trkpt lat="46.37031" lon="5.29044">
        <ele>241.4</ele>
        <time>2021-11-01T12:28:27Z</time>
      </trkpt>
      <trkpt lat="46.37039" lon="5.29089">
        <ele>241.4</ele>
        <time>2021-11-01T12:28:32Z</time>
      </trkpt>
      <trkpt lat="46.37049" lon="5.29134">
        <ele>241.4</ele>
        <time>2021-11-01T12:28:37Z</time>
      </trkpt>
      <trkpt lat="46.37047" lon="5.29153">
        <ele>241.4</ele>
        <time>2021-11-01T12:28:39Z</time>
      </trkpt>
      <trkpt lat="46.37037" lon="5.29165">
        <ele>241.2</ele>
        <time>2021-11-01T12:28:41Z</time>
      </trkpt>
      <trkpt lat="46.37031" lon="5.29166">
        <ele>241.2</ele>
        <time>2021-11-01T12:28:42Z</time>
      </trkpt>
      <trkpt lat="46.36983" lon="5.29166">
        <ele>240.6</ele>
        <time>2021-11-01T12:28:49Z</time>
      </trkpt>
      <trkpt lat="46.36947" lon="5.29159">
        <ele>240.2</ele>
        <time>2021-11-01T12:28:54Z</time>
      </trkpt>
      <trkpt lat="46.3694" lon="5.29155">
        <ele>240.2</ele>
        <time>2021-11-01T12:28:55Z</time>
      </trkpt>
      <trkpt lat="46.36933" lon="5.2915">
        <ele>240</ele>
        <time>2021-11-01T12:28:56Z</time>
      </trkpt>
      <trkpt lat="46.36922" lon="5.29137">
        <ele>240</ele>
        <time>2021-11-01T12:28:58Z</time>
      </trkpt>
      <trkpt lat="46.36878" lon="5.29087">
        <ele>239.8</ele>
        <time>2021-11-01T12:29:06Z</time>
      </trkpt>
      <trkpt lat="46.36847" lon="5.2907">
        <ele>239.8</ele>
        <time>2021-11-01T12:29:11Z</time>
      </trkpt>
      <trkpt lat="46.36833" lon="5.29067">
        <ele>239.6</ele>
        <time>2021-11-01T12:29:13Z</time>
      </trkpt>
      <trkpt lat="46.36813" lon="5.29068">
        <ele>239.2</ele>
        <time>2021-11-01T12:29:16Z</time>
      </trkpt>
      <trkpt lat="46.36806" lon="5.29068">
        <ele>239.2</ele>
        <time>2021-11-01T12:29:17Z</time>
      </trkpt>
      <trkpt lat="46.36793" lon="5.29071">
        <ele>239</ele>
        <time>2021-11-01T12:29:19Z</time>
      </trkpt>
      <trkpt lat="46.36783" lon="5.29076">
        <ele>238.8</ele>
        <time>2021-11-01T12:29:21Z</time>
      </trkpt>
      <trkpt lat="46.36773" lon="5.29076">
        <ele>238.2</ele>
        <time>2021-11-01T12:29:23Z</time>
      </trkpt>
      <trkpt lat="46.36769" lon="5.29074">
        <ele>238</ele>
        <time>2021-11-01T12:29:24Z</time>
      </trkpt>
      <trkpt lat="46.36764" lon="5.2907">
        <ele>237.8</ele>
        <time>2021-11-01T12:29:25Z</time>
      </trkpt>
      <trkpt lat="46.36755" lon="5.29058">
        <ele>237.6</ele>
        <time>2021-11-01T12:29:27Z</time>
      </trkpt>
      <trkpt lat="46.36751" lon="5.29052">
        <ele>237.6</ele>
        <time>2021-11-01T12:29:28Z</time>
      </trkpt>
      <trkpt lat="46.3673" lon="5.29027">
        <ele>237.6</ele>
        <time>2021-11-01T12:29:32Z</time>
      </trkpt>
      <trkpt lat="46.36724" lon="5.29022">
        <ele>237.6</ele>
        <time>2021-11-01T12:29:33Z</time>
      </trkpt>
      <trkpt lat="46.3671" lon="5.29017">
        <ele>237.6</ele>
        <time>2021-11-01T12:29:35Z</time>
      </trkpt>
      <trkpt lat="46.36672" lon="5.29021">
        <ele>236.8</ele>
        <time>2021-11-01T12:29:40Z</time>
      </trkpt>
      <trkpt lat="46.36616" lon="5.29028">
        <ele>236.4</ele>
        <time>2021-11-01T12:29:48Z</time>
      </trkpt>
      <trkpt lat="46.36602" lon="5.2903">
        <ele>236.4</ele>
        <time>2021-11-01T12:29:50Z</time>
      </trkpt>
      <trkpt lat="46.36547" lon="5.29038">
        <ele>236.4</ele>
        <time>2021-11-01T12:29:58Z</time>
      </trkpt>
      <trkpt lat="46.3654" lon="5.29039">
        <ele>236.4</ele>
        <time>2021-11-01T12:29:59Z</time>
      </trkpt>
      <trkpt lat="46.36479" lon="5.29044">
        <ele>236.8</ele>
        <time>2021-11-01T12:30:08Z</time>
      </trkpt>
      <trkpt lat="46.36439" lon="5.29046">
        <ele>237.2</ele>
        <time>2021-11-01T12:30:14Z</time>
      </trkpt>
      <trkpt lat="46.3638" lon="5.29052">
        <ele>237.2</ele>
        <time>2021-11-01T12:30:23Z</time>
      </trkpt>
      <trkpt lat="46.36374" lon="5.29053">
        <ele>237.2</ele>
        <time>2021-11-01T12:30:24Z</time>
      </trkpt>
      <trkpt lat="46.36316" lon="5.29064">
        <ele>237</ele>
        <time>2021-11-01T12:30:33Z</time>
      </trkpt>
      <trkpt lat="46.36292" lon="5.29069">
        <ele>237.4</ele>
        <time>2021-11-01T12:30:37Z</time>
      </trkpt>
      <trkpt lat="46.36275" lon="5.29073">
        <ele>238</ele>
        <time>2021-11-01T12:30:40Z</time>
      </trkpt>
      <trkpt lat="46.36259" lon="5.29078">
        <ele>238.4</ele>
        <time>2021-11-01T12:30:43Z</time>
      </trkpt>
      <trkpt lat="46.36254" lon="5.29081">
        <ele>238.6</ele>
        <time>2021-11-01T12:30:44Z</time>
      </trkpt>
      <trkpt lat="46.36249" lon="5.29086">
        <ele>238.8</ele>
        <time>2021-11-01T12:30:45Z</time>
      </trkpt>
      <trkpt lat="46.36243" lon="5.29098">
        <ele>239</ele>
        <time>2021-11-01T12:30:47Z</time>
      </trkpt>
      <trkpt lat="46.3624" lon="5.29106">
        <ele>239</ele>
        <time>2021-11-01T12:30:48Z</time>
      </trkpt>
      <trkpt lat="46.36236" lon="5.29112">
        <ele>239.2</ele>
        <time>2021-11-01T12:30:49Z</time>
      </trkpt>
      <trkpt lat="46.36228" lon="5.29123">
        <ele>239.2</ele>
        <time>2021-11-01T12:30:51Z</time>
      </trkpt>
      <trkpt lat="46.36223" lon="5.29125">
        <ele>239.2</ele>
        <time>2021-11-01T12:30:52Z</time>
      </trkpt>
      <trkpt lat="46.36218" lon="5.29126">
        <ele>239.4</ele>
        <time>2021-11-01T12:30:53Z</time>
      </trkpt>
      <trkpt lat="46.36209" lon="5.29129">
        <ele>239.6</ele>
        <time>2021-11-01T12:30:55Z</time>
      </trkpt>
      <trkpt lat="46.36205" lon="5.29134">
        <ele>239.8</ele>
        <time>2021-11-01T12:30:56Z</time>
      </trkpt>
      <trkpt lat="46.36203" lon="5.2914">
        <ele>239.8</ele>
        <time>2021-11-01T12:30:57Z</time>
      </trkpt>
      <trkpt lat="46.36202" lon="5.29154">
        <ele>240</ele>
        <time>2021-11-01T12:30:59Z</time>
      </trkpt>
      <trkpt lat="46.36208" lon="5.29199">
        <ele>240</ele>
        <time>2021-11-01T12:31:04Z</time>
      </trkpt>
      <trkpt lat="46.36221" lon="5.29244">
        <ele>239</ele>
        <time>2021-11-01T12:31:08Z</time>
      </trkpt>
      <trkpt lat="46.36231" lon="5.29285">
        <ele>237.6</ele>
        <time>2021-11-01T12:31:11Z</time>
      </trkpt>
      <trkpt lat="46.36233" lon="5.293">
        <ele>236.2</ele>
        <time>2021-11-01T12:31:12Z</time>
      </trkpt>
      <trkpt lat="46.36234" lon="5.29314">
        <ele>235</ele>
        <time>2021-11-01T12:31:13Z</time>
      </trkpt>
      <trkpt lat="46.36237" lon="5.29343">
        <ele>233.6</ele>
        <time>2021-11-01T12:31:15Z</time>
      </trkpt>
      <trkpt lat="46.36242" lon="5.29382">
        <ele>232.6</ele>
        <time>2021-11-01T12:31:18Z</time>
      </trkpt>
      <trkpt lat="46.36243" lon="5.29394">
        <ele>232.4</ele>
        <time>2021-11-01T12:31:19Z</time>
      </trkpt>
      <trkpt lat="46.36249" lon="5.29449">
        <ele>232.8</ele>
        <time>2021-11-01T12:31:24Z</time>
      </trkpt>
      <trkpt lat="46.36244" lon="5.29465">
        <ele>233.2</ele>
        <time>2021-11-01T12:31:26Z</time>
      </trkpt>
      <trkpt lat="46.36235" lon="5.29473">
        <ele>233.6</ele>
        <time>2021-11-01T12:31:28Z</time>
      </trkpt>
      <trkpt lat="46.36231" lon="5.29475">
        <ele>234.4</ele>
        <time>2021-11-01T12:31:29Z</time>
      </trkpt>
      <trkpt lat="46.36225" lon="5.29477">
        <ele>234.6</ele>
        <time>2021-11-01T12:31:30Z</time>
      </trkpt>
      <trkpt lat="46.36217" lon="5.29483">
        <ele>235.8</ele>
        <time>2021-11-01T12:31:32Z</time>
      </trkpt>
      <trkpt lat="46.36213" lon="5.29487">
        <ele>236.4</ele>
        <time>2021-11-01T12:31:33Z</time>
      </trkpt>
      <trkpt lat="46.36205" lon="5.29494">
        <ele>237.2</ele>
        <time>2021-11-01T12:31:35Z</time>
      </trkpt>
      <trkpt lat="46.36192" lon="5.29507">
        <ele>238.4</ele>
        <time>2021-11-01T12:31:38Z</time>
      </trkpt>
      <trkpt lat="46.36174" lon="5.2952">
        <ele>239</ele>
        <time>2021-11-01T12:31:42Z</time>
      </trkpt>
      <trkpt lat="46.36158" lon="5.29528">
        <ele>239.4</ele>
        <time>2021-11-01T12:31:45Z</time>
      </trkpt>
      <trkpt lat="46.36145" lon="5.29531">
        <ele>239.4</ele>
        <time>2021-11-01T12:31:47Z</time>
      </trkpt>
      <trkpt lat="46.36093" lon="5.29538">
        <ele>238.6</ele>
        <time>2021-11-01T12:31:54Z</time>
      </trkpt>
      <trkpt lat="46.36086" lon="5.29539">
        <ele>238.4</ele>
        <time>2021-11-01T12:31:55Z</time>
      </trkpt>
      <trkpt lat="46.36028" lon="5.29545">
        <ele>237.4</ele>
        <time>2021-11-01T12:32:03Z</time>
      </trkpt>
      <trkpt lat="46.36021" lon="5.29546">
        <ele>237.4</ele>
        <time>2021-11-01T12:32:04Z</time>
      </trkpt>
      <trkpt lat="46.35985" lon="5.29551">
        <ele>237.2</ele>
        <time>2021-11-01T12:32:09Z</time>
      </trkpt>
      <trkpt lat="46.3595" lon="5.29556">
        <ele>237.2</ele>
        <time>2021-11-01T12:32:14Z</time>
      </trkpt>
      <trkpt lat="46.3593" lon="5.29556">
        <ele>237.4</ele>
        <time>2021-11-01T12:32:17Z</time>
      </trkpt>
      <trkpt lat="46.35885" lon="5.29553">
        <ele>238</ele>
        <time>2021-11-01T12:32:24Z</time>
      </trkpt>
      <trkpt lat="46.35875" lon="5.2955">
        <ele>238.4</ele>
        <time>2021-11-01T12:32:26Z</time>
      </trkpt>
      <trkpt lat="46.3586" lon="5.29548">
        <ele>239</ele>
        <time>2021-11-01T12:32:29Z</time>
      </trkpt>
      <trkpt lat="46.35849" lon="5.29547">
        <ele>239.6</ele>
        <time>2021-11-01T12:32:31Z</time>
      </trkpt>
      <trkpt lat="46.35838" lon="5.29547">
        <ele>240.2</ele>
        <time>2021-11-01T12:32:33Z</time>
      </trkpt>
      <trkpt lat="46.35827" lon="5.29546">
        <ele>241</ele>
        <time>2021-11-01T12:32:35Z</time>
      </trkpt>
      <trkpt lat="46.35811" lon="5.29544">
        <ele>241.6</ele>
        <time>2021-11-01T12:32:38Z</time>
      </trkpt>
      <trkpt lat="46.35789" lon="5.29543">
        <ele>242</ele>
        <time>2021-11-01T12:32:42Z</time>
      </trkpt>
      <trkpt lat="46.35748" lon="5.29543">
        <ele>242.6</ele>
        <time>2021-11-01T12:32:50Z</time>
      </trkpt>
      <trkpt lat="46.35737" lon="5.29543">
        <ele>242.8</ele>
        <time>2021-11-01T12:32:52Z</time>
      </trkpt>
      <trkpt lat="46.35726" lon="5.29545">
        <ele>243</ele>
        <time>2021-11-01T12:32:54Z</time>
      </trkpt>
      <trkpt lat="46.3572" lon="5.29546">
        <ele>243.2</ele>
        <time>2021-11-01T12:32:55Z</time>
      </trkpt>
      <trkpt lat="46.35709" lon="5.29549">
        <ele>243.4</ele>
        <time>2021-11-01T12:32:57Z</time>
      </trkpt>
      <trkpt lat="46.35693" lon="5.2956">
        <ele>243.8</ele>
        <time>2021-11-01T12:33:00Z</time>
      </trkpt>
      <trkpt lat="46.35688" lon="5.29564">
        <ele>244.2</ele>
        <time>2021-11-01T12:33:01Z</time>
      </trkpt>
      <trkpt lat="46.35659" lon="5.29591">
        <ele>244.6</ele>
        <time>2021-11-01T12:33:07Z</time>
      </trkpt>
      <trkpt lat="46.35609" lon="5.2962">
        <ele>244.6</ele>
        <time>2021-11-01T12:33:16Z</time>
      </trkpt>
      <trkpt lat="46.35581" lon="5.29634">
        <ele>244.6</ele>
        <time>2021-11-01T12:33:21Z</time>
      </trkpt>
      <trkpt lat="46.35563" lon="5.29641">
        <ele>244.6</ele>
        <time>2021-11-01T12:33:24Z</time>
      </trkpt>
      <trkpt lat="46.35512" lon="5.2965">
        <ele>244.2</ele>
        <time>2021-11-01T12:33:31Z</time>
      </trkpt>
      <trkpt lat="46.35505" lon="5.29652">
        <ele>244.2</ele>
        <time>2021-11-01T12:33:32Z</time>
      </trkpt>
      <trkpt lat="46.35494" lon="5.2966">
        <ele>243.8</ele>
        <time>2021-11-01T12:33:34Z</time>
      </trkpt>
      <trkpt lat="46.35494" lon="5.2966">
        <ele>243.8</ele>
        <time>2021-11-01T12:33:35Z</time>
      </trkpt>
      <trkpt lat="46.35485" lon="5.29674">
        <ele>243.8</ele>
        <time>2021-11-01T12:33:36Z</time>
      </trkpt>
      <trkpt lat="46.35471" lon="5.29694">
        <ele>243.4</ele>
        <time>2021-11-01T12:33:39Z</time>
      </trkpt>
      <trkpt lat="46.35452" lon="5.29695">
        <ele>243.4</ele>
        <time>2021-11-01T12:33:42Z</time>
      </trkpt>
      <trkpt lat="46.35398" lon="5.29677">
        <ele>243.8</ele>
        <time>2021-11-01T12:33:51Z</time>
      </trkpt>
      <trkpt lat="46.35385" lon="5.29673">
        <ele>244</ele>
        <time>2021-11-01T12:33:53Z</time>
      </trkpt>
      <trkpt lat="46.35328" lon="5.29655">
        <ele>245</ele>
        <time>2021-11-01T12:34:02Z</time>
      </trkpt>
      <trkpt lat="46.35271" lon="5.29645">
        <ele>244.8</ele>
        <time>2021-11-01T12:34:11Z</time>
      </trkpt>
      <trkpt lat="46.35265" lon="5.29644">
        <ele>244.6</ele>
        <time>2021-11-01T12:34:12Z</time>
      </trkpt>
      <trkpt lat="46.35211" lon="5.29649">
        <ele>244.4</ele>
        <time>2021-11-01T12:34:20Z</time>
      </trkpt>
      <trkpt lat="46.35154" lon="5.29658">
        <ele>243.6</ele>
        <time>2021-11-01T12:34:28Z</time>
      </trkpt>
      <trkpt lat="46.35146" lon="5.29659">
        <ele>243.6</ele>
        <time>2021-11-01T12:34:29Z</time>
      </trkpt>
      <trkpt lat="46.35123" lon="5.29661">
        <ele>243</ele>
        <time>2021-11-01T12:34:32Z</time>
      </trkpt>
      <trkpt lat="46.35107" lon="5.29663">
        <ele>241.8</ele>
        <time>2021-11-01T12:34:34Z</time>
      </trkpt>
      <trkpt lat="46.35077" lon="5.29662">
        <ele>241</ele>
        <time>2021-11-01T12:34:38Z</time>
      </trkpt>
      <trkpt lat="46.35063" lon="5.29658">
        <ele>240.8</ele>
        <time>2021-11-01T12:34:40Z</time>
      </trkpt>
      <trkpt lat="46.35056" lon="5.29655">
        <ele>240.8</ele>
        <time>2021-11-01T12:34:41Z</time>
      </trkpt>
      <trkpt lat="46.3505" lon="5.29651">
        <ele>240.8</ele>
        <time>2021-11-01T12:34:43Z</time>
      </trkpt>
      <trkpt lat="46.35032" lon="5.29641">
        <ele>240.8</ele>
        <time>2021-11-01T12:34:45Z</time>
      </trkpt>
      <trkpt lat="46.3502" lon="5.29639">
        <ele>241</ele>
        <time>2021-11-01T12:34:47Z</time>
      </trkpt>
      <trkpt lat="46.34997" lon="5.29636">
        <ele>242</ele>
        <time>2021-11-01T12:34:51Z</time>
      </trkpt>
      <trkpt lat="46.34986" lon="5.29636">
        <ele>242.4</ele>
        <time>2021-11-01T12:34:53Z</time>
      </trkpt>
      <trkpt lat="46.3498" lon="5.29636">
        <ele>242.4</ele>
        <time>2021-11-01T12:34:54Z</time>
      </trkpt>
      <trkpt lat="46.34974" lon="5.29638">
        <ele>242.6</ele>
        <time>2021-11-01T12:34:55Z</time>
      </trkpt>
      <trkpt lat="46.34962" lon="5.29643">
        <ele>243.2</ele>
        <time>2021-11-01T12:34:57Z</time>
      </trkpt>
      <trkpt lat="46.34951" lon="5.29653">
        <ele>243.8</ele>
        <time>2021-11-01T12:34:59Z</time>
      </trkpt>
      <trkpt lat="46.34939" lon="5.29664">
        <ele>244</ele>
        <time>2021-11-01T12:35:01Z</time>
      </trkpt>
      <trkpt lat="46.34932" lon="5.29667">
        <ele>244</ele>
        <time>2021-11-01T12:35:02Z</time>
      </trkpt>
      <trkpt lat="46.34925" lon="5.29667">
        <ele>244</ele>
        <time>2021-11-01T12:35:03Z</time>
      </trkpt>
      <trkpt lat="46.34913" lon="5.29664">
        <ele>244</ele>
        <time>2021-11-01T12:35:05Z</time>
      </trkpt>
      <trkpt lat="46.349" lon="5.29655">
        <ele>244</ele>
        <time>2021-11-01T12:35:07Z</time>
      </trkpt>
      <trkpt lat="46.34877" lon="5.29638">
        <ele>244</ele>
        <time>2021-11-01T12:35:11Z</time>
      </trkpt>
      <trkpt lat="46.3486" lon="5.29629">
        <ele>244.2</ele>
        <time>2021-11-01T12:35:14Z</time>
      </trkpt>
      <trkpt lat="46.34846" lon="5.29623">
        <ele>244.4</ele>
        <time>2021-11-01T12:35:17Z</time>
      </trkpt>
      <trkpt lat="46.34799" lon="5.29615">
        <ele>244.6</ele>
        <time>2021-11-01T12:35:23Z</time>
      </trkpt>
      <trkpt lat="46.34744" lon="5.29626">
        <ele>244.4</ele>
        <time>2021-11-01T12:35:31Z</time>
      </trkpt>
      <trkpt lat="46.34716" lon="5.29644">
        <ele>243.8</ele>
        <time>2021-11-01T12:35:35Z</time>
      </trkpt>
      <trkpt lat="46.34709" lon="5.29647">
        <ele>243.6</ele>
        <time>2021-11-01T12:35:36Z</time>
      </trkpt>
      <trkpt lat="46.34693" lon="5.29645">
        <ele>243.4</ele>
        <time>2021-11-01T12:35:38Z</time>
      </trkpt>
      <trkpt lat="46.34677" lon="5.29641">
        <ele>243.2</ele>
        <time>2021-11-01T12:35:40Z</time>
      </trkpt>
      <trkpt lat="46.3463" lon="5.29633">
        <ele>242</ele>
        <time>2021-11-01T12:35:46Z</time>
      </trkpt>
      <trkpt lat="46.34568" lon="5.29619">
        <ele>241</ele>
        <time>2021-11-01T12:35:54Z</time>
      </trkpt>
      <trkpt lat="46.34546" lon="5.29616">
        <ele>241</ele>
        <time>2021-11-01T12:35:57Z</time>
      </trkpt>
      <trkpt lat="46.34488" lon="5.29605">
        <ele>241</ele>
        <time>2021-11-01T12:36:05Z</time>
      </trkpt>
      <trkpt lat="46.34481" lon="5.29603">
        <ele>241</ele>
        <time>2021-11-01T12:36:06Z</time>
      </trkpt>
      <trkpt lat="46.34468" lon="5.29598">
        <ele>241.2</ele>
        <time>2021-11-01T12:36:08Z</time>
      </trkpt>
      <trkpt lat="46.34458" lon="5.29586">
        <ele>241.2</ele>
        <time>2021-11-01T12:36:10Z</time>
      </trkpt>
      <trkpt lat="46.34456" lon="5.29569">
        <ele>241.4</ele>
        <time>2021-11-01T12:36:12Z</time>
      </trkpt>
      <trkpt lat="46.34456" lon="5.29561">
        <ele>241.6</ele>
        <time>2021-11-01T12:36:13Z</time>
      </trkpt>
      <trkpt lat="46.34458" lon="5.29545">
        <ele>242.4</ele>
        <time>2021-11-01T12:36:16Z</time>
      </trkpt>
      <trkpt lat="46.34462" lon="5.2952">
        <ele>243.4</ele>
        <time>2021-11-01T12:36:19Z</time>
      </trkpt>
      <trkpt lat="46.34465" lon="5.29503">
        <ele>243.8</ele>
        <time>2021-11-01T12:36:20Z</time>
      </trkpt>
      <trkpt lat="46.34469" lon="5.29477">
        <ele>244.4</ele>
        <time>2021-11-01T12:36:23Z</time>
      </trkpt>
      <trkpt lat="46.34469" lon="5.29469">
        <ele>244.4</ele>
        <time>2021-11-01T12:36:24Z</time>
      </trkpt>
      <trkpt lat="46.34467" lon="5.29461">
        <ele>244.6</ele>
        <time>2021-11-01T12:36:25Z</time>
      </trkpt>
      <trkpt lat="46.34461" lon="5.29448">
        <ele>244.8</ele>
        <time>2021-11-01T12:36:27Z</time>
      </trkpt>
      <trkpt lat="46.34457" lon="5.29443">
        <ele>245</ele>
        <time>2021-11-01T12:36:28Z</time>
      </trkpt>
      <trkpt lat="46.34438" lon="5.29414">
        <ele>245.6</ele>
        <time>2021-11-01T12:36:33Z</time>
      </trkpt>
      <trkpt lat="46.34431" lon="5.29399">
        <ele>245.8</ele>
        <time>2021-11-01T12:36:35Z</time>
      </trkpt>
      <trkpt lat="46.34421" lon="5.29376">
        <ele>246</ele>
        <time>2021-11-01T12:36:38Z</time>
      </trkpt>
      <trkpt lat="46.34412" lon="5.29361">
        <ele>246.2</ele>
        <time>2021-11-01T12:36:40Z</time>
      </trkpt>
      <trkpt lat="46.344" lon="5.2935">
        <ele>246.2</ele>
        <time>2021-11-01T12:36:42Z</time>
      </trkpt>
      <trkpt lat="46.34387" lon="5.29343">
        <ele>246</ele>
        <time>2021-11-01T12:36:44Z</time>
      </trkpt>
      <trkpt lat="46.3438" lon="5.2934">
        <ele>246</ele>
        <time>2021-11-01T12:36:45Z</time>
      </trkpt>
      <trkpt lat="46.34351" lon="5.2933">
        <ele>245.4</ele>
        <time>2021-11-01T12:36:49Z</time>
      </trkpt>
      <trkpt lat="46.34318" lon="5.29305">
        <ele>244.8</ele>
        <time>2021-11-01T12:36:54Z</time>
      </trkpt>
      <trkpt lat="46.34295" lon="5.29296">
        <ele>244.4</ele>
        <time>2021-11-01T12:36:57Z</time>
      </trkpt>
      <trkpt lat="46.34273" lon="5.2929">
        <ele>244</ele>
        <time>2021-11-01T12:37:00Z</time>
      </trkpt>
      <trkpt lat="46.34216" lon="5.29273">
        <ele>243.8</ele>
        <time>2021-11-01T12:37:08Z</time>
      </trkpt>
      <trkpt lat="46.34188" lon="5.29262">
        <ele>243.6</ele>
        <time>2021-11-01T12:37:12Z</time>
      </trkpt>
      <trkpt lat="46.3418" lon="5.29262">
        <ele>243.4</ele>
        <time>2021-11-01T12:37:13Z</time>
      </trkpt>
      <trkpt lat="46.34165" lon="5.29265">
        <ele>243.4</ele>
        <time>2021-11-01T12:37:15Z</time>
      </trkpt>
      <trkpt lat="46.34134" lon="5.2927">
        <ele>243</ele>
        <time>2021-11-01T12:37:19Z</time>
      </trkpt>
      <trkpt lat="46.34119" lon="5.29273">
        <ele>242.8</ele>
        <time>2021-11-01T12:37:21Z</time>
      </trkpt>
      <trkpt lat="46.34105" lon="5.29281">
        <ele>242.6</ele>
        <time>2021-11-01T12:37:23Z</time>
      </trkpt>
      <trkpt lat="46.34094" lon="5.29295">
        <ele>242.4</ele>
        <time>2021-11-01T12:37:25Z</time>
      </trkpt>
      <trkpt lat="46.34089" lon="5.29304">
        <ele>242.4</ele>
        <time>2021-11-01T12:37:26Z</time>
      </trkpt>
      <trkpt lat="46.34085" lon="5.29313">
        <ele>242.4</ele>
        <time>2021-11-01T12:37:27Z</time>
      </trkpt>
      <trkpt lat="46.34062" lon="5.29355">
        <ele>242</ele>
        <time>2021-11-01T12:37:32Z</time>
      </trkpt>
      <trkpt lat="46.34045" lon="5.2937">
        <ele>241.8</ele>
        <time>2021-11-01T12:37:35Z</time>
      </trkpt>
      <trkpt lat="46.34039" lon="5.29373">
        <ele>241.8</ele>
        <time>2021-11-01T12:37:36Z</time>
      </trkpt>
      <trkpt lat="46.34008" lon="5.29385">
        <ele>242.4</ele>
        <time>2021-11-01T12:37:41Z</time>
      </trkpt>
      <trkpt lat="46.34002" lon="5.29389">
        <ele>242.6</ele>
        <time>2021-11-01T12:37:42Z</time>
      </trkpt>
      <trkpt lat="46.33984" lon="5.29409">
        <ele>243.2</ele>
        <time>2021-11-01T12:37:46Z</time>
      </trkpt>
      <trkpt lat="46.33979" lon="5.29416">
        <ele>243.4</ele>
        <time>2021-11-01T12:37:47Z</time>
      </trkpt>
      <trkpt lat="46.33974" lon="5.29424">
        <ele>243.6</ele>
        <time>2021-11-01T12:37:48Z</time>
      </trkpt>
      <trkpt lat="46.33965" lon="5.29444">
        <ele>244</ele>
        <time>2021-11-01T12:37:51Z</time>
      </trkpt>
      <trkpt lat="46.3396" lon="5.29461">
        <ele>244.4</ele>
        <time>2021-11-01T12:37:53Z</time>
      </trkpt>
      <trkpt lat="46.33953" lon="5.29486">
        <ele>245</ele>
        <time>2021-11-01T12:37:56Z</time>
      </trkpt>
      <trkpt lat="46.33946" lon="5.29502">
        <ele>245.4</ele>
        <time>2021-11-01T12:37:58Z</time>
      </trkpt>
      <trkpt lat="46.33941" lon="5.29507">
        <ele>245.4</ele>
        <time>2021-11-01T12:37:59Z</time>
      </trkpt>
      <trkpt lat="46.33935" lon="5.29512">
        <ele>245.4</ele>
        <time>2021-11-01T12:38:00Z</time>
      </trkpt>
      <trkpt lat="46.33929" lon="5.29514">
        <ele>245.4</ele>
        <time>2021-11-01T12:38:02Z</time>
      </trkpt>
      <trkpt lat="46.33914" lon="5.29517">
        <ele>245.4</ele>
        <time>2021-11-01T12:38:03Z</time>
      </trkpt>
      <trkpt lat="46.33895" lon="5.29518">
        <ele>245.4</ele>
        <time>2021-11-01T12:38:07Z</time>
      </trkpt>
      <trkpt lat="46.33838" lon="5.29519">
        <ele>245.2</ele>
        <time>2021-11-01T12:38:14Z</time>
      </trkpt>
      <trkpt lat="46.33817" lon="5.29519">
        <ele>245.2</ele>
        <time>2021-11-01T12:38:17Z</time>
      </trkpt>
      <trkpt lat="46.33793" lon="5.29509">
        <ele>245.2</ele>
        <time>2021-11-01T12:38:21Z</time>
      </trkpt>
      <trkpt lat="46.33786" lon="5.29504">
        <ele>245.2</ele>
        <time>2021-11-01T12:38:22Z</time>
      </trkpt>
      <trkpt lat="46.33748" lon="5.29469">
        <ele>245.8</ele>
        <time>2021-11-01T12:38:29Z</time>
      </trkpt>
      <trkpt lat="46.33707" lon="5.29416">
        <ele>246</ele>
        <time>2021-11-01T12:38:37Z</time>
      </trkpt>
      <trkpt lat="46.33703" lon="5.29409">
        <ele>246</ele>
        <time>2021-11-01T12:38:38Z</time>
      </trkpt>
      <trkpt lat="46.33674" lon="5.29374">
        <ele>246.2</ele>
        <time>2021-11-01T12:38:44Z</time>
      </trkpt>
      <trkpt lat="46.33668" lon="5.2937">
        <ele>246.2</ele>
        <time>2021-11-01T12:38:45Z</time>
      </trkpt>
      <trkpt lat="46.33655" lon="5.29366">
        <ele>246.4</ele>
        <time>2021-11-01T12:38:47Z</time>
      </trkpt>
      <trkpt lat="46.33648" lon="5.29365">
        <ele>246.4</ele>
        <time>2021-11-01T12:38:49Z</time>
      </trkpt>
      <trkpt lat="46.33635" lon="5.29368">
        <ele>246.4</ele>
        <time>2021-11-01T12:38:50Z</time>
      </trkpt>
      <trkpt lat="46.33609" lon="5.29374">
        <ele>246.6</ele>
        <time>2021-11-01T12:38:54Z</time>
      </trkpt>
      <trkpt lat="46.33584" lon="5.29371">
        <ele>246.6</ele>
        <time>2021-11-01T12:38:58Z</time>
      </trkpt>
      <trkpt lat="46.33578" lon="5.2937">
        <ele>246.8</ele>
        <time>2021-11-01T12:38:59Z</time>
      </trkpt>
      <trkpt lat="46.33535" lon="5.29355">
        <ele>247.6</ele>
        <time>2021-11-01T12:39:06Z</time>
      </trkpt>
      <trkpt lat="46.33522" lon="5.29351">
        <ele>247.6</ele>
        <time>2021-11-01T12:39:08Z</time>
      </trkpt>
      <trkpt lat="46.33465" lon="5.29324">
        <ele>247.2</ele>
        <time>2021-11-01T12:39:17Z</time>
      </trkpt>
      <trkpt lat="46.3343" lon="5.29295">
        <ele>247.2</ele>
        <time>2021-11-01T12:39:23Z</time>
      </trkpt>
      <trkpt lat="46.33426" lon="5.29289">
        <ele>247</ele>
        <time>2021-11-01T12:39:24Z</time>
      </trkpt>
      <trkpt lat="46.33423" lon="5.29282">
        <ele>247</ele>
        <time>2021-11-01T12:39:25Z</time>
      </trkpt>
      <trkpt lat="46.33424" lon="5.29267">
        <ele>246.8</ele>
        <time>2021-11-01T12:39:27Z</time>
      </trkpt>
      <trkpt lat="46.33427" lon="5.29259">
        <ele>246.6</ele>
        <time>2021-11-01T12:39:28Z</time>
      </trkpt>
      <trkpt lat="46.3344" lon="5.29227">
        <ele>246.4</ele>
        <time>2021-11-01T12:39:32Z</time>
      </trkpt>
      <trkpt lat="46.33469" lon="5.29158">
        <ele>246.8</ele>
        <time>2021-11-01T12:39:40Z</time>
      </trkpt>
      <trkpt lat="46.33494" lon="5.29095">
        <ele>246.8</ele>
        <time>2021-11-01T12:39:47Z</time>
      </trkpt>
      <trkpt lat="46.33511" lon="5.29044">
        <ele>245.6</ele>
        <time>2021-11-01T12:39:53Z</time>
      </trkpt>
      <trkpt lat="46.33517" lon="5.29021">
        <ele>245.4</ele>
        <time>2021-11-01T12:39:54Z</time>
      </trkpt>
      <trkpt lat="46.3353" lon="5.28975">
        <ele>244.6</ele>
        <time>2021-11-01T12:39:58Z</time>
      </trkpt>
      <trkpt lat="46.33533" lon="5.28963">
        <ele>244.2</ele>
        <time>2021-11-01T12:39:59Z</time>
      </trkpt>
      <trkpt lat="46.3354" lon="5.28939">
        <ele>243.2</ele>
        <time>2021-11-01T12:40:01Z</time>
      </trkpt>
      <trkpt lat="46.3356" lon="5.28864">
        <ele>242.4</ele>
        <time>2021-11-01T12:40:08Z</time>
      </trkpt>
      <trkpt lat="46.33567" lon="5.28836">
        <ele>242.4</ele>
        <time>2021-11-01T12:40:11Z</time>
      </trkpt>
      <trkpt lat="46.33571" lon="5.28807">
        <ele>242.8</ele>
        <time>2021-11-01T12:40:14Z</time>
      </trkpt>
      <trkpt lat="46.33571" lon="5.28797">
        <ele>243</ele>
        <time>2021-11-01T12:40:15Z</time>
      </trkpt>
      <trkpt lat="46.33572" lon="5.28777">
        <ele>243.4</ele>
        <time>2021-11-01T12:40:17Z</time>
      </trkpt>
      <trkpt lat="46.33571" lon="5.28757">
        <ele>243.8</ele>
        <time>2021-11-01T12:40:19Z</time>
      </trkpt>
      <trkpt lat="46.33566" lon="5.28682">
        <ele>244</ele>
        <time>2021-11-01T12:40:26Z</time>
      </trkpt>
      <trkpt lat="46.33558" lon="5.28594">
        <ele>243.2</ele>
        <time>2021-11-01T12:40:34Z</time>
      </trkpt>
      <trkpt lat="46.33556" lon="5.28583">
        <ele>243.2</ele>
        <time>2021-11-01T12:40:35Z</time>
      </trkpt>
      <trkpt lat="46.33546" lon="5.285">
        <ele>242.2</ele>
        <time>2021-11-01T12:40:42Z</time>
      </trkpt>
      <trkpt lat="46.33546" lon="5.28436">
        <ele>240.8</ele>
        <time>2021-11-01T12:40:47Z</time>
      </trkpt>
      <trkpt lat="46.33546" lon="5.2841">
        <ele>240.4</ele>
        <time>2021-11-01T12:40:49Z</time>
      </trkpt>
      <trkpt lat="46.33547" lon="5.28383">
        <ele>239.8</ele>
        <time>2021-11-01T12:40:51Z</time>
      </trkpt>
      <trkpt lat="46.33548" lon="5.28342">
        <ele>238.8</ele>
        <time>2021-11-01T12:40:54Z</time>
      </trkpt>
      <trkpt lat="46.33552" lon="5.28288">
        <ele>237.6</ele>
        <time>2021-11-01T12:40:58Z</time>
      </trkpt>
      <trkpt lat="46.33561" lon="5.28238">
        <ele>236.4</ele>
        <time>2021-11-01T12:41:02Z</time>
      </trkpt>
      <trkpt lat="46.33567" lon="5.28214">
        <ele>236</ele>
        <time>2021-11-01T12:41:04Z</time>
      </trkpt>
      <trkpt lat="46.33583" lon="5.28162">
        <ele>235.8</ele>
        <time>2021-11-01T12:41:10Z</time>
      </trkpt>
      <trkpt lat="46.33611" lon="5.28101">
        <ele>236.8</ele>
        <time>2021-11-01T12:41:16Z</time>
      </trkpt>
      <trkpt lat="46.3363" lon="5.2807">
        <ele>237.4</ele>
        <time>2021-11-01T12:41:20Z</time>
      </trkpt>
      <trkpt lat="46.33645" lon="5.28046">
        <ele>237.8</ele>
        <time>2021-11-01T12:41:23Z</time>
      </trkpt>
      <trkpt lat="46.33687" lon="5.2798">
        <ele>238.4</ele>
        <time>2021-11-01T12:41:31Z</time>
      </trkpt>
      <trkpt lat="46.33692" lon="5.27971">
        <ele>238.4</ele>
        <time>2021-11-01T12:41:32Z</time>
      </trkpt>
      <trkpt lat="46.33728" lon="5.27915">
        <ele>237.6</ele>
        <time>2021-11-01T12:41:38Z</time>
      </trkpt>
      <trkpt lat="46.33746" lon="5.27886">
        <ele>236.4</ele>
        <time>2021-11-01T12:41:41Z</time>
      </trkpt>
      <trkpt lat="46.33765" lon="5.27856">
        <ele>235.2</ele>
        <time>2021-11-01T12:41:44Z</time>
      </trkpt>
      <trkpt lat="46.33784" lon="5.27825">
        <ele>234.6</ele>
        <time>2021-11-01T12:41:47Z</time>
      </trkpt>
      <trkpt lat="46.3379" lon="5.27815">
        <ele>234</ele>
        <time>2021-11-01T12:41:48Z</time>
      </trkpt>
      <trkpt lat="46.33817" lon="5.27774">
        <ele>233</ele>
        <time>2021-11-01T12:41:52Z</time>
      </trkpt>
      <trkpt lat="46.33836" lon="5.27742">
        <ele>231.6</ele>
        <time>2021-11-01T12:41:55Z</time>
      </trkpt>
      <trkpt lat="46.33842" lon="5.2773">
        <ele>231.2</ele>
        <time>2021-11-01T12:41:56Z</time>
      </trkpt>
      <trkpt lat="46.33848" lon="5.27718">
        <ele>230.8</ele>
        <time>2021-11-01T12:41:57Z</time>
      </trkpt>
      <trkpt lat="46.33853" lon="5.27705">
        <ele>230.4</ele>
        <time>2021-11-01T12:41:58Z</time>
      </trkpt>
      <trkpt lat="46.3386" lon="5.27677">
        <ele>229.2</ele>
        <time>2021-11-01T12:42:00Z</time>
      </trkpt>
      <trkpt lat="46.3387" lon="5.27631">
        <ele>228</ele>
        <time>2021-11-01T12:42:03Z</time>
      </trkpt>
      <trkpt lat="46.33876" lon="5.276">
        <ele>226.6</ele>
        <time>2021-11-01T12:42:05Z</time>
      </trkpt>
      <trkpt lat="46.33882" lon="5.27568">
        <ele>225.4</ele>
        <time>2021-11-01T12:42:07Z</time>
      </trkpt>
      <trkpt lat="46.33889" lon="5.27535">
        <ele>224.4</ele>
        <time>2021-11-01T12:42:09Z</time>
      </trkpt>
      <trkpt lat="46.33896" lon="5.27501">
        <ele>223.2</ele>
        <time>2021-11-01T12:42:11Z</time>
      </trkpt>
      <trkpt lat="46.33903" lon="5.27468">
        <ele>221.8</ele>
        <time>2021-11-01T12:42:13Z</time>
      </trkpt>
      <trkpt lat="46.33909" lon="5.27435">
        <ele>220.6</ele>
        <time>2021-11-01T12:42:15Z</time>
      </trkpt>
      <trkpt lat="46.33913" lon="5.27401">
        <ele>219.4</ele>
        <time>2021-11-01T12:42:17Z</time>
      </trkpt>
      <trkpt lat="46.33915" lon="5.27384">
        <ele>218.8</ele>
        <time>2021-11-01T12:42:18Z</time>
      </trkpt>
      <trkpt lat="46.33915" lon="5.27367">
        <ele>218.4</ele>
        <time>2021-11-01T12:42:19Z</time>
      </trkpt>
      <trkpt lat="46.33915" lon="5.27351">
        <ele>216.8</ele>
        <time>2021-11-01T12:42:20Z</time>
      </trkpt>
      <trkpt lat="46.33914" lon="5.27335">
        <ele>215.8</ele>
        <time>2021-11-01T12:42:21Z</time>
      </trkpt>
      <trkpt lat="46.33913" lon="5.27319">
        <ele>215.4</ele>
        <time>2021-11-01T12:42:22Z</time>
      </trkpt>
      <trkpt lat="46.33912" lon="5.27304">
        <ele>214.8</ele>
        <time>2021-11-01T12:42:23Z</time>
      </trkpt>
      <trkpt lat="46.3391" lon="5.2726">
        <ele>213.6</ele>
        <time>2021-11-01T12:42:26Z</time>
      </trkpt>
      <trkpt lat="46.33908" lon="5.27233">
        <ele>213.2</ele>
        <time>2021-11-01T12:42:28Z</time>
      </trkpt>
      <trkpt lat="46.33903" lon="5.27143">
        <ele>213.4</ele>
        <time>2021-11-01T12:42:35Z</time>
      </trkpt>
      <trkpt lat="46.33902" lon="5.27073">
        <ele>213.6</ele>
        <time>2021-11-01T12:42:41Z</time>
      </trkpt>
      <trkpt lat="46.33909" lon="5.27041">
        <ele>213.6</ele>
        <time>2021-11-01T12:42:44Z</time>
      </trkpt>
      <trkpt lat="46.33909" lon="5.27041">
        <ele>213.6</ele>
        <time>2021-11-01T12:42:45Z</time>
      </trkpt>
      <trkpt lat="46.33931" lon="5.26984">
        <ele>213.6</ele>
        <time>2021-11-01T12:42:50Z</time>
      </trkpt>
      <trkpt lat="46.33963" lon="5.26908">
        <ele>214</ele>
        <time>2021-11-01T12:42:58Z</time>
      </trkpt>
      <trkpt lat="46.33995" lon="5.26834">
        <ele>214.2</ele>
        <time>2021-11-01T12:43:06Z</time>
      </trkpt>
      <trkpt lat="46.34024" lon="5.26764">
        <ele>214.6</ele>
        <time>2021-11-01T12:43:14Z</time>
      </trkpt>
      <trkpt lat="46.34031" lon="5.26748">
        <ele>214.8</ele>
        <time>2021-11-01T12:43:16Z</time>
      </trkpt>
      <trkpt lat="46.34043" lon="5.2672">
        <ele>215.8</ele>
        <time>2021-11-01T12:43:20Z</time>
      </trkpt>
      <trkpt lat="46.34048" lon="5.26707">
        <ele>216.2</ele>
        <time>2021-11-01T12:43:22Z</time>
      </trkpt>
      <trkpt lat="46.34054" lon="5.26695">
        <ele>217.2</ele>
        <time>2021-11-01T12:43:25Z</time>
      </trkpt>
      <trkpt lat="46.34059" lon="5.26683">
        <ele>217.4</ele>
        <time>2021-11-01T12:43:26Z</time>
      </trkpt>
      <trkpt lat="46.34065" lon="5.26667">
        <ele>218.2</ele>
        <time>2021-11-01T12:43:29Z</time>
      </trkpt>
      <trkpt lat="46.34072" lon="5.26651">
        <ele>219.4</ele>
        <time>2021-11-01T12:43:32Z</time>
      </trkpt>
      <trkpt lat="46.34083" lon="5.26626">
        <ele>220.4</ele>
        <time>2021-11-01T12:43:37Z</time>
      </trkpt>
      <trkpt lat="46.34086" lon="5.26616">
        <ele>221.4</ele>
        <time>2021-11-01T12:43:39Z</time>
      </trkpt>
      <trkpt lat="46.34089" lon="5.26611">
        <ele>221.6</ele>
        <time>2021-11-01T12:43:40Z</time>
      </trkpt>
      <trkpt lat="46.34097" lon="5.26586">
        <ele>222.6</ele>
        <time>2021-11-01T12:43:45Z</time>
      </trkpt>
      <trkpt lat="46.34102" lon="5.26566">
        <ele>223.6</ele>
        <time>2021-11-01T12:43:49Z</time>
      </trkpt>
      <trkpt lat="46.34103" lon="5.26561">
        <ele>223.8</ele>
        <time>2021-11-01T12:43:50Z</time>
      </trkpt>
      <trkpt lat="46.34109" lon="5.26535">
        <ele>225.2</ele>
        <time>2021-11-01T12:43:55Z</time>
      </trkpt>
      <trkpt lat="46.3411" lon="5.26526">
        <ele>225.8</ele>
        <time>2021-11-01T12:43:57Z</time>
      </trkpt>
      <trkpt lat="46.34112" lon="5.26515">
        <ele>226.2</ele>
        <time>2021-11-01T12:43:59Z</time>
      </trkpt>
      <trkpt lat="46.34114" lon="5.26502">
        <ele>227.2</ele>
        <time>2021-11-01T12:44:02Z</time>
      </trkpt>
      <trkpt lat="46.34118" lon="5.26478">
        <ele>228.4</ele>
        <time>2021-11-01T12:44:07Z</time>
      </trkpt>
      <trkpt lat="46.34119" lon="5.26471">
        <ele>229</ele>
        <time>2021-11-01T12:44:08Z</time>
      </trkpt>
      <trkpt lat="46.34121" lon="5.26456">
        <ele>229.6</ele>
        <time>2021-11-01T12:44:11Z</time>
      </trkpt>
      <trkpt lat="46.34124" lon="5.26429">
        <ele>230.8</ele>
        <time>2021-11-01T12:44:16Z</time>
      </trkpt>
      <trkpt lat="46.34125" lon="5.26424">
        <ele>231.2</ele>
        <time>2021-11-01T12:44:17Z</time>
      </trkpt>
      <trkpt lat="46.34128" lon="5.26402">
        <ele>232</ele>
        <time>2021-11-01T12:44:21Z</time>
      </trkpt>
      <trkpt lat="46.34131" lon="5.26382">
        <ele>232.8</ele>
        <time>2021-11-01T12:44:25Z</time>
      </trkpt>
      <trkpt lat="46.34131" lon="5.26377">
        <ele>233.2</ele>
        <time>2021-11-01T12:44:26Z</time>
      </trkpt>
      <trkpt lat="46.34133" lon="5.26348">
        <ele>234.2</ele>
        <time>2021-11-01T12:44:31Z</time>
      </trkpt>
      <trkpt lat="46.34135" lon="5.26337">
        <ele>235</ele>
        <time>2021-11-01T12:44:33Z</time>
      </trkpt>
      <trkpt lat="46.34135" lon="5.26331">
        <ele>235.2</ele>
        <time>2021-11-01T12:44:34Z</time>
      </trkpt>
      <trkpt lat="46.34138" lon="5.26297">
        <ele>236.4</ele>
        <time>2021-11-01T12:44:40Z</time>
      </trkpt>
      <trkpt lat="46.3414" lon="5.26278">
        <ele>237</ele>
        <time>2021-11-01T12:44:43Z</time>
      </trkpt>
      <trkpt lat="46.34141" lon="5.26267">
        <ele>237.4</ele>
        <time>2021-11-01T12:44:45Z</time>
      </trkpt>
      <trkpt lat="46.34142" lon="5.2626">
        <ele>237.8</ele>
        <time>2021-11-01T12:44:46Z</time>
      </trkpt>
      <trkpt lat="46.34145" lon="5.26236">
        <ele>238.6</ele>
        <time>2021-11-01T12:44:50Z</time>
      </trkpt>
      <trkpt lat="46.34149" lon="5.26197">
        <ele>239.4</ele>
        <time>2021-11-01T12:44:56Z</time>
      </trkpt>
      <trkpt lat="46.34151" lon="5.26177">
        <ele>239.6</ele>
        <time>2021-11-01T12:44:59Z</time>
      </trkpt>
      <trkpt lat="46.34154" lon="5.26144">
        <ele>240.2</ele>
        <time>2021-11-01T12:45:04Z</time>
      </trkpt>
      <trkpt lat="46.34154" lon="5.26136">
        <ele>240.2</ele>
        <time>2021-11-01T12:45:05Z</time>
      </trkpt>
      <trkpt lat="46.34155" lon="5.26123">
        <ele>240.6</ele>
        <time>2021-11-01T12:45:07Z</time>
      </trkpt>
      <trkpt lat="46.34154" lon="5.26117">
        <ele>241</ele>
        <time>2021-11-01T12:45:08Z</time>
      </trkpt>
      <trkpt lat="46.34152" lon="5.26111">
        <ele>241.2</ele>
        <time>2021-11-01T12:45:09Z</time>
      </trkpt>
      <trkpt lat="46.34143" lon="5.26106">
        <ele>241.2</ele>
        <time>2021-11-01T12:45:11Z</time>
      </trkpt>
      <trkpt lat="46.34133" lon="5.26102">
        <ele>241.4</ele>
        <time>2021-11-01T12:45:13Z</time>
      </trkpt>
      <trkpt lat="46.34123" lon="5.26098">
        <ele>241.4</ele>
        <time>2021-11-01T12:45:15Z</time>
      </trkpt>
      <trkpt lat="46.34083" lon="5.26085">
        <ele>241.4</ele>
        <time>2021-11-01T12:45:22Z</time>
      </trkpt>
      <trkpt lat="46.34061" lon="5.2608">
        <ele>241.2</ele>
        <time>2021-11-01T12:45:26Z</time>
      </trkpt>
      <trkpt lat="46.34052" lon="5.26071">
        <ele>241.2</ele>
        <time>2021-11-01T12:45:28Z</time>
      </trkpt>
      <trkpt lat="46.34051" lon="5.26058">
        <ele>241.2</ele>
        <time>2021-11-01T12:45:30Z</time>
      </trkpt>
      <trkpt lat="46.3406" lon="5.26022">
        <ele>240.8</ele>
        <time>2021-11-01T12:45:34Z</time>
      </trkpt>
      <trkpt lat="46.34062" lon="5.26013">
        <ele>240.8</ele>
        <time>2021-11-01T12:45:35Z</time>
      </trkpt>
      <trkpt lat="46.34064" lon="5.25994">
        <ele>240.8</ele>
        <time>2021-11-01T12:45:37Z</time>
      </trkpt>
      <trkpt lat="46.34067" lon="5.25957">
        <ele>240.6</ele>
        <time>2021-11-01T12:45:41Z</time>
      </trkpt>
      <trkpt lat="46.3407" lon="5.25937">
        <ele>240.6</ele>
        <time>2021-11-01T12:45:43Z</time>
      </trkpt>
      <trkpt lat="46.34072" lon="5.259">
        <ele>240.6</ele>
        <time>2021-11-01T12:45:47Z</time>
      </trkpt>
      <trkpt lat="46.3407" lon="5.25891">
        <ele>240.6</ele>
        <time>2021-11-01T12:45:48Z</time>
      </trkpt>
      <trkpt lat="46.34067" lon="5.25883">
        <ele>240.6</ele>
        <time>2021-11-01T12:45:49Z</time>
      </trkpt>
      <trkpt lat="46.34057" lon="5.25871">
        <ele>240.4</ele>
        <time>2021-11-01T12:45:51Z</time>
      </trkpt>
      <trkpt lat="46.34022" lon="5.2584">
        <ele>240.4</ele>
        <time>2021-11-01T12:45:57Z</time>
      </trkpt>
      <trkpt lat="46.33992" lon="5.258">
        <ele>239.8</ele>
        <time>2021-11-01T12:46:03Z</time>
      </trkpt>
      <trkpt lat="46.33987" lon="5.25794">
        <ele>239.6</ele>
        <time>2021-11-01T12:46:04Z</time>
      </trkpt>
      <trkpt lat="46.33953" lon="5.25749">
        <ele>239.4</ele>
        <time>2021-11-01T12:46:11Z</time>
      </trkpt>
      <trkpt lat="46.3395" lon="5.25744">
        <ele>239.6</ele>
        <time>2021-11-01T12:46:12Z</time>
      </trkpt>
      <trkpt lat="46.33947" lon="5.25736">
        <ele>239.6</ele>
        <time>2021-11-01T12:46:13Z</time>
      </trkpt>
      <trkpt lat="46.33945" lon="5.25718">
        <ele>239.8</ele>
        <time>2021-11-01T12:46:15Z</time>
      </trkpt>
      <trkpt lat="46.33949" lon="5.25678">
        <ele>240.6</ele>
        <time>2021-11-01T12:46:20Z</time>
      </trkpt>
      <trkpt lat="46.3395" lon="5.25673">
        <ele>240.6</ele>
        <time>2021-11-01T12:46:21Z</time>
      </trkpt>
      <trkpt lat="46.33952" lon="5.25653">
        <ele>241.2</ele>
        <time>2021-11-01T12:46:24Z</time>
      </trkpt>
      <trkpt lat="46.33953" lon="5.25648">
        <ele>241.4</ele>
        <time>2021-11-01T12:46:25Z</time>
      </trkpt>
      <trkpt lat="46.33955" lon="5.25643">
        <ele>242</ele>
        <time>2021-11-01T12:46:27Z</time>
      </trkpt>
      <trkpt lat="46.33955" lon="5.25642">
        <ele>242.2</ele>
        <time>2021-11-01T12:46:28Z</time>
      </trkpt>
      <trkpt lat="46.33956" lon="5.2564">
        <ele>242.4</ele>
        <time>2021-11-01T12:46:30Z</time>
      </trkpt>
      <trkpt lat="46.33957" lon="5.2564">
        <ele>242.8</ele>
        <time>2021-11-01T12:46:31Z</time>
      </trkpt>
      <trkpt lat="46.33961" lon="5.25639">
        <ele>243</ele>
        <time>2021-11-01T12:46:33Z</time>
      </trkpt>
      <trkpt lat="46.33967" lon="5.25641">
        <ele>243</ele>
        <time>2021-11-01T12:46:35Z</time>
      </trkpt>
      <trkpt lat="46.33993" lon="5.25646">
        <ele>243</ele>
        <time>2021-11-01T12:46:40Z</time>
      </trkpt>
      <trkpt lat="46.34037" lon="5.25657">
        <ele>242.4</ele>
        <time>2021-11-01T12:46:46Z</time>
      </trkpt>
      <trkpt lat="46.3408" lon="5.2567">
        <ele>242</ele>
        <time>2021-11-01T12:46:52Z</time>
      </trkpt>
      <trkpt lat="46.34089" lon="5.25673">
        <ele>241.8</ele>
        <time>2021-11-01T12:46:53Z</time>
      </trkpt>
      <trkpt lat="46.34129" lon="5.25684">
        <ele>241.4</ele>
        <time>2021-11-01T12:46:58Z</time>
      </trkpt>
      <trkpt lat="46.34138" lon="5.25683">
        <ele>241</ele>
        <time>2021-11-01T12:46:59Z</time>
      </trkpt>
      <trkpt lat="46.34144" lon="5.25681">
        <ele>241</ele>
        <time>2021-11-01T12:47:00Z</time>
      </trkpt>
      <trkpt lat="46.34153" lon="5.25679">
        <ele>240.6</ele>
        <time>2021-11-01T12:47:01Z</time>
      </trkpt>
      <trkpt lat="46.34164" lon="5.25681">
        <ele>240.4</ele>
        <time>2021-11-01T12:47:02Z</time>
      </trkpt>
      <trkpt lat="46.34174" lon="5.25683">
        <ele>239.8</ele>
        <time>2021-11-01T12:47:03Z</time>
      </trkpt>
      <trkpt lat="46.34192" lon="5.25688">
        <ele>238.6</ele>
        <time>2021-11-01T12:47:05Z</time>
      </trkpt>
      <trkpt lat="46.3421" lon="5.25695">
        <ele>237.4</ele>
        <time>2021-11-01T12:47:07Z</time>
      </trkpt>
      <trkpt lat="46.34219" lon="5.25698">
        <ele>237</ele>
        <time>2021-11-01T12:47:08Z</time>
      </trkpt>
      <trkpt lat="46.34227" lon="5.25702">
        <ele>236.6</ele>
        <time>2021-11-01T12:47:09Z</time>
      </trkpt>
      <trkpt lat="46.34234" lon="5.25707">
        <ele>236.2</ele>
        <time>2021-11-01T12:47:10Z</time>
      </trkpt>
      <trkpt lat="46.34248" lon="5.25719">
        <ele>236</ele>
        <time>2021-11-01T12:47:12Z</time>
      </trkpt>
      <trkpt lat="46.34277" lon="5.25745">
        <ele>235.6</ele>
        <time>2021-11-01T12:47:16Z</time>
      </trkpt>
      <trkpt lat="46.34285" lon="5.2575">
        <ele>235.4</ele>
        <time>2021-11-01T12:47:17Z</time>
      </trkpt>
      <trkpt lat="46.34294" lon="5.25753">
        <ele>235.4</ele>
        <time>2021-11-01T12:47:18Z</time>
      </trkpt>
      <trkpt lat="46.34301" lon="5.25755">
        <ele>235.2</ele>
        <time>2021-11-01T12:47:19Z</time>
      </trkpt>
      <trkpt lat="46.34322" lon="5.25758">
        <ele>234.4</ele>
        <time>2021-11-01T12:47:21Z</time>
      </trkpt>
      <trkpt lat="46.34331" lon="5.25758">
        <ele>233.8</ele>
        <time>2021-11-01T12:47:22Z</time>
      </trkpt>
      <trkpt lat="46.34354" lon="5.25761">
        <ele>232.8</ele>
        <time>2021-11-01T12:47:25Z</time>
      </trkpt>
      <trkpt lat="46.34362" lon="5.25766">
        <ele>232.6</ele>
        <time>2021-11-01T12:47:26Z</time>
      </trkpt>
      <trkpt lat="46.34367" lon="5.25771">
        <ele>232.4</ele>
        <time>2021-11-01T12:47:27Z</time>
      </trkpt>
      <trkpt lat="46.34376" lon="5.25776">
        <ele>232.2</ele>
        <time>2021-11-01T12:47:28Z</time>
      </trkpt>
      <trkpt lat="46.34389" lon="5.25779">
        <ele>232</ele>
        <time>2021-11-01T12:47:30Z</time>
      </trkpt>
      <trkpt lat="46.34406" lon="5.25778">
        <ele>231.8</ele>
        <time>2021-11-01T12:47:32Z</time>
      </trkpt>
      <trkpt lat="46.34421" lon="5.2578">
        <ele>231.4</ele>
        <time>2021-11-01T12:47:34Z</time>
      </trkpt>
      <trkpt lat="46.34429" lon="5.25783">
        <ele>231</ele>
        <time>2021-11-01T12:47:35Z</time>
      </trkpt>
      <trkpt lat="46.34485" lon="5.25806">
        <ele>230.4</ele>
        <time>2021-11-01T12:47:42Z</time>
      </trkpt>
      <trkpt lat="46.34493" lon="5.2581">
        <ele>230.4</ele>
        <time>2021-11-01T12:47:43Z</time>
      </trkpt>
      <trkpt lat="46.34534" lon="5.25831">
        <ele>229.8</ele>
        <time>2021-11-01T12:47:49Z</time>
      </trkpt>
      <trkpt lat="46.34587" lon="5.25852">
        <ele>230.4</ele>
        <time>2021-11-01T12:47:56Z</time>
      </trkpt>
      <trkpt lat="46.34627" lon="5.25854">
        <ele>231.2</ele>
        <time>2021-11-01T12:48:02Z</time>
      </trkpt>
      <trkpt lat="46.34631" lon="5.25854">
        <ele>231.6</ele>
        <time>2021-11-01T12:48:03Z</time>
      </trkpt>
      <trkpt lat="46.34643" lon="5.25854">
        <ele>232.2</ele>
        <time>2021-11-01T12:48:05Z</time>
      </trkpt>
      <trkpt lat="46.34655" lon="5.25853">
        <ele>232.6</ele>
        <time>2021-11-01T12:48:07Z</time>
      </trkpt>
      <trkpt lat="46.34671" lon="5.25848">
        <ele>233.8</ele>
        <time>2021-11-01T12:48:10Z</time>
      </trkpt>
      <trkpt lat="46.3469" lon="5.2584">
        <ele>235.2</ele>
        <time>2021-11-01T12:48:14Z</time>
      </trkpt>
      <trkpt lat="46.34701" lon="5.25835">
        <ele>236.2</ele>
        <time>2021-11-01T12:48:16Z</time>
      </trkpt>
      <trkpt lat="46.34705" lon="5.25833">
        <ele>236.6</ele>
        <time>2021-11-01T12:48:17Z</time>
      </trkpt>
      <trkpt lat="46.3472" lon="5.25825">
        <ele>237.2</ele>
        <time>2021-11-01T12:48:20Z</time>
      </trkpt>
      <trkpt lat="46.34725" lon="5.25822">
        <ele>237.4</ele>
        <time>2021-11-01T12:48:21Z</time>
      </trkpt>
      <trkpt lat="46.34741" lon="5.25813">
        <ele>238.6</ele>
        <time>2021-11-01T12:48:24Z</time>
      </trkpt>
      <trkpt lat="46.34757" lon="5.25805">
        <ele>239</ele>
        <time>2021-11-01T12:48:27Z</time>
      </trkpt>
      <trkpt lat="46.348" lon="5.25784">
        <ele>239.6</ele>
        <time>2021-11-01T12:48:34Z</time>
      </trkpt>
      <trkpt lat="46.34856" lon="5.25763">
        <ele>239.2</ele>
        <time>2021-11-01T12:48:42Z</time>
      </trkpt>
      <trkpt lat="46.34909" lon="5.25744">
        <ele>238.4</ele>
        <time>2021-11-01T12:48:49Z</time>
      </trkpt>
      <trkpt lat="46.34941" lon="5.25733">
        <ele>237.4</ele>
        <time>2021-11-01T12:48:53Z</time>
      </trkpt>
      <trkpt lat="46.34982" lon="5.2572">
        <ele>236.6</ele>
        <time>2021-11-01T12:48:58Z</time>
      </trkpt>
      <trkpt lat="46.34998" lon="5.25716">
        <ele>236.4</ele>
        <time>2021-11-01T12:49:00Z</time>
      </trkpt>
      <trkpt lat="46.35048" lon="5.25703">
        <ele>235.2</ele>
        <time>2021-11-01T12:49:06Z</time>
      </trkpt>
      <trkpt lat="46.35101" lon="5.25692">
        <ele>234.4</ele>
        <time>2021-11-01T12:49:12Z</time>
      </trkpt>
      <trkpt lat="46.35111" lon="5.25689">
        <ele>234.2</ele>
        <time>2021-11-01T12:49:13Z</time>
      </trkpt>
      <trkpt lat="46.3512" lon="5.25686">
        <ele>233.8</ele>
        <time>2021-11-01T12:49:14Z</time>
      </trkpt>
      <trkpt lat="46.3514" lon="5.25682">
        <ele>232.6</ele>
        <time>2021-11-01T12:49:16Z</time>
      </trkpt>
      <trkpt lat="46.35161" lon="5.25677">
        <ele>231.8</ele>
        <time>2021-11-01T12:49:18Z</time>
      </trkpt>
      <trkpt lat="46.35172" lon="5.25675">
        <ele>231.4</ele>
        <time>2021-11-01T12:49:19Z</time>
      </trkpt>
      <trkpt lat="46.35216" lon="5.25666">
        <ele>229.2</ele>
        <time>2021-11-01T12:49:23Z</time>
      </trkpt>
      <trkpt lat="46.35238" lon="5.25661">
        <ele>227.8</ele>
        <time>2021-11-01T12:49:25Z</time>
      </trkpt>
      <trkpt lat="46.35249" lon="5.25658">
        <ele>226</ele>
        <time>2021-11-01T12:49:26Z</time>
      </trkpt>
      <trkpt lat="46.35271" lon="5.25653">
        <ele>224.6</ele>
        <time>2021-11-01T12:49:28Z</time>
      </trkpt>
      <trkpt lat="46.35303" lon="5.25647">
        <ele>223.4</ele>
        <time>2021-11-01T12:49:31Z</time>
      </trkpt>
      <trkpt lat="46.35344" lon="5.25639">
        <ele>222.4</ele>
        <time>2021-11-01T12:49:35Z</time>
      </trkpt>
      <trkpt lat="46.35353" lon="5.25636">
        <ele>222.4</ele>
        <time>2021-11-01T12:49:36Z</time>
      </trkpt>
      <trkpt lat="46.354" lon="5.25627">
        <ele>221.8</ele>
        <time>2021-11-01T12:49:41Z</time>
      </trkpt>
      <trkpt lat="46.35461" lon="5.25613">
        <ele>222.4</ele>
        <time>2021-11-01T12:49:48Z</time>
      </trkpt>
      <trkpt lat="46.35485" lon="5.25597">
        <ele>222.2</ele>
        <time>2021-11-01T12:49:51Z</time>
      </trkpt>
      <trkpt lat="46.35493" lon="5.25589">
        <ele>222.2</ele>
        <time>2021-11-01T12:49:52Z</time>
      </trkpt>
      <trkpt lat="46.35523" lon="5.25551">
        <ele>220.6</ele>
        <time>2021-11-01T12:49:56Z</time>
      </trkpt>
      <trkpt lat="46.35539" lon="5.25531">
        <ele>220.2</ele>
        <time>2021-11-01T12:49:58Z</time>
      </trkpt>
      <trkpt lat="46.35559" lon="5.25504">
        <ele>219.6</ele>
        <time>2021-11-01T12:50:01Z</time>
      </trkpt>
      <trkpt lat="46.35595" lon="5.2546">
        <ele>219.2</ele>
        <time>2021-11-01T12:50:06Z</time>
      </trkpt>
      <trkpt lat="46.35626" lon="5.25431">
        <ele>219.8</ele>
        <time>2021-11-01T12:50:11Z</time>
      </trkpt>
      <trkpt lat="46.35644" lon="5.25416">
        <ele>221</ele>
        <time>2021-11-01T12:50:14Z</time>
      </trkpt>
      <trkpt lat="46.35655" lon="5.25407">
        <ele>222</ele>
        <time>2021-11-01T12:50:16Z</time>
      </trkpt>
      <trkpt lat="46.3566" lon="5.25403">
        <ele>222.4</ele>
        <time>2021-11-01T12:50:17Z</time>
      </trkpt>
      <trkpt lat="46.3567" lon="5.25395">
        <ele>223.4</ele>
        <time>2021-11-01T12:50:19Z</time>
      </trkpt>
      <trkpt lat="46.35685" lon="5.25384">
        <ele>224.6</ele>
        <time>2021-11-01T12:50:22Z</time>
      </trkpt>
      <trkpt lat="46.35695" lon="5.25376">
        <ele>225.8</ele>
        <time>2021-11-01T12:50:24Z</time>
      </trkpt>
      <trkpt lat="46.357" lon="5.25372">
        <ele>226.2</ele>
        <time>2021-11-01T12:50:25Z</time>
      </trkpt>
      <trkpt lat="46.35711" lon="5.25364">
        <ele>226.8</ele>
        <time>2021-11-01T12:50:27Z</time>
      </trkpt>
      <trkpt lat="46.35746" lon="5.25342">
        <ele>228</ele>
        <time>2021-11-01T12:50:33Z</time>
      </trkpt>
      <trkpt lat="46.35752" lon="5.25339">
        <ele>228.2</ele>
        <time>2021-11-01T12:50:34Z</time>
      </trkpt>
      <trkpt lat="46.35791" lon="5.25326">
        <ele>228.6</ele>
        <time>2021-11-01T12:50:40Z</time>
      </trkpt>
      <trkpt lat="46.35848" lon="5.25319">
        <ele>228.6</ele>
        <time>2021-11-01T12:50:48Z</time>
      </trkpt>
      <trkpt lat="46.35889" lon="5.2531">
        <ele>228.6</ele>
        <time>2021-11-01T12:50:54Z</time>
      </trkpt>
      <trkpt lat="46.35915" lon="5.25297">
        <ele>229.2</ele>
        <time>2021-11-01T12:50:58Z</time>
      </trkpt>
      <trkpt lat="46.35943" lon="5.25279">
        <ele>229.4</ele>
        <time>2021-11-01T12:51:02Z</time>
      </trkpt>
      <trkpt lat="46.35974" lon="5.25265">
        <ele>229.4</ele>
        <time>2021-11-01T12:51:06Z</time>
      </trkpt>
      <trkpt lat="46.36015" lon="5.2526">
        <ele>228.6</ele>
        <time>2021-11-01T12:51:11Z</time>
      </trkpt>
      <trkpt lat="46.36066" lon="5.25263">
        <ele>228.8</ele>
        <time>2021-11-01T12:51:18Z</time>
      </trkpt>
      <trkpt lat="46.36106" lon="5.25267">
        <ele>230</ele>
        <time>2021-11-01T12:51:24Z</time>
      </trkpt>
      <trkpt lat="46.36112" lon="5.25268">
        <ele>230.4</ele>
        <time>2021-11-01T12:51:25Z</time>
      </trkpt>
      <trkpt lat="46.36143" lon="5.25273">
        <ele>231.4</ele>
        <time>2021-11-01T12:51:30Z</time>
      </trkpt>
      <trkpt lat="46.36169" lon="5.25278">
        <ele>232.6</ele>
        <time>2021-11-01T12:51:34Z</time>
      </trkpt>
      <trkpt lat="46.36199" lon="5.25281">
        <ele>233</ele>
        <time>2021-11-01T12:51:38Z</time>
      </trkpt>
      <trkpt lat="46.36241" lon="5.25279">
        <ele>232.2</ele>
        <time>2021-11-01T12:51:43Z</time>
      </trkpt>
      <trkpt lat="46.36259" lon="5.2528">
        <ele>231.6</ele>
        <time>2021-11-01T12:51:45Z</time>
      </trkpt>
      <trkpt lat="46.36286" lon="5.25285">
        <ele>230.8</ele>
        <time>2021-11-01T12:51:48Z</time>
      </trkpt>
      <trkpt lat="46.36294" lon="5.25288">
        <ele>230.4</ele>
        <time>2021-11-01T12:51:49Z</time>
      </trkpt>
      <trkpt lat="46.36344" lon="5.25308">
        <ele>230</ele>
        <time>2021-11-01T12:51:55Z</time>
      </trkpt>
      <trkpt lat="46.3638" lon="5.25324">
        <ele>230.4</ele>
        <time>2021-11-01T12:52:00Z</time>
      </trkpt>
      <trkpt lat="46.36416" lon="5.2534">
        <ele>231.6</ele>
        <time>2021-11-01T12:52:06Z</time>
      </trkpt>
      <trkpt lat="46.36433" lon="5.25347">
        <ele>232.8</ele>
        <time>2021-11-01T12:52:09Z</time>
      </trkpt>
      <trkpt lat="46.36448" lon="5.25355">
        <ele>234</ele>
        <time>2021-11-01T12:52:12Z</time>
      </trkpt>
      <trkpt lat="46.36453" lon="5.25358">
        <ele>234</ele>
        <time>2021-11-01T12:52:13Z</time>
      </trkpt>
      <trkpt lat="46.36468" lon="5.25365">
        <ele>235</ele>
        <time>2021-11-01T12:52:16Z</time>
      </trkpt>
      <trkpt lat="46.36483" lon="5.25371">
        <ele>236.2</ele>
        <time>2021-11-01T12:52:19Z</time>
      </trkpt>
      <trkpt lat="46.36502" lon="5.25379">
        <ele>236.8</ele>
        <time>2021-11-01T12:52:23Z</time>
      </trkpt>
      <trkpt lat="46.36507" lon="5.25382">
        <ele>237.2</ele>
        <time>2021-11-01T12:52:24Z</time>
      </trkpt>
      <trkpt lat="46.36521" lon="5.25388">
        <ele>238.2</ele>
        <time>2021-11-01T12:52:27Z</time>
      </trkpt>
      <trkpt lat="46.36536" lon="5.25394">
        <ele>239.4</ele>
        <time>2021-11-01T12:52:30Z</time>
      </trkpt>
      <trkpt lat="46.3654" lon="5.25396">
        <ele>239.4</ele>
        <time>2021-11-01T12:52:31Z</time>
      </trkpt>
      <trkpt lat="46.36554" lon="5.25403">
        <ele>240.6</ele>
        <time>2021-11-01T12:52:34Z</time>
      </trkpt>
      <trkpt lat="46.36568" lon="5.25411">
        <ele>241.2</ele>
        <time>2021-11-01T12:52:37Z</time>
      </trkpt>
      <trkpt lat="46.36573" lon="5.25414">
        <ele>241.4</ele>
        <time>2021-11-01T12:52:38Z</time>
      </trkpt>
      <trkpt lat="46.36578" lon="5.25418">
        <ele>241.8</ele>
        <time>2021-11-01T12:52:39Z</time>
      </trkpt>
      <trkpt lat="46.366" lon="5.25436">
        <ele>242.6</ele>
        <time>2021-11-01T12:52:43Z</time>
      </trkpt>
      <trkpt lat="46.36648" lon="5.25475">
        <ele>242.4</ele>
        <time>2021-11-01T12:52:51Z</time>
      </trkpt>
      <trkpt lat="46.36702" lon="5.25516">
        <ele>241.8</ele>
        <time>2021-11-01T12:52:59Z</time>
      </trkpt>
      <trkpt lat="46.36738" lon="5.25546">
        <ele>240.8</ele>
        <time>2021-11-01T12:53:04Z</time>
      </trkpt>
      <trkpt lat="46.36762" lon="5.25564">
        <ele>239.6</ele>
        <time>2021-11-01T12:53:07Z</time>
      </trkpt>
      <trkpt lat="46.36796" lon="5.25585">
        <ele>238.2</ele>
        <time>2021-11-01T12:53:11Z</time>
      </trkpt>
      <trkpt lat="46.36805" lon="5.25587">
        <ele>238.2</ele>
        <time>2021-11-01T12:53:12Z</time>
      </trkpt>
      <trkpt lat="46.36815" lon="5.25588">
        <ele>237.8</ele>
        <time>2021-11-01T12:53:13Z</time>
      </trkpt>
      <trkpt lat="46.36836" lon="5.25584">
        <ele>237.4</ele>
        <time>2021-11-01T12:53:15Z</time>
      </trkpt>
      <trkpt lat="46.36847" lon="5.25579">
        <ele>236.8</ele>
        <time>2021-11-01T12:53:16Z</time>
      </trkpt>
      <trkpt lat="46.36868" lon="5.25569">
        <ele>235.4</ele>
        <time>2021-11-01T12:53:18Z</time>
      </trkpt>
      <trkpt lat="46.3689" lon="5.25558">
        <ele>234.2</ele>
        <time>2021-11-01T12:53:20Z</time>
      </trkpt>
      <trkpt lat="46.36912" lon="5.25548">
        <ele>233</ele>
        <time>2021-11-01T12:53:22Z</time>
      </trkpt>
      <trkpt lat="46.36923" lon="5.25543">
        <ele>232</ele>
        <time>2021-11-01T12:53:23Z</time>
      </trkpt>
      <trkpt lat="46.36946" lon="5.25535">
        <ele>230.4</ele>
        <time>2021-11-01T12:53:25Z</time>
      </trkpt>
      <trkpt lat="46.36957" lon="5.25533">
        <ele>230.2</ele>
        <time>2021-11-01T12:53:26Z</time>
      </trkpt>
      <trkpt lat="46.3698" lon="5.25531">
        <ele>229</ele>
        <time>2021-11-01T12:53:28Z</time>
      </trkpt>
      <trkpt lat="46.37002" lon="5.25532">
        <ele>227</ele>
        <time>2021-11-01T12:53:30Z</time>
      </trkpt>
      <trkpt lat="46.37012" lon="5.25532">
        <ele>226.6</ele>
        <time>2021-11-01T12:53:31Z</time>
      </trkpt>
      <trkpt lat="46.37022" lon="5.25533">
        <ele>226.2</ele>
        <time>2021-11-01T12:53:32Z</time>
      </trkpt>
      <trkpt lat="46.37043" lon="5.25534">
        <ele>226</ele>
        <time>2021-11-01T12:53:34Z</time>
      </trkpt>
      <trkpt lat="46.37082" lon="5.25537">
        <ele>225.8</ele>
        <time>2021-11-01T12:53:38Z</time>
      </trkpt>
      <trkpt lat="46.37139" lon="5.25542">
        <ele>225.4</ele>
        <time>2021-11-01T12:53:44Z</time>
      </trkpt>
      <trkpt lat="46.37157" lon="5.25545">
        <ele>225.6</ele>
        <time>2021-11-01T12:53:46Z</time>
      </trkpt>
      <trkpt lat="46.37207" lon="5.25558">
        <ele>226.4</ele>
        <time>2021-11-01T12:53:52Z</time>
      </trkpt>
      <trkpt lat="46.37248" lon="5.25567">
        <ele>227</ele>
        <time>2021-11-01T12:53:57Z</time>
      </trkpt>
      <trkpt lat="46.37265" lon="5.25566">
        <ele>227.2</ele>
        <time>2021-11-01T12:53:59Z</time>
      </trkpt>
      <trkpt lat="46.37282" lon="5.25563">
        <ele>227.4</ele>
        <time>2021-11-01T12:54:01Z</time>
      </trkpt>
      <trkpt lat="46.37298" lon="5.25557">
        <ele>227.4</ele>
        <time>2021-11-01T12:54:03Z</time>
      </trkpt>
      <trkpt lat="46.37353" lon="5.25533">
        <ele>226.6</ele>
        <time>2021-11-01T12:54:09Z</time>
      </trkpt>
      <trkpt lat="46.37373" lon="5.25523">
        <ele>225.8</ele>
        <time>2021-11-01T12:54:11Z</time>
      </trkpt>
      <trkpt lat="46.37403" lon="5.25507">
        <ele>224</ele>
        <time>2021-11-01T12:54:14Z</time>
      </trkpt>
      <trkpt lat="46.37423" lon="5.25494">
        <ele>222.6</ele>
        <time>2021-11-01T12:54:16Z</time>
      </trkpt>
      <trkpt lat="46.37443" lon="5.25479">
        <ele>221.8</ele>
        <time>2021-11-01T12:54:18Z</time>
      </trkpt>
      <trkpt lat="46.37463" lon="5.25463">
        <ele>220.6</ele>
        <time>2021-11-01T12:54:20Z</time>
      </trkpt>
      <trkpt lat="46.37483" lon="5.25446">
        <ele>219.6</ele>
        <time>2021-11-01T12:54:22Z</time>
      </trkpt>
      <trkpt lat="46.37493" lon="5.25438">
        <ele>218.4</ele>
        <time>2021-11-01T12:54:23Z</time>
      </trkpt>
      <trkpt lat="46.37524" lon="5.25415">
        <ele>217.4</ele>
        <time>2021-11-01T12:54:26Z</time>
      </trkpt>
      <trkpt lat="46.37545" lon="5.25403">
        <ele>216.6</ele>
        <time>2021-11-01T12:54:28Z</time>
      </trkpt>
      <trkpt lat="46.37555" lon="5.25397">
        <ele>216</ele>
        <time>2021-11-01T12:54:29Z</time>
      </trkpt>
      <trkpt lat="46.37585" lon="5.25383">
        <ele>214.6</ele>
        <time>2021-11-01T12:54:32Z</time>
      </trkpt>
      <trkpt lat="46.37595" lon="5.25379">
        <ele>214.4</ele>
        <time>2021-11-01T12:54:33Z</time>
      </trkpt>
      <trkpt lat="46.37656" lon="5.25356">
        <ele>213.8</ele>
        <time>2021-11-01T12:54:39Z</time>
      </trkpt>
      <trkpt lat="46.37677" lon="5.25349">
        <ele>213.6</ele>
        <time>2021-11-01T12:54:41Z</time>
      </trkpt>
      <trkpt lat="46.37729" lon="5.25329">
        <ele>212.2</ele>
        <time>2021-11-01T12:54:46Z</time>
      </trkpt>
      <trkpt lat="46.3775" lon="5.25322">
        <ele>211.6</ele>
        <time>2021-11-01T12:54:48Z</time>
      </trkpt>
      <trkpt lat="46.37789" lon="5.25307">
        <ele>211</ele>
        <time>2021-11-01T12:54:52Z</time>
      </trkpt>
      <trkpt lat="46.37835" lon="5.2529">
        <ele>210.6</ele>
        <time>2021-11-01T12:54:57Z</time>
      </trkpt>
      <trkpt lat="46.37883" lon="5.25272">
        <ele>211</ele>
        <time>2021-11-01T12:55:03Z</time>
      </trkpt>
      <trkpt lat="46.37918" lon="5.25257">
        <ele>212.2</ele>
        <time>2021-11-01T12:55:08Z</time>
      </trkpt>
      <trkpt lat="46.37932" lon="5.25252">
        <ele>212.6</ele>
        <time>2021-11-01T12:55:10Z</time>
      </trkpt>
      <trkpt lat="46.37968" lon="5.25239">
        <ele>213.4</ele>
        <time>2021-11-01T12:55:15Z</time>
      </trkpt>
      <trkpt lat="46.37989" lon="5.25231">
        <ele>214.2</ele>
        <time>2021-11-01T12:55:18Z</time>
      </trkpt>
      <trkpt lat="46.38017" lon="5.25218">
        <ele>214.6</ele>
        <time>2021-11-01T12:55:22Z</time>
      </trkpt>
      <trkpt lat="46.38053" lon="5.25197">
        <ele>215.2</ele>
        <time>2021-11-01T12:55:27Z</time>
      </trkpt>
      <trkpt lat="46.38109" lon="5.25165">
        <ele>214.8</ele>
        <time>2021-11-01T12:55:34Z</time>
      </trkpt>
      <trkpt lat="46.38162" lon="5.25133">
        <ele>214</ele>
        <time>2021-11-01T12:55:41Z</time>
      </trkpt>
      <trkpt lat="46.38176" lon="5.25125">
        <ele>214</ele>
        <time>2021-11-01T12:55:43Z</time>
      </trkpt>
      <trkpt lat="46.38232" lon="5.25091">
        <ele>215.2</ele>
        <time>2021-11-01T12:55:51Z</time>
      </trkpt>
      <trkpt lat="46.38239" lon="5.25087">
        <ele>215.2</ele>
        <time>2021-11-01T12:55:52Z</time>
      </trkpt>
      <trkpt lat="46.3829" lon="5.25054">
        <ele>215.2</ele>
        <time>2021-11-01T12:55:59Z</time>
      </trkpt>
      <trkpt lat="46.38344" lon="5.2502">
        <ele>214</ele>
        <time>2021-11-01T12:56:06Z</time>
      </trkpt>
      <trkpt lat="46.38359" lon="5.25011">
        <ele>214</ele>
        <time>2021-11-01T12:56:08Z</time>
      </trkpt>
      <trkpt lat="46.38412" lon="5.24977">
        <ele>213.8</ele>
        <time>2021-11-01T12:56:15Z</time>
      </trkpt>
      <trkpt lat="46.38442" lon="5.24958">
        <ele>213.8</ele>
        <time>2021-11-01T12:56:19Z</time>
      </trkpt>
      <trkpt lat="46.38494" lon="5.24926">
        <ele>213.8</ele>
        <time>2021-11-01T12:56:26Z</time>
      </trkpt>
      <trkpt lat="46.38501" lon="5.24922">
        <ele>213.6</ele>
        <time>2021-11-01T12:56:27Z</time>
      </trkpt>
      <trkpt lat="46.38516" lon="5.24913">
        <ele>213.6</ele>
        <time>2021-11-01T12:56:29Z</time>
      </trkpt>
      <trkpt lat="46.38571" lon="5.24878">
        <ele>214</ele>
        <time>2021-11-01T12:56:37Z</time>
      </trkpt>
      <trkpt lat="46.38611" lon="5.24853">
        <ele>214.6</ele>
        <time>2021-11-01T12:56:43Z</time>
      </trkpt>
      <trkpt lat="46.38647" lon="5.24829">
        <ele>214.6</ele>
        <time>2021-11-01T12:56:48Z</time>
      </trkpt>
      <trkpt lat="46.3869" lon="5.24802">
        <ele>213.6</ele>
        <time>2021-11-01T12:56:53Z</time>
      </trkpt>
      <trkpt lat="46.38707" lon="5.24791">
        <ele>213</ele>
        <time>2021-11-01T12:56:55Z</time>
      </trkpt>
      <trkpt lat="46.38725" lon="5.24779">
        <ele>212.2</ele>
        <time>2021-11-01T12:56:57Z</time>
      </trkpt>
      <trkpt lat="46.38751" lon="5.24762">
        <ele>211</ele>
        <time>2021-11-01T12:57:00Z</time>
      </trkpt>
      <trkpt lat="46.38783" lon="5.24742">
        <ele>210.4</ele>
        <time>2021-11-01T12:57:04Z</time>
      </trkpt>
      <trkpt lat="46.38825" lon="5.24716">
        <ele>210.6</ele>
        <time>2021-11-01T12:57:10Z</time>
      </trkpt>
      <trkpt lat="46.38853" lon="5.24697">
        <ele>212.8</ele>
        <time>2021-11-01T12:57:15Z</time>
      </trkpt>
      <trkpt lat="46.38859" lon="5.24694">
        <ele>213</ele>
        <time>2021-11-01T12:57:16Z</time>
      </trkpt>
      <trkpt lat="46.38875" lon="5.24683">
        <ele>214</ele>
        <time>2021-11-01T12:57:19Z</time>
      </trkpt>
      <trkpt lat="46.38892" lon="5.24673">
        <ele>215.2</ele>
        <time>2021-11-01T12:57:22Z</time>
      </trkpt>
      <trkpt lat="46.38902" lon="5.24667">
        <ele>216</ele>
        <time>2021-11-01T12:57:24Z</time>
      </trkpt>
      <trkpt lat="46.38907" lon="5.24664">
        <ele>216.4</ele>
        <time>2021-11-01T12:57:25Z</time>
      </trkpt>
      <trkpt lat="46.3893" lon="5.24651">
        <ele>217.4</ele>
        <time>2021-11-01T12:57:29Z</time>
      </trkpt>
      <trkpt lat="46.38947" lon="5.2464">
        <ele>218</ele>
        <time>2021-11-01T12:57:32Z</time>
      </trkpt>
      <trkpt lat="46.38964" lon="5.2463">
        <ele>218.6</ele>
        <time>2021-11-01T12:57:35Z</time>
      </trkpt>
      <trkpt lat="46.39004" lon="5.24608">
        <ele>219.8</ele>
        <time>2021-11-01T12:57:42Z</time>
      </trkpt>
      <trkpt lat="46.39011" lon="5.24605">
        <ele>219.8</ele>
        <time>2021-11-01T12:57:43Z</time>
      </trkpt>
      <trkpt lat="46.39048" lon="5.24587">
        <ele>220</ele>
        <time>2021-11-01T12:57:48Z</time>
      </trkpt>
      <trkpt lat="46.39101" lon="5.24562">
        <ele>218.4</ele>
        <time>2021-11-01T12:57:54Z</time>
      </trkpt>
      <trkpt lat="46.3913" lon="5.24547">
        <ele>217.4</ele>
        <time>2021-11-01T12:57:57Z</time>
      </trkpt>
      <trkpt lat="46.3915" lon="5.24537">
        <ele>216</ele>
        <time>2021-11-01T12:57:59Z</time>
      </trkpt>
      <trkpt lat="46.39171" lon="5.24527">
        <ele>214.4</ele>
        <time>2021-11-01T12:58:01Z</time>
      </trkpt>
      <trkpt lat="46.39191" lon="5.24517">
        <ele>213</ele>
        <time>2021-11-01T12:58:03Z</time>
      </trkpt>
      <trkpt lat="46.39236" lon="5.24496">
        <ele>212</ele>
        <time>2021-11-01T12:58:08Z</time>
      </trkpt>
      <trkpt lat="46.39252" lon="5.24488">
        <ele>212</ele>
        <time>2021-11-01T12:58:10Z</time>
      </trkpt>
      <trkpt lat="46.39292" lon="5.24469">
        <ele>213</ele>
        <time>2021-11-01T12:58:15Z</time>
      </trkpt>
      <trkpt lat="46.39339" lon="5.24447">
        <ele>214.2</ele>
        <time>2021-11-01T12:58:21Z</time>
      </trkpt>
      <trkpt lat="46.39354" lon="5.2444">
        <ele>214.6</ele>
        <time>2021-11-01T12:58:23Z</time>
      </trkpt>
      <trkpt lat="46.39406" lon="5.24416">
        <ele>215.4</ele>
        <time>2021-11-01T12:58:30Z</time>
      </trkpt>
      <trkpt lat="46.39442" lon="5.24401">
        <ele>216.4</ele>
        <time>2021-11-01T12:58:35Z</time>
      </trkpt>
      <trkpt lat="46.39491" lon="5.24378">
        <ele>217.4</ele>
        <time>2021-11-01T12:58:42Z</time>
      </trkpt>
      <trkpt lat="46.39511" lon="5.24368">
        <ele>218.2</ele>
        <time>2021-11-01T12:58:45Z</time>
      </trkpt>
      <trkpt lat="46.39526" lon="5.24361">
        <ele>218.6</ele>
        <time>2021-11-01T12:58:47Z</time>
      </trkpt>
      <trkpt lat="46.39579" lon="5.24341">
        <ele>218.8</ele>
        <time>2021-11-01T12:58:54Z</time>
      </trkpt>
      <trkpt lat="46.39587" lon="5.24338">
        <ele>219</ele>
        <time>2021-11-01T12:58:55Z</time>
      </trkpt>
      <trkpt lat="46.39647" lon="5.24322">
        <ele>218.8</ele>
        <time>2021-11-01T12:59:02Z</time>
      </trkpt>
      <trkpt lat="46.39707" lon="5.24307">
        <ele>218.2</ele>
        <time>2021-11-01T12:59:09Z</time>
      </trkpt>
      <trkpt lat="46.39723" lon="5.24304">
        <ele>218.2</ele>
        <time>2021-11-01T12:59:11Z</time>
      </trkpt>
      <trkpt lat="46.39777" lon="5.2429">
        <ele>219</ele>
        <time>2021-11-01T12:59:18Z</time>
      </trkpt>
      <trkpt lat="46.39784" lon="5.24288">
        <ele>219.2</ele>
        <time>2021-11-01T12:59:19Z</time>
      </trkpt>
      <trkpt lat="46.39799" lon="5.24285">
        <ele>219.6</ele>
        <time>2021-11-01T12:59:21Z</time>
      </trkpt>
      <trkpt lat="46.39832" lon="5.24276">
        <ele>220.4</ele>
        <time>2021-11-01T12:59:26Z</time>
      </trkpt>
      <trkpt lat="46.39839" lon="5.24273">
        <ele>220.6</ele>
        <time>2021-11-01T12:59:27Z</time>
      </trkpt>
      <trkpt lat="46.39853" lon="5.2427">
        <ele>221</ele>
        <time>2021-11-01T12:59:29Z</time>
      </trkpt>
      <trkpt lat="46.3988" lon="5.24264">
        <ele>222</ele>
        <time>2021-11-01T12:59:33Z</time>
      </trkpt>
      <trkpt lat="46.39886" lon="5.24262">
        <ele>222</ele>
        <time>2021-11-01T12:59:34Z</time>
      </trkpt>
      <trkpt lat="46.39923" lon="5.2425">
        <ele>223</ele>
        <time>2021-11-01T12:59:40Z</time>
      </trkpt>
      <trkpt lat="46.39973" lon="5.24237">
        <ele>224</ele>
        <time>2021-11-01T12:59:48Z</time>
      </trkpt>
      <trkpt lat="46.39985" lon="5.24234">
        <ele>224.2</ele>
        <time>2021-11-01T12:59:50Z</time>
      </trkpt>
      <trkpt lat="46.40013" lon="5.24226">
        <ele>224.8</ele>
        <time>2021-11-01T12:59:55Z</time>
      </trkpt>
      <trkpt lat="46.40019" lon="5.24224">
        <ele>225</ele>
        <time>2021-11-01T12:59:56Z</time>
      </trkpt>
      <trkpt lat="46.40025" lon="5.24223">
        <ele>225.2</ele>
        <time>2021-11-01T12:59:57Z</time>
      </trkpt>
      <trkpt lat="46.40054" lon="5.24213">
        <ele>225</ele>
        <time>2021-11-01T13:00:01Z</time>
      </trkpt>
      <trkpt lat="46.40107" lon="5.24201">
        <ele>223.8</ele>
        <time>2021-11-01T13:00:07Z</time>
      </trkpt>
      <trkpt lat="46.40142" lon="5.24191">
        <ele>222.6</ele>
        <time>2021-11-01T13:00:11Z</time>
      </trkpt>
      <trkpt lat="46.40185" lon="5.2418">
        <ele>221.6</ele>
        <time>2021-11-01T13:00:16Z</time>
      </trkpt>
      <trkpt lat="46.40203" lon="5.24176">
        <ele>221.4</ele>
        <time>2021-11-01T13:00:18Z</time>
      </trkpt>
      <trkpt lat="46.40256" lon="5.24162">
        <ele>220.2</ele>
        <time>2021-11-01T13:00:24Z</time>
      </trkpt>
      <trkpt lat="46.40314" lon="5.24147">
        <ele>220</ele>
        <time>2021-11-01T13:00:31Z</time>
      </trkpt>
      <trkpt lat="46.40339" lon="5.24139">
        <ele>220</ele>
        <time>2021-11-01T13:00:34Z</time>
      </trkpt>
      <trkpt lat="46.40396" lon="5.24126">
        <ele>220</ele>
        <time>2021-11-01T13:00:41Z</time>
      </trkpt>
      <trkpt lat="46.40404" lon="5.24124">
        <ele>220</ele>
        <time>2021-11-01T13:00:42Z</time>
      </trkpt>
      <trkpt lat="46.40458" lon="5.24111">
        <ele>220.4</ele>
        <time>2021-11-01T13:00:49Z</time>
      </trkpt>
      <trkpt lat="46.40473" lon="5.24107">
        <ele>220.6</ele>
        <time>2021-11-01T13:00:51Z</time>
      </trkpt>
      <trkpt lat="46.40533" lon="5.24092">
        <ele>221.4</ele>
        <time>2021-11-01T13:00:59Z</time>
      </trkpt>
      <trkpt lat="46.4054" lon="5.2409">
        <ele>221.6</ele>
        <time>2021-11-01T13:01:00Z</time>
      </trkpt>
      <trkpt lat="46.40599" lon="5.24076">
        <ele>222.6</ele>
        <time>2021-11-01T13:01:08Z</time>
      </trkpt>
      <trkpt lat="46.40606" lon="5.24075">
        <ele>222.8</ele>
        <time>2021-11-01T13:01:09Z</time>
      </trkpt>
      <trkpt lat="46.40634" lon="5.24068">
        <ele>223.8</ele>
        <time>2021-11-01T13:01:13Z</time>
      </trkpt>
      <trkpt lat="46.40655" lon="5.24062">
        <ele>224.2</ele>
        <time>2021-11-01T13:01:16Z</time>
      </trkpt>
      <trkpt lat="46.40706" lon="5.24048">
        <ele>224.6</ele>
        <time>2021-11-01T13:01:23Z</time>
      </trkpt>
      <trkpt lat="46.40755" lon="5.24032">
        <ele>223.2</ele>
        <time>2021-11-01T13:01:29Z</time>
      </trkpt>
      <trkpt lat="46.40785" lon="5.24024">
        <ele>222</ele>
        <time>2021-11-01T13:01:32Z</time>
      </trkpt>
      <trkpt lat="46.40814" lon="5.24016">
        <ele>220.6</ele>
        <time>2021-11-01T13:01:35Z</time>
      </trkpt>
      <trkpt lat="46.4084" lon="5.24009">
        <ele>219.6</ele>
        <time>2021-11-01T13:01:38Z</time>
      </trkpt>
      <trkpt lat="46.40854" lon="5.24005">
        <ele>219.4</ele>
        <time>2021-11-01T13:01:40Z</time>
      </trkpt>
      <trkpt lat="46.40876" lon="5.23999">
        <ele>220.8</ele>
        <time>2021-11-01T13:01:44Z</time>
      </trkpt>
      <trkpt lat="46.40882" lon="5.23998">
        <ele>221.4</ele>
        <time>2021-11-01T13:01:45Z</time>
      </trkpt>
      <trkpt lat="46.40893" lon="5.23997">
        <ele>222.2</ele>
        <time>2021-11-01T13:01:47Z</time>
      </trkpt>
      <trkpt lat="46.40911" lon="5.23998">
        <ele>223.2</ele>
        <time>2021-11-01T13:01:50Z</time>
      </trkpt>
      <trkpt lat="46.40921" lon="5.23997">
        <ele>224</ele>
        <time>2021-11-01T13:01:52Z</time>
      </trkpt>
      <trkpt lat="46.40926" lon="5.23996">
        <ele>224.6</ele>
        <time>2021-11-01T13:01:53Z</time>
      </trkpt>
      <trkpt lat="46.40931" lon="5.23995">
        <ele>225</ele>
        <time>2021-11-01T13:01:54Z</time>
      </trkpt>
      <trkpt lat="46.40942" lon="5.23991">
        <ele>225.6</ele>
        <time>2021-11-01T13:01:56Z</time>
      </trkpt>
      <trkpt lat="46.40947" lon="5.23989">
        <ele>226</ele>
        <time>2021-11-01T13:01:57Z</time>
      </trkpt>
      <trkpt lat="46.40958" lon="5.23985">
        <ele>227</ele>
        <time>2021-11-01T13:01:59Z</time>
      </trkpt>
      <trkpt lat="46.40991" lon="5.23976">
        <ele>228</ele>
        <time>2021-11-01T13:02:05Z</time>
      </trkpt>
      <trkpt lat="46.40997" lon="5.23973">
        <ele>228</ele>
        <time>2021-11-01T13:02:06Z</time>
      </trkpt>
      <trkpt lat="46.41038" lon="5.2396">
        <ele>228</ele>
        <time>2021-11-01T13:02:12Z</time>
      </trkpt>
      <trkpt lat="46.41076" lon="5.23949">
        <ele>227.2</ele>
        <time>2021-11-01T13:02:17Z</time>
      </trkpt>
      <trkpt lat="46.41084" lon="5.23947">
        <ele>227</ele>
        <time>2021-11-01T13:02:18Z</time>
      </trkpt>
      <trkpt lat="46.41118" lon="5.23939">
        <ele>225.4</ele>
        <time>2021-11-01T13:02:22Z</time>
      </trkpt>
      <trkpt lat="46.41128" lon="5.23937">
        <ele>225.4</ele>
        <time>2021-11-01T13:02:23Z</time>
      </trkpt>
      <trkpt lat="46.41147" lon="5.23931">
        <ele>223.8</ele>
        <time>2021-11-01T13:02:25Z</time>
      </trkpt>
      <trkpt lat="46.41179" lon="5.23923">
        <ele>222.8</ele>
        <time>2021-11-01T13:02:28Z</time>
      </trkpt>
      <trkpt lat="46.412" lon="5.23918">
        <ele>221.6</ele>
        <time>2021-11-01T13:02:30Z</time>
      </trkpt>
      <trkpt lat="46.41211" lon="5.23915">
        <ele>220.2</ele>
        <time>2021-11-01T13:02:31Z</time>
      </trkpt>
      <trkpt lat="46.41234" lon="5.23908">
        <ele>218.8</ele>
        <time>2021-11-01T13:02:33Z</time>
      </trkpt>
      <trkpt lat="46.41245" lon="5.23906">
        <ele>218.2</ele>
        <time>2021-11-01T13:02:34Z</time>
      </trkpt>
      <trkpt lat="46.41256" lon="5.23903">
        <ele>217.8</ele>
        <time>2021-11-01T13:02:35Z</time>
      </trkpt>
      <trkpt lat="46.41267" lon="5.239">
        <ele>216.6</ele>
        <time>2021-11-01T13:02:36Z</time>
      </trkpt>
      <trkpt lat="46.41288" lon="5.23895">
        <ele>215.6</ele>
        <time>2021-11-01T13:02:38Z</time>
      </trkpt>
      <trkpt lat="46.41308" lon="5.23889">
        <ele>214.4</ele>
        <time>2021-11-01T13:02:40Z</time>
      </trkpt>
      <trkpt lat="46.41318" lon="5.23887">
        <ele>214</ele>
        <time>2021-11-01T13:02:41Z</time>
      </trkpt>
      <trkpt lat="46.41373" lon="5.23872">
        <ele>213.6</ele>
        <time>2021-11-01T13:02:47Z</time>
      </trkpt>
      <trkpt lat="46.41382" lon="5.2387">
        <ele>213.6</ele>
        <time>2021-11-01T13:02:48Z</time>
      </trkpt>
      <trkpt lat="46.41436" lon="5.23856">
        <ele>214.2</ele>
        <time>2021-11-01T13:02:54Z</time>
      </trkpt>
      <trkpt lat="46.41445" lon="5.23853">
        <ele>214.2</ele>
        <time>2021-11-01T13:02:55Z</time>
      </trkpt>
      <trkpt lat="46.41502" lon="5.23839">
        <ele>213.8</ele>
        <time>2021-11-01T13:03:01Z</time>
      </trkpt>
      <trkpt lat="46.41521" lon="5.23834">
        <ele>213.4</ele>
        <time>2021-11-01T13:03:03Z</time>
      </trkpt>
      <trkpt lat="46.41531" lon="5.23832">
        <ele>213.2</ele>
        <time>2021-11-01T13:03:04Z</time>
      </trkpt>
      <trkpt lat="46.41589" lon="5.23817">
        <ele>212.6</ele>
        <time>2021-11-01T13:03:10Z</time>
      </trkpt>
      <trkpt lat="46.41599" lon="5.23814">
        <ele>212.4</ele>
        <time>2021-11-01T13:03:11Z</time>
      </trkpt>
      <trkpt lat="46.41609" lon="5.23811">
        <ele>212.4</ele>
        <time>2021-11-01T13:03:12Z</time>
      </trkpt>
      <trkpt lat="46.41666" lon="5.23796">
        <ele>212.2</ele>
        <time>2021-11-01T13:03:18Z</time>
      </trkpt>
      <trkpt lat="46.41703" lon="5.23786">
        <ele>211.8</ele>
        <time>2021-11-01T13:03:22Z</time>
      </trkpt>
      <trkpt lat="46.41758" lon="5.23772">
        <ele>211.8</ele>
        <time>2021-11-01T13:03:28Z</time>
      </trkpt>
      <trkpt lat="46.41776" lon="5.23767">
        <ele>211.6</ele>
        <time>2021-11-01T13:03:30Z</time>
      </trkpt>
      <trkpt lat="46.41837" lon="5.23752">
        <ele>211.6</ele>
        <time>2021-11-01T13:03:37Z</time>
      </trkpt>
      <trkpt lat="46.41864" lon="5.23745">
        <ele>211.6</ele>
        <time>2021-11-01T13:03:40Z</time>
      </trkpt>
      <trkpt lat="46.41883" lon="5.2374">
        <ele>211.6</ele>
        <time>2021-11-01T13:03:42Z</time>
      </trkpt>
      <trkpt lat="46.41933" lon="5.23727">
        <ele>211.4</ele>
        <time>2021-11-01T13:03:48Z</time>
      </trkpt>
      <trkpt lat="46.41985" lon="5.23713">
        <ele>211.8</ele>
        <time>2021-11-01T13:03:55Z</time>
      </trkpt>
      <trkpt lat="46.42014" lon="5.23706">
        <ele>212.6</ele>
        <time>2021-11-01T13:03:59Z</time>
      </trkpt>
      <trkpt lat="46.42048" lon="5.23697">
        <ele>213.4</ele>
        <time>2021-11-01T13:04:04Z</time>
      </trkpt>
      <trkpt lat="46.42055" lon="5.23696">
        <ele>213.6</ele>
        <time>2021-11-01T13:04:05Z</time>
      </trkpt>
      <trkpt lat="46.42102" lon="5.23683">
        <ele>214.2</ele>
        <time>2021-11-01T13:04:13Z</time>
      </trkpt>
      <trkpt lat="46.42158" lon="5.23668">
        <ele>214.6</ele>
        <time>2021-11-01T13:04:20Z</time>
      </trkpt>
      <trkpt lat="46.42173" lon="5.23664">
        <ele>214.6</ele>
        <time>2021-11-01T13:04:22Z</time>
      </trkpt>
      <trkpt lat="46.42223" lon="5.23651">
        <ele>214</ele>
        <time>2021-11-01T13:04:28Z</time>
      </trkpt>
      <trkpt lat="46.42277" lon="5.23637">
        <ele>212.6</ele>
        <time>2021-11-01T13:04:34Z</time>
      </trkpt>
      <trkpt lat="46.42287" lon="5.23634">
        <ele>212.2</ele>
        <time>2021-11-01T13:04:35Z</time>
      </trkpt>
      <trkpt lat="46.42306" lon="5.2363">
        <ele>211</ele>
        <time>2021-11-01T13:04:37Z</time>
      </trkpt>
      <trkpt lat="46.4234" lon="5.23621">
        <ele>210.6</ele>
        <time>2021-11-01T13:04:41Z</time>
      </trkpt>
      <trkpt lat="46.42392" lon="5.23608">
        <ele>211.4</ele>
        <time>2021-11-01T13:04:48Z</time>
      </trkpt>
      <trkpt lat="46.42415" lon="5.23601">
        <ele>212.6</ele>
        <time>2021-11-01T13:04:51Z</time>
      </trkpt>
      <trkpt lat="46.42446" lon="5.23593">
        <ele>213.6</ele>
        <time>2021-11-01T13:04:55Z</time>
      </trkpt>
      <trkpt lat="46.42503" lon="5.23578">
        <ele>214.4</ele>
        <time>2021-11-01T13:05:02Z</time>
      </trkpt>
      <trkpt lat="46.4252" lon="5.23573">
        <ele>214.2</ele>
        <time>2021-11-01T13:05:04Z</time>
      </trkpt>
      <trkpt lat="46.42575" lon="5.23559">
        <ele>214.2</ele>
        <time>2021-11-01T13:05:11Z</time>
      </trkpt>
      <trkpt lat="46.42597" lon="5.23553">
        <ele>214.2</ele>
        <time>2021-11-01T13:05:14Z</time>
      </trkpt>
      <trkpt lat="46.42653" lon="5.23538">
        <ele>214.8</ele>
        <time>2021-11-01T13:05:22Z</time>
      </trkpt>
      <trkpt lat="46.42661" lon="5.23536">
        <ele>215</ele>
        <time>2021-11-01T13:05:23Z</time>
      </trkpt>
      <trkpt lat="46.42702" lon="5.23524">
        <ele>215</ele>
        <time>2021-11-01T13:05:28Z</time>
      </trkpt>
      <trkpt lat="46.4273" lon="5.23517">
        <ele>214</ele>
        <time>2021-11-01T13:05:31Z</time>
      </trkpt>
      <trkpt lat="46.42771" lon="5.23506">
        <ele>212.6</ele>
        <time>2021-11-01T13:05:35Z</time>
      </trkpt>
      <trkpt lat="46.42801" lon="5.23497">
        <ele>211.4</ele>
        <time>2021-11-01T13:05:38Z</time>
      </trkpt>
      <trkpt lat="46.42822" lon="5.23492">
        <ele>209.8</ele>
        <time>2021-11-01T13:05:40Z</time>
      </trkpt>
      <trkpt lat="46.42842" lon="5.23486">
        <ele>208.6</ele>
        <time>2021-11-01T13:05:42Z</time>
      </trkpt>
      <trkpt lat="46.42874" lon="5.23479">
        <ele>207.4</ele>
        <time>2021-11-01T13:05:45Z</time>
      </trkpt>
      <trkpt lat="46.42903" lon="5.23471">
        <ele>206.6</ele>
        <time>2021-11-01T13:05:48Z</time>
      </trkpt>
      <trkpt lat="46.42912" lon="5.23469">
        <ele>206.4</ele>
        <time>2021-11-01T13:05:49Z</time>
      </trkpt>
      <trkpt lat="46.42958" lon="5.23457">
        <ele>206</ele>
        <time>2021-11-01T13:05:54Z</time>
      </trkpt>
      <trkpt lat="46.43019" lon="5.23441">
        <ele>206</ele>
        <time>2021-11-01T13:06:01Z</time>
      </trkpt>
      <trkpt lat="46.43027" lon="5.23439">
        <ele>206</ele>
        <time>2021-11-01T13:06:02Z</time>
      </trkpt>
      <trkpt lat="46.43082" lon="5.23424">
        <ele>206.8</ele>
        <time>2021-11-01T13:06:09Z</time>
      </trkpt>
      <trkpt lat="46.4311" lon="5.23417">
        <ele>207.4</ele>
        <time>2021-11-01T13:06:13Z</time>
      </trkpt>
      <trkpt lat="46.4313" lon="5.23412">
        <ele>207.8</ele>
        <time>2021-11-01T13:06:16Z</time>
      </trkpt>
      <trkpt lat="46.43148" lon="5.23408">
        <ele>208.6</ele>
        <time>2021-11-01T13:06:19Z</time>
      </trkpt>
      <trkpt lat="46.43171" lon="5.23404">
        <ele>209.8</ele>
        <time>2021-11-01T13:06:23Z</time>
      </trkpt>
      <trkpt lat="46.43195" lon="5.234">
        <ele>211</ele>
        <time>2021-11-01T13:06:27Z</time>
      </trkpt>
      <trkpt lat="46.43221" lon="5.23397">
        <ele>211.8</ele>
        <time>2021-11-01T13:06:31Z</time>
      </trkpt>
      <trkpt lat="46.43228" lon="5.23396">
        <ele>212</ele>
        <time>2021-11-01T13:06:32Z</time>
      </trkpt>
      <trkpt lat="46.43266" lon="5.23393">
        <ele>212</ele>
        <time>2021-11-01T13:06:37Z</time>
      </trkpt>
      <trkpt lat="46.43325" lon="5.23388">
        <ele>211.6</ele>
        <time>2021-11-01T13:06:45Z</time>
      </trkpt>
      <trkpt lat="46.43331" lon="5.23387">
        <ele>211.6</ele>
        <time>2021-11-01T13:06:46Z</time>
      </trkpt>
      <trkpt lat="46.4338" lon="5.23384">
        <ele>212.8</ele>
        <time>2021-11-01T13:06:54Z</time>
      </trkpt>
      <trkpt lat="46.43386" lon="5.23384">
        <ele>213</ele>
        <time>2021-11-01T13:06:55Z</time>
      </trkpt>
      <trkpt lat="46.43407" lon="5.23383">
        <ele>214.2</ele>
        <time>2021-11-01T13:06:59Z</time>
      </trkpt>
      <trkpt lat="46.43418" lon="5.23383">
        <ele>215</ele>
        <time>2021-11-01T13:07:01Z</time>
      </trkpt>
      <trkpt lat="46.43423" lon="5.23382">
        <ele>215.4</ele>
        <time>2021-11-01T13:07:02Z</time>
      </trkpt>
      <trkpt lat="46.43444" lon="5.2338">
        <ele>216.4</ele>
        <time>2021-11-01T13:07:06Z</time>
      </trkpt>
      <trkpt lat="46.43466" lon="5.23377">
        <ele>217.4</ele>
        <time>2021-11-01T13:07:10Z</time>
      </trkpt>
      <trkpt lat="46.43471" lon="5.23377">
        <ele>218</ele>
        <time>2021-11-01T13:07:11Z</time>
      </trkpt>
      <trkpt lat="46.43482" lon="5.23375">
        <ele>218.6</ele>
        <time>2021-11-01T13:07:13Z</time>
      </trkpt>
      <trkpt lat="46.43516" lon="5.23373">
        <ele>219.6</ele>
        <time>2021-11-01T13:07:19Z</time>
      </trkpt>
      <trkpt lat="46.43528" lon="5.23373">
        <ele>220</ele>
        <time>2021-11-01T13:07:21Z</time>
      </trkpt>
      <trkpt lat="46.43564" lon="5.23371">
        <ele>220.8</ele>
        <time>2021-11-01T13:07:27Z</time>
      </trkpt>
      <trkpt lat="46.4359" lon="5.23369">
        <ele>221.4</ele>
        <time>2021-11-01T13:07:31Z</time>
      </trkpt>
      <trkpt lat="46.4364" lon="5.23365">
        <ele>221.4</ele>
        <time>2021-11-01T13:07:38Z</time>
      </trkpt>
      <trkpt lat="46.43699" lon="5.23361">
        <ele>220.2</ele>
        <time>2021-11-01T13:07:45Z</time>
      </trkpt>
      <trkpt lat="46.43719" lon="5.23359">
        <ele>219.8</ele>
        <time>2021-11-01T13:07:47Z</time>
      </trkpt>
      <trkpt lat="46.4374" lon="5.23358">
        <ele>218.8</ele>
        <time>2021-11-01T13:07:49Z</time>
      </trkpt>
      <trkpt lat="46.43762" lon="5.23356">
        <ele>217.6</ele>
        <time>2021-11-01T13:07:51Z</time>
      </trkpt>
      <trkpt lat="46.43786" lon="5.23355">
        <ele>215.8</ele>
        <time>2021-11-01T13:07:53Z</time>
      </trkpt>
      <trkpt lat="46.43821" lon="5.23353">
        <ele>214.4</ele>
        <time>2021-11-01T13:07:56Z</time>
      </trkpt>
      <trkpt lat="46.43833" lon="5.23352">
        <ele>213</ele>
        <time>2021-11-01T13:07:57Z</time>
      </trkpt>
      <trkpt lat="46.43855" lon="5.2335">
        <ele>211</ele>
        <time>2021-11-01T13:07:59Z</time>
      </trkpt>
      <trkpt lat="46.43876" lon="5.23349">
        <ele>209.8</ele>
        <time>2021-11-01T13:08:01Z</time>
      </trkpt>
      <trkpt lat="46.43897" lon="5.23347">
        <ele>209.2</ele>
        <time>2021-11-01T13:08:03Z</time>
      </trkpt>
      <trkpt lat="46.43956" lon="5.23344">
        <ele>209</ele>
        <time>2021-11-01T13:08:09Z</time>
      </trkpt>
      <trkpt lat="46.43975" lon="5.23342">
        <ele>209.2</ele>
        <time>2021-11-01T13:08:11Z</time>
      </trkpt>
      <trkpt lat="46.4403" lon="5.23339">
        <ele>209.6</ele>
        <time>2021-11-01T13:08:17Z</time>
      </trkpt>
      <trkpt lat="46.44064" lon="5.23337">
        <ele>210.2</ele>
        <time>2021-11-01T13:08:21Z</time>
      </trkpt>
      <trkpt lat="46.44104" lon="5.23334">
        <ele>211</ele>
        <time>2021-11-01T13:08:26Z</time>
      </trkpt>
      <trkpt lat="46.44137" lon="5.23332">
        <ele>211.8</ele>
        <time>2021-11-01T13:08:30Z</time>
      </trkpt>
      <trkpt lat="46.44195" lon="5.23327">
        <ele>211.8</ele>
        <time>2021-11-01T13:08:37Z</time>
      </trkpt>
      <trkpt lat="46.44204" lon="5.23327">
        <ele>211.6</ele>
        <time>2021-11-01T13:08:38Z</time>
      </trkpt>
      <trkpt lat="46.44264" lon="5.23323">
        <ele>211.2</ele>
        <time>2021-11-01T13:08:45Z</time>
      </trkpt>
      <trkpt lat="46.443" lon="5.23321">
        <ele>210.8</ele>
        <time>2021-11-01T13:08:49Z</time>
      </trkpt>
      <trkpt lat="46.44327" lon="5.23319">
        <ele>210</ele>
        <time>2021-11-01T13:08:52Z</time>
      </trkpt>
      <trkpt lat="46.44381" lon="5.23316">
        <ele>209</ele>
        <time>2021-11-01T13:08:58Z</time>
      </trkpt>
      <trkpt lat="46.44442" lon="5.23312">
        <ele>208.8</ele>
        <time>2021-11-01T13:09:05Z</time>
      </trkpt>
      <trkpt lat="46.44459" lon="5.23311">
        <ele>208.8</ele>
        <time>2021-11-01T13:09:07Z</time>
      </trkpt>
      <trkpt lat="46.44518" lon="5.23307">
        <ele>208.6</ele>
        <time>2021-11-01T13:09:14Z</time>
      </trkpt>
      <trkpt lat="46.44564" lon="5.23305">
        <ele>209.4</ele>
        <time>2021-11-01T13:09:20Z</time>
      </trkpt>
      <trkpt lat="46.44596" lon="5.23303">
        <ele>210.2</ele>
        <time>2021-11-01T13:09:25Z</time>
      </trkpt>
      <trkpt lat="46.44607" lon="5.23302">
        <ele>210.6</ele>
        <time>2021-11-01T13:09:27Z</time>
      </trkpt>
      <trkpt lat="46.44618" lon="5.23302">
        <ele>211.6</ele>
        <time>2021-11-01T13:09:29Z</time>
      </trkpt>
      <trkpt lat="46.44638" lon="5.23302">
        <ele>213</ele>
        <time>2021-11-01T13:09:33Z</time>
      </trkpt>
      <trkpt lat="46.44643" lon="5.23303">
        <ele>213.6</ele>
        <time>2021-11-01T13:09:34Z</time>
      </trkpt>
      <trkpt lat="46.44647" lon="5.23304">
        <ele>213.8</ele>
        <time>2021-11-01T13:09:35Z</time>
      </trkpt>
      <trkpt lat="46.4466" lon="5.23313">
        <ele>214.2</ele>
        <time>2021-11-01T13:09:38Z</time>
      </trkpt>
      <trkpt lat="46.44669" lon="5.23316">
        <ele>214.6</ele>
        <time>2021-11-01T13:09:40Z</time>
      </trkpt>
      <trkpt lat="46.44673" lon="5.23314">
        <ele>215</ele>
        <time>2021-11-01T13:09:41Z</time>
      </trkpt>
      <trkpt lat="46.44678" lon="5.23311">
        <ele>215</ele>
        <time>2021-11-01T13:09:42Z</time>
      </trkpt>
      <trkpt lat="46.44682" lon="5.23307">
        <ele>215.6</ele>
        <time>2021-11-01T13:09:43Z</time>
      </trkpt>
      <trkpt lat="46.44691" lon="5.233">
        <ele>215.8</ele>
        <time>2021-11-01T13:09:45Z</time>
      </trkpt>
      <trkpt lat="46.44695" lon="5.23298">
        <ele>216.2</ele>
        <time>2021-11-01T13:09:46Z</time>
      </trkpt>
      <trkpt lat="46.44709" lon="5.23295">
        <ele>216.6</ele>
        <time>2021-11-01T13:09:49Z</time>
      </trkpt>
      <trkpt lat="46.44722" lon="5.23295">
        <ele>217.2</ele>
        <time>2021-11-01T13:09:52Z</time>
      </trkpt>
      <trkpt lat="46.44735" lon="5.23294">
        <ele>217.8</ele>
        <time>2021-11-01T13:09:55Z</time>
      </trkpt>
      <trkpt lat="46.44752" lon="5.23294">
        <ele>219</ele>
        <time>2021-11-01T13:09:59Z</time>
      </trkpt>
      <trkpt lat="46.4476" lon="5.23293">
        <ele>219.6</ele>
        <time>2021-11-01T13:10:01Z</time>
      </trkpt>
      <trkpt lat="46.44768" lon="5.23293">
        <ele>220.4</ele>
        <time>2021-11-01T13:10:03Z</time>
      </trkpt>
      <trkpt lat="46.44784" lon="5.23292">
        <ele>221.4</ele>
        <time>2021-11-01T13:10:07Z</time>
      </trkpt>
      <trkpt lat="46.44793" lon="5.23291">
        <ele>222</ele>
        <time>2021-11-01T13:10:09Z</time>
      </trkpt>
      <trkpt lat="46.44802" lon="5.2329">
        <ele>222.6</ele>
        <time>2021-11-01T13:10:11Z</time>
      </trkpt>
      <trkpt lat="46.44813" lon="5.23289">
        <ele>223.6</ele>
        <time>2021-11-01T13:10:14Z</time>
      </trkpt>
      <trkpt lat="46.44829" lon="5.23288">
        <ele>224.8</ele>
        <time>2021-11-01T13:10:18Z</time>
      </trkpt>
      <trkpt lat="46.44845" lon="5.23286">
        <ele>226.2</ele>
        <time>2021-11-01T13:10:22Z</time>
      </trkpt>
      <trkpt lat="46.44857" lon="5.23285">
        <ele>226.8</ele>
        <time>2021-11-01T13:10:25Z</time>
      </trkpt>
      <trkpt lat="46.44866" lon="5.23284">
        <ele>227.6</ele>
        <time>2021-11-01T13:10:27Z</time>
      </trkpt>
      <trkpt lat="46.4488" lon="5.23274">
        <ele>228.4</ele>
        <time>2021-11-01T13:10:31Z</time>
      </trkpt>
      <trkpt lat="46.44884" lon="5.23262">
        <ele>228.6</ele>
        <time>2021-11-01T13:10:33Z</time>
      </trkpt>
      <trkpt lat="46.44891" lon="5.23246">
        <ele>229.2</ele>
        <time>2021-11-01T13:10:36Z</time>
      </trkpt>
      <trkpt lat="46.449" lon="5.23224">
        <ele>229.8</ele>
        <time>2021-11-01T13:10:40Z</time>
      </trkpt>
      <trkpt lat="46.44908" lon="5.23201">
        <ele>230.2</ele>
        <time>2021-11-01T13:10:44Z</time>
      </trkpt>
      <trkpt lat="46.44916" lon="5.23177">
        <ele>230.8</ele>
        <time>2021-11-01T13:10:48Z</time>
      </trkpt>
      <trkpt lat="46.44918" lon="5.23171">
        <ele>231</ele>
        <time>2021-11-01T13:10:49Z</time>
      </trkpt>
      <trkpt lat="46.44922" lon="5.23157">
        <ele>231.2</ele>
        <time>2021-11-01T13:10:51Z</time>
      </trkpt>
      <trkpt lat="46.44924" lon="5.23152">
        <ele>231.4</ele>
        <time>2021-11-01T13:10:52Z</time>
      </trkpt>
      <trkpt lat="46.44932" lon="5.23132">
        <ele>231.6</ele>
        <time>2021-11-01T13:10:55Z</time>
      </trkpt>
      <trkpt lat="46.44935" lon="5.23126">
        <ele>231.6</ele>
        <time>2021-11-01T13:10:56Z</time>
      </trkpt>
      <trkpt lat="46.44937" lon="5.23121">
        <ele>232</ele>
        <time>2021-11-01T13:10:57Z</time>
      </trkpt>
      <trkpt lat="46.44955" lon="5.23089">
        <ele>232.8</ele>
        <time>2021-11-01T13:11:02Z</time>
      </trkpt>
      <trkpt lat="46.44957" lon="5.23081">
        <ele>233</ele>
        <time>2021-11-01T13:11:03Z</time>
      </trkpt>
      <trkpt lat="46.44959" lon="5.23073">
        <ele>233</ele>
        <time>2021-11-01T13:11:04Z</time>
      </trkpt>
      <trkpt lat="46.44964" lon="5.23045">
        <ele>233</ele>
        <time>2021-11-01T13:11:07Z</time>
      </trkpt>
      <trkpt lat="46.44975" lon="5.22979">
        <ele>232</ele>
        <time>2021-11-01T13:11:13Z</time>
      </trkpt>
      <trkpt lat="46.44977" lon="5.22969">
        <ele>231.8</ele>
        <time>2021-11-01T13:11:14Z</time>
      </trkpt>
      <trkpt lat="46.44987" lon="5.22916">
        <ele>231.2</ele>
        <time>2021-11-01T13:11:19Z</time>
      </trkpt>
      <trkpt lat="46.44995" lon="5.22898">
        <ele>231.2</ele>
        <time>2021-11-01T13:11:21Z</time>
      </trkpt>
      <trkpt lat="46.45005" lon="5.22883">
        <ele>231.2</ele>
        <time>2021-11-01T13:11:23Z</time>
      </trkpt>
      <trkpt lat="46.45016" lon="5.22872">
        <ele>231.2</ele>
        <time>2021-11-01T13:11:25Z</time>
      </trkpt>
      <trkpt lat="46.45049" lon="5.22851">
        <ele>231.6</ele>
        <time>2021-11-01T13:11:30Z</time>
      </trkpt>
      <trkpt lat="46.45068" lon="5.22838">
        <ele>231.8</ele>
        <time>2021-11-01T13:11:33Z</time>
      </trkpt>
      <trkpt lat="46.45077" lon="5.22823">
        <ele>231.8</ele>
        <time>2021-11-01T13:11:35Z</time>
      </trkpt>
      <trkpt lat="46.45084" lon="5.22783">
        <ele>232</ele>
        <time>2021-11-01T13:11:39Z</time>
      </trkpt>
      <trkpt lat="46.45101" lon="5.22703">
        <ele>232.2</ele>
        <time>2021-11-01T13:11:47Z</time>
      </trkpt>
      <trkpt lat="46.45127" lon="5.22628">
        <ele>232.2</ele>
        <time>2021-11-01T13:11:55Z</time>
      </trkpt>
      <trkpt lat="46.45149" lon="5.22547">
        <ele>232.2</ele>
        <time>2021-11-01T13:12:03Z</time>
      </trkpt>
      <trkpt lat="46.45152" lon="5.22537">
        <ele>232.2</ele>
        <time>2021-11-01T13:12:04Z</time>
      </trkpt>
      <trkpt lat="46.45175" lon="5.22455">
        <ele>232</ele>
        <time>2021-11-01T13:12:12Z</time>
      </trkpt>
      <trkpt lat="46.45178" lon="5.22444">
        <ele>231.8</ele>
        <time>2021-11-01T13:12:13Z</time>
      </trkpt>
      <trkpt lat="46.45207" lon="5.2237">
        <ele>231.6</ele>
        <time>2021-11-01T13:12:21Z</time>
      </trkpt>
      <trkpt lat="46.45214" lon="5.22351">
        <ele>231.6</ele>
        <time>2021-11-01T13:12:23Z</time>
      </trkpt>
      <trkpt lat="46.45221" lon="5.22332">
        <ele>231.8</ele>
        <time>2021-11-01T13:12:25Z</time>
      </trkpt>
      <trkpt lat="46.45237" lon="5.22308">
        <ele>231.8</ele>
        <time>2021-11-01T13:12:28Z</time>
      </trkpt>
      <trkpt lat="46.45263" lon="5.22288">
        <ele>231.4</ele>
        <time>2021-11-01T13:12:32Z</time>
      </trkpt>
      <trkpt lat="46.45319" lon="5.22253">
        <ele>231.2</ele>
        <time>2021-11-01T13:12:40Z</time>
      </trkpt>
      <trkpt lat="46.45376" lon="5.22221">
        <ele>231.4</ele>
        <time>2021-11-01T13:12:48Z</time>
      </trkpt>
      <trkpt lat="46.45391" lon="5.22212">
        <ele>231.4</ele>
        <time>2021-11-01T13:12:50Z</time>
      </trkpt>
      <trkpt lat="46.45405" lon="5.22202">
        <ele>231.4</ele>
        <time>2021-11-01T13:12:52Z</time>
      </trkpt>
      <trkpt lat="46.45424" lon="5.22181">
        <ele>231</ele>
        <time>2021-11-01T13:12:55Z</time>
      </trkpt>
      <trkpt lat="46.45448" lon="5.22132">
        <ele>230.6</ele>
        <time>2021-11-01T13:13:00Z</time>
      </trkpt>
      <trkpt lat="46.45467" lon="5.22076">
        <ele>230</ele>
        <time>2021-11-01T13:13:05Z</time>
      </trkpt>
      <trkpt lat="46.45478" lon="5.22043">
        <ele>229.4</ele>
        <time>2021-11-01T13:13:08Z</time>
      </trkpt>
      <trkpt lat="46.45493" lon="5.22002">
        <ele>229.2</ele>
        <time>2021-11-01T13:13:12Z</time>
      </trkpt>
      <trkpt lat="46.45505" lon="5.21972">
        <ele>229.2</ele>
        <time>2021-11-01T13:13:15Z</time>
      </trkpt>
      <trkpt lat="46.4553" lon="5.21907">
        <ele>229.6</ele>
        <time>2021-11-01T13:13:22Z</time>
      </trkpt>
      <trkpt lat="46.45545" lon="5.21874">
        <ele>230.2</ele>
        <time>2021-11-01T13:13:26Z</time>
      </trkpt>
      <trkpt lat="46.45557" lon="5.21847">
        <ele>230.4</ele>
        <time>2021-11-01T13:13:29Z</time>
      </trkpt>
      <trkpt lat="46.45587" lon="5.21773">
        <ele>230.6</ele>
        <time>2021-11-01T13:13:37Z</time>
      </trkpt>
      <trkpt lat="46.45616" lon="5.21704">
        <ele>229.8</ele>
        <time>2021-11-01T13:13:44Z</time>
      </trkpt>
      <trkpt lat="46.4562" lon="5.21694">
        <ele>229.8</ele>
        <time>2021-11-01T13:13:45Z</time>
      </trkpt>
      <trkpt lat="46.4563" lon="5.21676">
        <ele>229.4</ele>
        <time>2021-11-01T13:13:47Z</time>
      </trkpt>
      <trkpt lat="46.4564" lon="5.21657">
        <ele>229</ele>
        <time>2021-11-01T13:13:49Z</time>
      </trkpt>
      <trkpt lat="46.45655" lon="5.2163">
        <ele>229</ele>
        <time>2021-11-01T13:13:52Z</time>
      </trkpt>
      <trkpt lat="46.45694" lon="5.21566">
        <ele>229.2</ele>
        <time>2021-11-01T13:14:00Z</time>
      </trkpt>
      <trkpt lat="46.45699" lon="5.21559">
        <ele>229.4</ele>
        <time>2021-11-01T13:14:01Z</time>
      </trkpt>
      <trkpt lat="46.45714" lon="5.2154">
        <ele>229.8</ele>
        <time>2021-11-01T13:14:04Z</time>
      </trkpt>
      <trkpt lat="46.45726" lon="5.2153">
        <ele>230</ele>
        <time>2021-11-01T13:14:06Z</time>
      </trkpt>
      <trkpt lat="46.45767" lon="5.21506">
        <ele>230.6</ele>
        <time>2021-11-01T13:14:12Z</time>
      </trkpt>
      <trkpt lat="46.45804" lon="5.21494">
        <ele>231</ele>
        <time>2021-11-01T13:14:17Z</time>
      </trkpt>
      <trkpt lat="46.45812" lon="5.21493">
        <ele>231</ele>
        <time>2021-11-01T13:14:18Z</time>
      </trkpt>
      <trkpt lat="46.45855" lon="5.21496">
        <ele>230.8</ele>
        <time>2021-11-01T13:14:23Z</time>
      </trkpt>
      <trkpt lat="46.45897" lon="5.21506">
        <ele>229.8</ele>
        <time>2021-11-01T13:14:28Z</time>
      </trkpt>
      <trkpt lat="46.45925" lon="5.21514">
        <ele>229.2</ele>
        <time>2021-11-01T13:14:31Z</time>
      </trkpt>
      <trkpt lat="46.45975" lon="5.21537">
        <ele>228.8</ele>
        <time>2021-11-01T13:14:37Z</time>
      </trkpt>
      <trkpt lat="46.45995" lon="5.21547">
        <ele>228.4</ele>
        <time>2021-11-01T13:14:39Z</time>
      </trkpt>
      <trkpt lat="46.4602" lon="5.21567">
        <ele>227.8</ele>
        <time>2021-11-01T13:14:42Z</time>
      </trkpt>
      <trkpt lat="46.46037" lon="5.21582">
        <ele>227.2</ele>
        <time>2021-11-01T13:14:44Z</time>
      </trkpt>
      <trkpt lat="46.46052" lon="5.21599">
        <ele>226.6</ele>
        <time>2021-11-01T13:14:46Z</time>
      </trkpt>
      <trkpt lat="46.46088" lon="5.21643">
        <ele>226</ele>
        <time>2021-11-01T13:14:51Z</time>
      </trkpt>
      <trkpt lat="46.46116" lon="5.21677">
        <ele>225.8</ele>
        <time>2021-11-01T13:14:55Z</time>
      </trkpt>
      <trkpt lat="46.46121" lon="5.21684">
        <ele>225.6</ele>
        <time>2021-11-01T13:14:56Z</time>
      </trkpt>
      <trkpt lat="46.46127" lon="5.21694">
        <ele>225.6</ele>
        <time>2021-11-01T13:14:57Z</time>
      </trkpt>
      <trkpt lat="46.46155" lon="5.21743">
        <ele>225.6</ele>
        <time>2021-11-01T13:15:02Z</time>
      </trkpt>
      <trkpt lat="46.4619" lon="5.21801">
        <ele>225.4</ele>
        <time>2021-11-01T13:15:07Z</time>
      </trkpt>
      <trkpt lat="46.46212" lon="5.21835">
        <ele>224.2</ele>
        <time>2021-11-01T13:15:10Z</time>
      </trkpt>
      <trkpt lat="46.46235" lon="5.21869">
        <ele>223</ele>
        <time>2021-11-01T13:15:13Z</time>
      </trkpt>
      <trkpt lat="46.46243" lon="5.21881">
        <ele>222.6</ele>
        <time>2021-11-01T13:15:14Z</time>
      </trkpt>
      <trkpt lat="46.46258" lon="5.21904">
        <ele>221.4</ele>
        <time>2021-11-01T13:15:16Z</time>
      </trkpt>
      <trkpt lat="46.46282" lon="5.21932">
        <ele>220.6</ele>
        <time>2021-11-01T13:15:19Z</time>
      </trkpt>
      <trkpt lat="46.46291" lon="5.21939">
        <ele>220.6</ele>
        <time>2021-11-01T13:15:20Z</time>
      </trkpt>
      <trkpt lat="46.46317" lon="5.21955">
        <ele>220.6</ele>
        <time>2021-11-01T13:15:23Z</time>
      </trkpt>
      <trkpt lat="46.46363" lon="5.2198">
        <ele>221.8</ele>
        <time>2021-11-01T13:15:29Z</time>
      </trkpt>
      <trkpt lat="46.46378" lon="5.21987">
        <ele>222.6</ele>
        <time>2021-11-01T13:15:31Z</time>
      </trkpt>
      <trkpt lat="46.46401" lon="5.21994">
        <ele>223.2</ele>
        <time>2021-11-01T13:15:34Z</time>
      </trkpt>
      <trkpt lat="46.46408" lon="5.21995">
        <ele>223.4</ele>
        <time>2021-11-01T13:15:35Z</time>
      </trkpt>
      <trkpt lat="46.46423" lon="5.21996">
        <ele>223.6</ele>
        <time>2021-11-01T13:15:37Z</time>
      </trkpt>
      <trkpt lat="46.46451" lon="5.22001">
        <ele>224.2</ele>
        <time>2021-11-01T13:15:41Z</time>
      </trkpt>
      <trkpt lat="46.46466" lon="5.22004">
        <ele>224.6</ele>
        <time>2021-11-01T13:15:43Z</time>
      </trkpt>
      <trkpt lat="46.46501" lon="5.22015">
        <ele>225.6</ele>
        <time>2021-11-01T13:15:48Z</time>
      </trkpt>
      <trkpt lat="46.46508" lon="5.22017">
        <ele>225.8</ele>
        <time>2021-11-01T13:15:49Z</time>
      </trkpt>
      <trkpt lat="46.46567" lon="5.22035">
        <ele>226</ele>
        <time>2021-11-01T13:15:57Z</time>
      </trkpt>
      <trkpt lat="46.46599" lon="5.22029">
        <ele>225.4</ele>
        <time>2021-11-01T13:16:01Z</time>
      </trkpt>
      <trkpt lat="46.46647" lon="5.2202">
        <ele>225</ele>
        <time>2021-11-01T13:16:07Z</time>
      </trkpt>
      <trkpt lat="46.46672" lon="5.22018">
        <ele>224.8</ele>
        <time>2021-11-01T13:16:10Z</time>
      </trkpt>
      <trkpt lat="46.46716" lon="5.22017">
        <ele>224</ele>
        <time>2021-11-01T13:16:15Z</time>
      </trkpt>
      <trkpt lat="46.46725" lon="5.22017">
        <ele>223.8</ele>
        <time>2021-11-01T13:16:16Z</time>
      </trkpt>
      <trkpt lat="46.46753" lon="5.22014">
        <ele>222.6</ele>
        <time>2021-11-01T13:16:19Z</time>
      </trkpt>
      <trkpt lat="46.46771" lon="5.22008">
        <ele>222</ele>
        <time>2021-11-01T13:16:21Z</time>
      </trkpt>
      <trkpt lat="46.46789" lon="5.22">
        <ele>221.4</ele>
        <time>2021-11-01T13:16:23Z</time>
      </trkpt>
      <trkpt lat="46.46807" lon="5.22">
        <ele>221</ele>
        <time>2021-11-01T13:16:25Z</time>
      </trkpt>
      <trkpt lat="46.46825" lon="5.22011">
        <ele>220.8</ele>
        <time>2021-11-01T13:16:27Z</time>
      </trkpt>
      <trkpt lat="46.46833" lon="5.2202">
        <ele>220.6</ele>
        <time>2021-11-01T13:16:28Z</time>
      </trkpt>
      <trkpt lat="46.46841" lon="5.22032">
        <ele>220</ele>
        <time>2021-11-01T13:16:29Z</time>
      </trkpt>
      <trkpt lat="46.46854" lon="5.22057">
        <ele>219.2</ele>
        <time>2021-11-01T13:16:31Z</time>
      </trkpt>
      <trkpt lat="46.46859" lon="5.22071">
        <ele>218.4</ele>
        <time>2021-11-01T13:16:32Z</time>
      </trkpt>
      <trkpt lat="46.46871" lon="5.22097">
        <ele>216.4</ele>
        <time>2021-11-01T13:16:34Z</time>
      </trkpt>
      <trkpt lat="46.46878" lon="5.22109">
        <ele>216</ele>
        <time>2021-11-01T13:16:35Z</time>
      </trkpt>
      <trkpt lat="46.46885" lon="5.2212">
        <ele>214.8</ele>
        <time>2021-11-01T13:16:36Z</time>
      </trkpt>
      <trkpt lat="46.46895" lon="5.22128">
        <ele>214.2</ele>
        <time>2021-11-01T13:16:37Z</time>
      </trkpt>
      <trkpt lat="46.46906" lon="5.22132">
        <ele>214</ele>
        <time>2021-11-01T13:16:38Z</time>
      </trkpt>
      <trkpt lat="46.46917" lon="5.22135">
        <ele>213</ele>
        <time>2021-11-01T13:16:39Z</time>
      </trkpt>
      <trkpt lat="46.46938" lon="5.22135">
        <ele>212</ele>
        <time>2021-11-01T13:16:41Z</time>
      </trkpt>
      <trkpt lat="46.46949" lon="5.22134">
        <ele>211.8</ele>
        <time>2021-11-01T13:16:42Z</time>
      </trkpt>
      <trkpt lat="46.46985" lon="5.22133">
        <ele>211.2</ele>
        <time>2021-11-01T13:16:46Z</time>
      </trkpt>
      <trkpt lat="46.47017" lon="5.22131">
        <ele>211.2</ele>
        <time>2021-11-01T13:16:50Z</time>
      </trkpt>
      <trkpt lat="46.47052" lon="5.22132">
        <ele>213</ele>
        <time>2021-11-01T13:16:55Z</time>
      </trkpt>
      <trkpt lat="46.47058" lon="5.22134">
        <ele>213.2</ele>
        <time>2021-11-01T13:16:56Z</time>
      </trkpt>
      <trkpt lat="46.47077" lon="5.22141">
        <ele>214.4</ele>
        <time>2021-11-01T13:16:59Z</time>
      </trkpt>
      <trkpt lat="46.47096" lon="5.22147">
        <ele>215.6</ele>
        <time>2021-11-01T13:17:02Z</time>
      </trkpt>
      <trkpt lat="46.47115" lon="5.22154">
        <ele>216.6</ele>
        <time>2021-11-01T13:17:05Z</time>
      </trkpt>
      <trkpt lat="46.4716" lon="5.22171">
        <ele>217.6</ele>
        <time>2021-11-01T13:17:12Z</time>
      </trkpt>
      <trkpt lat="46.47166" lon="5.22173">
        <ele>217.8</ele>
        <time>2021-11-01T13:17:13Z</time>
      </trkpt>
      <trkpt lat="46.47209" lon="5.22189">
        <ele>218.8</ele>
        <time>2021-11-01T13:17:20Z</time>
      </trkpt>
      <trkpt lat="46.4722" lon="5.22194">
        <ele>219.2</ele>
        <time>2021-11-01T13:17:22Z</time>
      </trkpt>
      <trkpt lat="46.47248" lon="5.22204">
        <ele>220</ele>
        <time>2021-11-01T13:17:27Z</time>
      </trkpt>
      <trkpt lat="46.47265" lon="5.22211">
        <ele>220.4</ele>
        <time>2021-11-01T13:17:30Z</time>
      </trkpt>
      <trkpt lat="46.47286" lon="5.2222">
        <ele>221</ele>
        <time>2021-11-01T13:17:34Z</time>
      </trkpt>
      <trkpt lat="46.47309" lon="5.22228">
        <ele>222</ele>
        <time>2021-11-01T13:17:38Z</time>
      </trkpt>
      <trkpt lat="46.47315" lon="5.2223">
        <ele>222.2</ele>
        <time>2021-11-01T13:17:39Z</time>
      </trkpt>
      <trkpt lat="46.47365" lon="5.22249">
        <ele>223.2</ele>
        <time>2021-11-01T13:17:48Z</time>
      </trkpt>
      <trkpt lat="46.4737" lon="5.22252">
        <ele>223.2</ele>
        <time>2021-11-01T13:17:49Z</time>
      </trkpt>
      <trkpt lat="46.47416" lon="5.22277">
        <ele>224.2</ele>
        <time>2021-11-01T13:17:57Z</time>
      </trkpt>
      <trkpt lat="46.47447" lon="5.22294">
        <ele>224.4</ele>
        <time>2021-11-01T13:18:02Z</time>
      </trkpt>
      <trkpt lat="46.47466" lon="5.22304">
        <ele>224.6</ele>
        <time>2021-11-01T13:18:05Z</time>
      </trkpt>
      <trkpt lat="46.47518" lon="5.22332">
        <ele>224.6</ele>
        <time>2021-11-01T13:18:13Z</time>
      </trkpt>
      <trkpt lat="46.47531" lon="5.2234">
        <ele>224.6</ele>
        <time>2021-11-01T13:18:15Z</time>
      </trkpt>
      <trkpt lat="46.47588" lon="5.22369">
        <ele>224.4</ele>
        <time>2021-11-01T13:18:24Z</time>
      </trkpt>
      <trkpt lat="46.47594" lon="5.22371">
        <ele>224.6</ele>
        <time>2021-11-01T13:18:25Z</time>
      </trkpt>
      <trkpt lat="46.47653" lon="5.22391">
        <ele>225.4</ele>
        <time>2021-11-01T13:18:34Z</time>
      </trkpt>
      <trkpt lat="46.47659" lon="5.22393">
        <ele>225.6</ele>
        <time>2021-11-01T13:18:35Z</time>
      </trkpt>
      <trkpt lat="46.47665" lon="5.22395">
        <ele>225.6</ele>
        <time>2021-11-01T13:18:36Z</time>
      </trkpt>
      <trkpt lat="46.47702" lon="5.22399">
        <ele>226</ele>
        <time>2021-11-01T13:18:42Z</time>
      </trkpt>
      <trkpt lat="46.47725" lon="5.224">
        <ele>226.6</ele>
        <time>2021-11-01T13:18:46Z</time>
      </trkpt>
      <trkpt lat="46.47742" lon="5.22401">
        <ele>227</ele>
        <time>2021-11-01T13:18:49Z</time>
      </trkpt>
      <trkpt lat="46.47765" lon="5.22401">
        <ele>227</ele>
        <time>2021-11-01T13:18:54Z</time>
      </trkpt>
      <trkpt lat="46.47775" lon="5.22396">
        <ele>227</ele>
        <time>2021-11-01T13:18:58Z</time>
      </trkpt>
      <trkpt lat="46.47777" lon="5.22391">
        <ele>226.8</ele>
        <time>2021-11-01T13:18:59Z</time>
      </trkpt>
      <trkpt lat="46.47778" lon="5.22385">
        <ele>226.8</ele>
        <time>2021-11-01T13:19:00Z</time>
      </trkpt>
      <trkpt lat="46.47776" lon="5.2237">
        <ele>226.6</ele>
        <time>2021-11-01T13:19:02Z</time>
      </trkpt>
      <trkpt lat="46.47771" lon="5.22327">
        <ele>226.2</ele>
        <time>2021-11-01T13:19:07Z</time>
      </trkpt>
      <trkpt lat="46.47773" lon="5.22319">
        <ele>225.8</ele>
        <time>2021-11-01T13:19:08Z</time>
      </trkpt>
      <trkpt lat="46.47777" lon="5.22313">
        <ele>225.8</ele>
        <time>2021-11-01T13:19:09Z</time>
      </trkpt>
      <trkpt lat="46.47782" lon="5.22311">
        <ele>225.6</ele>
        <time>2021-11-01T13:19:10Z</time>
      </trkpt>
      <trkpt lat="46.47787" lon="5.22311">
        <ele>225.6</ele>
        <time>2021-11-01T13:19:11Z</time>
      </trkpt>
      <trkpt lat="46.47826" lon="5.22307">
        <ele>225.8</ele>
        <time>2021-11-01T13:19:17Z</time>
      </trkpt>
      <trkpt lat="46.47881" lon="5.223">
        <ele>226</ele>
        <time>2021-11-01T13:19:25Z</time>
      </trkpt>
      <trkpt lat="46.47888" lon="5.22299">
        <ele>226</ele>
        <time>2021-11-01T13:19:26Z</time>
      </trkpt>
      <trkpt lat="46.47944" lon="5.22292">
        <ele>225.2</ele>
        <time>2021-11-01T13:19:33Z</time>
      </trkpt>
      <trkpt lat="46.47967" lon="5.22288">
        <ele>224.4</ele>
        <time>2021-11-01T13:19:36Z</time>
      </trkpt>
      <trkpt lat="46.48007" lon="5.22286">
        <ele>223.6</ele>
        <time>2021-11-01T13:19:41Z</time>
      </trkpt>
      <trkpt lat="46.48036" lon="5.22283">
        <ele>223.4</ele>
        <time>2021-11-01T13:19:45Z</time>
      </trkpt>
      <trkpt lat="46.48043" lon="5.2228">
        <ele>223.4</ele>
        <time>2021-11-01T13:19:46Z</time>
      </trkpt>
      <trkpt lat="46.4805" lon="5.22277">
        <ele>223.6</ele>
        <time>2021-11-01T13:19:47Z</time>
      </trkpt>
      <trkpt lat="46.48062" lon="5.22269">
        <ele>223.4</ele>
        <time>2021-11-01T13:19:49Z</time>
      </trkpt>
      <trkpt lat="46.48068" lon="5.22264">
        <ele>223.4</ele>
        <time>2021-11-01T13:19:50Z</time>
      </trkpt>
      <trkpt lat="46.48084" lon="5.22246">
        <ele>223.2</ele>
        <time>2021-11-01T13:19:53Z</time>
      </trkpt>
      <trkpt lat="46.48097" lon="5.22237">
        <ele>223</ele>
        <time>2021-11-01T13:19:55Z</time>
      </trkpt>
      <trkpt lat="46.48104" lon="5.22234">
        <ele>223</ele>
        <time>2021-11-01T13:19:56Z</time>
      </trkpt>
      <trkpt lat="46.4812" lon="5.22229">
        <ele>223</ele>
        <time>2021-11-01T13:19:58Z</time>
      </trkpt>
      <trkpt lat="46.48128" lon="5.22228">
        <ele>222.8</ele>
        <time>2021-11-01T13:19:59Z</time>
      </trkpt>
      <trkpt lat="46.48179" lon="5.22216">
        <ele>223</ele>
        <time>2021-11-01T13:20:05Z</time>
      </trkpt>
      <trkpt lat="46.48229" lon="5.22208">
        <ele>222.6</ele>
        <time>2021-11-01T13:20:11Z</time>
      </trkpt>
      <trkpt lat="46.4827" lon="5.2222">
        <ele>222.6</ele>
        <time>2021-11-01T13:20:16Z</time>
      </trkpt>
      <trkpt lat="46.48318" lon="5.22224">
        <ele>223</ele>
        <time>2021-11-01T13:20:22Z</time>
      </trkpt>
      <trkpt lat="46.48348" lon="5.22226">
        <ele>223.6</ele>
        <time>2021-11-01T13:20:26Z</time>
      </trkpt>
      <trkpt lat="46.48362" lon="5.2223">
        <ele>223.8</ele>
        <time>2021-11-01T13:20:28Z</time>
      </trkpt>
      <trkpt lat="46.48397" lon="5.2225">
        <ele>224</ele>
        <time>2021-11-01T13:20:33Z</time>
      </trkpt>
      <trkpt lat="46.48427" lon="5.22279">
        <ele>224.8</ele>
        <time>2021-11-01T13:20:38Z</time>
      </trkpt>
      <trkpt lat="46.48432" lon="5.22286">
        <ele>224.6</ele>
        <time>2021-11-01T13:20:39Z</time>
      </trkpt>
      <trkpt lat="46.48467" lon="5.22333">
        <ele>226</ele>
        <time>2021-11-01T13:20:46Z</time>
      </trkpt>
      <trkpt lat="46.48472" lon="5.22339">
        <ele>226.2</ele>
        <time>2021-11-01T13:20:47Z</time>
      </trkpt>
      <trkpt lat="46.48507" lon="5.22371">
        <ele>226.4</ele>
        <time>2021-11-01T13:20:53Z</time>
      </trkpt>
      <trkpt lat="46.48554" lon="5.22402">
        <ele>226.4</ele>
        <time>2021-11-01T13:21:00Z</time>
      </trkpt>
      <trkpt lat="46.48607" lon="5.22448">
        <ele>226.4</ele>
        <time>2021-11-01T13:21:08Z</time>
      </trkpt>
      <trkpt lat="46.4862" lon="5.22459">
        <ele>226.4</ele>
        <time>2021-11-01T13:21:10Z</time>
      </trkpt>
      <trkpt lat="46.48654" lon="5.22494">
        <ele>226</ele>
        <time>2021-11-01T13:21:15Z</time>
      </trkpt>
      <trkpt lat="46.48688" lon="5.22535">
        <ele>225.2</ele>
        <time>2021-11-01T13:21:20Z</time>
      </trkpt>
      <trkpt lat="46.48696" lon="5.22541">
        <ele>225</ele>
        <time>2021-11-01T13:21:21Z</time>
      </trkpt>
      <trkpt lat="46.48705" lon="5.22547">
        <ele>224.8</ele>
        <time>2021-11-01T13:21:22Z</time>
      </trkpt>
      <trkpt lat="46.48747" lon="5.22571">
        <ele>224</ele>
        <time>2021-11-01T13:21:27Z</time>
      </trkpt>
      <trkpt lat="46.48755" lon="5.22576">
        <ele>223.8</ele>
        <time>2021-11-01T13:21:28Z</time>
      </trkpt>
      <trkpt lat="46.48813" lon="5.22608">
        <ele>223.4</ele>
        <time>2021-11-01T13:21:35Z</time>
      </trkpt>
      <trkpt lat="46.48838" lon="5.22622">
        <ele>223</ele>
        <time>2021-11-01T13:21:38Z</time>
      </trkpt>
      <trkpt lat="46.48894" lon="5.22653">
        <ele>223.6</ele>
        <time>2021-11-01T13:21:45Z</time>
      </trkpt>
      <trkpt lat="46.48901" lon="5.22656">
        <ele>223.8</ele>
        <time>2021-11-01T13:21:46Z</time>
      </trkpt>
      <trkpt lat="46.48953" lon="5.22682">
        <ele>224.2</ele>
        <time>2021-11-01T13:21:53Z</time>
      </trkpt>
      <trkpt lat="46.48962" lon="5.22686">
        <ele>224.2</ele>
        <time>2021-11-01T13:21:54Z</time>
      </trkpt>
      <trkpt lat="46.49009" lon="5.22712">
        <ele>224.8</ele>
        <time>2021-11-01T13:22:01Z</time>
      </trkpt>
      <trkpt lat="46.49015" lon="5.22715">
        <ele>225</ele>
        <time>2021-11-01T13:22:02Z</time>
      </trkpt>
      <trkpt lat="46.49048" lon="5.22733">
        <ele>226</ele>
        <time>2021-11-01T13:22:07Z</time>
      </trkpt>
      <trkpt lat="46.49069" lon="5.22744">
        <ele>226.2</ele>
        <time>2021-11-01T13:22:10Z</time>
      </trkpt>
      <trkpt lat="46.49126" lon="5.22775">
        <ele>226.2</ele>
        <time>2021-11-01T13:22:18Z</time>
      </trkpt>
      <trkpt lat="46.49182" lon="5.22799">
        <ele>226.4</ele>
        <time>2021-11-01T13:22:26Z</time>
      </trkpt>
      <trkpt lat="46.49225" lon="5.22796">
        <ele>226.4</ele>
        <time>2021-11-01T13:22:32Z</time>
      </trkpt>
      <trkpt lat="46.4927" lon="5.22793">
        <ele>225.8</ele>
        <time>2021-11-01T13:22:37Z</time>
      </trkpt>
      <trkpt lat="46.49301" lon="5.2279">
        <ele>224.6</ele>
        <time>2021-11-01T13:22:40Z</time>
      </trkpt>
      <trkpt lat="46.49323" lon="5.22788">
        <ele>223</ele>
        <time>2021-11-01T13:22:42Z</time>
      </trkpt>
      <trkpt lat="46.49334" lon="5.22787">
        <ele>222.4</ele>
        <time>2021-11-01T13:22:43Z</time>
      </trkpt>
      <trkpt lat="46.49345" lon="5.22786">
        <ele>221.4</ele>
        <time>2021-11-01T13:22:44Z</time>
      </trkpt>
      <trkpt lat="46.49367" lon="5.22784">
        <ele>220.2</ele>
        <time>2021-11-01T13:22:46Z</time>
      </trkpt>
      <trkpt lat="46.49389" lon="5.22782">
        <ele>219</ele>
        <time>2021-11-01T13:22:48Z</time>
      </trkpt>
      <trkpt lat="46.49421" lon="5.2278">
        <ele>217.6</ele>
        <time>2021-11-01T13:22:51Z</time>
      </trkpt>
      <trkpt lat="46.49454" lon="5.22777">
        <ele>216.2</ele>
        <time>2021-11-01T13:22:54Z</time>
      </trkpt>
      <trkpt lat="46.49478" lon="5.22775">
        <ele>215</ele>
        <time>2021-11-01T13:22:56Z</time>
      </trkpt>
      <trkpt lat="46.49513" lon="5.22772">
        <ele>214</ele>
        <time>2021-11-01T13:22:59Z</time>
      </trkpt>
      <trkpt lat="46.49537" lon="5.22771">
        <ele>212.6</ele>
        <time>2021-11-01T13:23:01Z</time>
      </trkpt>
      <trkpt lat="46.49572" lon="5.22768">
        <ele>211.2</ele>
        <time>2021-11-01T13:23:04Z</time>
      </trkpt>
      <trkpt lat="46.49583" lon="5.22767">
        <ele>210.6</ele>
        <time>2021-11-01T13:23:05Z</time>
      </trkpt>
      <trkpt lat="46.49615" lon="5.22765">
        <ele>210.2</ele>
        <time>2021-11-01T13:23:08Z</time>
      </trkpt>
      <trkpt lat="46.49625" lon="5.22764">
        <ele>210.2</ele>
        <time>2021-11-01T13:23:09Z</time>
      </trkpt>
      <trkpt lat="46.49668" lon="5.2276">
        <ele>211</ele>
        <time>2021-11-01T13:23:14Z</time>
      </trkpt>
      <trkpt lat="46.49683" lon="5.22759">
        <ele>211.6</ele>
        <time>2021-11-01T13:23:16Z</time>
      </trkpt>
      <trkpt lat="46.49698" lon="5.22758">
        <ele>213</ele>
        <time>2021-11-01T13:23:18Z</time>
      </trkpt>
      <trkpt lat="46.49713" lon="5.22756">
        <ele>213.8</ele>
        <time>2021-11-01T13:23:20Z</time>
      </trkpt>
      <trkpt lat="46.4972" lon="5.22755">
        <ele>214.2</ele>
        <time>2021-11-01T13:23:21Z</time>
      </trkpt>
      <trkpt lat="46.49741" lon="5.22752">
        <ele>215.6</ele>
        <time>2021-11-01T13:23:24Z</time>
      </trkpt>
      <trkpt lat="46.49761" lon="5.2275">
        <ele>216.4</ele>
        <time>2021-11-01T13:23:27Z</time>
      </trkpt>
      <trkpt lat="46.49768" lon="5.22749">
        <ele>216.8</ele>
        <time>2021-11-01T13:23:28Z</time>
      </trkpt>
      <trkpt lat="46.49787" lon="5.22747">
        <ele>218</ele>
        <time>2021-11-01T13:23:31Z</time>
      </trkpt>
      <trkpt lat="46.49827" lon="5.22742">
        <ele>218.8</ele>
        <time>2021-11-01T13:23:37Z</time>
      </trkpt>
      <trkpt lat="46.49854" lon="5.22739">
        <ele>219</ele>
        <time>2021-11-01T13:23:41Z</time>
      </trkpt>
      <trkpt lat="46.49879" lon="5.22736">
        <ele>219.4</ele>
        <time>2021-11-01T13:23:45Z</time>
      </trkpt>
      <trkpt lat="46.49912" lon="5.22733">
        <ele>220</ele>
        <time>2021-11-01T13:23:50Z</time>
      </trkpt>
      <trkpt lat="46.49931" lon="5.22731">
        <ele>220.4</ele>
        <time>2021-11-01T13:23:53Z</time>
      </trkpt>
      <trkpt lat="46.49961" lon="5.22726">
        <ele>221.4</ele>
        <time>2021-11-01T13:23:58Z</time>
      </trkpt>
      <trkpt lat="46.49967" lon="5.22725">
        <ele>221.6</ele>
        <time>2021-11-01T13:23:59Z</time>
      </trkpt>
      <trkpt lat="46.50003" lon="5.22718">
        <ele>222.4</ele>
        <time>2021-11-01T13:24:05Z</time>
      </trkpt>
      <trkpt lat="46.5002" lon="5.22715">
        <ele>223</ele>
        <time>2021-11-01T13:24:08Z</time>
      </trkpt>
      <trkpt lat="46.50047" lon="5.22707">
        <ele>223.8</ele>
        <time>2021-11-01T13:24:13Z</time>
      </trkpt>
      <trkpt lat="46.50057" lon="5.22705">
        <ele>224.2</ele>
        <time>2021-11-01T13:24:15Z</time>
      </trkpt>
      <trkpt lat="46.50068" lon="5.22704">
        <ele>224.8</ele>
        <time>2021-11-01T13:24:17Z</time>
      </trkpt>
      <trkpt lat="46.50092" lon="5.22706">
        <ele>225.6</ele>
        <time>2021-11-01T13:24:21Z</time>
      </trkpt>
      <trkpt lat="46.50097" lon="5.22708">
        <ele>225.8</ele>
        <time>2021-11-01T13:24:22Z</time>
      </trkpt>
      <trkpt lat="46.50103" lon="5.2271">
        <ele>226.2</ele>
        <time>2021-11-01T13:24:23Z</time>
      </trkpt>
      <trkpt lat="46.50119" lon="5.22718">
        <ele>226.6</ele>
        <time>2021-11-01T13:24:26Z</time>
      </trkpt>
      <trkpt lat="46.50142" lon="5.22731">
        <ele>227</ele>
        <time>2021-11-01T13:24:30Z</time>
      </trkpt>
      <trkpt lat="46.50172" lon="5.22746">
        <ele>227.4</ele>
        <time>2021-11-01T13:24:35Z</time>
      </trkpt>
      <trkpt lat="46.50192" lon="5.22754">
        <ele>227.4</ele>
        <time>2021-11-01T13:24:38Z</time>
      </trkpt>
      <trkpt lat="46.50206" lon="5.22757">
        <ele>227.4</ele>
        <time>2021-11-01T13:24:40Z</time>
      </trkpt>
      <trkpt lat="46.50212" lon="5.22757">
        <ele>227.4</ele>
        <time>2021-11-01T13:24:41Z</time>
      </trkpt>
      <trkpt lat="46.50269" lon="5.22747">
        <ele>227.4</ele>
        <time>2021-11-01T13:24:49Z</time>
      </trkpt>
      <trkpt lat="46.50323" lon="5.22744">
        <ele>227.2</ele>
        <time>2021-11-01T13:24:56Z</time>
      </trkpt>
      <trkpt lat="46.50379" lon="5.22751">
        <ele>226.8</ele>
        <time>2021-11-01T13:25:03Z</time>
      </trkpt>
      <trkpt lat="46.50388" lon="5.22752">
        <ele>226.8</ele>
        <time>2021-11-01T13:25:04Z</time>
      </trkpt>
      <trkpt lat="46.50439" lon="5.22761">
        <ele>226</ele>
        <time>2021-11-01T13:25:10Z</time>
      </trkpt>
      <trkpt lat="46.50457" lon="5.22764">
        <ele>225.8</ele>
        <time>2021-11-01T13:25:12Z</time>
      </trkpt>
      <trkpt lat="46.50512" lon="5.22774">
        <ele>225.4</ele>
        <time>2021-11-01T13:25:18Z</time>
      </trkpt>
      <trkpt lat="46.50539" lon="5.22783">
        <ele>225</ele>
        <time>2021-11-01T13:25:21Z</time>
      </trkpt>
      <trkpt lat="46.50548" lon="5.22787">
        <ele>224.8</ele>
        <time>2021-11-01T13:25:22Z</time>
      </trkpt>
      <trkpt lat="46.5058" lon="5.2281">
        <ele>224.6</ele>
        <time>2021-11-01T13:25:26Z</time>
      </trkpt>
      <trkpt lat="46.5063" lon="5.22859">
        <ele>225</ele>
        <time>2021-11-01T13:25:33Z</time>
      </trkpt>
      <trkpt lat="46.50676" lon="5.2292">
        <ele>225.4</ele>
        <time>2021-11-01T13:25:40Z</time>
      </trkpt>
      <trkpt lat="46.50682" lon="5.22929">
        <ele>225.4</ele>
        <time>2021-11-01T13:25:41Z</time>
      </trkpt>
      <trkpt lat="46.50725" lon="5.22991">
        <ele>225.2</ele>
        <time>2021-11-01T13:25:48Z</time>
      </trkpt>
      <trkpt lat="46.50756" lon="5.23037">
        <ele>225.4</ele>
        <time>2021-11-01T13:25:53Z</time>
      </trkpt>
      <trkpt lat="46.50802" lon="5.23098">
        <ele>225.2</ele>
        <time>2021-11-01T13:26:00Z</time>
      </trkpt>
      <trkpt lat="46.50808" lon="5.23105">
        <ele>225.2</ele>
        <time>2021-11-01T13:26:01Z</time>
      </trkpt>
      <trkpt lat="46.50846" lon="5.23135">
        <ele>225.2</ele>
        <time>2021-11-01T13:26:06Z</time>
      </trkpt>
      <trkpt lat="46.50897" lon="5.23158">
        <ele>225.6</ele>
        <time>2021-11-01T13:26:12Z</time>
      </trkpt>
      <trkpt lat="46.50954" lon="5.23182">
        <ele>225.4</ele>
        <time>2021-11-01T13:26:19Z</time>
      </trkpt>
      <trkpt lat="46.5097" lon="5.23192">
        <ele>225.4</ele>
        <time>2021-11-01T13:26:21Z</time>
      </trkpt>
      <trkpt lat="46.51019" lon="5.23229">
        <ele>225.4</ele>
        <time>2021-11-01T13:26:27Z</time>
      </trkpt>
      <trkpt lat="46.51027" lon="5.23236">
        <ele>225.4</ele>
        <time>2021-11-01T13:26:28Z</time>
      </trkpt>
      <trkpt lat="46.51075" lon="5.23275">
        <ele>225</ele>
        <time>2021-11-01T13:26:34Z</time>
      </trkpt>
      <trkpt lat="46.51098" lon="5.23299">
        <ele>224.8</ele>
        <time>2021-11-01T13:26:37Z</time>
      </trkpt>
      <trkpt lat="46.51142" lon="5.23352">
        <ele>224.2</ele>
        <time>2021-11-01T13:26:43Z</time>
      </trkpt>
      <trkpt lat="46.51157" lon="5.2337">
        <ele>224</ele>
        <time>2021-11-01T13:26:45Z</time>
      </trkpt>
      <trkpt lat="46.51171" lon="5.23388">
        <ele>223.8</ele>
        <time>2021-11-01T13:26:47Z</time>
      </trkpt>
      <trkpt lat="46.51192" lon="5.23415">
        <ele>223.6</ele>
        <time>2021-11-01T13:26:50Z</time>
      </trkpt>
      <trkpt lat="46.51239" lon="5.23474">
        <ele>223.4</ele>
        <time>2021-11-01T13:26:57Z</time>
      </trkpt>
      <trkpt lat="46.51245" lon="5.23482">
        <ele>223.4</ele>
        <time>2021-11-01T13:26:58Z</time>
      </trkpt>
      <trkpt lat="46.51289" lon="5.23536">
        <ele>224</ele>
        <time>2021-11-01T13:27:05Z</time>
      </trkpt>
      <trkpt lat="46.51332" lon="5.2359">
        <ele>224.6</ele>
        <time>2021-11-01T13:27:12Z</time>
      </trkpt>
      <trkpt lat="46.51351" lon="5.23613">
        <ele>224.6</ele>
        <time>2021-11-01T13:27:15Z</time>
      </trkpt>
      <trkpt lat="46.51391" lon="5.23653">
        <ele>224.8</ele>
        <time>2021-11-01T13:27:21Z</time>
      </trkpt>
      <trkpt lat="46.51399" lon="5.23657">
        <ele>224.8</ele>
        <time>2021-11-01T13:27:22Z</time>
      </trkpt>
      <trkpt lat="46.51432" lon="5.2367">
        <ele>224.8</ele>
        <time>2021-11-01T13:27:26Z</time>
      </trkpt>
      <trkpt lat="46.5149" lon="5.2369">
        <ele>224.4</ele>
        <time>2021-11-01T13:27:33Z</time>
      </trkpt>
      <trkpt lat="46.51531" lon="5.23704">
        <ele>224.4</ele>
        <time>2021-11-01T13:27:38Z</time>
      </trkpt>
      <trkpt lat="46.5159" lon="5.23723">
        <ele>224.2</ele>
        <time>2021-11-01T13:27:45Z</time>
      </trkpt>
      <trkpt lat="46.51598" lon="5.23726">
        <ele>224</ele>
        <time>2021-11-01T13:27:46Z</time>
      </trkpt>
      <trkpt lat="46.5166" lon="5.23739">
        <ele>223.8</ele>
        <time>2021-11-01T13:27:53Z</time>
      </trkpt>
      <trkpt lat="46.51715" lon="5.23732">
        <ele>223.6</ele>
        <time>2021-11-01T13:27:59Z</time>
      </trkpt>
      <trkpt lat="46.51724" lon="5.2373">
        <ele>223.6</ele>
        <time>2021-11-01T13:28:00Z</time>
      </trkpt>
      <trkpt lat="46.5178" lon="5.23721">
        <ele>223</ele>
        <time>2021-11-01T13:28:06Z</time>
      </trkpt>
      <trkpt lat="46.51799" lon="5.23718">
        <ele>222.8</ele>
        <time>2021-11-01T13:28:08Z</time>
      </trkpt>
      <trkpt lat="46.51854" lon="5.23708">
        <ele>222.2</ele>
        <time>2021-11-01T13:28:14Z</time>
      </trkpt>
      <trkpt lat="46.51882" lon="5.23702">
        <ele>222</ele>
        <time>2021-11-01T13:28:17Z</time>
      </trkpt>
      <trkpt lat="46.51901" lon="5.237">
        <ele>221.8</ele>
        <time>2021-11-01T13:28:19Z</time>
      </trkpt>
      <trkpt lat="46.51948" lon="5.23697">
        <ele>221.8</ele>
        <time>2021-11-01T13:28:24Z</time>
      </trkpt>
      <trkpt lat="46.51991" lon="5.23689">
        <ele>222</ele>
        <time>2021-11-01T13:28:29Z</time>
      </trkpt>
      <trkpt lat="46.52049" lon="5.23674">
        <ele>222.2</ele>
        <time>2021-11-01T13:28:36Z</time>
      </trkpt>
      <trkpt lat="46.52058" lon="5.23673">
        <ele>222.2</ele>
        <time>2021-11-01T13:28:37Z</time>
      </trkpt>
      <trkpt lat="46.52115" lon="5.23668">
        <ele>222.2</ele>
        <time>2021-11-01T13:28:44Z</time>
      </trkpt>
      <trkpt lat="46.52124" lon="5.2367">
        <ele>222.2</ele>
        <time>2021-11-01T13:28:45Z</time>
      </trkpt>
      <trkpt lat="46.52139" lon="5.23679">
        <ele>222.4</ele>
        <time>2021-11-01T13:28:47Z</time>
      </trkpt>
      <trkpt lat="46.52152" lon="5.23692">
        <ele>222.6</ele>
        <time>2021-11-01T13:28:49Z</time>
      </trkpt>
      <trkpt lat="46.52164" lon="5.23709">
        <ele>222.6</ele>
        <time>2021-11-01T13:28:51Z</time>
      </trkpt>
      <trkpt lat="46.52193" lon="5.23752">
        <ele>222.8</ele>
        <time>2021-11-01T13:28:56Z</time>
      </trkpt>
      <trkpt lat="46.52209" lon="5.23778">
        <ele>222.8</ele>
        <time>2021-11-01T13:28:59Z</time>
      </trkpt>
      <trkpt lat="46.52245" lon="5.23836">
        <ele>222.8</ele>
        <time>2021-11-01T13:29:06Z</time>
      </trkpt>
      <trkpt lat="46.5225" lon="5.23844">
        <ele>222.8</ele>
        <time>2021-11-01T13:29:07Z</time>
      </trkpt>
      <trkpt lat="46.52287" lon="5.23904">
        <ele>222.6</ele>
        <time>2021-11-01T13:29:14Z</time>
      </trkpt>
      <trkpt lat="46.52292" lon="5.23914">
        <ele>222.6</ele>
        <time>2021-11-01T13:29:15Z</time>
      </trkpt>
      <trkpt lat="46.52323" lon="5.23983">
        <ele>222.6</ele>
        <time>2021-11-01T13:29:22Z</time>
      </trkpt>
      <trkpt lat="46.52327" lon="5.23992">
        <ele>222.6</ele>
        <time>2021-11-01T13:29:23Z</time>
      </trkpt>
      <trkpt lat="46.52349" lon="5.24048">
        <ele>222.6</ele>
        <time>2021-11-01T13:29:29Z</time>
      </trkpt>
      <trkpt lat="46.52361" lon="5.24083">
        <ele>222.6</ele>
        <time>2021-11-01T13:29:33Z</time>
      </trkpt>
      <trkpt lat="46.52365" lon="5.24095">
        <ele>222.6</ele>
        <time>2021-11-01T13:29:35Z</time>
      </trkpt>
      <trkpt lat="46.52371" lon="5.24103">
        <ele>222.8</ele>
        <time>2021-11-01T13:29:37Z</time>
      </trkpt>
      <trkpt lat="46.52382" lon="5.24107">
        <ele>222.8</ele>
        <time>2021-11-01T13:29:39Z</time>
      </trkpt>
      <trkpt lat="46.52415" lon="5.24115">
        <ele>223</ele>
        <time>2021-11-01T13:29:44Z</time>
      </trkpt>
      <trkpt lat="46.52459" lon="5.24124">
        <ele>223.2</ele>
        <time>2021-11-01T13:29:50Z</time>
      </trkpt>
      <trkpt lat="46.52472" lon="5.24135">
        <ele>223.2</ele>
        <time>2021-11-01T13:29:52Z</time>
      </trkpt>
      <trkpt lat="46.52475" lon="5.24145">
        <ele>223.2</ele>
        <time>2021-11-01T13:29:53Z</time>
      </trkpt>
      <trkpt lat="46.52477" lon="5.24156">
        <ele>223.2</ele>
        <time>2021-11-01T13:29:54Z</time>
      </trkpt>
      <trkpt lat="46.5248" lon="5.24192">
        <ele>223.2</ele>
        <time>2021-11-01T13:29:57Z</time>
      </trkpt>
      <trkpt lat="46.52492" lon="5.24273">
        <ele>222.4</ele>
        <time>2021-11-01T13:30:04Z</time>
      </trkpt>
      <trkpt lat="46.52494" lon="5.24294">
        <ele>222.2</ele>
        <time>2021-11-01T13:30:06Z</time>
      </trkpt>
      <trkpt lat="46.525" lon="5.24337">
        <ele>221.8</ele>
        <time>2021-11-01T13:30:10Z</time>
      </trkpt>
      <trkpt lat="46.52504" lon="5.2437">
        <ele>221.6</ele>
        <time>2021-11-01T13:30:13Z</time>
      </trkpt>
      <trkpt lat="46.52516" lon="5.24452">
        <ele>221.4</ele>
        <time>2021-11-01T13:30:21Z</time>
      </trkpt>
      <trkpt lat="46.52518" lon="5.24462">
        <ele>221.4</ele>
        <time>2021-11-01T13:30:22Z</time>
      </trkpt>
      <trkpt lat="46.5252" lon="5.24472">
        <ele>221.4</ele>
        <time>2021-11-01T13:30:23Z</time>
      </trkpt>
      <trkpt lat="46.5253" lon="5.24508">
        <ele>221.6</ele>
        <time>2021-11-01T13:30:27Z</time>
      </trkpt>
      <trkpt lat="46.52555" lon="5.24578">
        <ele>222.4</ele>
        <time>2021-11-01T13:30:35Z</time>
      </trkpt>
      <trkpt lat="46.5257" lon="5.24621">
        <ele>223.2</ele>
        <time>2021-11-01T13:30:40Z</time>
      </trkpt>
      <trkpt lat="46.52575" lon="5.2464">
        <ele>223.4</ele>
        <time>2021-11-01T13:30:42Z</time>
      </trkpt>
      <trkpt lat="46.52583" lon="5.24688">
        <ele>223.4</ele>
        <time>2021-11-01T13:30:47Z</time>
      </trkpt>
      <trkpt lat="46.52587" lon="5.24772">
        <ele>223.4</ele>
        <time>2021-11-01T13:30:55Z</time>
      </trkpt>
      <trkpt lat="46.5259" lon="5.24858">
        <ele>223.4</ele>
        <time>2021-11-01T13:31:03Z</time>
      </trkpt>
      <trkpt lat="46.52591" lon="5.24869">
        <ele>223.4</ele>
        <time>2021-11-01T13:31:04Z</time>
      </trkpt>
      <trkpt lat="46.52598" lon="5.24952">
        <ele>223.6</ele>
        <time>2021-11-01T13:31:12Z</time>
      </trkpt>
      <trkpt lat="46.5261" lon="5.25035">
        <ele>223.6</ele>
        <time>2021-11-01T13:31:20Z</time>
      </trkpt>
      <trkpt lat="46.52611" lon="5.25055">
        <ele>223.8</ele>
        <time>2021-11-01T13:31:22Z</time>
      </trkpt>
      <trkpt lat="46.52613" lon="5.25096">
        <ele>224.2</ele>
        <time>2021-11-01T13:31:26Z</time>
      </trkpt>
      <trkpt lat="46.52614" lon="5.25136">
        <ele>224.4</ele>
        <time>2021-11-01T13:31:30Z</time>
      </trkpt>
      <trkpt lat="46.52616" lon="5.25221">
        <ele>224.6</ele>
        <time>2021-11-01T13:31:38Z</time>
      </trkpt>
      <trkpt lat="46.52617" lon="5.25231">
        <ele>224.6</ele>
        <time>2021-11-01T13:31:39Z</time>
      </trkpt>
      <trkpt lat="46.52618" lon="5.25263">
        <ele>224.8</ele>
        <time>2021-11-01T13:31:42Z</time>
      </trkpt>
      <trkpt lat="46.52621" lon="5.25282">
        <ele>224.8</ele>
        <time>2021-11-01T13:31:44Z</time>
      </trkpt>
      <trkpt lat="46.52636" lon="5.25339">
        <ele>225.2</ele>
        <time>2021-11-01T13:31:50Z</time>
      </trkpt>
      <trkpt lat="46.5266" lon="5.25381">
        <ele>225</ele>
        <time>2021-11-01T13:31:55Z</time>
      </trkpt>
      <trkpt lat="46.52703" lon="5.25444">
        <ele>224.6</ele>
        <time>2021-11-01T13:32:03Z</time>
      </trkpt>
      <trkpt lat="46.52713" lon="5.2546">
        <ele>224.4</ele>
        <time>2021-11-01T13:32:05Z</time>
      </trkpt>
      <trkpt lat="46.5272" lon="5.2548">
        <ele>224.4</ele>
        <time>2021-11-01T13:32:07Z</time>
      </trkpt>
      <trkpt lat="46.52722" lon="5.25491">
        <ele>224.2</ele>
        <time>2021-11-01T13:32:08Z</time>
      </trkpt>
      <trkpt lat="46.52723" lon="5.25514">
        <ele>224.2</ele>
        <time>2021-11-01T13:32:10Z</time>
      </trkpt>
      <trkpt lat="46.52722" lon="5.25549">
        <ele>223.6</ele>
        <time>2021-11-01T13:32:13Z</time>
      </trkpt>
      <trkpt lat="46.5272" lon="5.25596">
        <ele>223.2</ele>
        <time>2021-11-01T13:32:17Z</time>
      </trkpt>
      <trkpt lat="46.52717" lon="5.25665">
        <ele>222.6</ele>
        <time>2021-11-01T13:32:23Z</time>
      </trkpt>
      <trkpt lat="46.52713" lon="5.25721">
        <ele>222.2</ele>
        <time>2021-11-01T13:32:28Z</time>
      </trkpt>
      <trkpt lat="46.52708" lon="5.25742">
        <ele>222.2</ele>
        <time>2021-11-01T13:32:30Z</time>
      </trkpt>
      <trkpt lat="46.52694" lon="5.25794">
        <ele>222</ele>
        <time>2021-11-01T13:32:35Z</time>
      </trkpt>
      <trkpt lat="46.52693" lon="5.25805">
        <ele>222</ele>
        <time>2021-11-01T13:32:36Z</time>
      </trkpt>
      <trkpt lat="46.52692" lon="5.25866">
        <ele>221.8</ele>
        <time>2021-11-01T13:32:41Z</time>
      </trkpt>
      <trkpt lat="46.5269" lon="5.25879">
        <ele>221.6</ele>
        <time>2021-11-01T13:32:42Z</time>
      </trkpt>
      <trkpt lat="46.52685" lon="5.25905">
        <ele>221.2</ele>
        <time>2021-11-01T13:32:44Z</time>
      </trkpt>
      <trkpt lat="46.5268" lon="5.25918">
        <ele>220.6</ele>
        <time>2021-11-01T13:32:45Z</time>
      </trkpt>
      <trkpt lat="46.52675" lon="5.25929">
        <ele>220</ele>
        <time>2021-11-01T13:32:46Z</time>
      </trkpt>
      <trkpt lat="46.52661" lon="5.25946">
        <ele>218.8</ele>
        <time>2021-11-01T13:32:48Z</time>
      </trkpt>
      <trkpt lat="46.52644" lon="5.25952">
        <ele>217.4</ele>
        <time>2021-11-01T13:32:50Z</time>
      </trkpt>
      <trkpt lat="46.52636" lon="5.25953">
        <ele>217</ele>
        <time>2021-11-01T13:32:51Z</time>
      </trkpt>
      <trkpt lat="46.52627" lon="5.25956">
        <ele>216.2</ele>
        <time>2021-11-01T13:32:52Z</time>
      </trkpt>
      <trkpt lat="46.52618" lon="5.25962">
        <ele>215.8</ele>
        <time>2021-11-01T13:32:53Z</time>
      </trkpt>
      <trkpt lat="46.5261" lon="5.25972">
        <ele>214.6</ele>
        <time>2021-11-01T13:32:54Z</time>
      </trkpt>
      <trkpt lat="46.52601" lon="5.25995">
        <ele>213.6</ele>
        <time>2021-11-01T13:32:56Z</time>
      </trkpt>
      <trkpt lat="46.52597" lon="5.26008">
        <ele>213.2</ele>
        <time>2021-11-01T13:32:57Z</time>
      </trkpt>
      <trkpt lat="46.52592" lon="5.26037">
        <ele>211.6</ele>
        <time>2021-11-01T13:32:59Z</time>
      </trkpt>
      <trkpt lat="46.52589" lon="5.26052">
        <ele>211</ele>
        <time>2021-11-01T13:33:00Z</time>
      </trkpt>
      <trkpt lat="46.52586" lon="5.26066">
        <ele>210</ele>
        <time>2021-11-01T13:33:01Z</time>
      </trkpt>
      <trkpt lat="46.52579" lon="5.26094">
        <ele>208.4</ele>
        <time>2021-11-01T13:33:03Z</time>
      </trkpt>
      <trkpt lat="46.52573" lon="5.26105">
        <ele>208</ele>
        <time>2021-11-01T13:33:04Z</time>
      </trkpt>
      <trkpt lat="46.52566" lon="5.26115">
        <ele>207</ele>
        <time>2021-11-01T13:33:05Z</time>
      </trkpt>
      <trkpt lat="46.52558" lon="5.26122">
        <ele>206.2</ele>
        <time>2021-11-01T13:33:06Z</time>
      </trkpt>
      <trkpt lat="46.52549" lon="5.26125">
        <ele>205.8</ele>
        <time>2021-11-01T13:33:07Z</time>
      </trkpt>
      <trkpt lat="46.5253" lon="5.26128">
        <ele>205</ele>
        <time>2021-11-01T13:33:09Z</time>
      </trkpt>
      <trkpt lat="46.52521" lon="5.26132">
        <ele>203.6</ele>
        <time>2021-11-01T13:33:10Z</time>
      </trkpt>
      <trkpt lat="46.52515" lon="5.26139">
        <ele>203.2</ele>
        <time>2021-11-01T13:33:11Z</time>
      </trkpt>
      <trkpt lat="46.52505" lon="5.26158">
        <ele>202.2</ele>
        <time>2021-11-01T13:33:13Z</time>
      </trkpt>
      <trkpt lat="46.52482" lon="5.2621">
        <ele>201.6</ele>
        <time>2021-11-01T13:33:18Z</time>
      </trkpt>
      <trkpt lat="46.52453" lon="5.2628">
        <ele>201.4</ele>
        <time>2021-11-01T13:33:25Z</time>
      </trkpt>
      <trkpt lat="46.52445" lon="5.26299">
        <ele>201.4</ele>
        <time>2021-11-01T13:33:27Z</time>
      </trkpt>
      <trkpt lat="46.52429" lon="5.26339">
        <ele>201.2</ele>
        <time>2021-11-01T13:33:31Z</time>
      </trkpt>
      <trkpt lat="46.52416" lon="5.26376">
        <ele>201.2</ele>
        <time>2021-11-01T13:33:35Z</time>
      </trkpt>
      <trkpt lat="46.5239" lon="5.26436">
        <ele>201.4</ele>
        <time>2021-11-01T13:33:42Z</time>
      </trkpt>
      <trkpt lat="46.52385" lon="5.26443">
        <ele>201.6</ele>
        <time>2021-11-01T13:33:43Z</time>
      </trkpt>
      <trkpt lat="46.52369" lon="5.2646">
        <ele>201.8</ele>
        <time>2021-11-01T13:33:46Z</time>
      </trkpt>
      <trkpt lat="46.52339" lon="5.26473">
        <ele>202.4</ele>
        <time>2021-11-01T13:33:51Z</time>
      </trkpt>
      <trkpt lat="46.52313" lon="5.26484">
        <ele>203.6</ele>
        <time>2021-11-01T13:33:56Z</time>
      </trkpt>
      <trkpt lat="46.52298" lon="5.26492">
        <ele>204.2</ele>
        <time>2021-11-01T13:33:59Z</time>
      </trkpt>
      <trkpt lat="46.52279" lon="5.26501">
        <ele>204.8</ele>
        <time>2021-11-01T13:34:03Z</time>
      </trkpt>
      <trkpt lat="46.5227" lon="5.26505">
        <ele>205.4</ele>
        <time>2021-11-01T13:34:05Z</time>
      </trkpt>
      <trkpt lat="46.52261" lon="5.26509">
        <ele>205.8</ele>
        <time>2021-11-01T13:34:07Z</time>
      </trkpt>
      <trkpt lat="46.52256" lon="5.2651">
        <ele>206</ele>
        <time>2021-11-01T13:34:08Z</time>
      </trkpt>
      <trkpt lat="46.52248" lon="5.26513">
        <ele>206.4</ele>
        <time>2021-11-01T13:34:10Z</time>
      </trkpt>
      <trkpt lat="46.52239" lon="5.26517">
        <ele>206.8</ele>
        <time>2021-11-01T13:34:12Z</time>
      </trkpt>
      <trkpt lat="46.5223" lon="5.26521">
        <ele>207.2</ele>
        <time>2021-11-01T13:34:14Z</time>
      </trkpt>
      <trkpt lat="46.52211" lon="5.2653">
        <ele>208.2</ele>
        <time>2021-11-01T13:34:18Z</time>
      </trkpt>
      <trkpt lat="46.52207" lon="5.26533">
        <ele>208.6</ele>
        <time>2021-11-01T13:34:19Z</time>
      </trkpt>
      <trkpt lat="46.52189" lon="5.26548">
        <ele>209.2</ele>
        <time>2021-11-01T13:34:23Z</time>
      </trkpt>
      <trkpt lat="46.52177" lon="5.26562">
        <ele>209.8</ele>
        <time>2021-11-01T13:34:26Z</time>
      </trkpt>
      <trkpt lat="46.52174" lon="5.26567">
        <ele>209.8</ele>
        <time>2021-11-01T13:34:27Z</time>
      </trkpt>
      <trkpt lat="46.52152" lon="5.26604">
        <ele>210.2</ele>
        <time>2021-11-01T13:34:33Z</time>
      </trkpt>
      <trkpt lat="46.52139" lon="5.26629">
        <ele>210.2</ele>
        <time>2021-11-01T13:34:37Z</time>
      </trkpt>
      <trkpt lat="46.52128" lon="5.26646">
        <ele>210.2</ele>
        <time>2021-11-01T13:34:40Z</time>
      </trkpt>
      <trkpt lat="46.52104" lon="5.26672">
        <ele>210.4</ele>
        <time>2021-11-01T13:34:46Z</time>
      </trkpt>
      <trkpt lat="46.521" lon="5.26675">
        <ele>210.6</ele>
        <time>2021-11-01T13:34:47Z</time>
      </trkpt>
      <trkpt lat="46.52088" lon="5.26687">
        <ele>211.4</ele>
        <time>2021-11-01T13:34:50Z</time>
      </trkpt>
      <trkpt lat="46.52073" lon="5.26699">
        <ele>212.6</ele>
        <time>2021-11-01T13:34:54Z</time>
      </trkpt>
      <trkpt lat="46.52069" lon="5.26702">
        <ele>212.6</ele>
        <time>2021-11-01T13:34:55Z</time>
      </trkpt>
      <trkpt lat="46.52058" lon="5.2671">
        <ele>214</ele>
        <time>2021-11-01T13:34:58Z</time>
      </trkpt>
      <trkpt lat="46.52051" lon="5.26715">
        <ele>214.4</ele>
        <time>2021-11-01T13:35:00Z</time>
      </trkpt>
      <trkpt lat="46.52048" lon="5.26718">
        <ele>214.6</ele>
        <time>2021-11-01T13:35:01Z</time>
      </trkpt>
      <trkpt lat="46.52044" lon="5.26721">
        <ele>215</ele>
        <time>2021-11-01T13:35:02Z</time>
      </trkpt>
      <trkpt lat="46.52026" lon="5.26737">
        <ele>216.2</ele>
        <time>2021-11-01T13:35:07Z</time>
      </trkpt>
      <trkpt lat="46.52023" lon="5.2674">
        <ele>216.2</ele>
        <time>2021-11-01T13:35:08Z</time>
      </trkpt>
      <trkpt lat="46.52009" lon="5.26751">
        <ele>217.4</ele>
        <time>2021-11-01T13:35:12Z</time>
      </trkpt>
      <trkpt lat="46.51991" lon="5.26766">
        <ele>218.6</ele>
        <time>2021-11-01T13:35:17Z</time>
      </trkpt>
      <trkpt lat="46.51987" lon="5.26769">
        <ele>218.8</ele>
        <time>2021-11-01T13:35:18Z</time>
      </trkpt>
      <trkpt lat="46.51984" lon="5.26773">
        <ele>219.2</ele>
        <time>2021-11-01T13:35:19Z</time>
      </trkpt>
      <trkpt lat="46.51977" lon="5.26779">
        <ele>219.4</ele>
        <time>2021-11-01T13:35:21Z</time>
      </trkpt>
      <trkpt lat="46.51974" lon="5.26783">
        <ele>219.6</ele>
        <time>2021-11-01T13:35:22Z</time>
      </trkpt>
      <trkpt lat="46.51965" lon="5.26796">
        <ele>220.2</ele>
        <time>2021-11-01T13:35:25Z</time>
      </trkpt>
      <trkpt lat="46.51959" lon="5.26806">
        <ele>220.6</ele>
        <time>2021-11-01T13:35:27Z</time>
      </trkpt>
      <trkpt lat="46.51952" lon="5.26826">
        <ele>221.4</ele>
        <time>2021-11-01T13:35:30Z</time>
      </trkpt>
      <trkpt lat="46.51948" lon="5.26839">
        <ele>221.8</ele>
        <time>2021-11-01T13:35:32Z</time>
      </trkpt>
      <trkpt lat="46.51948" lon="5.26845">
        <ele>222</ele>
        <time>2021-11-01T13:35:33Z</time>
      </trkpt>
      <trkpt lat="46.51948" lon="5.26852">
        <ele>222</ele>
        <time>2021-11-01T13:35:34Z</time>
      </trkpt>
      <trkpt lat="46.51949" lon="5.26858">
        <ele>222.6</ele>
        <time>2021-11-01T13:35:35Z</time>
      </trkpt>
      <trkpt lat="46.5195" lon="5.26864">
        <ele>222.8</ele>
        <time>2021-11-01T13:35:36Z</time>
      </trkpt>
      <trkpt lat="46.51954" lon="5.26883">
        <ele>223.8</ele>
        <time>2021-11-01T13:35:39Z</time>
      </trkpt>
      <trkpt lat="46.51956" lon="5.26889">
        <ele>224</ele>
        <time>2021-11-01T13:35:40Z</time>
      </trkpt>
      <trkpt lat="46.51965" lon="5.26918">
        <ele>225.2</ele>
        <time>2021-11-01T13:35:45Z</time>
      </trkpt>
      <trkpt lat="46.51969" lon="5.26925">
        <ele>225.4</ele>
        <time>2021-11-01T13:35:46Z</time>
      </trkpt>
      <trkpt lat="46.51978" lon="5.2697">
        <ele>225.8</ele>
        <time>2021-11-01T13:35:52Z</time>
      </trkpt>
      <trkpt lat="46.51985" lon="5.27026">
        <ele>225.8</ele>
        <time>2021-11-01T13:35:58Z</time>
      </trkpt>
      <trkpt lat="46.51992" lon="5.27092">
        <ele>225</ele>
        <time>2021-11-01T13:36:04Z</time>
      </trkpt>
      <trkpt lat="46.51996" lon="5.27128">
        <ele>223.8</ele>
        <time>2021-11-01T13:36:07Z</time>
      </trkpt>
      <trkpt lat="46.52002" lon="5.27164">
        <ele>223</ele>
        <time>2021-11-01T13:36:10Z</time>
      </trkpt>
      <trkpt lat="46.52005" lon="5.27177">
        <ele>222.6</ele>
        <time>2021-11-01T13:36:11Z</time>
      </trkpt>
      <trkpt lat="46.52015" lon="5.27213">
        <ele>221.6</ele>
        <time>2021-11-01T13:36:14Z</time>
      </trkpt>
      <trkpt lat="46.52023" lon="5.27238">
        <ele>220.6</ele>
        <time>2021-11-01T13:36:16Z</time>
      </trkpt>
      <trkpt lat="46.52027" lon="5.27249">
        <ele>220.4</ele>
        <time>2021-11-01T13:36:17Z</time>
      </trkpt>
      <trkpt lat="46.52039" lon="5.2727">
        <ele>219.6</ele>
        <time>2021-11-01T13:36:19Z</time>
      </trkpt>
      <trkpt lat="46.52047" lon="5.27278">
        <ele>219</ele>
        <time>2021-11-01T13:36:20Z</time>
      </trkpt>
      <trkpt lat="46.52055" lon="5.27285">
        <ele>218.6</ele>
        <time>2021-11-01T13:36:21Z</time>
      </trkpt>
      <trkpt lat="46.52073" lon="5.27296">
        <ele>217.8</ele>
        <time>2021-11-01T13:36:23Z</time>
      </trkpt>
      <trkpt lat="46.52082" lon="5.273">
        <ele>217.6</ele>
        <time>2021-11-01T13:36:24Z</time>
      </trkpt>
      <trkpt lat="46.52101" lon="5.27311">
        <ele>216.8</ele>
        <time>2021-11-01T13:36:26Z</time>
      </trkpt>
      <trkpt lat="46.52108" lon="5.2732">
        <ele>216.2</ele>
        <time>2021-11-01T13:36:27Z</time>
      </trkpt>
      <trkpt lat="46.52114" lon="5.27332">
        <ele>215.8</ele>
        <time>2021-11-01T13:36:28Z</time>
      </trkpt>
      <trkpt lat="46.52122" lon="5.27358">
        <ele>215.2</ele>
        <time>2021-11-01T13:36:30Z</time>
      </trkpt>
      <trkpt lat="46.52121" lon="5.27388">
        <ele>214.4</ele>
        <time>2021-11-01T13:36:32Z</time>
      </trkpt>
      <trkpt lat="46.52118" lon="5.27402">
        <ele>214</ele>
        <time>2021-11-01T13:36:33Z</time>
      </trkpt>
      <trkpt lat="46.52114" lon="5.27415">
        <ele>213.4</ele>
        <time>2021-11-01T13:36:34Z</time>
      </trkpt>
      <trkpt lat="46.52103" lon="5.27441">
        <ele>212.6</ele>
        <time>2021-11-01T13:36:36Z</time>
      </trkpt>
      <trkpt lat="46.52096" lon="5.27453">
        <ele>212</ele>
        <time>2021-11-01T13:36:37Z</time>
      </trkpt>
      <trkpt lat="46.52073" lon="5.27485">
        <ele>210.8</ele>
        <time>2021-11-01T13:36:40Z</time>
      </trkpt>
      <trkpt lat="46.52057" lon="5.27505">
        <ele>209.6</ele>
        <time>2021-11-01T13:36:42Z</time>
      </trkpt>
      <trkpt lat="46.52042" lon="5.27525">
        <ele>208</ele>
        <time>2021-11-01T13:36:44Z</time>
      </trkpt>
      <trkpt lat="46.52027" lon="5.27545">
        <ele>207</ele>
        <time>2021-11-01T13:36:46Z</time>
      </trkpt>
      <trkpt lat="46.52012" lon="5.27565">
        <ele>206.4</ele>
        <time>2021-11-01T13:36:48Z</time>
      </trkpt>
      <trkpt lat="46.52004" lon="5.27575">
        <ele>206</ele>
        <time>2021-11-01T13:36:49Z</time>
      </trkpt>
      <trkpt lat="46.51976" lon="5.27612">
        <ele>204.6</ele>
        <time>2021-11-01T13:36:53Z</time>
      </trkpt>
      <trkpt lat="46.51963" lon="5.2763">
        <ele>204.4</ele>
        <time>2021-11-01T13:36:55Z</time>
      </trkpt>
      <trkpt lat="46.51928" lon="5.27674">
        <ele>204.4</ele>
        <time>2021-11-01T13:37:01Z</time>
      </trkpt>
      <trkpt lat="46.519" lon="5.27702">
        <ele>205.6</ele>
        <time>2021-11-01T13:37:06Z</time>
      </trkpt>
      <trkpt lat="46.51896" lon="5.27708">
        <ele>206</ele>
        <time>2021-11-01T13:37:07Z</time>
      </trkpt>
      <trkpt lat="46.51876" lon="5.27729">
        <ele>207.2</ele>
        <time>2021-11-01T13:37:11Z</time>
      </trkpt>
      <trkpt lat="46.51866" lon="5.27738">
        <ele>207.6</ele>
        <time>2021-11-01T13:37:13Z</time>
      </trkpt>
      <trkpt lat="46.51857" lon="5.27747">
        <ele>208.2</ele>
        <time>2021-11-01T13:37:15Z</time>
      </trkpt>
      <trkpt lat="46.51834" lon="5.27771">
        <ele>209.2</ele>
        <time>2021-11-01T13:37:20Z</time>
      </trkpt>
      <trkpt lat="46.5183" lon="5.27776">
        <ele>209.2</ele>
        <time>2021-11-01T13:37:21Z</time>
      </trkpt>
      <trkpt lat="46.51806" lon="5.27802">
        <ele>210.4</ele>
        <time>2021-11-01T13:37:27Z</time>
      </trkpt>
      <trkpt lat="46.51798" lon="5.27811">
        <ele>210.8</ele>
        <time>2021-11-01T13:37:29Z</time>
      </trkpt>
      <trkpt lat="46.51786" lon="5.27823">
        <ele>211.6</ele>
        <time>2021-11-01T13:37:32Z</time>
      </trkpt>
      <trkpt lat="46.51769" lon="5.27841">
        <ele>212.8</ele>
        <time>2021-11-01T13:37:37Z</time>
      </trkpt>
      <trkpt lat="46.51758" lon="5.27851">
        <ele>213.8</ele>
        <time>2021-11-01T13:37:40Z</time>
      </trkpt>
      <trkpt lat="46.51742" lon="5.27867">
        <ele>214.8</ele>
        <time>2021-11-01T13:37:45Z</time>
      </trkpt>
      <trkpt lat="46.51725" lon="5.27884">
        <ele>216.2</ele>
        <time>2021-11-01T13:37:50Z</time>
      </trkpt>
      <trkpt lat="46.51708" lon="5.27902">
        <ele>216.8</ele>
        <time>2021-11-01T13:37:55Z</time>
      </trkpt>
      <trkpt lat="46.51688" lon="5.27921">
        <ele>217.2</ele>
        <time>2021-11-01T13:38:00Z</time>
      </trkpt>
      <trkpt lat="46.51668" lon="5.27941">
        <ele>217.6</ele>
        <time>2021-11-01T13:38:05Z</time>
      </trkpt>
      <trkpt lat="46.51639" lon="5.27972">
        <ele>218.4</ele>
        <time>2021-11-01T13:38:12Z</time>
      </trkpt>
      <trkpt lat="46.51623" lon="5.27988">
        <ele>218.6</ele>
        <time>2021-11-01T13:38:16Z</time>
      </trkpt>
      <trkpt lat="46.51603" lon="5.2802">
        <ele>219</ele>
        <time>2021-11-01T13:38:21Z</time>
      </trkpt>
      <trkpt lat="46.51595" lon="5.28036">
        <ele>219</ele>
        <time>2021-11-01T13:38:23Z</time>
      </trkpt>
      <trkpt lat="46.51585" lon="5.28065">
        <ele>218.6</ele>
        <time>2021-11-01T13:38:26Z</time>
      </trkpt>
      <trkpt lat="46.51568" lon="5.2812">
        <ele>217.2</ele>
        <time>2021-11-01T13:38:31Z</time>
      </trkpt>
      <trkpt lat="46.51564" lon="5.28132">
        <ele>217</ele>
        <time>2021-11-01T13:38:32Z</time>
      </trkpt>
      <trkpt lat="46.51557" lon="5.28155">
        <ele>216.2</ele>
        <time>2021-11-01T13:38:34Z</time>
      </trkpt>
      <trkpt lat="46.51546" lon="5.28192">
        <ele>215</ele>
        <time>2021-11-01T13:38:37Z</time>
      </trkpt>
      <trkpt lat="46.51541" lon="5.28204">
        <ele>214.6</ele>
        <time>2021-11-01T13:38:38Z</time>
      </trkpt>
      <trkpt lat="46.51521" lon="5.2825">
        <ele>213.6</ele>
        <time>2021-11-01T13:38:42Z</time>
      </trkpt>
      <trkpt lat="46.5151" lon="5.28273">
        <ele>213</ele>
        <time>2021-11-01T13:38:44Z</time>
      </trkpt>
      <trkpt lat="46.51504" lon="5.28285">
        <ele>212.4</ele>
        <time>2021-11-01T13:38:45Z</time>
      </trkpt>
      <trkpt lat="46.5148" lon="5.28332">
        <ele>210.8</ele>
        <time>2021-11-01T13:38:49Z</time>
      </trkpt>
      <trkpt lat="46.51461" lon="5.28368">
        <ele>209.6</ele>
        <time>2021-11-01T13:38:52Z</time>
      </trkpt>
      <trkpt lat="46.51449" lon="5.28392">
        <ele>208.6</ele>
        <time>2021-11-01T13:38:54Z</time>
      </trkpt>
      <trkpt lat="46.51431" lon="5.28428">
        <ele>207</ele>
        <time>2021-11-01T13:38:57Z</time>
      </trkpt>
      <trkpt lat="46.51426" lon="5.28441">
        <ele>206.6</ele>
        <time>2021-11-01T13:38:58Z</time>
      </trkpt>
      <trkpt lat="46.51422" lon="5.28454">
        <ele>206.2</ele>
        <time>2021-11-01T13:38:59Z</time>
      </trkpt>
      <trkpt lat="46.5142" lon="5.28469">
        <ele>205.8</ele>
        <time>2021-11-01T13:39:00Z</time>
      </trkpt>
      <trkpt lat="46.51423" lon="5.28497">
        <ele>204.8</ele>
        <time>2021-11-01T13:39:02Z</time>
      </trkpt>
      <trkpt lat="46.51435" lon="5.28536">
        <ele>203.6</ele>
        <time>2021-11-01T13:39:05Z</time>
      </trkpt>
      <trkpt lat="46.51442" lon="5.2856">
        <ele>203.2</ele>
        <time>2021-11-01T13:39:07Z</time>
      </trkpt>
      <trkpt lat="46.51466" lon="5.28633">
        <ele>202.6</ele>
        <time>2021-11-01T13:39:13Z</time>
      </trkpt>
      <trkpt lat="46.51474" lon="5.28656">
        <ele>202.6</ele>
        <time>2021-11-01T13:39:15Z</time>
      </trkpt>
      <trkpt lat="46.51499" lon="5.28735">
        <ele>202.6</ele>
        <time>2021-11-01T13:39:22Z</time>
      </trkpt>
      <trkpt lat="46.51507" lon="5.28778">
        <ele>202.8</ele>
        <time>2021-11-01T13:39:26Z</time>
      </trkpt>
      <trkpt lat="46.51509" lon="5.288">
        <ele>202.8</ele>
        <time>2021-11-01T13:39:28Z</time>
      </trkpt>
      <trkpt lat="46.51508" lon="5.28824">
        <ele>203</ele>
        <time>2021-11-01T13:39:30Z</time>
      </trkpt>
      <trkpt lat="46.51496" lon="5.28902">
        <ele>202.6</ele>
        <time>2021-11-01T13:39:37Z</time>
      </trkpt>
      <trkpt lat="46.51481" lon="5.28985">
        <ele>202.6</ele>
        <time>2021-11-01T13:39:45Z</time>
      </trkpt>
      <trkpt lat="46.51477" lon="5.29005">
        <ele>202.8</ele>
        <time>2021-11-01T13:39:47Z</time>
      </trkpt>
      <trkpt lat="46.51464" lon="5.29083">
        <ele>203.8</ele>
        <time>2021-11-01T13:39:55Z</time>
      </trkpt>
      <trkpt lat="46.51462" lon="5.29092">
        <ele>203.8</ele>
        <time>2021-11-01T13:39:56Z</time>
      </trkpt>
      <trkpt lat="46.51449" lon="5.29167">
        <ele>204.4</ele>
        <time>2021-11-01T13:40:04Z</time>
      </trkpt>
      <trkpt lat="46.5144" lon="5.29204">
        <ele>204.6</ele>
        <time>2021-11-01T13:40:08Z</time>
      </trkpt>
      <trkpt lat="46.51432" lon="5.2922">
        <ele>204.6</ele>
        <time>2021-11-01T13:40:10Z</time>
      </trkpt>
      <trkpt lat="46.51423" lon="5.29234">
        <ele>204.8</ele>
        <time>2021-11-01T13:40:12Z</time>
      </trkpt>
      <trkpt lat="46.51405" lon="5.29261">
        <ele>205</ele>
        <time>2021-11-01T13:40:16Z</time>
      </trkpt>
      <trkpt lat="46.51379" lon="5.2931">
        <ele>205.4</ele>
        <time>2021-11-01T13:40:22Z</time>
      </trkpt>
      <trkpt lat="46.51365" lon="5.29333">
        <ele>205.6</ele>
        <time>2021-11-01T13:40:25Z</time>
      </trkpt>
      <trkpt lat="46.51359" lon="5.29339">
        <ele>206</ele>
        <time>2021-11-01T13:40:26Z</time>
      </trkpt>
      <trkpt lat="46.51353" lon="5.29344">
        <ele>206</ele>
        <time>2021-11-01T13:40:27Z</time>
      </trkpt>
      <trkpt lat="46.51321" lon="5.29364">
        <ele>206.4</ele>
        <time>2021-11-01T13:40:32Z</time>
      </trkpt>
      <trkpt lat="46.51283" lon="5.29386">
        <ele>204.8</ele>
        <time>2021-11-01T13:40:38Z</time>
      </trkpt>
      <trkpt lat="46.5127" lon="5.29392">
        <ele>204.4</ele>
        <time>2021-11-01T13:40:41Z</time>
      </trkpt>
      <trkpt lat="46.51225" lon="5.29403">
        <ele>204.2</ele>
        <time>2021-11-01T13:40:48Z</time>
      </trkpt>
      <trkpt lat="46.51172" lon="5.29416">
        <ele>204.8</ele>
        <time>2021-11-01T13:40:57Z</time>
      </trkpt>
      <trkpt lat="46.51115" lon="5.29432">
        <ele>205.4</ele>
        <time>2021-11-01T13:41:07Z</time>
      </trkpt>
      <trkpt lat="46.51068" lon="5.29448">
        <ele>206</ele>
        <time>2021-11-01T13:41:15Z</time>
      </trkpt>
      <trkpt lat="46.51057" lon="5.29454">
        <ele>206.2</ele>
        <time>2021-11-01T13:41:17Z</time>
      </trkpt>
      <trkpt lat="46.51027" lon="5.29474">
        <ele>207.2</ele>
        <time>2021-11-01T13:41:23Z</time>
      </trkpt>
      <trkpt lat="46.51023" lon="5.29477">
        <ele>207.2</ele>
        <time>2021-11-01T13:41:24Z</time>
      </trkpt>
      <trkpt lat="46.50993" lon="5.29501">
        <ele>208.4</ele>
        <time>2021-11-01T13:41:31Z</time>
      </trkpt>
      <trkpt lat="46.50985" lon="5.29507">
        <ele>209</ele>
        <time>2021-11-01T13:41:33Z</time>
      </trkpt>
      <trkpt lat="46.50969" lon="5.29518">
        <ele>209.6</ele>
        <time>2021-11-01T13:41:37Z</time>
      </trkpt>
      <trkpt lat="46.50952" lon="5.29532">
        <ele>210.8</ele>
        <time>2021-11-01T13:41:42Z</time>
      </trkpt>
      <trkpt lat="46.50934" lon="5.29546">
        <ele>211.8</ele>
        <time>2021-11-01T13:41:47Z</time>
      </trkpt>
      <trkpt lat="46.50923" lon="5.29555">
        <ele>213</ele>
        <time>2021-11-01T13:41:50Z</time>
      </trkpt>
      <trkpt lat="46.5092" lon="5.29557">
        <ele>213</ele>
        <time>2021-11-01T13:41:51Z</time>
      </trkpt>
      <trkpt lat="46.50906" lon="5.29565">
        <ele>214.4</ele>
        <time>2021-11-01T13:41:55Z</time>
      </trkpt>
      <trkpt lat="46.50898" lon="5.29567">
        <ele>215</ele>
        <time>2021-11-01T13:41:57Z</time>
      </trkpt>
      <trkpt lat="46.5089" lon="5.29569">
        <ele>215.6</ele>
        <time>2021-11-01T13:41:59Z</time>
      </trkpt>
      <trkpt lat="46.50876" lon="5.2957">
        <ele>216.6</ele>
        <time>2021-11-01T13:42:03Z</time>
      </trkpt>
      <trkpt lat="46.50869" lon="5.29569">
        <ele>217.4</ele>
        <time>2021-11-01T13:42:05Z</time>
      </trkpt>
      <trkpt lat="46.50865" lon="5.29569">
        <ele>217.8</ele>
        <time>2021-11-01T13:42:06Z</time>
      </trkpt>
      <trkpt lat="46.50851" lon="5.29568">
        <ele>218.8</ele>
        <time>2021-11-01T13:42:10Z</time>
      </trkpt>
      <trkpt lat="46.50836" lon="5.29566">
        <ele>219.4</ele>
        <time>2021-11-01T13:42:14Z</time>
      </trkpt>
      <trkpt lat="46.50825" lon="5.29565">
        <ele>220</ele>
        <time>2021-11-01T13:42:17Z</time>
      </trkpt>
      <trkpt lat="46.50806" lon="5.29564">
        <ele>221.2</ele>
        <time>2021-11-01T13:42:22Z</time>
      </trkpt>
      <trkpt lat="46.50802" lon="5.29564">
        <ele>221.2</ele>
        <time>2021-11-01T13:42:23Z</time>
      </trkpt>
      <trkpt lat="46.50783" lon="5.29564">
        <ele>222.2</ele>
        <time>2021-11-01T13:42:28Z</time>
      </trkpt>
      <trkpt lat="46.50759" lon="5.29561">
        <ele>223.4</ele>
        <time>2021-11-01T13:42:34Z</time>
      </trkpt>
      <trkpt lat="46.50736" lon="5.29554">
        <ele>224.8</ele>
        <time>2021-11-01T13:42:40Z</time>
      </trkpt>
      <trkpt lat="46.50724" lon="5.29549">
        <ele>225.2</ele>
        <time>2021-11-01T13:42:43Z</time>
      </trkpt>
      <trkpt lat="46.50706" lon="5.2954">
        <ele>225.8</ele>
        <time>2021-11-01T13:42:48Z</time>
      </trkpt>
      <trkpt lat="46.50682" lon="5.29529">
        <ele>227</ele>
        <time>2021-11-01T13:42:54Z</time>
      </trkpt>
      <trkpt lat="46.50648" lon="5.29524">
        <ele>228</ele>
        <time>2021-11-01T13:43:02Z</time>
      </trkpt>
      <trkpt lat="46.50617" lon="5.29543">
        <ele>228.8</ele>
        <time>2021-11-01T13:43:09Z</time>
      </trkpt>
      <trkpt lat="46.50597" lon="5.29558">
        <ele>229</ele>
        <time>2021-11-01T13:43:13Z</time>
      </trkpt>
      <trkpt lat="46.50582" lon="5.2957">
        <ele>229</ele>
        <time>2021-11-01T13:43:16Z</time>
      </trkpt>
      <trkpt lat="46.50534" lon="5.29607">
        <ele>229.2</ele>
        <time>2021-11-01T13:43:25Z</time>
      </trkpt>
      <trkpt lat="46.50484" lon="5.29642">
        <ele>229.4</ele>
        <time>2021-11-01T13:43:34Z</time>
      </trkpt>
      <trkpt lat="46.50466" lon="5.29654">
        <ele>229.6</ele>
        <time>2021-11-01T13:43:37Z</time>
      </trkpt>
      <trkpt lat="46.50418" lon="5.29688">
        <ele>229.6</ele>
        <time>2021-11-01T13:43:45Z</time>
      </trkpt>
      <trkpt lat="46.50412" lon="5.29692">
        <ele>229.6</ele>
        <time>2021-11-01T13:43:46Z</time>
      </trkpt>
      <trkpt lat="46.50361" lon="5.29722">
        <ele>229.6</ele>
        <time>2021-11-01T13:43:54Z</time>
      </trkpt>
      <trkpt lat="46.50347" lon="5.29728">
        <ele>229.6</ele>
        <time>2021-11-01T13:43:56Z</time>
      </trkpt>
      <trkpt lat="46.50292" lon="5.2975">
        <ele>229.2</ele>
        <time>2021-11-01T13:44:04Z</time>
      </trkpt>
      <trkpt lat="46.50285" lon="5.29753">
        <ele>229.2</ele>
        <time>2021-11-01T13:44:05Z</time>
      </trkpt>
      <trkpt lat="46.50247" lon="5.29766">
        <ele>229</ele>
        <time>2021-11-01T13:44:10Z</time>
      </trkpt>
      <trkpt lat="46.50233" lon="5.29769">
        <ele>229</ele>
        <time>2021-11-01T13:44:12Z</time>
      </trkpt>
      <trkpt lat="46.50197" lon="5.29768">
        <ele>228.6</ele>
        <time>2021-11-01T13:44:17Z</time>
      </trkpt>
      <trkpt lat="46.50146" lon="5.29772">
        <ele>228.4</ele>
        <time>2021-11-01T13:44:24Z</time>
      </trkpt>
      <trkpt lat="46.5013" lon="5.29775">
        <ele>228.2</ele>
        <time>2021-11-01T13:44:26Z</time>
      </trkpt>
      <trkpt lat="46.50105" lon="5.29783">
        <ele>227.6</ele>
        <time>2021-11-01T13:44:29Z</time>
      </trkpt>
      <trkpt lat="46.50088" lon="5.29789">
        <ele>226.8</ele>
        <time>2021-11-01T13:44:31Z</time>
      </trkpt>
      <trkpt lat="46.50062" lon="5.298">
        <ele>225.4</ele>
        <time>2021-11-01T13:44:34Z</time>
      </trkpt>
      <trkpt lat="46.50047" lon="5.29811">
        <ele>224.8</ele>
        <time>2021-11-01T13:44:36Z</time>
      </trkpt>
      <trkpt lat="46.50034" lon="5.29826">
        <ele>223.8</ele>
        <time>2021-11-01T13:44:38Z</time>
      </trkpt>
      <trkpt lat="46.50016" lon="5.29857">
        <ele>223</ele>
        <time>2021-11-01T13:44:42Z</time>
      </trkpt>
      <trkpt lat="46.50018" lon="5.29872">
        <ele>222.8</ele>
        <time>2021-11-01T13:44:44Z</time>
      </trkpt>
      <trkpt lat="46.50026" lon="5.29884">
        <ele>223</ele>
        <time>2021-11-01T13:44:46Z</time>
      </trkpt>
      <trkpt lat="46.50031" lon="5.2989">
        <ele>223.2</ele>
        <time>2021-11-01T13:44:47Z</time>
      </trkpt>
      <trkpt lat="46.50048" lon="5.2991">
        <ele>223.4</ele>
        <time>2021-11-01T13:44:50Z</time>
      </trkpt>
      <trkpt lat="46.50058" lon="5.29926">
        <ele>223.6</ele>
        <time>2021-11-01T13:44:52Z</time>
      </trkpt>
      <trkpt lat="46.50074" lon="5.29965">
        <ele>224</ele>
        <time>2021-11-01T13:44:56Z</time>
      </trkpt>
      <trkpt lat="46.50077" lon="5.29975">
        <ele>224.2</ele>
        <time>2021-11-01T13:44:57Z</time>
      </trkpt>
      <trkpt lat="46.50083" lon="5.30017">
        <ele>224.4</ele>
        <time>2021-11-01T13:45:01Z</time>
      </trkpt>
      <trkpt lat="46.50085" lon="5.30068">
        <ele>224.4</ele>
        <time>2021-11-01T13:45:06Z</time>
      </trkpt>
      <trkpt lat="46.50086" lon="5.301">
        <ele>224.8</ele>
        <time>2021-11-01T13:45:09Z</time>
      </trkpt>
      <trkpt lat="46.50085" lon="5.30174">
        <ele>225</ele>
        <time>2021-11-01T13:45:16Z</time>
      </trkpt>
      <trkpt lat="46.50086" lon="5.30207">
        <ele>225</ele>
        <time>2021-11-01T13:45:19Z</time>
      </trkpt>
      <trkpt lat="46.50086" lon="5.30228">
        <ele>224.8</ele>
        <time>2021-11-01T13:45:21Z</time>
      </trkpt>
      <trkpt lat="46.50082" lon="5.30296">
        <ele>224</ele>
        <time>2021-11-01T13:45:27Z</time>
      </trkpt>
      <trkpt lat="46.5008" lon="5.30308">
        <ele>223.8</ele>
        <time>2021-11-01T13:45:28Z</time>
      </trkpt>
      <trkpt lat="46.50073" lon="5.30331">
        <ele>223.6</ele>
        <time>2021-11-01T13:45:30Z</time>
      </trkpt>
      <trkpt lat="46.50069" lon="5.30343">
        <ele>223.4</ele>
        <time>2021-11-01T13:45:31Z</time>
      </trkpt>
      <trkpt lat="46.50064" lon="5.30354">
        <ele>223.2</ele>
        <time>2021-11-01T13:45:32Z</time>
      </trkpt>
      <trkpt lat="46.50059" lon="5.30364">
        <ele>222.8</ele>
        <time>2021-11-01T13:45:33Z</time>
      </trkpt>
      <trkpt lat="46.50046" lon="5.30382">
        <ele>221.8</ele>
        <time>2021-11-01T13:45:35Z</time>
      </trkpt>
      <trkpt lat="46.50025" lon="5.30403">
        <ele>220.6</ele>
        <time>2021-11-01T13:45:38Z</time>
      </trkpt>
      <trkpt lat="46.50011" lon="5.30414">
        <ele>220.2</ele>
        <time>2021-11-01T13:45:40Z</time>
      </trkpt>
      <trkpt lat="46.49975" lon="5.30443">
        <ele>220.2</ele>
        <time>2021-11-01T13:45:46Z</time>
      </trkpt>
      <trkpt lat="46.49957" lon="5.30466">
        <ele>220.6</ele>
        <time>2021-11-01T13:45:50Z</time>
      </trkpt>
      <trkpt lat="46.49954" lon="5.30472">
        <ele>220.8</ele>
        <time>2021-11-01T13:45:51Z</time>
      </trkpt>
      <trkpt lat="46.4995" lon="5.30478">
        <ele>221.2</ele>
        <time>2021-11-01T13:45:52Z</time>
      </trkpt>
      <trkpt lat="46.49944" lon="5.30493">
        <ele>222</ele>
        <time>2021-11-01T13:45:54Z</time>
      </trkpt>
      <trkpt lat="46.49938" lon="5.30509">
        <ele>222.4</ele>
        <time>2021-11-01T13:45:56Z</time>
      </trkpt>
      <trkpt lat="46.49933" lon="5.30534">
        <ele>223</ele>
        <time>2021-11-01T13:45:59Z</time>
      </trkpt>
      <trkpt lat="46.49931" lon="5.30557">
        <ele>223.8</ele>
        <time>2021-11-01T13:46:02Z</time>
      </trkpt>
      <trkpt lat="46.49931" lon="5.30565">
        <ele>224.4</ele>
        <time>2021-11-01T13:46:03Z</time>
      </trkpt>
      <trkpt lat="46.4993" lon="5.30583">
        <ele>225.4</ele>
        <time>2021-11-01T13:46:05Z</time>
      </trkpt>
      <trkpt lat="46.49932" lon="5.30608">
        <ele>226.2</ele>
        <time>2021-11-01T13:46:08Z</time>
      </trkpt>
      <trkpt lat="46.49934" lon="5.30624">
        <ele>226.6</ele>
        <time>2021-11-01T13:46:10Z</time>
      </trkpt>
      <trkpt lat="46.49941" lon="5.30663">
        <ele>227.6</ele>
        <time>2021-11-01T13:46:15Z</time>
      </trkpt>
      <trkpt lat="46.49942" lon="5.30671">
        <ele>227.8</ele>
        <time>2021-11-01T13:46:16Z</time>
      </trkpt>
      <trkpt lat="46.4995" lon="5.3071">
        <ele>229</ele>
        <time>2021-11-01T13:46:21Z</time>
      </trkpt>
      <trkpt lat="46.49957" lon="5.30749">
        <ele>230</ele>
        <time>2021-11-01T13:46:26Z</time>
      </trkpt>
      <trkpt lat="46.49959" lon="5.30758">
        <ele>230</ele>
        <time>2021-11-01T13:46:27Z</time>
      </trkpt>
      <trkpt lat="46.49971" lon="5.30812">
        <ele>230</ele>
        <time>2021-11-01T13:46:33Z</time>
      </trkpt>
      <trkpt lat="46.49994" lon="5.30879">
        <ele>229.2</ele>
        <time>2021-11-01T13:46:39Z</time>
      </trkpt>
      <trkpt lat="46.50003" lon="5.30903">
        <ele>229</ele>
        <time>2021-11-01T13:46:41Z</time>
      </trkpt>
      <trkpt lat="46.50022" lon="5.30954">
        <ele>227.4</ele>
        <time>2021-11-01T13:46:45Z</time>
      </trkpt>
      <trkpt lat="46.50037" lon="5.30996">
        <ele>226.2</ele>
        <time>2021-11-01T13:46:48Z</time>
      </trkpt>
      <trkpt lat="46.50052" lon="5.3104">
        <ele>224.4</ele>
        <time>2021-11-01T13:46:51Z</time>
      </trkpt>
      <trkpt lat="46.50057" lon="5.31055">
        <ele>223.4</ele>
        <time>2021-11-01T13:46:52Z</time>
      </trkpt>
      <trkpt lat="46.50062" lon="5.3107">
        <ele>223</ele>
        <time>2021-11-01T13:46:53Z</time>
      </trkpt>
      <trkpt lat="46.50067" lon="5.31085">
        <ele>222.2</ele>
        <time>2021-11-01T13:46:54Z</time>
      </trkpt>
      <trkpt lat="46.50077" lon="5.31116">
        <ele>221</ele>
        <time>2021-11-01T13:46:56Z</time>
      </trkpt>
      <trkpt lat="46.50088" lon="5.31146">
        <ele>219.2</ele>
        <time>2021-11-01T13:46:58Z</time>
      </trkpt>
      <trkpt lat="46.50097" lon="5.31175">
        <ele>218.2</ele>
        <time>2021-11-01T13:47:00Z</time>
      </trkpt>
      <trkpt lat="46.50102" lon="5.31189">
        <ele>217.4</ele>
        <time>2021-11-01T13:47:01Z</time>
      </trkpt>
      <trkpt lat="46.50119" lon="5.31239">
        <ele>217.2</ele>
        <time>2021-11-01T13:47:05Z</time>
      </trkpt>
      <trkpt lat="46.50122" lon="5.31249">
        <ele>217.2</ele>
        <time>2021-11-01T13:47:06Z</time>
      </trkpt>
      <trkpt lat="46.50146" lon="5.31321">
        <ele>218.4</ele>
        <time>2021-11-01T13:47:12Z</time>
      </trkpt>
      <trkpt lat="46.50155" lon="5.31344">
        <ele>218.8</ele>
        <time>2021-11-01T13:47:14Z</time>
      </trkpt>
      <trkpt lat="46.5018" lon="5.3142">
        <ele>218.4</ele>
        <time>2021-11-01T13:47:20Z</time>
      </trkpt>
      <trkpt lat="46.50189" lon="5.31446">
        <ele>218.4</ele>
        <time>2021-11-01T13:47:22Z</time>
      </trkpt>
      <trkpt lat="46.50208" lon="5.31501">
        <ele>217.2</ele>
        <time>2021-11-01T13:47:26Z</time>
      </trkpt>
      <trkpt lat="46.50219" lon="5.31528">
        <ele>216.4</ele>
        <time>2021-11-01T13:47:28Z</time>
      </trkpt>
      <trkpt lat="46.50232" lon="5.31553">
        <ele>215.6</ele>
        <time>2021-11-01T13:47:30Z</time>
      </trkpt>
      <trkpt lat="46.50248" lon="5.31574">
        <ele>214.4</ele>
        <time>2021-11-01T13:47:32Z</time>
      </trkpt>
      <trkpt lat="46.50256" lon="5.31584">
        <ele>213.2</ele>
        <time>2021-11-01T13:47:33Z</time>
      </trkpt>
      <trkpt lat="46.50291" lon="5.31614">
        <ele>212.4</ele>
        <time>2021-11-01T13:47:37Z</time>
      </trkpt>
      <trkpt lat="46.50343" lon="5.31653">
        <ele>211.8</ele>
        <time>2021-11-01T13:47:43Z</time>
      </trkpt>
      <trkpt lat="46.50352" lon="5.3166">
        <ele>211.8</ele>
        <time>2021-11-01T13:47:44Z</time>
      </trkpt>
      <trkpt lat="46.50373" lon="5.31684">
        <ele>212</ele>
        <time>2021-11-01T13:47:47Z</time>
      </trkpt>
      <trkpt lat="46.50379" lon="5.31693">
        <ele>212</ele>
        <time>2021-11-01T13:47:48Z</time>
      </trkpt>
      <trkpt lat="46.50403" lon="5.31743">
        <ele>212.2</ele>
        <time>2021-11-01T13:47:53Z</time>
      </trkpt>
      <trkpt lat="46.50422" lon="5.31806">
        <ele>212.8</ele>
        <time>2021-11-01T13:47:59Z</time>
      </trkpt>
      <trkpt lat="46.50435" lon="5.31882">
        <ele>213.2</ele>
        <time>2021-11-01T13:48:06Z</time>
      </trkpt>
      <trkpt lat="46.50436" lon="5.31948">
        <ele>213.4</ele>
        <time>2021-11-01T13:48:12Z</time>
      </trkpt>
      <trkpt lat="46.50436" lon="5.31958">
        <ele>213.4</ele>
        <time>2021-11-01T13:48:13Z</time>
      </trkpt>
      <trkpt lat="46.50434" lon="5.32044">
        <ele>214</ele>
        <time>2021-11-01T13:48:21Z</time>
      </trkpt>
      <trkpt lat="46.50434" lon="5.32055">
        <ele>214</ele>
        <time>2021-11-01T13:48:22Z</time>
      </trkpt>
      <trkpt lat="46.50433" lon="5.32096">
        <ele>214.4</ele>
        <time>2021-11-01T13:48:26Z</time>
      </trkpt>
      <trkpt lat="46.50432" lon="5.32157">
        <ele>215.2</ele>
        <time>2021-11-01T13:48:32Z</time>
      </trkpt>
      <trkpt lat="46.50431" lon="5.32177">
        <ele>215.6</ele>
        <time>2021-11-01T13:48:34Z</time>
      </trkpt>
      <trkpt lat="46.5043" lon="5.32247">
        <ele>216.2</ele>
        <time>2021-11-01T13:48:41Z</time>
      </trkpt>
      <trkpt lat="46.50432" lon="5.32277">
        <ele>216.6</ele>
        <time>2021-11-01T13:48:44Z</time>
      </trkpt>
      <trkpt lat="46.50436" lon="5.32306">
        <ele>217</ele>
        <time>2021-11-01T13:48:47Z</time>
      </trkpt>
      <trkpt lat="46.50453" lon="5.3239">
        <ele>217.4</ele>
        <time>2021-11-01T13:48:55Z</time>
      </trkpt>
      <trkpt lat="46.50467" lon="5.32475">
        <ele>217.4</ele>
        <time>2021-11-01T13:49:03Z</time>
      </trkpt>
      <trkpt lat="46.50472" lon="5.32555">
        <ele>217.6</ele>
        <time>2021-11-01T13:49:11Z</time>
      </trkpt>
      <trkpt lat="46.50473" lon="5.32564">
        <ele>217.6</ele>
        <time>2021-11-01T13:49:12Z</time>
      </trkpt>
      <trkpt lat="46.50473" lon="5.32574">
        <ele>217.8</ele>
        <time>2021-11-01T13:49:13Z</time>
      </trkpt>
      <trkpt lat="46.50474" lon="5.32642">
        <ele>218.6</ele>
        <time>2021-11-01T13:49:20Z</time>
      </trkpt>
      <trkpt lat="46.50474" lon="5.32651">
        <ele>218.8</ele>
        <time>2021-11-01T13:49:21Z</time>
      </trkpt>
      <trkpt lat="46.50474" lon="5.32728">
        <ele>219.6</ele>
        <time>2021-11-01T13:49:29Z</time>
      </trkpt>
      <trkpt lat="46.50474" lon="5.32747">
        <ele>219.8</ele>
        <time>2021-11-01T13:49:31Z</time>
      </trkpt>
      <trkpt lat="46.50472" lon="5.32834">
        <ele>221</ele>
        <time>2021-11-01T13:49:40Z</time>
      </trkpt>
      <trkpt lat="46.5047" lon="5.32896">
        <ele>221.6</ele>
        <time>2021-11-01T13:49:47Z</time>
      </trkpt>
      <trkpt lat="46.5047" lon="5.32913">
        <ele>222</ele>
        <time>2021-11-01T13:49:49Z</time>
      </trkpt>
      <trkpt lat="46.50469" lon="5.32944">
        <ele>223</ele>
        <time>2021-11-01T13:49:53Z</time>
      </trkpt>
      <trkpt lat="46.50469" lon="5.32952">
        <ele>223.2</ele>
        <time>2021-11-01T13:49:54Z</time>
      </trkpt>
      <trkpt lat="46.50469" lon="5.32974">
        <ele>224.4</ele>
        <time>2021-11-01T13:49:57Z</time>
      </trkpt>
      <trkpt lat="46.50469" lon="5.32999">
        <ele>225.4</ele>
        <time>2021-11-01T13:50:00Z</time>
      </trkpt>
      <trkpt lat="46.50469" lon="5.33007">
        <ele>225.6</ele>
        <time>2021-11-01T13:50:01Z</time>
      </trkpt>
      <trkpt lat="46.50469" lon="5.33035">
        <ele>226.4</ele>
        <time>2021-11-01T13:50:05Z</time>
      </trkpt>
      <trkpt lat="46.50469" lon="5.33063">
        <ele>227.8</ele>
        <time>2021-11-01T13:50:09Z</time>
      </trkpt>
      <trkpt lat="46.50469" lon="5.33087">
        <ele>228.8</ele>
        <time>2021-11-01T13:50:13Z</time>
      </trkpt>
      <trkpt lat="46.50468" lon="5.33112">
        <ele>230.2</ele>
        <time>2021-11-01T13:50:17Z</time>
      </trkpt>
      <trkpt lat="46.50468" lon="5.33118">
        <ele>230.4</ele>
        <time>2021-11-01T13:50:18Z</time>
      </trkpt>
      <trkpt lat="46.50469" lon="5.33138">
        <ele>231.2</ele>
        <time>2021-11-01T13:50:21Z</time>
      </trkpt>
      <trkpt lat="46.50468" lon="5.33169">
        <ele>232.6</ele>
        <time>2021-11-01T13:50:26Z</time>
      </trkpt>
      <trkpt lat="46.50468" lon="5.33175">
        <ele>232.8</ele>
        <time>2021-11-01T13:50:27Z</time>
      </trkpt>
      <trkpt lat="46.50468" lon="5.33192">
        <ele>233.6</ele>
        <time>2021-11-01T13:50:30Z</time>
      </trkpt>
      <trkpt lat="46.50468" lon="5.33226">
        <ele>234.2</ele>
        <time>2021-11-01T13:50:35Z</time>
      </trkpt>
      <trkpt lat="46.50467" lon="5.33273">
        <ele>234.6</ele>
        <time>2021-11-01T13:50:41Z</time>
      </trkpt>
      <trkpt lat="46.50466" lon="5.33289">
        <ele>234.6</ele>
        <time>2021-11-01T13:50:43Z</time>
      </trkpt>
      <trkpt lat="46.50463" lon="5.33337">
        <ele>234.6</ele>
        <time>2021-11-01T13:50:49Z</time>
      </trkpt>
      <trkpt lat="46.50458" lon="5.33388">
        <ele>234.2</ele>
        <time>2021-11-01T13:50:55Z</time>
      </trkpt>
      <trkpt lat="46.50446" lon="5.33419">
        <ele>234.2</ele>
        <time>2021-11-01T13:50:59Z</time>
      </trkpt>
      <trkpt lat="46.50439" lon="5.33431">
        <ele>233.8</ele>
        <time>2021-11-01T13:51:01Z</time>
      </trkpt>
      <trkpt lat="46.50434" lon="5.33436">
        <ele>234.2</ele>
        <time>2021-11-01T13:51:02Z</time>
      </trkpt>
      <trkpt lat="46.50411" lon="5.33463">
        <ele>234.4</ele>
        <time>2021-11-01T13:51:07Z</time>
      </trkpt>
      <trkpt lat="46.50374" lon="5.33499">
        <ele>235.4</ele>
        <time>2021-11-01T13:51:15Z</time>
      </trkpt>
      <trkpt lat="46.50338" lon="5.33536">
        <ele>236.2</ele>
        <time>2021-11-01T13:51:23Z</time>
      </trkpt>
      <trkpt lat="46.50312" lon="5.33563">
        <ele>236.6</ele>
        <time>2021-11-01T13:51:28Z</time>
      </trkpt>
      <trkpt lat="46.50293" lon="5.33585">
        <ele>236.8</ele>
        <time>2021-11-01T13:51:32Z</time>
      </trkpt>
      <trkpt lat="46.5026" lon="5.33622">
        <ele>237.2</ele>
        <time>2021-11-01T13:51:39Z</time>
      </trkpt>
      <trkpt lat="46.50251" lon="5.33632">
        <ele>237.6</ele>
        <time>2021-11-01T13:51:41Z</time>
      </trkpt>
      <trkpt lat="46.50222" lon="5.33664">
        <ele>237.8</ele>
        <time>2021-11-01T13:51:47Z</time>
      </trkpt>
      <trkpt lat="46.50194" lon="5.33693">
        <ele>238</ele>
        <time>2021-11-01T13:51:53Z</time>
      </trkpt>
      <trkpt lat="46.50185" lon="5.33703">
        <ele>238.2</ele>
        <time>2021-11-01T13:51:55Z</time>
      </trkpt>
      <trkpt lat="46.50144" lon="5.33747">
        <ele>238.2</ele>
        <time>2021-11-01T13:52:03Z</time>
      </trkpt>
      <trkpt lat="46.50139" lon="5.33753">
        <ele>238.2</ele>
        <time>2021-11-01T13:52:04Z</time>
      </trkpt>
      <trkpt lat="46.50099" lon="5.33796">
        <ele>237.8</ele>
        <time>2021-11-01T13:52:11Z</time>
      </trkpt>
      <trkpt lat="46.50056" lon="5.33844">
        <ele>238</ele>
        <time>2021-11-01T13:52:19Z</time>
      </trkpt>
      <trkpt lat="46.50044" lon="5.33856">
        <ele>238.2</ele>
        <time>2021-11-01T13:52:21Z</time>
      </trkpt>
      <trkpt lat="46.50035" lon="5.33865">
        <ele>238.8</ele>
        <time>2021-11-01T13:52:23Z</time>
      </trkpt>
      <trkpt lat="46.50025" lon="5.33876">
        <ele>239.2</ele>
        <time>2021-11-01T13:52:25Z</time>
      </trkpt>
      <trkpt lat="46.49992" lon="5.33914">
        <ele>239.8</ele>
        <time>2021-11-01T13:52:32Z</time>
      </trkpt>
      <trkpt lat="46.49961" lon="5.33944">
        <ele>240.2</ele>
        <time>2021-11-01T13:52:37Z</time>
      </trkpt>
      <trkpt lat="46.49921" lon="5.3399">
        <ele>240.2</ele>
        <time>2021-11-01T13:52:44Z</time>
      </trkpt>
      <trkpt lat="46.4988" lon="5.34036">
        <ele>238.4</ele>
        <time>2021-11-01T13:52:50Z</time>
      </trkpt>
      <trkpt lat="46.49839" lon="5.34092">
        <ele>237.4</ele>
        <time>2021-11-01T13:52:57Z</time>
      </trkpt>
      <trkpt lat="46.49822" lon="5.34119">
        <ele>237.4</ele>
        <time>2021-11-01T13:53:00Z</time>
      </trkpt>
      <trkpt lat="46.49798" lon="5.34159">
        <ele>237.6</ele>
        <time>2021-11-01T13:53:05Z</time>
      </trkpt>
      <trkpt lat="46.49757" lon="5.34227">
        <ele>237.8</ele>
        <time>2021-11-01T13:53:13Z</time>
      </trkpt>
      <trkpt lat="46.49747" lon="5.34243">
        <ele>237.8</ele>
        <time>2021-11-01T13:53:15Z</time>
      </trkpt>
      <trkpt lat="46.49719" lon="5.34287">
        <ele>237.6</ele>
        <time>2021-11-01T13:53:20Z</time>
      </trkpt>
      <trkpt lat="46.49711" lon="5.34306">
        <ele>237.4</ele>
        <time>2021-11-01T13:53:22Z</time>
      </trkpt>
      <trkpt lat="46.49704" lon="5.34326">
        <ele>237.6</ele>
        <time>2021-11-01T13:53:24Z</time>
      </trkpt>
      <trkpt lat="46.49702" lon="5.34337">
        <ele>237.6</ele>
        <time>2021-11-01T13:53:25Z</time>
      </trkpt>
      <trkpt lat="46.49697" lon="5.34361">
        <ele>237.6</ele>
        <time>2021-11-01T13:53:27Z</time>
      </trkpt>
      <trkpt lat="46.4969" lon="5.34384">
        <ele>237.6</ele>
        <time>2021-11-01T13:53:29Z</time>
      </trkpt>
      <trkpt lat="46.49673" lon="5.34443">
        <ele>236.2</ele>
        <time>2021-11-01T13:53:34Z</time>
      </trkpt>
      <trkpt lat="46.49666" lon="5.34467">
        <ele>235.4</ele>
        <time>2021-11-01T13:53:36Z</time>
      </trkpt>
      <trkpt lat="46.4966" lon="5.3449">
        <ele>234.8</ele>
        <time>2021-11-01T13:53:38Z</time>
      </trkpt>
      <trkpt lat="46.49649" lon="5.34525">
        <ele>233.6</ele>
        <time>2021-11-01T13:53:41Z</time>
      </trkpt>
      <trkpt lat="46.49644" lon="5.34535">
        <ele>233.6</ele>
        <time>2021-11-01T13:53:42Z</time>
      </trkpt>
      <trkpt lat="46.49638" lon="5.34543">
        <ele>233.4</ele>
        <time>2021-11-01T13:53:43Z</time>
      </trkpt>
      <trkpt lat="46.49618" lon="5.34563">
        <ele>233.2</ele>
        <time>2021-11-01T13:53:46Z</time>
      </trkpt>
      <trkpt lat="46.49612" lon="5.34571">
        <ele>233</ele>
        <time>2021-11-01T13:53:47Z</time>
      </trkpt>
      <trkpt lat="46.49601" lon="5.34587">
        <ele>232.6</ele>
        <time>2021-11-01T13:53:49Z</time>
      </trkpt>
      <trkpt lat="46.49595" lon="5.34597">
        <ele>232.6</ele>
        <time>2021-11-01T13:53:50Z</time>
      </trkpt>
      <trkpt lat="46.49564" lon="5.34637">
        <ele>232.6</ele>
        <time>2021-11-01T13:53:56Z</time>
      </trkpt>
      <trkpt lat="46.49543" lon="5.34663">
        <ele>233.6</ele>
        <time>2021-11-01T13:54:01Z</time>
      </trkpt>
      <trkpt lat="46.49526" lon="5.34682">
        <ele>234.8</ele>
        <time>2021-11-01T13:54:05Z</time>
      </trkpt>
      <trkpt lat="46.49518" lon="5.34691">
        <ele>235.2</ele>
        <time>2021-11-01T13:54:07Z</time>
      </trkpt>
      <trkpt lat="46.49511" lon="5.34699">
        <ele>236</ele>
        <time>2021-11-01T13:54:09Z</time>
      </trkpt>
      <trkpt lat="46.49506" lon="5.34704">
        <ele>236.2</ele>
        <time>2021-11-01T13:54:10Z</time>
      </trkpt>
      <trkpt lat="46.49498" lon="5.34712">
        <ele>236.8</ele>
        <time>2021-11-01T13:54:12Z</time>
      </trkpt>
      <trkpt lat="46.49495" lon="5.34716">
        <ele>237.2</ele>
        <time>2021-11-01T13:54:13Z</time>
      </trkpt>
      <trkpt lat="46.49486" lon="5.34728">
        <ele>237.8</ele>
        <time>2021-11-01T13:54:16Z</time>
      </trkpt>
      <trkpt lat="46.49475" lon="5.3474">
        <ele>238.2</ele>
        <time>2021-11-01T13:54:20Z</time>
      </trkpt>
      <trkpt lat="46.49461" lon="5.34753">
        <ele>239.6</ele>
        <time>2021-11-01T13:54:24Z</time>
      </trkpt>
      <trkpt lat="46.49456" lon="5.34757">
        <ele>240</ele>
        <time>2021-11-01T13:54:25Z</time>
      </trkpt>
      <trkpt lat="46.49451" lon="5.34761">
        <ele>240.6</ele>
        <time>2021-11-01T13:54:27Z</time>
      </trkpt>
      <trkpt lat="46.49433" lon="5.34782">
        <ele>241.8</ele>
        <time>2021-11-01T13:54:31Z</time>
      </trkpt>
      <trkpt lat="46.4943" lon="5.34784">
        <ele>242.2</ele>
        <time>2021-11-01T13:54:32Z</time>
      </trkpt>
      <trkpt lat="46.49418" lon="5.34795">
        <ele>243</ele>
        <time>2021-11-01T13:54:36Z</time>
      </trkpt>
      <trkpt lat="46.49411" lon="5.348">
        <ele>244</ele>
        <time>2021-11-01T13:54:39Z</time>
      </trkpt>
      <trkpt lat="46.49411" lon="5.348">
        <ele>244.4</ele>
        <time>2021-11-01T13:54:42Z</time>
      </trkpt>
      <trkpt lat="46.49411" lon="5.348">
        <ele>244.4</ele>
        <time>2021-11-01T13:54:43Z</time>
      </trkpt>
      <trkpt lat="46.49401" lon="5.34806">
        <ele>244.6</ele>
        <time>2021-11-01T13:55:26Z</time>
      </trkpt>
      <trkpt lat="46.49394" lon="5.34809">
        <ele>244.6</ele>
        <time>2021-11-01T13:55:28Z</time>
      </trkpt>
      <trkpt lat="46.49372" lon="5.34814">
        <ele>244.4</ele>
        <time>2021-11-01T13:55:32Z</time>
      </trkpt>
      <trkpt lat="46.49334" lon="5.34822">
        <ele>244</ele>
        <time>2021-11-01T13:55:37Z</time>
      </trkpt>
      <trkpt lat="46.49306" lon="5.34829">
        <ele>243.8</ele>
        <time>2021-11-01T13:55:41Z</time>
      </trkpt>
      <trkpt lat="46.49299" lon="5.34833">
        <ele>243.8</ele>
        <time>2021-11-01T13:55:42Z</time>
      </trkpt>
      <trkpt lat="46.49284" lon="5.34843">
        <ele>243.6</ele>
        <time>2021-11-01T13:55:44Z</time>
      </trkpt>
      <trkpt lat="46.49271" lon="5.34857">
        <ele>243.6</ele>
        <time>2021-11-01T13:55:46Z</time>
      </trkpt>
      <trkpt lat="46.49245" lon="5.34897">
        <ele>243.6</ele>
        <time>2021-11-01T13:55:51Z</time>
      </trkpt>
      <trkpt lat="46.49203" lon="5.3496">
        <ele>244.2</ele>
        <time>2021-11-01T13:56:00Z</time>
      </trkpt>
      <trkpt lat="46.4918" lon="5.34991">
        <ele>244</ele>
        <time>2021-11-01T13:56:05Z</time>
      </trkpt>
      <trkpt lat="46.49175" lon="5.34996">
        <ele>244.2</ele>
        <time>2021-11-01T13:56:06Z</time>
      </trkpt>
      <trkpt lat="46.4916" lon="5.35009">
        <ele>244.2</ele>
        <time>2021-11-01T13:56:09Z</time>
      </trkpt>
      <trkpt lat="46.49149" lon="5.35018">
        <ele>244.4</ele>
        <time>2021-11-01T13:56:11Z</time>
      </trkpt>
      <trkpt lat="46.49117" lon="5.35046">
        <ele>245</ele>
        <time>2021-11-01T13:56:17Z</time>
      </trkpt>
      <trkpt lat="46.49081" lon="5.35076">
        <ele>245.8</ele>
        <time>2021-11-01T13:56:24Z</time>
      </trkpt>
      <trkpt lat="46.49072" lon="5.35085">
        <ele>246</ele>
        <time>2021-11-01T13:56:26Z</time>
      </trkpt>
      <trkpt lat="46.49058" lon="5.35097">
        <ele>246.2</ele>
        <time>2021-11-01T13:56:29Z</time>
      </trkpt>
      <trkpt lat="46.49047" lon="5.35107">
        <ele>246.4</ele>
        <time>2021-11-01T13:56:31Z</time>
      </trkpt>
      <trkpt lat="46.49033" lon="5.35126">
        <ele>246.8</ele>
        <time>2021-11-01T13:56:34Z</time>
      </trkpt>
      <trkpt lat="46.4901" lon="5.35174">
        <ele>247.2</ele>
        <time>2021-11-01T13:56:40Z</time>
      </trkpt>
      <trkpt lat="46.48991" lon="5.35215">
        <ele>246.8</ele>
        <time>2021-11-01T13:56:45Z</time>
      </trkpt>
      <trkpt lat="46.48975" lon="5.35251">
        <ele>246.2</ele>
        <time>2021-11-01T13:56:49Z</time>
      </trkpt>
      <trkpt lat="46.48959" lon="5.35287">
        <ele>245.8</ele>
        <time>2021-11-01T13:56:53Z</time>
      </trkpt>
      <trkpt lat="46.48948" lon="5.35314">
        <ele>245.2</ele>
        <time>2021-11-01T13:56:56Z</time>
      </trkpt>
      <trkpt lat="46.48932" lon="5.3535">
        <ele>244.8</ele>
        <time>2021-11-01T13:57:00Z</time>
      </trkpt>
      <trkpt lat="46.48905" lon="5.35409">
        <ele>244.6</ele>
        <time>2021-11-01T13:57:07Z</time>
      </trkpt>
      <trkpt lat="46.48881" lon="5.35464">
        <ele>245.6</ele>
        <time>2021-11-01T13:57:14Z</time>
      </trkpt>
      <trkpt lat="46.4885" lon="5.35536">
        <ele>246</ele>
        <time>2021-11-01T13:57:23Z</time>
      </trkpt>
      <trkpt lat="46.48821" lon="5.35604">
        <ele>246.2</ele>
        <time>2021-11-01T13:57:31Z</time>
      </trkpt>
      <trkpt lat="46.48812" lon="5.35622">
        <ele>246.2</ele>
        <time>2021-11-01T13:57:33Z</time>
      </trkpt>
      <trkpt lat="46.48791" lon="5.35674">
        <ele>246.2</ele>
        <time>2021-11-01T13:57:39Z</time>
      </trkpt>
      <trkpt lat="46.48771" lon="5.35717">
        <ele>246.2</ele>
        <time>2021-11-01T13:57:44Z</time>
      </trkpt>
      <trkpt lat="46.48759" lon="5.35743">
        <ele>246.2</ele>
        <time>2021-11-01T13:57:47Z</time>
      </trkpt>
      <trkpt lat="46.4873" lon="5.35808">
        <ele>246</ele>
        <time>2021-11-01T13:57:55Z</time>
      </trkpt>
      <trkpt lat="46.48703" lon="5.35874">
        <ele>246.8</ele>
        <time>2021-11-01T13:58:03Z</time>
      </trkpt>
      <trkpt lat="46.4869" lon="5.35912">
        <ele>247.4</ele>
        <time>2021-11-01T13:58:08Z</time>
      </trkpt>
      <trkpt lat="46.48688" lon="5.3592">
        <ele>247.4</ele>
        <time>2021-11-01T13:58:09Z</time>
      </trkpt>
      <trkpt lat="46.48686" lon="5.35928">
        <ele>247.6</ele>
        <time>2021-11-01T13:58:10Z</time>
      </trkpt>
      <trkpt lat="46.48679" lon="5.35971">
        <ele>248.6</ele>
        <time>2021-11-01T13:58:15Z</time>
      </trkpt>
      <trkpt lat="46.48677" lon="5.3599">
        <ele>249</ele>
        <time>2021-11-01T13:58:17Z</time>
      </trkpt>
      <trkpt lat="46.48666" lon="5.36048">
        <ele>249</ele>
        <time>2021-11-01T13:58:23Z</time>
      </trkpt>
      <trkpt lat="46.4865" lon="5.36125">
        <ele>247.4</ele>
        <time>2021-11-01T13:58:30Z</time>
      </trkpt>
      <trkpt lat="46.48648" lon="5.36136">
        <ele>247.2</ele>
        <time>2021-11-01T13:58:31Z</time>
      </trkpt>
      <trkpt lat="46.48643" lon="5.36168">
        <ele>247</ele>
        <time>2021-11-01T13:58:34Z</time>
      </trkpt>
      <trkpt lat="46.48641" lon="5.36199">
        <ele>247</ele>
        <time>2021-11-01T13:58:37Z</time>
      </trkpt>
      <trkpt lat="46.48633" lon="5.36274">
        <ele>247.6</ele>
        <time>2021-11-01T13:58:45Z</time>
      </trkpt>
      <trkpt lat="46.48627" lon="5.36299">
        <ele>248</ele>
        <time>2021-11-01T13:58:48Z</time>
      </trkpt>
      <trkpt lat="46.4862" lon="5.36312">
        <ele>248.2</ele>
        <time>2021-11-01T13:58:50Z</time>
      </trkpt>
      <trkpt lat="46.4862" lon="5.36312">
        <ele>248.6</ele>
        <time>2021-11-01T13:58:51Z</time>
      </trkpt>
      <trkpt lat="46.48612" lon="5.36319">
        <ele>248.6</ele>
        <time>2021-11-01T13:58:52Z</time>
      </trkpt>
      <trkpt lat="46.48602" lon="5.36321">
        <ele>249.4</ele>
        <time>2021-11-01T13:58:54Z</time>
      </trkpt>
      <trkpt lat="46.48591" lon="5.36322">
        <ele>250</ele>
        <time>2021-11-01T13:58:56Z</time>
      </trkpt>
      <trkpt lat="46.48572" lon="5.36326">
        <ele>251</ele>
        <time>2021-11-01T13:59:00Z</time>
      </trkpt>
      <trkpt lat="46.48567" lon="5.36327">
        <ele>251.4</ele>
        <time>2021-11-01T13:59:01Z</time>
      </trkpt>
      <trkpt lat="46.48551" lon="5.3633">
        <ele>252</ele>
        <time>2021-11-01T13:59:04Z</time>
      </trkpt>
      <trkpt lat="46.48529" lon="5.36332">
        <ele>253</ele>
        <time>2021-11-01T13:59:08Z</time>
      </trkpt>
      <trkpt lat="46.48524" lon="5.36333">
        <ele>253.2</ele>
        <time>2021-11-01T13:59:09Z</time>
      </trkpt>
      <trkpt lat="46.48481" lon="5.3634">
        <ele>254.2</ele>
        <time>2021-11-01T13:59:17Z</time>
      </trkpt>
      <trkpt lat="46.48469" lon="5.36342">
        <ele>254.2</ele>
        <time>2021-11-01T13:59:19Z</time>
      </trkpt>
      <trkpt lat="46.48434" lon="5.36348">
        <ele>254.4</ele>
        <time>2021-11-01T13:59:25Z</time>
      </trkpt>
      <trkpt lat="46.48406" lon="5.36362">
        <ele>254.6</ele>
        <time>2021-11-01T13:59:30Z</time>
      </trkpt>
      <trkpt lat="46.48371" lon="5.36398">
        <ele>255</ele>
        <time>2021-11-01T13:59:37Z</time>
      </trkpt>
      <trkpt lat="46.48357" lon="5.36414">
        <ele>255.4</ele>
        <time>2021-11-01T13:59:40Z</time>
      </trkpt>
      <trkpt lat="46.4833" lon="5.36444">
        <ele>256</ele>
        <time>2021-11-01T13:59:46Z</time>
      </trkpt>
      <trkpt lat="46.48317" lon="5.36458">
        <ele>256.4</ele>
        <time>2021-11-01T13:59:49Z</time>
      </trkpt>
      <trkpt lat="46.48297" lon="5.3648">
        <ele>257</ele>
        <time>2021-11-01T13:59:54Z</time>
      </trkpt>
      <trkpt lat="46.48285" lon="5.36493">
        <ele>257.4</ele>
        <time>2021-11-01T13:59:57Z</time>
      </trkpt>
      <trkpt lat="46.48265" lon="5.36516">
        <ele>258</ele>
        <time>2021-11-01T14:00:02Z</time>
      </trkpt>
      <trkpt lat="46.48254" lon="5.36528">
        <ele>258.4</ele>
        <time>2021-11-01T14:00:05Z</time>
      </trkpt>
      <trkpt lat="46.48231" lon="5.36554">
        <ele>259.6</ele>
        <time>2021-11-01T14:00:11Z</time>
      </trkpt>
      <trkpt lat="46.48227" lon="5.36556">
        <ele>259.8</ele>
        <time>2021-11-01T14:00:12Z</time>
      </trkpt>
      <trkpt lat="46.48217" lon="5.36558">
        <ele>260</ele>
        <time>2021-11-01T14:00:14Z</time>
      </trkpt>
      <trkpt lat="46.48213" lon="5.36556">
        <ele>260</ele>
        <time>2021-11-01T14:00:15Z</time>
      </trkpt>
      <trkpt lat="46.48208" lon="5.36555">
        <ele>260</ele>
        <time>2021-11-01T14:00:16Z</time>
      </trkpt>
      <trkpt lat="46.48199" lon="5.36558">
        <ele>260.4</ele>
        <time>2021-11-01T14:00:18Z</time>
      </trkpt>
      <trkpt lat="46.48195" lon="5.36561">
        <ele>260.4</ele>
        <time>2021-11-01T14:00:19Z</time>
      </trkpt>
      <trkpt lat="46.48192" lon="5.36567">
        <ele>260.6</ele>
        <time>2021-11-01T14:00:20Z</time>
      </trkpt>
      <trkpt lat="46.4819" lon="5.36573">
        <ele>260.6</ele>
        <time>2021-11-01T14:00:21Z</time>
      </trkpt>
      <trkpt lat="46.48188" lon="5.3658">
        <ele>260.8</ele>
        <time>2021-11-01T14:00:22Z</time>
      </trkpt>
      <trkpt lat="46.48185" lon="5.36594">
        <ele>261</ele>
        <time>2021-11-01T14:00:24Z</time>
      </trkpt>
      <trkpt lat="46.48179" lon="5.36606">
        <ele>261</ele>
        <time>2021-11-01T14:00:26Z</time>
      </trkpt>
      <trkpt lat="46.48162" lon="5.36625">
        <ele>261.4</ele>
        <time>2021-11-01T14:00:30Z</time>
      </trkpt>
      <trkpt lat="46.48158" lon="5.3663">
        <ele>261.4</ele>
        <time>2021-11-01T14:00:31Z</time>
      </trkpt>
      <trkpt lat="46.48155" lon="5.36635">
        <ele>261.4</ele>
        <time>2021-11-01T14:00:32Z</time>
      </trkpt>
      <trkpt lat="46.48144" lon="5.36651">
        <ele>261.8</ele>
        <time>2021-11-01T14:00:35Z</time>
      </trkpt>
      <trkpt lat="46.4814" lon="5.3665">
        <ele>261.8</ele>
        <time>2021-11-01T14:00:36Z</time>
      </trkpt>
      <trkpt lat="46.48121" lon="5.36671">
        <ele>262.4</ele>
        <time>2021-11-01T14:00:41Z</time>
      </trkpt>
      <trkpt lat="46.48107" lon="5.36691">
        <ele>262.8</ele>
        <time>2021-11-01T14:00:46Z</time>
      </trkpt>
      <trkpt lat="46.48112" lon="5.36706">
        <ele>263.2</ele>
        <time>2021-11-01T14:00:49Z</time>
      </trkpt>
      <trkpt lat="46.48127" lon="5.36719">
        <ele>264</ele>
        <time>2021-11-01T14:00:53Z</time>
      </trkpt>
      <trkpt lat="46.48142" lon="5.3673">
        <ele>264.6</ele>
        <time>2021-11-01T14:00:57Z</time>
      </trkpt>
      <trkpt lat="46.48153" lon="5.36739">
        <ele>265.2</ele>
        <time>2021-11-01T14:01:00Z</time>
      </trkpt>
      <trkpt lat="46.48163" lon="5.36748">
        <ele>266</ele>
        <time>2021-11-01T14:01:03Z</time>
      </trkpt>
      <trkpt lat="46.48167" lon="5.3675">
        <ele>266.2</ele>
        <time>2021-11-01T14:01:04Z</time>
      </trkpt>
      <trkpt lat="46.48175" lon="5.36756">
        <ele>266.8</ele>
        <time>2021-11-01T14:01:06Z</time>
      </trkpt>
      <trkpt lat="46.48185" lon="5.36766">
        <ele>267.4</ele>
        <time>2021-11-01T14:01:09Z</time>
      </trkpt>
      <trkpt lat="46.48204" lon="5.3678">
        <ele>268.4</ele>
        <time>2021-11-01T14:01:14Z</time>
      </trkpt>
      <trkpt lat="46.48211" lon="5.36786">
        <ele>269</ele>
        <time>2021-11-01T14:01:16Z</time>
      </trkpt>
      <trkpt lat="46.48222" lon="5.36795">
        <ele>269.6</ele>
        <time>2021-11-01T14:01:19Z</time>
      </trkpt>
      <trkpt lat="46.48235" lon="5.36807">
        <ele>271</ele>
        <time>2021-11-01T14:01:23Z</time>
      </trkpt>
      <trkpt lat="46.48238" lon="5.3681">
        <ele>271.2</ele>
        <time>2021-11-01T14:01:24Z</time>
      </trkpt>
      <trkpt lat="46.48254" lon="5.36824">
        <ele>272.2</ele>
        <time>2021-11-01T14:01:29Z</time>
      </trkpt>
      <trkpt lat="46.48263" lon="5.36834">
        <ele>273</ele>
        <time>2021-11-01T14:01:32Z</time>
      </trkpt>
    </trkseg>
  </trk>
</gpx>